<?xml version='1.0' encoding='UTF-8'?><gpx version="1.1" creator="JPX - https://github.com/jenetics/jpx" xmlns="http://www.topografix.com/GPX/1/1"><trk><trkseg><trkpt lat="43.8617822" lon="10.6176219"><ele>31.200000000000003</ele><time>2026-05-03T11:52:38.934Z</time></trkpt><trkpt lat="43.8617734" lon="10.6174975"><ele>30.400000000000002</ele><time>2026-05-03T11:52:40.938Z</time></trkpt><trkpt lat="43.8617608" lon="10.6173663"><ele>29.599999999999998</ele><time>2026-05-03T11:52:42.945Z</time></trkpt><trkpt lat="43.861755" lon="10.6172354"><ele>28.799999999999997</ele><time>2026-05-03T11:52:44.946Z</time></trkpt><trkpt lat="43.8616315" lon="10.6172036"><ele>28.0</ele><time>2026-05-03T11:52:52.952Z</time></trkpt><trkpt lat="43.8615503" lon="10.617213"><ele>28.000000000000004</ele><time>2026-05-03T11:52:53.95Z</time></trkpt><trkpt lat="43.8614662" lon="10.6172145"><ele>28.0</ele><time>2026-05-03T11:52:54.951Z</time></trkpt><trkpt lat="43.8613859" lon="10.617216"><ele>28.0</ele><time>2026-05-03T11:52:55.942Z</time></trkpt><trkpt lat="43.8613042" lon="10.6172114"><ele>28.0</ele><time>2026-05-03T11:52:56.946Z</time></trkpt><trkpt lat="43.8612211" lon="10.6172036"><ele>28.000000000000004</ele><time>2026-05-03T11:52:57.945Z</time></trkpt><trkpt lat="43.8611413" lon="10.6171924"><ele>28.0</ele><time>2026-05-03T11:52:58.945Z</time></trkpt><trkpt lat="43.861059" lon="10.6171777"><ele>28.000000000000004</ele><time>2026-05-03T11:52:59.95Z</time></trkpt><trkpt lat="43.8609783" lon="10.6171615"><ele>28.0</ele><time>2026-05-03T11:53:00.95Z</time></trkpt><trkpt lat="43.8609062" lon="10.6171492"><ele>28.0</ele><time>2026-05-03T11:53:01.962Z</time></trkpt><trkpt lat="43.8608319" lon="10.6171395"><ele>28.0</ele><time>2026-05-03T11:53:02.952Z</time></trkpt><trkpt lat="43.8607577" lon="10.6171035"><ele>28.000000000000004</ele><time>2026-05-03T11:53:03.951Z</time></trkpt><trkpt lat="43.8606868" lon="10.6170608"><ele>28.0</ele><time>2026-05-03T11:53:04.952Z</time></trkpt><trkpt lat="43.8606215" lon="10.6170174"><ele>27.833333333333336</ele><time>2026-05-03T11:53:05.949Z</time></trkpt><trkpt lat="43.8605422" lon="10.6169805"><ele>27.666666666666668</ele><time>2026-05-03T11:53:07.941Z</time></trkpt><trkpt lat="43.8604794" lon="10.6169503"><ele>27.5</ele><time>2026-05-03T11:53:29.955Z</time></trkpt><trkpt lat="43.8604148" lon="10.6169547"><ele>27.333333333333336</ele><time>2026-05-03T11:53:31.964Z</time></trkpt><trkpt lat="43.8604104" lon="10.6170621"><ele>27.166666666666668</ele><time>2026-05-03T11:53:32.963Z</time></trkpt><trkpt lat="43.8604363" lon="10.6172455"><ele>27.0</ele><time>2026-05-03T11:53:33.946Z</time></trkpt><trkpt lat="43.8604673" lon="10.6174389"><ele>26.75</ele><time>2026-05-03T11:53:34.94Z</time></trkpt><trkpt lat="43.8604965" lon="10.6176073"><ele>26.5</ele><time>2026-05-03T11:53:35.939Z</time></trkpt><trkpt lat="43.8605289" lon="10.6177707"><ele>26.25</ele><time>2026-05-03T11:53:36.942Z</time></trkpt><trkpt lat="43.8605661" lon="10.6179366"><ele>26.0</ele><time>2026-05-03T11:53:37.95Z</time></trkpt><trkpt lat="43.8606025" lon="10.6181096"><ele>25.5</ele><time>2026-05-03T11:53:38.958Z</time></trkpt><trkpt lat="43.8606391" lon="10.6182863"><ele>25.0</ele><time>2026-05-03T11:53:39.969Z</time></trkpt><trkpt lat="43.8606771" lon="10.618448"><ele>24.5</ele><time>2026-05-03T11:53:40.966Z</time></trkpt><trkpt lat="43.8607154" lon="10.6186138"><ele>24.0</ele><time>2026-05-03T11:53:41.968Z</time></trkpt><trkpt lat="43.8607541" lon="10.6187861"><ele>24.0</ele><time>2026-05-03T11:53:42.965Z</time></trkpt><trkpt lat="43.8607932" lon="10.6189605"><ele>24.0</ele><time>2026-05-03T11:53:43.969Z</time></trkpt><trkpt lat="43.8608336" lon="10.6191335"><ele>24.0</ele><time>2026-05-03T11:53:44.969Z</time></trkpt><trkpt lat="43.8608727" lon="10.6193124"><ele>24.0</ele><time>2026-05-03T11:53:45.972Z</time></trkpt><trkpt lat="43.8609108" lon="10.6194955"><ele>24.0</ele><time>2026-05-03T11:53:46.976Z</time></trkpt><trkpt lat="43.8609535" lon="10.6196804"><ele>24.0</ele><time>2026-05-03T11:53:47.973Z</time></trkpt><trkpt lat="43.8609841" lon="10.6198561"><ele>24.0</ele><time>2026-05-03T11:53:48.976Z</time></trkpt><trkpt lat="43.8610191" lon="10.6200337"><ele>24.0</ele><time>2026-05-03T11:53:49.979Z</time></trkpt><trkpt lat="43.8610516" lon="10.6202073"><ele>24.25</ele><time>2026-05-03T11:53:50.972Z</time></trkpt><trkpt lat="43.8610859" lon="10.6203708"><ele>24.5</ele><time>2026-05-03T11:53:51.969Z</time></trkpt><trkpt lat="43.861126" lon="10.6205381"><ele>24.75</ele><time>2026-05-03T11:53:52.967Z</time></trkpt><trkpt lat="43.861159" lon="10.6206995"><ele>25.0</ele><time>2026-05-03T11:53:53.968Z</time></trkpt><trkpt lat="43.8611903" lon="10.62084"><ele>25.000000000000004</ele><time>2026-05-03T11:53:54.968Z</time></trkpt><trkpt lat="43.8612184" lon="10.6209613"><ele>25.0</ele><time>2026-05-03T11:53:55.955Z</time></trkpt><trkpt lat="43.8612413" lon="10.6210531"><ele>25.0</ele><time>2026-05-03T11:53:56.955Z</time></trkpt><trkpt lat="43.8612688" lon="10.6211537"><ele>25.0</ele><time>2026-05-03T11:53:58.955Z</time></trkpt><trkpt lat="43.8613254" lon="10.6211955"><ele>25.000000000000004</ele><time>2026-05-03T11:54:01.978Z</time></trkpt><trkpt lat="43.8613925" lon="10.6211714"><ele>25.0</ele><time>2026-05-03T11:54:03.966Z</time></trkpt><trkpt lat="43.8614896" lon="10.6211817"><ele>25.0</ele><time>2026-05-03T11:54:05.964Z</time></trkpt><trkpt lat="43.8615584" lon="10.6212473"><ele>25.0</ele><time>2026-05-03T11:54:06.96Z</time></trkpt><trkpt lat="43.8616413" lon="10.621339"><ele>25.0</ele><time>2026-05-03T11:54:07.96Z</time></trkpt><trkpt lat="43.8617339" lon="10.621425"><ele>25.0</ele><time>2026-05-03T11:54:08.953Z</time></trkpt><trkpt lat="43.8618381" lon="10.6215078"><ele>25.0</ele><time>2026-05-03T11:54:09.952Z</time></trkpt><trkpt lat="43.861939" lon="10.6215897"><ele>25.2</ele><time>2026-05-03T11:54:10.975Z</time></trkpt><trkpt lat="43.8620356" lon="10.6216719"><ele>25.4</ele><time>2026-05-03T11:54:11.961Z</time></trkpt><trkpt lat="43.8621307" lon="10.6217565"><ele>25.6</ele><time>2026-05-03T11:54:12.961Z</time></trkpt><trkpt lat="43.8622165" lon="10.6218395"><ele>25.8</ele><time>2026-05-03T11:54:13.961Z</time></trkpt><trkpt lat="43.8622964" lon="10.6219112"><ele>26.0</ele><time>2026-05-03T11:54:14.964Z</time></trkpt><trkpt lat="43.8623761" lon="10.6219814"><ele>26.200000000000003</ele><time>2026-05-03T11:54:15.965Z</time></trkpt><trkpt lat="43.8624567" lon="10.6220531"><ele>26.400000000000002</ele><time>2026-05-03T11:54:16.967Z</time></trkpt><trkpt lat="43.8625373" lon="10.6221315"><ele>26.6</ele><time>2026-05-03T11:54:17.979Z</time></trkpt><trkpt lat="43.8626234" lon="10.6222021"><ele>26.8</ele><time>2026-05-03T11:54:18.972Z</time></trkpt><trkpt lat="43.8627115" lon="10.6222703"><ele>27.0</ele><time>2026-05-03T11:54:19.974Z</time></trkpt><trkpt lat="43.8627953" lon="10.6223202"><ele>27.666666666666668</ele><time>2026-05-03T11:54:20.958Z</time></trkpt><trkpt lat="43.8628765" lon="10.6223465"><ele>28.333333333333336</ele><time>2026-05-03T11:54:21.955Z</time></trkpt><trkpt lat="43.8629602" lon="10.6223544"><ele>29.0</ele><time>2026-05-03T11:54:22.962Z</time></trkpt><trkpt lat="43.8630439" lon="10.6223481"><ele>29.666666666666668</ele><time>2026-05-03T11:54:23.956Z</time></trkpt><trkpt lat="43.8631196" lon="10.6223561"><ele>30.333333333333336</ele><time>2026-05-03T11:54:24.962Z</time></trkpt><trkpt lat="43.863191" lon="10.6223709"><ele>31.0</ele><time>2026-05-03T11:54:25.967Z</time></trkpt><trkpt lat="43.8632623" lon="10.6223798"><ele>31.000000000000004</ele><time>2026-05-03T11:54:26.967Z</time></trkpt><trkpt lat="43.863336" lon="10.6223921"><ele>31.0</ele><time>2026-05-03T11:54:27.962Z</time></trkpt><trkpt lat="43.8634045" lon="10.622432"><ele>31.0</ele><time>2026-05-03T11:54:28.962Z</time></trkpt><trkpt lat="43.8634798" lon="10.6224949"><ele>31.0</ele><time>2026-05-03T11:54:29.968Z</time></trkpt><trkpt lat="43.8635558" lon="10.6225663"><ele>31.000000000000004</ele><time>2026-05-03T11:54:30.971Z</time></trkpt><trkpt lat="43.8636337" lon="10.6226317"><ele>31.0</ele><time>2026-05-03T11:54:31.975Z</time></trkpt><trkpt lat="43.8637105" lon="10.6227024"><ele>31.8</ele><time>2026-05-03T11:54:32.977Z</time></trkpt><trkpt lat="43.8637798" lon="10.6227837"><ele>32.6</ele><time>2026-05-03T11:54:33.972Z</time></trkpt><trkpt lat="43.8638575" lon="10.6228652"><ele>33.4</ele><time>2026-05-03T11:54:34.984Z</time></trkpt><trkpt lat="43.8639417" lon="10.6229477"><ele>34.2</ele><time>2026-05-03T11:54:35.981Z</time></trkpt><trkpt lat="43.8640265" lon="10.6230309"><ele>35.0</ele><time>2026-05-03T11:54:36.978Z</time></trkpt><trkpt lat="43.8641078" lon="10.6231144"><ele>35.8</ele><time>2026-05-03T11:54:37.986Z</time></trkpt><trkpt lat="43.8641822" lon="10.6231925"><ele>36.6</ele><time>2026-05-03T11:54:38.989Z</time></trkpt><trkpt lat="43.8642544" lon="10.6232647"><ele>37.4</ele><time>2026-05-03T11:54:39.986Z</time></trkpt><trkpt lat="43.8643284" lon="10.6233299"><ele>38.2</ele><time>2026-05-03T11:54:40.975Z</time></trkpt><trkpt lat="43.8643873" lon="10.6233903"><ele>39.0</ele><time>2026-05-03T11:54:41.999Z</time></trkpt><trkpt lat="43.8644697" lon="10.6235041"><ele>39.333333333333336</ele><time>2026-05-03T11:54:43.978Z</time></trkpt><trkpt lat="43.8645343" lon="10.6235989"><ele>39.666666666666664</ele><time>2026-05-03T11:54:45.984Z</time></trkpt><trkpt lat="43.8646363" lon="10.6236911"><ele>40.0</ele><time>2026-05-03T11:54:47.98Z</time></trkpt><trkpt lat="43.8647026" lon="10.6237447"><ele>40.33333333333333</ele><time>2026-05-03T11:54:48.986Z</time></trkpt><trkpt lat="43.8647657" lon="10.6237925"><ele>40.666666666666664</ele><time>2026-05-03T11:54:49.985Z</time></trkpt><trkpt lat="43.8648201" lon="10.623842"><ele>41.0</ele><time>2026-05-03T11:54:50.974Z</time></trkpt><trkpt lat="43.8648867" lon="10.6238832"><ele>41.199999999999996</ele><time>2026-05-03T11:54:51.981Z</time></trkpt><trkpt lat="43.8649639" lon="10.6239167"><ele>41.4</ele><time>2026-05-03T11:54:52.978Z</time></trkpt><trkpt lat="43.8650551" lon="10.6239449"><ele>41.6</ele><time>2026-05-03T11:54:53.98Z</time></trkpt><trkpt lat="43.8651504" lon="10.6239673"><ele>41.8</ele><time>2026-05-03T11:54:54.984Z</time></trkpt><trkpt lat="43.8652455" lon="10.623993"><ele>42.0</ele><time>2026-05-03T11:54:55.977Z</time></trkpt><trkpt lat="43.8653337" lon="10.6240148"><ele>43.166666666666664</ele><time>2026-05-03T11:54:56.979Z</time></trkpt><trkpt lat="43.8654212" lon="10.6240387"><ele>44.33333333333333</ele><time>2026-05-03T11:54:57.98Z</time></trkpt><trkpt lat="43.8655057" lon="10.6240664"><ele>45.5</ele><time>2026-05-03T11:54:58.972Z</time></trkpt><trkpt lat="43.8655781" lon="10.6241095"><ele>46.666666666666664</ele><time>2026-05-03T11:54:59.993Z</time></trkpt><trkpt lat="43.8656545" lon="10.6241665"><ele>47.83333333333333</ele><time>2026-05-03T11:55:00.985Z</time></trkpt><trkpt lat="43.8657274" lon="10.6242277"><ele>49.0</ele><time>2026-05-03T11:55:01.986Z</time></trkpt><trkpt lat="43.8657814" lon="10.6242808"><ele>49.0</ele><time>2026-05-03T11:55:02.98Z</time></trkpt><trkpt lat="43.8658599" lon="10.6243294"><ele>49.0</ele><time>2026-05-03T11:55:04.976Z</time></trkpt><trkpt lat="43.865912" lon="10.6244196"><ele>49.0</ele><time>2026-05-03T11:55:06.977Z</time></trkpt><trkpt lat="43.8659341" lon="10.624518"><ele>49.0</ele><time>2026-05-03T11:55:07.978Z</time></trkpt><trkpt lat="43.8659562" lon="10.6246462"><ele>49.0</ele><time>2026-05-03T11:55:08.973Z</time></trkpt><trkpt lat="43.8659824" lon="10.6247989"><ele>48.5</ele><time>2026-05-03T11:55:09.981Z</time></trkpt><trkpt lat="43.8660066" lon="10.6249609"><ele>48.0</ele><time>2026-05-03T11:55:10.984Z</time></trkpt><trkpt lat="43.8660344" lon="10.6251287"><ele>47.5</ele><time>2026-05-03T11:55:11.978Z</time></trkpt><trkpt lat="43.8660695" lon="10.6253087"><ele>47.0</ele><time>2026-05-03T11:55:12.989Z</time></trkpt><trkpt lat="43.8661066" lon="10.6254969"><ele>48.25</ele><time>2026-05-03T11:55:13.984Z</time></trkpt><trkpt lat="43.8661416" lon="10.6256835"><ele>49.5</ele><time>2026-05-03T11:55:14.981Z</time></trkpt><trkpt lat="43.8661787" lon="10.6258626"><ele>50.75</ele><time>2026-05-03T11:55:15.98Z</time></trkpt><trkpt lat="43.8662152" lon="10.6260473"><ele>52.0</ele><time>2026-05-03T11:55:16.987Z</time></trkpt><trkpt lat="43.8662634" lon="10.6262453"><ele>52.0</ele><time>2026-05-03T11:55:17.987Z</time></trkpt><trkpt lat="43.8662955" lon="10.6264426"><ele>52.0</ele><time>2026-05-03T11:55:18.984Z</time></trkpt><trkpt lat="43.8663275" lon="10.6266413"><ele>52.0</ele><time>2026-05-03T11:55:19.982Z</time></trkpt><trkpt lat="43.8663596" lon="10.6268483"><ele>52.0</ele><time>2026-05-03T11:55:20.987Z</time></trkpt><trkpt lat="43.8663937" lon="10.6270617"><ele>52.0</ele><time>2026-05-03T11:55:21.981Z</time></trkpt><trkpt lat="43.8664265" lon="10.6272793"><ele>52.0</ele><time>2026-05-03T11:55:22.993Z</time></trkpt><trkpt lat="43.8664661" lon="10.6274937"><ele>52.0</ele><time>2026-05-03T11:55:23.975Z</time></trkpt><trkpt lat="43.8665035" lon="10.627701"><ele>52.0</ele><time>2026-05-03T11:55:24.988Z</time></trkpt><trkpt lat="43.8665405" lon="10.6279049"><ele>52.0</ele><time>2026-05-03T11:55:25.989Z</time></trkpt><trkpt lat="43.8665887" lon="10.6281198"><ele>52.0</ele><time>2026-05-03T11:55:26.981Z</time></trkpt><trkpt lat="43.8666222" lon="10.6283323"><ele>52.0</ele><time>2026-05-03T11:55:27.993Z</time></trkpt><trkpt lat="43.8666655" lon="10.6285476"><ele>52.0</ele><time>2026-05-03T11:55:28.989Z</time></trkpt><trkpt lat="43.866705" lon="10.6287608"><ele>52.0</ele><time>2026-05-03T11:55:29.993Z</time></trkpt><trkpt lat="43.8667425" lon="10.6289765"><ele>53.666666666666664</ele><time>2026-05-03T11:55:30.991Z</time></trkpt><trkpt lat="43.8667791" lon="10.6291902"><ele>55.33333333333333</ele><time>2026-05-03T11:55:31.993Z</time></trkpt><trkpt lat="43.8668212" lon="10.6294021"><ele>57.0</ele><time>2026-05-03T11:55:32.983Z</time></trkpt><trkpt lat="43.8668618" lon="10.6296098"><ele>59.5</ele><time>2026-05-03T11:55:33.982Z</time></trkpt><trkpt lat="43.8668882" lon="10.6298093"><ele>62.0</ele><time>2026-05-03T11:55:34.987Z</time></trkpt><trkpt lat="43.8669183" lon="10.6300153"><ele>64.5</ele><time>2026-05-03T11:55:35.985Z</time></trkpt><trkpt lat="43.8669508" lon="10.6302125"><ele>67.0</ele><time>2026-05-03T11:55:36.99Z</time></trkpt><trkpt lat="43.8669951" lon="10.6304084"><ele>68.5</ele><time>2026-05-03T11:55:37.992Z</time></trkpt><trkpt lat="43.8670241" lon="10.6305922"><ele>70.0</ele><time>2026-05-03T11:55:38.991Z</time></trkpt><trkpt lat="43.8670584" lon="10.630766"><ele>71.5</ele><time>2026-05-03T11:55:39.995Z</time></trkpt><trkpt lat="43.8670955" lon="10.6309212"><ele>73.0</ele><time>2026-05-03T11:55:40.986Z</time></trkpt><trkpt lat="43.867114" lon="10.6310545"><ele>72.4</ele><time>2026-05-03T11:55:41.979Z</time></trkpt><trkpt lat="43.8671263" lon="10.6311624"><ele>71.8</ele><time>2026-05-03T11:55:42.986Z</time></trkpt><trkpt lat="43.867147" lon="10.6313189"><ele>71.2</ele><time>2026-05-03T11:55:44.978Z</time></trkpt><trkpt lat="43.867165" lon="10.6314209"><ele>70.6</ele><time>2026-05-03T11:55:46.982Z</time></trkpt><trkpt lat="43.8671936" lon="10.6316042"><ele>70.0</ele><time>2026-05-03T11:55:48.981Z</time></trkpt><trkpt lat="43.8672109" lon="10.6317416"><ele>70.0</ele><time>2026-05-03T11:55:49.974Z</time></trkpt><trkpt lat="43.867234" lon="10.6318926"><ele>70.0</ele><time>2026-05-03T11:55:50.979Z</time></trkpt><trkpt lat="43.867258" lon="10.6320568"><ele>70.0</ele><time>2026-05-03T11:55:51.979Z</time></trkpt><trkpt lat="43.8672898" lon="10.6322288"><ele>70.0</ele><time>2026-05-03T11:55:52.98Z</time></trkpt><trkpt lat="43.867322" lon="10.6324001"><ele>68.75</ele><time>2026-05-03T11:55:53.974Z</time></trkpt><trkpt lat="43.8673574" lon="10.632586"><ele>67.5</ele><time>2026-05-03T11:55:54.98Z</time></trkpt><trkpt lat="43.8673923" lon="10.6327762"><ele>66.25</ele><time>2026-05-03T11:55:55.981Z</time></trkpt><trkpt lat="43.8674327" lon="10.6329742"><ele>65.0</ele><time>2026-05-03T11:55:56.977Z</time></trkpt><trkpt lat="43.867466" lon="10.6331686"><ele>63.5</ele><time>2026-05-03T11:55:57.971Z</time></trkpt><trkpt lat="43.8674976" lon="10.6333622"><ele>62.0</ele><time>2026-05-03T11:55:58.977Z</time></trkpt><trkpt lat="43.8675271" lon="10.6335448"><ele>60.5</ele><time>2026-05-03T11:55:59.976Z</time></trkpt><trkpt lat="43.8675534" lon="10.6337416"><ele>59.0</ele><time>2026-05-03T11:56:00.973Z</time></trkpt><trkpt lat="43.8675914" lon="10.6339379"><ele>58.75</ele><time>2026-05-03T11:56:01.964Z</time></trkpt><trkpt lat="43.8676109" lon="10.6341226"><ele>58.5</ele><time>2026-05-03T11:56:02.964Z</time></trkpt><trkpt lat="43.8676483" lon="10.6343053"><ele>58.25</ele><time>2026-05-03T11:56:03.973Z</time></trkpt><trkpt lat="43.8676849" lon="10.6345069"><ele>58.0</ele><time>2026-05-03T11:56:04.977Z</time></trkpt><trkpt lat="43.8677233" lon="10.6346925"><ele>58.0</ele><time>2026-05-03T11:56:05.976Z</time></trkpt><trkpt lat="43.8677333" lon="10.6348671"><ele>58.0</ele><time>2026-05-03T11:56:06.977Z</time></trkpt><trkpt lat="43.8677698" lon="10.6350635"><ele>58.0</ele><time>2026-05-03T11:56:07.972Z</time></trkpt><trkpt lat="43.8677945" lon="10.6352414"><ele>58.0</ele><time>2026-05-03T11:56:08.978Z</time></trkpt><trkpt lat="43.8678123" lon="10.6353985"><ele>57.0</ele><time>2026-05-03T11:56:09.982Z</time></trkpt><trkpt lat="43.8678404" lon="10.6355475"><ele>56.0</ele><time>2026-05-03T11:56:10.972Z</time></trkpt><trkpt lat="43.8678617" lon="10.6357016"><ele>55.0</ele><time>2026-05-03T11:56:11.985Z</time></trkpt><trkpt lat="43.8678784" lon="10.6358454"><ele>54.0</ele><time>2026-05-03T11:56:12.98Z</time></trkpt><trkpt lat="43.8678981" lon="10.6359863"><ele>53.0</ele><time>2026-05-03T11:56:13.975Z</time></trkpt><trkpt lat="43.8679298" lon="10.6361223"><ele>52.16666666666667</ele><time>2026-05-03T11:56:14.997Z</time></trkpt><trkpt lat="43.8679541" lon="10.636256"><ele>51.333333333333336</ele><time>2026-05-03T11:56:15.964Z</time></trkpt><trkpt lat="43.8679761" lon="10.6363819"><ele>50.5</ele><time>2026-05-03T11:56:16.969Z</time></trkpt><trkpt lat="43.8679896" lon="10.6364885"><ele>49.66666666666667</ele><time>2026-05-03T11:56:17.967Z</time></trkpt><trkpt lat="43.8680214" lon="10.6365787"><ele>48.833333333333336</ele><time>2026-05-03T11:56:18.97Z</time></trkpt><trkpt lat="43.8680511" lon="10.6366773"><ele>48.0</ele><time>2026-05-03T11:56:20.962Z</time></trkpt><trkpt lat="43.8679604" lon="10.6366851"><ele>48.0</ele><time>2026-05-03T11:56:29.947Z</time></trkpt><trkpt lat="43.8678952" lon="10.6366515"><ele>48.0</ele><time>2026-05-03T11:56:30.966Z</time></trkpt><trkpt lat="43.8678131" lon="10.6366318"><ele>48.0</ele><time>2026-05-03T11:56:31.956Z</time></trkpt><trkpt lat="43.8677392" lon="10.6366004"><ele>48.0</ele><time>2026-05-03T11:56:32.954Z</time></trkpt><trkpt lat="43.8676709" lon="10.6365657"><ele>48.0</ele><time>2026-05-03T11:56:33.951Z</time></trkpt><trkpt lat="43.867601" lon="10.6364779"><ele>48.0</ele><time>2026-05-03T11:56:35.953Z</time></trkpt><trkpt lat="43.8675308" lon="10.636443"><ele>48.0</ele><time>2026-05-03T11:58:29.975Z</time></trkpt><trkpt lat="43.8674659" lon="10.6364473"><ele>48.0</ele><time>2026-05-03T11:58:31.968Z</time></trkpt><trkpt lat="43.867474" lon="10.6365401"><ele>48.0</ele><time>2026-05-03T11:58:35.984Z</time></trkpt><trkpt lat="43.8676175" lon="10.6366065"><ele>48.0</ele><time>2026-05-03T11:58:37.983Z</time></trkpt><trkpt lat="43.8677349" lon="10.6366488"><ele>48.0</ele><time>2026-05-03T11:58:38.989Z</time></trkpt><trkpt lat="43.8678437" lon="10.6366974"><ele>48.0</ele><time>2026-05-03T11:58:39.992Z</time></trkpt><trkpt lat="43.8679548" lon="10.6367406"><ele>48.0</ele><time>2026-05-03T11:58:40.984Z</time></trkpt><trkpt lat="43.8680786" lon="10.6367926"><ele>48.0</ele><time>2026-05-03T11:58:41.994Z</time></trkpt><trkpt lat="43.8682059" lon="10.6368506"><ele>48.0</ele><time>2026-05-03T11:58:42.997Z</time></trkpt><trkpt lat="43.8683338" lon="10.6369029"><ele>48.5</ele><time>2026-05-03T11:58:44Z</time></trkpt><trkpt lat="43.8684723" lon="10.6369526"><ele>49.0</ele><time>2026-05-03T11:58:44.997Z</time></trkpt><trkpt lat="43.8686089" lon="10.6369983"><ele>49.5</ele><time>2026-05-03T11:58:46.001Z</time></trkpt><trkpt lat="43.868737" lon="10.6370501"><ele>50.0</ele><time>2026-05-03T11:58:46.999Z</time></trkpt><trkpt lat="43.8688654" lon="10.6370896"><ele>50.25</ele><time>2026-05-03T11:58:48.004Z</time></trkpt><trkpt lat="43.8689954" lon="10.6371399"><ele>50.5</ele><time>2026-05-03T11:58:49.018Z</time></trkpt><trkpt lat="43.8691272" lon="10.6371879"><ele>50.75</ele><time>2026-05-03T11:58:50.001Z</time></trkpt><trkpt lat="43.8692647" lon="10.6372424"><ele>51.0</ele><time>2026-05-03T11:58:51.003Z</time></trkpt><trkpt lat="43.869405" lon="10.6372831"><ele>51.0</ele><time>2026-05-03T11:58:52.003Z</time></trkpt><trkpt lat="43.8695298" lon="10.63733"><ele>51.0</ele><time>2026-05-03T11:58:52.997Z</time></trkpt><trkpt lat="43.8696759" lon="10.6373848"><ele>51.0</ele><time>2026-05-03T11:58:53.994Z</time></trkpt><trkpt lat="43.8698075" lon="10.6374374"><ele>51.0</ele><time>2026-05-03T11:58:54.999Z</time></trkpt><trkpt lat="43.8699314" lon="10.6374852"><ele>51.0</ele><time>2026-05-03T11:58:55.997Z</time></trkpt><trkpt lat="43.8700686" lon="10.6375341"><ele>51.0</ele><time>2026-05-03T11:58:56.997Z</time></trkpt><trkpt lat="43.8701773" lon="10.6375875"><ele>51.0</ele><time>2026-05-03T11:58:57.985Z</time></trkpt><trkpt lat="43.8702887" lon="10.6376269"><ele>51.0</ele><time>2026-05-03T11:58:58.976Z</time></trkpt><trkpt lat="43.8703953" lon="10.6376535"><ele>51.666666666666664</ele><time>2026-05-03T11:58:59.971Z</time></trkpt><trkpt lat="43.8704698" lon="10.6376746"><ele>52.33333333333333</ele><time>2026-05-03T11:59:00.971Z</time></trkpt><trkpt lat="43.8705488" lon="10.6376971"><ele>53.0</ele><time>2026-05-03T11:59:01.967Z</time></trkpt><trkpt lat="43.8706114" lon="10.6377152"><ele>53.666666666666664</ele><time>2026-05-03T11:59:02.962Z</time></trkpt><trkpt lat="43.8706856" lon="10.6377516"><ele>54.33333333333333</ele><time>2026-05-03T11:59:03.962Z</time></trkpt><trkpt lat="43.8707592" lon="10.6377731"><ele>55.0</ele><time>2026-05-03T11:59:04.963Z</time></trkpt><trkpt lat="43.8708378" lon="10.637796"><ele>54.49999999999999</ele><time>2026-05-03T11:59:05.964Z</time></trkpt><trkpt lat="43.8709106" lon="10.6378241"><ele>54.0</ele><time>2026-05-03T11:59:06.96Z</time></trkpt><trkpt lat="43.8710146" lon="10.6378529"><ele>53.5</ele><time>2026-05-03T11:59:08.957Z</time></trkpt><trkpt lat="43.8710814" lon="10.6378299"><ele>53.0</ele><time>2026-05-03T11:59:16.968Z</time></trkpt><trkpt lat="43.8711491" lon="10.6378223"><ele>52.49999999999999</ele><time>2026-05-03T11:59:18.978Z</time></trkpt><trkpt lat="43.8712127" lon="10.6378737"><ele>52.0</ele><time>2026-05-03T11:59:21.991Z</time></trkpt><trkpt lat="43.8712814" lon="10.6379103"><ele>51.99999999999999</ele><time>2026-05-03T11:59:23.996Z</time></trkpt><trkpt lat="43.8713194" lon="10.6378076"><ele>52.0</ele><time>2026-05-03T11:59:26.977Z</time></trkpt><trkpt lat="43.8713248" lon="10.6376997"><ele>52.0</ele><time>2026-05-03T11:59:27.966Z</time></trkpt><trkpt lat="43.8713241" lon="10.6375919"><ele>52.0</ele><time>2026-05-03T11:59:28.964Z</time></trkpt><trkpt lat="43.8713245" lon="10.6374876"><ele>51.99999999999999</ele><time>2026-05-03T11:59:29.966Z</time></trkpt><trkpt lat="43.8713279" lon="10.6373828"><ele>52.0</ele><time>2026-05-03T11:59:30.963Z</time></trkpt><trkpt lat="43.8713271" lon="10.6372542"><ele>52.400000000000006</ele><time>2026-05-03T11:59:31.964Z</time></trkpt><trkpt lat="43.8713455" lon="10.6371263"><ele>52.800000000000004</ele><time>2026-05-03T11:59:32.975Z</time></trkpt><trkpt lat="43.8713653" lon="10.6369993"><ele>53.2</ele><time>2026-05-03T11:59:33.971Z</time></trkpt><trkpt lat="43.8713859" lon="10.6368752"><ele>53.6</ele><time>2026-05-03T11:59:34.971Z</time></trkpt><trkpt lat="43.8714086" lon="10.6367553"><ele>54.0</ele><time>2026-05-03T11:59:35.974Z</time></trkpt><trkpt lat="43.8714372" lon="10.6366283"><ele>54.6</ele><time>2026-05-03T11:59:36.969Z</time></trkpt><trkpt lat="43.8714655" lon="10.636489"><ele>55.2</ele><time>2026-05-03T11:59:37.965Z</time></trkpt><trkpt lat="43.8714917" lon="10.6363577"><ele>55.800000000000004</ele><time>2026-05-03T11:59:38.961Z</time></trkpt><trkpt lat="43.8715304" lon="10.6362362"><ele>56.400000000000006</ele><time>2026-05-03T11:59:39.957Z</time></trkpt><trkpt lat="43.8715599" lon="10.6361145"><ele>57.0</ele><time>2026-05-03T11:59:40.962Z</time></trkpt><trkpt lat="43.8715921" lon="10.635992"><ele>58.166666666666664</ele><time>2026-05-03T11:59:41.951Z</time></trkpt><trkpt lat="43.8716265" lon="10.635888"><ele>59.33333333333333</ele><time>2026-05-03T11:59:42.953Z</time></trkpt><trkpt lat="43.87166" lon="10.6357794"><ele>60.5</ele><time>2026-05-03T11:59:43.956Z</time></trkpt><trkpt lat="43.8716898" lon="10.6356715"><ele>61.666666666666664</ele><time>2026-05-03T11:59:44.965Z</time></trkpt><trkpt lat="43.8717161" lon="10.6355625"><ele>62.83333333333333</ele><time>2026-05-03T11:59:45.969Z</time></trkpt><trkpt lat="43.8717346" lon="10.635469"><ele>64.0</ele><time>2026-05-03T11:59:46.967Z</time></trkpt><trkpt lat="43.8718027" lon="10.6353121"><ele>65.60000000000001</ele><time>2026-05-03T11:59:48.971Z</time></trkpt><trkpt lat="43.871859" lon="10.6352402"><ele>67.2</ele><time>2026-05-03T11:59:49.977Z</time></trkpt><trkpt lat="43.8719266" lon="10.6351679"><ele>68.80000000000001</ele><time>2026-05-03T11:59:50.998Z</time></trkpt><trkpt lat="43.8719869" lon="10.6351051"><ele>70.4</ele><time>2026-05-03T11:59:51.982Z</time></trkpt><trkpt lat="43.8720838" lon="10.6350122"><ele>72.0</ele><time>2026-05-03T11:59:53.985Z</time></trkpt><trkpt lat="43.8721859" lon="10.6349714"><ele>72.0</ele><time>2026-05-03T11:59:55.974Z</time></trkpt><trkpt lat="43.8722572" lon="10.6349581"><ele>72.0</ele><time>2026-05-03T11:59:56.973Z</time></trkpt><trkpt lat="43.872334" lon="10.6349566"><ele>72.0</ele><time>2026-05-03T11:59:57.983Z</time></trkpt><trkpt lat="43.8724025" lon="10.6349527"><ele>72.0</ele><time>2026-05-03T11:59:58.969Z</time></trkpt><trkpt lat="43.8725331" lon="10.6349608"><ele>72.0</ele><time>2026-05-03T12:00:00.971Z</time></trkpt><trkpt lat="43.8725931" lon="10.6349983"><ele>72.0</ele><time>2026-05-03T12:00:01.972Z</time></trkpt><trkpt lat="43.8726632" lon="10.6350335"><ele>73.6</ele><time>2026-05-03T12:00:02.969Z</time></trkpt><trkpt lat="43.8727954" lon="10.6350832"><ele>75.2</ele><time>2026-05-03T12:00:04.973Z</time></trkpt><trkpt lat="43.8728691" lon="10.635109"><ele>76.8</ele><time>2026-05-03T12:00:05.981Z</time></trkpt><trkpt lat="43.8729609" lon="10.6351306"><ele>78.4</ele><time>2026-05-03T12:00:06.988Z</time></trkpt><trkpt lat="43.8730403" lon="10.6351487"><ele>80.0</ele><time>2026-05-03T12:00:07.983Z</time></trkpt><trkpt lat="43.8731432" lon="10.6351186"><ele>80.0</ele><time>2026-05-03T12:00:09.992Z</time></trkpt><trkpt lat="43.8731769" lon="10.6350057"><ele>80.0</ele><time>2026-05-03T12:00:11.976Z</time></trkpt><trkpt lat="43.8731757" lon="10.6349019"><ele>80.0</ele><time>2026-05-03T12:00:12.966Z</time></trkpt><trkpt lat="43.8731904" lon="10.6347886"><ele>80.0</ele><time>2026-05-03T12:00:13.97Z</time></trkpt><trkpt lat="43.8731986" lon="10.6346759"><ele>80.0</ele><time>2026-05-03T12:00:14.962Z</time></trkpt><trkpt lat="43.8732068" lon="10.6345851"><ele>80.0</ele><time>2026-05-03T12:00:15.96Z</time></trkpt><trkpt lat="43.8732037" lon="10.634449"><ele>80.4</ele><time>2026-05-03T12:00:17.945Z</time></trkpt><trkpt lat="43.8731874" lon="10.6343217"><ele>80.8</ele><time>2026-05-03T12:00:19.943Z</time></trkpt><trkpt lat="43.8732302" lon="10.6342243"><ele>81.19999999999999</ele><time>2026-05-03T12:00:21.953Z</time></trkpt><trkpt lat="43.8733033" lon="10.6340639"><ele>81.6</ele><time>2026-05-03T12:00:23.936Z</time></trkpt><trkpt lat="43.8733338" lon="10.6339787"><ele>82.0</ele><time>2026-05-03T12:00:24.939Z</time></trkpt><trkpt lat="43.8733874" lon="10.6338296"><ele>82.0</ele><time>2026-05-03T12:00:26.954Z</time></trkpt><trkpt lat="43.873421" lon="10.6336642"><ele>82.0</ele><time>2026-05-03T12:00:28.959Z</time></trkpt><trkpt lat="43.8734318" lon="10.6335486"><ele>82.0</ele><time>2026-05-03T12:00:29.973Z</time></trkpt><trkpt lat="43.8734344" lon="10.6334413"><ele>82.0</ele><time>2026-05-03T12:00:30.981Z</time></trkpt><trkpt lat="43.8734811" lon="10.6333458"><ele>82.0</ele><time>2026-05-03T12:00:32.991Z</time></trkpt><trkpt lat="43.8735998" lon="10.6333649"><ele>83.39999999999999</ele><time>2026-05-03T12:00:34.983Z</time></trkpt><trkpt lat="43.873676" lon="10.6332986"><ele>84.8</ele><time>2026-05-03T12:00:36.995Z</time></trkpt><trkpt lat="43.8736828" lon="10.6331302"><ele>86.2</ele><time>2026-05-03T12:00:38.984Z</time></trkpt><trkpt lat="43.8736918" lon="10.6330232"><ele>87.6</ele><time>2026-05-03T12:00:39.993Z</time></trkpt><trkpt lat="43.8737308" lon="10.6328974"><ele>89.0</ele><time>2026-05-03T12:00:41.996Z</time></trkpt><trkpt lat="43.8738087" lon="10.632825"><ele>88.80000000000001</ele><time>2026-05-03T12:00:43.981Z</time></trkpt><trkpt lat="43.873806" lon="10.6326836"><ele>88.60000000000001</ele><time>2026-05-03T12:00:45.983Z</time></trkpt><trkpt lat="43.8737873" lon="10.6325566"><ele>88.4</ele><time>2026-05-03T12:00:46.983Z</time></trkpt><trkpt lat="43.8737664" lon="10.6324334"><ele>88.2</ele><time>2026-05-03T12:00:47.982Z</time></trkpt><trkpt lat="43.8737563" lon="10.6323021"><ele>88.0</ele><time>2026-05-03T12:00:48.984Z</time></trkpt><trkpt lat="43.8737506" lon="10.6321626"><ele>88.0</ele><time>2026-05-03T12:00:49.986Z</time></trkpt><trkpt lat="43.8737635" lon="10.6320074"><ele>88.0</ele><time>2026-05-03T12:00:50.988Z</time></trkpt><trkpt lat="43.8737797" lon="10.6318477"><ele>88.0</ele><time>2026-05-03T12:00:51.986Z</time></trkpt><trkpt lat="43.8737982" lon="10.6316982"><ele>88.0</ele><time>2026-05-03T12:00:53.009Z</time></trkpt><trkpt lat="43.8738262" lon="10.6315525"><ele>88.0</ele><time>2026-05-03T12:00:53.995Z</time></trkpt><trkpt lat="43.8738604" lon="10.6313885"><ele>88.80000000000001</ele><time>2026-05-03T12:00:54.988Z</time></trkpt><trkpt lat="43.873899" lon="10.6312277"><ele>89.6</ele><time>2026-05-03T12:00:55.984Z</time></trkpt><trkpt lat="43.8739322" lon="10.6310689"><ele>90.4</ele><time>2026-05-03T12:00:56.983Z</time></trkpt><trkpt lat="43.8739516" lon="10.6309296"><ele>91.19999999999999</ele><time>2026-05-03T12:00:57.978Z</time></trkpt><trkpt lat="43.8739666" lon="10.6307947"><ele>92.0</ele><time>2026-05-03T12:00:58.976Z</time></trkpt><trkpt lat="43.8739904" lon="10.6306526"><ele>92.66666666666667</ele><time>2026-05-03T12:00:59.974Z</time></trkpt><trkpt lat="43.874017" lon="10.6305238"><ele>93.33333333333334</ele><time>2026-05-03T12:01:00.984Z</time></trkpt><trkpt lat="43.8740369" lon="10.6304111"><ele>94.0</ele><time>2026-05-03T12:01:01.982Z</time></trkpt><trkpt lat="43.8740682" lon="10.6303108"><ele>94.66666666666667</ele><time>2026-05-03T12:01:02.977Z</time></trkpt><trkpt lat="43.874117" lon="10.630204"><ele>95.33333333333333</ele><time>2026-05-03T12:01:03.984Z</time></trkpt><trkpt lat="43.874171" lon="10.6300899"><ele>96.0</ele><time>2026-05-03T12:01:04.982Z</time></trkpt><trkpt lat="43.874221" lon="10.6299779"><ele>97.4</ele><time>2026-05-03T12:01:05.979Z</time></trkpt><trkpt lat="43.8742593" lon="10.6298659"><ele>98.8</ele><time>2026-05-03T12:01:06.975Z</time></trkpt><trkpt lat="43.8742902" lon="10.6297386"><ele>100.2</ele><time>2026-05-03T12:01:07.969Z</time></trkpt><trkpt lat="43.8743352" lon="10.6296205"><ele>101.60000000000001</ele><time>2026-05-03T12:01:08.98Z</time></trkpt><trkpt lat="43.8743723" lon="10.6295126"><ele>103.0</ele><time>2026-05-03T12:01:09.966Z</time></trkpt><trkpt lat="43.8744179" lon="10.6294169"><ele>103.66666666666667</ele><time>2026-05-03T12:01:10.98Z</time></trkpt><trkpt lat="43.8744831" lon="10.6293434"><ele>104.33333333333334</ele><time>2026-05-03T12:01:11.98Z</time></trkpt><trkpt lat="43.8745486" lon="10.6292954"><ele>105.0</ele><time>2026-05-03T12:01:12.985Z</time></trkpt><trkpt lat="43.8746541" lon="10.6292327"><ele>105.66666666666666</ele><time>2026-05-03T12:01:14.979Z</time></trkpt><trkpt lat="43.8746949" lon="10.6291473"><ele>106.33333333333333</ele><time>2026-05-03T12:01:15.979Z</time></trkpt><trkpt lat="43.8747401" lon="10.629028"><ele>107.0</ele><time>2026-05-03T12:01:16.982Z</time></trkpt><trkpt lat="43.8747878" lon="10.6289091"><ele>106.99999999999999</ele><time>2026-05-03T12:01:17.985Z</time></trkpt><trkpt lat="43.8748337" lon="10.6287866"><ele>107.0</ele><time>2026-05-03T12:01:18.985Z</time></trkpt><trkpt lat="43.8748776" lon="10.6286705"><ele>107.0</ele><time>2026-05-03T12:01:19.986Z</time></trkpt><trkpt lat="43.8749097" lon="10.6285713"><ele>107.0</ele><time>2026-05-03T12:01:20.986Z</time></trkpt><trkpt lat="43.8749372" lon="10.6284867"><ele>106.99999999999999</ele><time>2026-05-03T12:01:21.978Z</time></trkpt><trkpt lat="43.8749625" lon="10.6283798"><ele>107.0</ele><time>2026-05-03T12:01:23.993Z</time></trkpt><trkpt lat="43.8750002" lon="10.6282827"><ele>106.5</ele><time>2026-05-03T12:01:27.983Z</time></trkpt><trkpt lat="43.8751035" lon="10.6282791"><ele>106.0</ele><time>2026-05-03T12:01:29.964Z</time></trkpt><trkpt lat="43.8752065" lon="10.6282817"><ele>105.5</ele><time>2026-05-03T12:01:30.969Z</time></trkpt><trkpt lat="43.8753298" lon="10.6282739"><ele>105.0</ele><time>2026-05-03T12:01:31.961Z</time></trkpt><trkpt lat="43.8754541" lon="10.6282584"><ele>104.4</ele><time>2026-05-03T12:01:32.96Z</time></trkpt><trkpt lat="43.8755637" lon="10.628234"><ele>103.8</ele><time>2026-05-03T12:01:33.963Z</time></trkpt><trkpt lat="43.8756765" lon="10.6282078"><ele>103.19999999999999</ele><time>2026-05-03T12:01:34.951Z</time></trkpt><trkpt lat="43.875783" lon="10.6281668"><ele>102.6</ele><time>2026-05-03T12:01:35.97Z</time></trkpt><trkpt lat="43.8758866" lon="10.6281279"><ele>102.0</ele><time>2026-05-03T12:01:36.959Z</time></trkpt><trkpt lat="43.8759801" lon="10.6281023"><ele>101.8</ele><time>2026-05-03T12:01:37.957Z</time></trkpt><trkpt lat="43.8760697" lon="10.6280772"><ele>101.6</ele><time>2026-05-03T12:01:38.953Z</time></trkpt><trkpt lat="43.876146" lon="10.6280275"><ele>101.39999999999999</ele><time>2026-05-03T12:01:39.959Z</time></trkpt><trkpt lat="43.8762166" lon="10.627947"><ele>101.19999999999999</ele><time>2026-05-03T12:01:40.961Z</time></trkpt><trkpt lat="43.8762829" lon="10.6278334"><ele>101.0</ele><time>2026-05-03T12:01:41.962Z</time></trkpt><trkpt lat="43.8763362" lon="10.6277001"><ele>101.0</ele><time>2026-05-03T12:01:42.961Z</time></trkpt><trkpt lat="43.876401" lon="10.6275472"><ele>101.0</ele><time>2026-05-03T12:01:43.964Z</time></trkpt><trkpt lat="43.8764655" lon="10.627394"><ele>101.0</ele><time>2026-05-03T12:01:44.957Z</time></trkpt><trkpt lat="43.8765278" lon="10.6272385"><ele>101.0</ele><time>2026-05-03T12:01:45.952Z</time></trkpt><trkpt lat="43.8765878" lon="10.6270894"><ele>101.75</ele><time>2026-05-03T12:01:46.952Z</time></trkpt><trkpt lat="43.8766523" lon="10.6269422"><ele>102.5</ele><time>2026-05-03T12:01:47.953Z</time></trkpt><trkpt lat="43.8767292" lon="10.6268087"><ele>103.25</ele><time>2026-05-03T12:01:48.951Z</time></trkpt><trkpt lat="43.8767928" lon="10.6266738"><ele>104.0</ele><time>2026-05-03T12:01:49.968Z</time></trkpt><trkpt lat="43.8768565" lon="10.6265459"><ele>104.2</ele><time>2026-05-03T12:01:50.974Z</time></trkpt><trkpt lat="43.876909" lon="10.6264111"><ele>104.4</ele><time>2026-05-03T12:01:51.974Z</time></trkpt><trkpt lat="43.8769407" lon="10.6262836"><ele>104.6</ele><time>2026-05-03T12:01:52.97Z</time></trkpt><trkpt lat="43.876945" lon="10.6261392"><ele>104.8</ele><time>2026-05-03T12:01:53.985Z</time></trkpt><trkpt lat="43.8769329" lon="10.6259787"><ele>105.0</ele><time>2026-05-03T12:01:55.002Z</time></trkpt><trkpt lat="43.8769145" lon="10.6258131"><ele>106.66666666666667</ele><time>2026-05-03T12:01:55.99Z</time></trkpt><trkpt lat="43.8769008" lon="10.6256636"><ele>108.33333333333334</ele><time>2026-05-03T12:01:56.985Z</time></trkpt><trkpt lat="43.8768911" lon="10.6255278"><ele>110.0</ele><time>2026-05-03T12:01:57.98Z</time></trkpt><trkpt lat="43.8768823" lon="10.6254192"><ele>111.66666666666667</ele><time>2026-05-03T12:01:58.979Z</time></trkpt><trkpt lat="43.8768793" lon="10.6253235"><ele>113.33333333333334</ele><time>2026-05-03T12:01:59.989Z</time></trkpt><trkpt lat="43.876921" lon="10.6252226"><ele>115.0</ele><time>2026-05-03T12:02:01.979Z</time></trkpt><trkpt lat="43.8770185" lon="10.6252728"><ele>115.00000000000001</ele><time>2026-05-03T12:02:03.995Z</time></trkpt><trkpt lat="43.8770732" lon="10.6253412"><ele>115.0</ele><time>2026-05-03T12:02:04.98Z</time></trkpt><trkpt lat="43.8771302" lon="10.6254165"><ele>115.0</ele><time>2026-05-03T12:02:05.983Z</time></trkpt><trkpt lat="43.8772069" lon="10.6254799"><ele>115.0</ele><time>2026-05-03T12:02:06.986Z</time></trkpt><trkpt lat="43.8772923" lon="10.625511"><ele>115.00000000000001</ele><time>2026-05-03T12:02:07.964Z</time></trkpt><trkpt lat="43.8773734" lon="10.6255125"><ele>115.0</ele><time>2026-05-03T12:02:08.966Z</time></trkpt><trkpt lat="43.877453" lon="10.625487"><ele>115.0</ele><time>2026-05-03T12:02:09.972Z</time></trkpt><trkpt lat="43.8775292" lon="10.6254356"><ele>115.0</ele><time>2026-05-03T12:02:10.957Z</time></trkpt><trkpt lat="43.8776012" lon="10.6253668"><ele>115.0</ele><time>2026-05-03T12:02:11.965Z</time></trkpt><trkpt lat="43.8776829" lon="10.6252887"><ele>115.0</ele><time>2026-05-03T12:02:12.961Z</time></trkpt><trkpt lat="43.8777712" lon="10.6252152"><ele>115.0</ele><time>2026-05-03T12:02:13.962Z</time></trkpt><trkpt lat="43.8778544" lon="10.6251359"><ele>116.4</ele><time>2026-05-03T12:02:14.963Z</time></trkpt><trkpt lat="43.8779284" lon="10.62505"><ele>117.8</ele><time>2026-05-03T12:02:15.969Z</time></trkpt><trkpt lat="43.8780075" lon="10.624975"><ele>119.19999999999999</ele><time>2026-05-03T12:02:16.976Z</time></trkpt><trkpt lat="43.8780631" lon="10.6248741"><ele>120.6</ele><time>2026-05-03T12:02:17.961Z</time></trkpt><trkpt lat="43.8781103" lon="10.6247776"><ele>122.0</ele><time>2026-05-03T12:02:18.969Z</time></trkpt><trkpt lat="43.8781976" lon="10.6246971"><ele>122.0</ele><time>2026-05-03T12:02:19.965Z</time></trkpt><trkpt lat="43.8782977" lon="10.6246327"><ele>122.0</ele><time>2026-05-03T12:02:20.975Z</time></trkpt><trkpt lat="43.8784147" lon="10.6245877"><ele>122.0</ele><time>2026-05-03T12:02:21.965Z</time></trkpt><trkpt lat="43.8785413" lon="10.6245672"><ele>122.0</ele><time>2026-05-03T12:02:22.954Z</time></trkpt><trkpt lat="43.8786651" lon="10.6245146"><ele>123.19999999999999</ele><time>2026-05-03T12:02:23.962Z</time></trkpt><trkpt lat="43.878786" lon="10.6244567"><ele>124.39999999999999</ele><time>2026-05-03T12:02:24.962Z</time></trkpt><trkpt lat="43.8788862" lon="10.6244144"><ele>125.60000000000001</ele><time>2026-05-03T12:02:26.006Z</time></trkpt><trkpt lat="43.8789699" lon="10.6243809"><ele>126.80000000000001</ele><time>2026-05-03T12:02:26.967Z</time></trkpt><trkpt lat="43.8790785" lon="10.6243793"><ele>128.0</ele><time>2026-05-03T12:02:27.968Z</time></trkpt><trkpt lat="43.8791849" lon="10.6243934"><ele>128.20000000000002</ele><time>2026-05-03T12:02:28.96Z</time></trkpt><trkpt lat="43.8792948" lon="10.6244083"><ele>128.4</ele><time>2026-05-03T12:02:29.959Z</time></trkpt><trkpt lat="43.8794105" lon="10.6244227"><ele>128.60000000000002</ele><time>2026-05-03T12:02:30.966Z</time></trkpt><trkpt lat="43.8795172" lon="10.6244378"><ele>128.8</ele><time>2026-05-03T12:02:31.982Z</time></trkpt><trkpt lat="43.8796142" lon="10.6244742"><ele>129.0</ele><time>2026-05-03T12:02:32.98Z</time></trkpt><trkpt lat="43.8797129" lon="10.6245138"><ele>128.4</ele><time>2026-05-03T12:02:33.969Z</time></trkpt><trkpt lat="43.8797909" lon="10.6245586"><ele>127.80000000000001</ele><time>2026-05-03T12:02:34.975Z</time></trkpt><trkpt lat="43.8798531" lon="10.6246267"><ele>127.19999999999999</ele><time>2026-05-03T12:02:35.97Z</time></trkpt><trkpt lat="43.8799024" lon="10.6247331"><ele>126.6</ele><time>2026-05-03T12:02:36.976Z</time></trkpt><trkpt lat="43.8799593" lon="10.624871"><ele>126.0</ele><time>2026-05-03T12:02:37.972Z</time></trkpt><trkpt lat="43.8800364" lon="10.6249978"><ele>123.5</ele><time>2026-05-03T12:02:38.972Z</time></trkpt><trkpt lat="43.880115" lon="10.6251299"><ele>121.0</ele><time>2026-05-03T12:02:39.974Z</time></trkpt><trkpt lat="43.880195" lon="10.6252549"><ele>118.5</ele><time>2026-05-03T12:02:40.974Z</time></trkpt><trkpt lat="43.8802744" lon="10.6253819"><ele>116.0</ele><time>2026-05-03T12:02:41.978Z</time></trkpt><trkpt lat="43.8803414" lon="10.6255199"><ele>116.0</ele><time>2026-05-03T12:02:42.978Z</time></trkpt><trkpt lat="43.8804038" lon="10.6256568"><ele>116.0</ele><time>2026-05-03T12:02:43.986Z</time></trkpt><trkpt lat="43.8804686" lon="10.6257836"><ele>116.0</ele><time>2026-05-03T12:02:44.988Z</time></trkpt><trkpt lat="43.8805337" lon="10.6259137"><ele>116.0</ele><time>2026-05-03T12:02:45.985Z</time></trkpt><trkpt lat="43.8806033" lon="10.626009"><ele>116.0</ele><time>2026-05-03T12:02:46.999Z</time></trkpt><trkpt lat="43.8806886" lon="10.6260716"><ele>116.0</ele><time>2026-05-03T12:02:47.997Z</time></trkpt><trkpt lat="43.8807826" lon="10.6261042"><ele>116.0</ele><time>2026-05-03T12:02:48.995Z</time></trkpt><trkpt lat="43.8808849" lon="10.6261141"><ele>116.0</ele><time>2026-05-03T12:02:49.994Z</time></trkpt><trkpt lat="43.8809911" lon="10.626123"><ele>116.0</ele><time>2026-05-03T12:02:50.983Z</time></trkpt><trkpt lat="43.8811039" lon="10.6261313"><ele>116.0</ele><time>2026-05-03T12:02:51.999Z</time></trkpt><trkpt lat="43.8812348" lon="10.6261194"><ele>115.75</ele><time>2026-05-03T12:02:52.98Z</time></trkpt><trkpt lat="43.8813653" lon="10.6261083"><ele>115.5</ele><time>2026-05-03T12:02:53.996Z</time></trkpt><trkpt lat="43.8814974" lon="10.6261061"><ele>115.25</ele><time>2026-05-03T12:02:54.991Z</time></trkpt><trkpt lat="43.8816284" lon="10.6260999"><ele>115.0</ele><time>2026-05-03T12:02:56.001Z</time></trkpt><trkpt lat="43.8817512" lon="10.6260975"><ele>114.75</ele><time>2026-05-03T12:02:56.987Z</time></trkpt><trkpt lat="43.8818791" lon="10.6260937"><ele>114.5</ele><time>2026-05-03T12:02:57.98Z</time></trkpt><trkpt lat="43.8820054" lon="10.6261013"><ele>114.25</ele><time>2026-05-03T12:02:58.994Z</time></trkpt><trkpt lat="43.8821324" lon="10.626105"><ele>114.0</ele><time>2026-05-03T12:02:59.995Z</time></trkpt><trkpt lat="43.8822445" lon="10.6261088"><ele>114.0</ele><time>2026-05-03T12:03:00.997Z</time></trkpt><trkpt lat="43.8823497" lon="10.6261191"><ele>114.0</ele><time>2026-05-03T12:03:02Z</time></trkpt><trkpt lat="43.8824329" lon="10.6261242"><ele>114.0</ele><time>2026-05-03T12:03:02.993Z</time></trkpt><trkpt lat="43.8825095" lon="10.6261388"><ele>114.0</ele><time>2026-05-03T12:03:03.988Z</time></trkpt><trkpt lat="43.8826002" lon="10.6261671"><ele>114.0</ele><time>2026-05-03T12:03:05.982Z</time></trkpt><trkpt lat="43.8826876" lon="10.6262564"><ele>116.5</ele><time>2026-05-03T12:03:07.997Z</time></trkpt><trkpt lat="43.8827379" lon="10.6263314"><ele>119.0</ele><time>2026-05-03T12:03:08.989Z</time></trkpt><trkpt lat="43.8827942" lon="10.6264234"><ele>121.5</ele><time>2026-05-03T12:03:09.98Z</time></trkpt><trkpt lat="43.8828453" lon="10.6265214"><ele>124.0</ele><time>2026-05-03T12:03:10.977Z</time></trkpt><trkpt lat="43.8828808" lon="10.6266162"><ele>126.5</ele><time>2026-05-03T12:03:11.968Z</time></trkpt><trkpt lat="43.8828999" lon="10.626719"><ele>129.0</ele><time>2026-05-03T12:03:12.96Z</time></trkpt><trkpt lat="43.8828961" lon="10.626843"><ele>129.0</ele><time>2026-05-03T12:03:13.959Z</time></trkpt><trkpt lat="43.8828845" lon="10.6269622"><ele>129.0</ele><time>2026-05-03T12:03:14.966Z</time></trkpt><trkpt lat="43.882849" lon="10.627098"><ele>129.0</ele><time>2026-05-03T12:03:15.965Z</time></trkpt><trkpt lat="43.8827751" lon="10.6272436"><ele>129.0</ele><time>2026-05-03T12:03:16.963Z</time></trkpt><trkpt lat="43.8826896" lon="10.6274275"><ele>129.33333333333334</ele><time>2026-05-03T12:03:17.969Z</time></trkpt><trkpt lat="43.88262" lon="10.6276173"><ele>129.66666666666669</ele><time>2026-05-03T12:03:18.978Z</time></trkpt><trkpt lat="43.8825689" lon="10.6278162"><ele>130.0</ele><time>2026-05-03T12:03:19.979Z</time></trkpt><trkpt lat="43.8825183" lon="10.628016"><ele>127.25</ele><time>2026-05-03T12:03:20.97Z</time></trkpt><trkpt lat="43.8824768" lon="10.6282119"><ele>124.5</ele><time>2026-05-03T12:03:21.974Z</time></trkpt><trkpt lat="43.8824247" lon="10.6283844"><ele>121.75</ele><time>2026-05-03T12:03:22.977Z</time></trkpt><trkpt lat="43.8823738" lon="10.6285361"><ele>119.0</ele><time>2026-05-03T12:03:23.968Z</time></trkpt><trkpt lat="43.8823229" lon="10.6287083"><ele>119.0</ele><time>2026-05-03T12:03:24.976Z</time></trkpt><trkpt lat="43.8822816" lon="10.6288559"><ele>119.0</ele><time>2026-05-03T12:03:25.978Z</time></trkpt><trkpt lat="43.8822486" lon="10.6289818"><ele>119.0</ele><time>2026-05-03T12:03:27.003Z</time></trkpt><trkpt lat="43.8822068" lon="10.6291315"><ele>119.0</ele><time>2026-05-03T12:03:27.979Z</time></trkpt><trkpt lat="43.882168" lon="10.6292796"><ele>119.0</ele><time>2026-05-03T12:03:28.985Z</time></trkpt><trkpt lat="43.8821496" lon="10.6294369"><ele>119.75</ele><time>2026-05-03T12:03:29.988Z</time></trkpt><trkpt lat="43.8821328" lon="10.6295957"><ele>120.5</ele><time>2026-05-03T12:03:30.989Z</time></trkpt><trkpt lat="43.882121" lon="10.6297622"><ele>121.25</ele><time>2026-05-03T12:03:31.993Z</time></trkpt><trkpt lat="43.8821042" lon="10.6299248"><ele>122.0</ele><time>2026-05-03T12:03:32.989Z</time></trkpt><trkpt lat="43.8820828" lon="10.6300596"><ele>121.99999999999999</ele><time>2026-05-03T12:03:33.983Z</time></trkpt><trkpt lat="43.8820647" lon="10.6301858"><ele>122.0</ele><time>2026-05-03T12:03:34.982Z</time></trkpt><trkpt lat="43.8820574" lon="10.630307"><ele>122.0</ele><time>2026-05-03T12:03:35.98Z</time></trkpt><trkpt lat="43.8820641" lon="10.630425"><ele>122.0</ele><time>2026-05-03T12:03:36.979Z</time></trkpt><trkpt lat="43.8820895" lon="10.6305361"><ele>121.99999999999999</ele><time>2026-05-03T12:03:37.979Z</time></trkpt><trkpt lat="43.8821328" lon="10.6306365"><ele>122.0</ele><time>2026-05-03T12:03:38.982Z</time></trkpt><trkpt lat="43.8821856" lon="10.6307173"><ele>122.16666666666666</ele><time>2026-05-03T12:03:39.989Z</time></trkpt><trkpt lat="43.8822326" lon="10.6307856"><ele>122.33333333333333</ele><time>2026-05-03T12:03:40.99Z</time></trkpt><trkpt lat="43.8822516" lon="10.6309078"><ele>122.5</ele><time>2026-05-03T12:03:42.989Z</time></trkpt><trkpt lat="43.882171" lon="10.6310243"><ele>122.66666666666666</ele><time>2026-05-03T12:03:44.979Z</time></trkpt><trkpt lat="43.8821036" lon="10.6310794"><ele>122.83333333333333</ele><time>2026-05-03T12:03:45.994Z</time></trkpt><trkpt lat="43.8820253" lon="10.6311375"><ele>123.0</ele><time>2026-05-03T12:03:46.992Z</time></trkpt><trkpt lat="43.8819372" lon="10.6312005"><ele>121.60000000000001</ele><time>2026-05-03T12:03:47.99Z</time></trkpt><trkpt lat="43.8818388" lon="10.6312654"><ele>120.20000000000002</ele><time>2026-05-03T12:03:48.994Z</time></trkpt><trkpt lat="43.8817367" lon="10.6313229"><ele>118.8</ele><time>2026-05-03T12:03:49.993Z</time></trkpt><trkpt lat="43.8816464" lon="10.6313702"><ele>117.4</ele><time>2026-05-03T12:03:50.99Z</time></trkpt><trkpt lat="43.881576" lon="10.6314116"><ele>116.0</ele><time>2026-05-03T12:03:51.994Z</time></trkpt><trkpt lat="43.8815175" lon="10.631456"><ele>115.99999999999999</ele><time>2026-05-03T12:03:52.99Z</time></trkpt><trkpt lat="43.8814716" lon="10.6315183"><ele>116.0</ele><time>2026-05-03T12:03:53.997Z</time></trkpt><trkpt lat="43.8814393" lon="10.6316115"><ele>116.0</ele><time>2026-05-03T12:03:54.986Z</time></trkpt><trkpt lat="43.8814033" lon="10.6317258"><ele>116.0</ele><time>2026-05-03T12:03:55.988Z</time></trkpt><trkpt lat="43.8813543" lon="10.6318468"><ele>115.99999999999999</ele><time>2026-05-03T12:03:56.982Z</time></trkpt><trkpt lat="43.8813102" lon="10.6319606"><ele>116.0</ele><time>2026-05-03T12:03:57.987Z</time></trkpt><trkpt lat="43.881279" lon="10.6320647"><ele>114.16666666666666</ele><time>2026-05-03T12:03:58.974Z</time></trkpt><trkpt lat="43.8812602" lon="10.6321624"><ele>112.33333333333333</ele><time>2026-05-03T12:03:59.986Z</time></trkpt><trkpt lat="43.8812535" lon="10.6322941"><ele>110.5</ele><time>2026-05-03T12:04:01.989Z</time></trkpt><trkpt lat="43.8812221" lon="10.6323722"><ele>108.66666666666666</ele><time>2026-05-03T12:04:03.983Z</time></trkpt><trkpt lat="43.8811899" lon="10.6324501"><ele>106.83333333333333</ele><time>2026-05-03T12:04:07.993Z</time></trkpt><trkpt lat="43.8811171" lon="10.6324873"><ele>105.0</ele><time>2026-05-03T12:04:09.996Z</time></trkpt><trkpt lat="43.881046" lon="10.6325573"><ele>105.0</ele><time>2026-05-03T12:04:11.995Z</time></trkpt><trkpt lat="43.8810078" lon="10.6326587"><ele>105.0</ele><time>2026-05-03T12:04:14.99Z</time></trkpt><trkpt lat="43.8810678" lon="10.6327608"><ele>105.0</ele><time>2026-05-03T12:04:17.986Z</time></trkpt><trkpt lat="43.8811563" lon="10.6327604"><ele>105.0</ele><time>2026-05-03T12:04:19.99Z</time></trkpt><trkpt lat="43.8812698" lon="10.6327314"><ele>105.0</ele><time>2026-05-03T12:04:21.992Z</time></trkpt><trkpt lat="43.881365" lon="10.6326645"><ele>105.0</ele><time>2026-05-03T12:04:23.997Z</time></trkpt><trkpt lat="43.8814197" lon="10.6326104"><ele>105.0</ele><time>2026-05-03T12:04:24.996Z</time></trkpt><trkpt lat="43.8814988" lon="10.6324961"><ele>105.0</ele><time>2026-05-03T12:04:26.994Z</time></trkpt><trkpt lat="43.8815485" lon="10.6323758"><ele>105.0</ele><time>2026-05-03T12:04:29.011Z</time></trkpt><trkpt lat="43.8815779" lon="10.6322504"><ele>105.0</ele><time>2026-05-03T12:04:30.988Z</time></trkpt><trkpt lat="43.8816329" lon="10.6321788"><ele>105.0</ele><time>2026-05-03T12:04:33.972Z</time></trkpt><trkpt lat="43.8816856" lon="10.6322423"><ele>105.0</ele><time>2026-05-03T12:04:35.976Z</time></trkpt><trkpt lat="43.8817339" lon="10.6323552"><ele>105.0</ele><time>2026-05-03T12:04:37.973Z</time></trkpt><trkpt lat="43.8818007" lon="10.6324049"><ele>105.0</ele><time>2026-05-03T12:04:40.977Z</time></trkpt><trkpt lat="43.8818455" lon="10.6323183"><ele>105.0</ele><time>2026-05-03T12:04:42.975Z</time></trkpt><trkpt lat="43.8819124" lon="10.6322229"><ele>105.0</ele><time>2026-05-03T12:04:44.969Z</time></trkpt><trkpt lat="43.8819915" lon="10.6321606"><ele>102.2</ele><time>2026-05-03T12:04:46.965Z</time></trkpt><trkpt lat="43.8820665" lon="10.6321426"><ele>99.4</ele><time>2026-05-03T12:04:48.972Z</time></trkpt><trkpt lat="43.8821522" lon="10.632127"><ele>96.6</ele><time>2026-05-03T12:04:50.974Z</time></trkpt><trkpt lat="43.8822499" lon="10.6321206"><ele>93.8</ele><time>2026-05-03T12:04:52.973Z</time></trkpt><trkpt lat="43.8823557" lon="10.6321461"><ele>91.0</ele><time>2026-05-03T12:04:54.968Z</time></trkpt><trkpt lat="43.8824556" lon="10.6321838"><ele>91.0</ele><time>2026-05-03T12:04:56.967Z</time></trkpt><trkpt lat="43.8825668" lon="10.6322324"><ele>91.0</ele><time>2026-05-03T12:04:58.962Z</time></trkpt><trkpt lat="43.8826868" lon="10.632237"><ele>91.0</ele><time>2026-05-03T12:05:00.954Z</time></trkpt><trkpt lat="43.8828078" lon="10.632213"><ele>91.0</ele><time>2026-05-03T12:05:02.946Z</time></trkpt><trkpt lat="43.8828816" lon="10.6321868"><ele>91.0</ele><time>2026-05-03T12:05:03.942Z</time></trkpt><trkpt lat="43.8829512" lon="10.6321567"><ele>92.0</ele><time>2026-05-03T12:05:04.942Z</time></trkpt><trkpt lat="43.8830153" lon="10.6321329"><ele>93.0</ele><time>2026-05-03T12:05:05.931Z</time></trkpt><trkpt lat="43.8830997" lon="10.6320997"><ele>94.0</ele><time>2026-05-03T12:05:07.949Z</time></trkpt><trkpt lat="43.8831986" lon="10.6320725"><ele>95.0</ele><time>2026-05-03T12:05:09.948Z</time></trkpt><trkpt lat="43.8832887" lon="10.6320253"><ele>96.0</ele><time>2026-05-03T12:05:11.946Z</time></trkpt><trkpt lat="43.8833725" lon="10.6319467"><ele>93.5</ele><time>2026-05-03T12:05:13.949Z</time></trkpt><trkpt lat="43.8834325" lon="10.6318824"><ele>91.0</ele><time>2026-05-03T12:05:14.952Z</time></trkpt><trkpt lat="43.8835014" lon="10.6318085"><ele>88.5</ele><time>2026-05-03T12:05:15.954Z</time></trkpt><trkpt lat="43.8835701" lon="10.6317153"><ele>86.0</ele><time>2026-05-03T12:05:16.957Z</time></trkpt><trkpt lat="43.8836343" lon="10.6316204"><ele>83.5</ele><time>2026-05-03T12:05:17.952Z</time></trkpt><trkpt lat="43.8836841" lon="10.6315262"><ele>81.0</ele><time>2026-05-03T12:05:18.957Z</time></trkpt><trkpt lat="43.8837488" lon="10.6314417"><ele>81.0</ele><time>2026-05-03T12:05:19.955Z</time></trkpt><trkpt lat="43.8838188" lon="10.631353"><ele>81.0</ele><time>2026-05-03T12:05:20.953Z</time></trkpt><trkpt lat="43.8838865" lon="10.6312661"><ele>81.0</ele><time>2026-05-03T12:05:21.953Z</time></trkpt><trkpt lat="43.8839496" lon="10.6311932"><ele>81.0</ele><time>2026-05-03T12:05:22.954Z</time></trkpt><trkpt lat="43.884012" lon="10.6311416"><ele>81.0</ele><time>2026-05-03T12:05:23.957Z</time></trkpt><trkpt lat="43.884078" lon="10.6311085"><ele>81.0</ele><time>2026-05-03T12:05:24.964Z</time></trkpt><trkpt lat="43.8841542" lon="10.6310616"><ele>80.8</ele><time>2026-05-03T12:05:25.969Z</time></trkpt><trkpt lat="43.8842315" lon="10.6310185"><ele>80.6</ele><time>2026-05-03T12:05:26.976Z</time></trkpt><trkpt lat="43.8843099" lon="10.6309622"><ele>80.4</ele><time>2026-05-03T12:05:27.978Z</time></trkpt><trkpt lat="43.8843955" lon="10.6309079"><ele>80.2</ele><time>2026-05-03T12:05:28.976Z</time></trkpt><trkpt lat="43.8844847" lon="10.6308399"><ele>80.0</ele><time>2026-05-03T12:05:29.978Z</time></trkpt><trkpt lat="43.8845739" lon="10.6307712"><ele>80.0</ele><time>2026-05-03T12:05:31.001Z</time></trkpt><trkpt lat="43.8846524" lon="10.630703"><ele>80.0</ele><time>2026-05-03T12:05:31.992Z</time></trkpt><trkpt lat="43.8847318" lon="10.6306414"><ele>80.0</ele><time>2026-05-03T12:05:32.997Z</time></trkpt><trkpt lat="43.8848176" lon="10.6305793"><ele>80.0</ele><time>2026-05-03T12:05:33.992Z</time></trkpt><trkpt lat="43.8849032" lon="10.6305101"><ele>80.0</ele><time>2026-05-03T12:05:34.99Z</time></trkpt><trkpt lat="43.8849736" lon="10.6304402"><ele>80.0</ele><time>2026-05-03T12:05:35.985Z</time></trkpt><trkpt lat="43.8850354" lon="10.6303794"><ele>80.0</ele><time>2026-05-03T12:05:36.981Z</time></trkpt><trkpt lat="43.8850922" lon="10.6303312"><ele>80.0</ele><time>2026-05-03T12:05:37.985Z</time></trkpt><trkpt lat="43.8851708" lon="10.63028"><ele>80.0</ele><time>2026-05-03T12:05:39.969Z</time></trkpt><trkpt lat="43.885251" lon="10.6302961"><ele>80.0</ele><time>2026-05-03T12:05:44.984Z</time></trkpt><trkpt lat="43.885267" lon="10.6304766"><ele>80.0</ele><time>2026-05-03T12:05:46.971Z</time></trkpt><trkpt lat="43.8852682" lon="10.6306258"><ele>80.0</ele><time>2026-05-03T12:05:47.98Z</time></trkpt><trkpt lat="43.8852848" lon="10.6307877"><ele>80.0</ele><time>2026-05-03T12:05:48.995Z</time></trkpt><trkpt lat="43.885317" lon="10.630958"><ele>80.0</ele><time>2026-05-03T12:05:49.998Z</time></trkpt><trkpt lat="43.8853447" lon="10.6311303"><ele>80.0</ele><time>2026-05-03T12:05:50.999Z</time></trkpt><trkpt lat="43.8853685" lon="10.6313001"><ele>79.8</ele><time>2026-05-03T12:05:52.004Z</time></trkpt><trkpt lat="43.8853938" lon="10.6314584"><ele>79.6</ele><time>2026-05-03T12:05:53.005Z</time></trkpt><trkpt lat="43.88542" lon="10.6316042"><ele>79.4</ele><time>2026-05-03T12:05:54.015Z</time></trkpt><trkpt lat="43.8854404" lon="10.631741"><ele>79.2</ele><time>2026-05-03T12:05:55.011Z</time></trkpt><trkpt lat="43.8854588" lon="10.6318806"><ele>79.0</ele><time>2026-05-03T12:05:56.005Z</time></trkpt><trkpt lat="43.8854827" lon="10.6320149"><ele>78.83333333333333</ele><time>2026-05-03T12:05:57.01Z</time></trkpt><trkpt lat="43.8855075" lon="10.632127"><ele>78.66666666666666</ele><time>2026-05-03T12:05:58.014Z</time></trkpt><trkpt lat="43.8855276" lon="10.632223"><ele>78.5</ele><time>2026-05-03T12:05:59Z</time></trkpt><trkpt lat="43.8855449" lon="10.6323084"><ele>78.33333333333333</ele><time>2026-05-03T12:06:00.011Z</time></trkpt><trkpt lat="43.8855853" lon="10.6323989"><ele>78.16666666666667</ele><time>2026-05-03T12:06:02.026Z</time></trkpt><trkpt lat="43.8856503" lon="10.632375"><ele>78.0</ele><time>2026-05-03T12:06:03.992Z</time></trkpt><trkpt lat="43.8857633" lon="10.6323244"><ele>78.0</ele><time>2026-05-03T12:06:06.005Z</time></trkpt><trkpt lat="43.8858395" lon="10.6323019"><ele>78.0</ele><time>2026-05-03T12:06:07.006Z</time></trkpt><trkpt lat="43.8859232" lon="10.6322735"><ele>78.0</ele><time>2026-05-03T12:06:08Z</time></trkpt><trkpt lat="43.8860101" lon="10.6322387"><ele>78.0</ele><time>2026-05-03T12:06:09.012Z</time></trkpt><trkpt lat="43.8860955" lon="10.6322033"><ele>78.0</ele><time>2026-05-03T12:06:09.996Z</time></trkpt><trkpt lat="43.886184" lon="10.632165"><ele>78.0</ele><time>2026-05-03T12:06:11.009Z</time></trkpt><trkpt lat="43.8862728" lon="10.632136"><ele>78.33333333333333</ele><time>2026-05-03T12:06:11.997Z</time></trkpt><trkpt lat="43.8863476" lon="10.6321185"><ele>78.66666666666667</ele><time>2026-05-03T12:06:12.997Z</time></trkpt><trkpt lat="43.8864178" lon="10.6320987"><ele>79.0</ele><time>2026-05-03T12:06:14.008Z</time></trkpt><trkpt lat="43.8864943" lon="10.6320812"><ele>79.33333333333334</ele><time>2026-05-03T12:06:15.012Z</time></trkpt><trkpt lat="43.8865806" lon="10.6320705"><ele>79.66666666666667</ele><time>2026-05-03T12:06:16.007Z</time></trkpt><trkpt lat="43.8866557" lon="10.6320511"><ele>80.0</ele><time>2026-05-03T12:06:17.01Z</time></trkpt><trkpt lat="43.8867224" lon="10.6320285"><ele>80.5</ele><time>2026-05-03T12:06:17.998Z</time></trkpt><trkpt lat="43.88681" lon="10.6319855"><ele>81.0</ele><time>2026-05-03T12:06:19.997Z</time></trkpt><trkpt lat="43.8868417" lon="10.6319009"><ele>81.5</ele><time>2026-05-03T12:06:21.991Z</time></trkpt><trkpt lat="43.8867993" lon="10.6318124"><ele>82.0</ele><time>2026-05-03T12:06:24.001Z</time></trkpt><trkpt lat="43.8867656" lon="10.6316999"><ele>82.5</ele><time>2026-05-03T12:06:27.002Z</time></trkpt><trkpt lat="43.8868266" lon="10.6317431"><ele>83.0</ele><time>2026-05-03T12:06:32.017Z</time></trkpt><trkpt lat="43.8868919" lon="10.6318877"><ele>83.0</ele><time>2026-05-03T12:06:34.006Z</time></trkpt><trkpt lat="43.8869306" lon="10.6319849"><ele>83.0</ele><time>2026-05-03T12:06:35.007Z</time></trkpt><trkpt lat="43.8869746" lon="10.6321038"><ele>83.0</ele><time>2026-05-03T12:06:36.004Z</time></trkpt><trkpt lat="43.8870239" lon="10.6322218"><ele>83.0</ele><time>2026-05-03T12:06:36.994Z</time></trkpt><trkpt lat="43.8870694" lon="10.6323279"><ele>83.0</ele><time>2026-05-03T12:06:37.992Z</time></trkpt><trkpt lat="43.8871046" lon="10.6324011"><ele>83.0</ele><time>2026-05-03T12:06:38.997Z</time></trkpt><trkpt lat="43.887185" lon="10.6324646"><ele>83.0</ele><time>2026-05-03T12:06:41.004Z</time></trkpt><trkpt lat="43.8872986" lon="10.632441"><ele>83.0</ele><time>2026-05-03T12:06:42.99Z</time></trkpt><trkpt lat="43.8873765" lon="10.6324134"><ele>83.0</ele><time>2026-05-03T12:06:43.997Z</time></trkpt><trkpt lat="43.8874684" lon="10.6323663"><ele>83.0</ele><time>2026-05-03T12:06:44.989Z</time></trkpt><trkpt lat="43.8875621" lon="10.6323186"><ele>83.0</ele><time>2026-05-03T12:06:45.99Z</time></trkpt><trkpt lat="43.8876387" lon="10.6322962"><ele>83.60000000000001</ele><time>2026-05-03T12:06:46.981Z</time></trkpt><trkpt lat="43.8877478" lon="10.632333"><ele>84.2</ele><time>2026-05-03T12:06:48.988Z</time></trkpt><trkpt lat="43.8878425" lon="10.6323591"><ele>84.8</ele><time>2026-05-03T12:06:50.991Z</time></trkpt><trkpt lat="43.8879629" lon="10.6323349"><ele>85.4</ele><time>2026-05-03T12:06:53.001Z</time></trkpt><trkpt lat="43.8880407" lon="10.6323123"><ele>86.0</ele><time>2026-05-03T12:06:53.991Z</time></trkpt><trkpt lat="43.8881092" lon="10.6323053"><ele>86.0</ele><time>2026-05-03T12:06:54.991Z</time></trkpt><trkpt lat="43.8881786" lon="10.6323252"><ele>86.0</ele><time>2026-05-03T12:06:55.991Z</time></trkpt><trkpt lat="43.8882457" lon="10.6323594"><ele>86.0</ele><time>2026-05-03T12:06:56.991Z</time></trkpt><trkpt lat="43.8883616" lon="10.6323885"><ele>86.0</ele><time>2026-05-03T12:06:58.983Z</time></trkpt><trkpt lat="43.888481" lon="10.6323357"><ele>86.0</ele><time>2026-05-03T12:07:00.992Z</time></trkpt><trkpt lat="43.8885894" lon="10.6322426"><ele>86.57142857142858</ele><time>2026-05-03T12:07:02.992Z</time></trkpt><trkpt lat="43.8886505" lon="10.6321857"><ele>87.14285714285714</ele><time>2026-05-03T12:07:04.01Z</time></trkpt><trkpt lat="43.888717" lon="10.6321335"><ele>87.71428571428572</ele><time>2026-05-03T12:07:04.995Z</time></trkpt><trkpt lat="43.8887844" lon="10.6320909"><ele>88.28571428571429</ele><time>2026-05-03T12:07:05.999Z</time></trkpt><trkpt lat="43.8888518" lon="10.6320547"><ele>88.85714285714286</ele><time>2026-05-03T12:07:06.989Z</time></trkpt><trkpt lat="43.8889206" lon="10.632031"><ele>89.42857142857143</ele><time>2026-05-03T12:07:07.997Z</time></trkpt><trkpt lat="43.8889841" lon="10.6320159"><ele>90.0</ele><time>2026-05-03T12:07:08.988Z</time></trkpt><trkpt lat="43.8890875" lon="10.6320255"><ele>90.0</ele><time>2026-05-03T12:07:10.982Z</time></trkpt><trkpt lat="43.8891729" lon="10.6321022"><ele>90.0</ele><time>2026-05-03T12:07:12.984Z</time></trkpt><trkpt lat="43.889256" lon="10.6321935"><ele>90.0</ele><time>2026-05-03T12:07:14.989Z</time></trkpt><trkpt lat="43.8893464" lon="10.6322416"><ele>90.0</ele><time>2026-05-03T12:07:16.982Z</time></trkpt><trkpt lat="43.8894213" lon="10.6322454"><ele>90.0</ele><time>2026-05-03T12:07:18.986Z</time></trkpt><trkpt lat="43.8895255" lon="10.6322387"><ele>90.4</ele><time>2026-05-03T12:07:20.975Z</time></trkpt><trkpt lat="43.8896109" lon="10.6322246"><ele>90.8</ele><time>2026-05-03T12:07:22.974Z</time></trkpt><trkpt lat="43.8896537" lon="10.6321381"><ele>91.19999999999999</ele><time>2026-05-03T12:07:24.981Z</time></trkpt><trkpt lat="43.8896574" lon="10.631979"><ele>91.6</ele><time>2026-05-03T12:07:26.989Z</time></trkpt><trkpt lat="43.8896599" lon="10.6318188"><ele>92.0</ele><time>2026-05-03T12:07:28.992Z</time></trkpt><trkpt lat="43.8896659" lon="10.6317264"><ele>94.39999999999999</ele><time>2026-05-03T12:07:29.993Z</time></trkpt><trkpt lat="43.8896666" lon="10.6315695"><ele>96.8</ele><time>2026-05-03T12:07:31.995Z</time></trkpt><trkpt lat="43.8896681" lon="10.6314409"><ele>99.2</ele><time>2026-05-03T12:07:33.996Z</time></trkpt><trkpt lat="43.8896538" lon="10.6312738"><ele>101.6</ele><time>2026-05-03T12:07:36Z</time></trkpt><trkpt lat="43.8896527" lon="10.6311445"><ele>104.0</ele><time>2026-05-03T12:07:38.001Z</time></trkpt><trkpt lat="43.8897481" lon="10.6311433"><ele>105.49999999999999</ele><time>2026-05-03T12:07:43.975Z</time></trkpt><trkpt lat="43.8898634" lon="10.6311166"><ele>107.0</ele><time>2026-05-03T12:07:45.981Z</time></trkpt><trkpt lat="43.8899234" lon="10.6310781"><ele>108.5</ele><time>2026-05-03T12:07:46.983Z</time></trkpt><trkpt lat="43.8899888" lon="10.6310327"><ele>110.0</ele><time>2026-05-03T12:07:47.984Z</time></trkpt><trkpt lat="43.8900529" lon="10.6309709"><ele>111.49999999999999</ele><time>2026-05-03T12:07:48.979Z</time></trkpt><trkpt lat="43.8901099" lon="10.6309059"><ele>113.0</ele><time>2026-05-03T12:07:49.996Z</time></trkpt><trkpt lat="43.890156" lon="10.6308273"><ele>113.0</ele><time>2026-05-03T12:07:50.989Z</time></trkpt><trkpt lat="43.8902045" lon="10.6307362"><ele>113.00000000000001</ele><time>2026-05-03T12:07:51.998Z</time></trkpt><trkpt lat="43.890258" lon="10.6306345"><ele>113.00000000000001</ele><time>2026-05-03T12:07:52.997Z</time></trkpt><trkpt lat="43.8903071" lon="10.6305195"><ele>113.0</ele><time>2026-05-03T12:07:54.01Z</time></trkpt><trkpt lat="43.8903525" lon="10.6304005"><ele>113.0</ele><time>2026-05-03T12:07:55.006Z</time></trkpt><trkpt lat="43.8904066" lon="10.6302861"><ele>115.0</ele><time>2026-05-03T12:07:56.005Z</time></trkpt><trkpt lat="43.8904635" lon="10.6301681"><ele>117.00000000000001</ele><time>2026-05-03T12:07:57.006Z</time></trkpt><trkpt lat="43.8905195" lon="10.6300541"><ele>119.00000000000001</ele><time>2026-05-03T12:07:58.01Z</time></trkpt><trkpt lat="43.8905711" lon="10.6299433"><ele>121.0</ele><time>2026-05-03T12:07:59Z</time></trkpt><trkpt lat="43.890627" lon="10.629838"><ele>123.0</ele><time>2026-05-03T12:08:00.01Z</time></trkpt><trkpt lat="43.8906871" lon="10.6297442"><ele>123.0</ele><time>2026-05-03T12:08:01.007Z</time></trkpt><trkpt lat="43.8907493" lon="10.6296685"><ele>123.0</ele><time>2026-05-03T12:08:02.009Z</time></trkpt><trkpt lat="43.890809" lon="10.6295937"><ele>123.0</ele><time>2026-05-03T12:08:03.006Z</time></trkpt><trkpt lat="43.8908685" lon="10.6295122"><ele>123.0</ele><time>2026-05-03T12:08:04.005Z</time></trkpt><trkpt lat="43.8909324" lon="10.6294362"><ele>123.0</ele><time>2026-05-03T12:08:05.007Z</time></trkpt><trkpt lat="43.8909968" lon="10.6293636"><ele>123.0</ele><time>2026-05-03T12:08:06.021Z</time></trkpt><trkpt lat="43.891053" lon="10.6292986"><ele>125.16666666666667</ele><time>2026-05-03T12:08:07.005Z</time></trkpt><trkpt lat="43.8911133" lon="10.6292343"><ele>127.33333333333334</ele><time>2026-05-03T12:08:08.009Z</time></trkpt><trkpt lat="43.8911812" lon="10.6291662"><ele>129.5</ele><time>2026-05-03T12:08:09.005Z</time></trkpt><trkpt lat="43.8912536" lon="10.6290976"><ele>131.66666666666669</ele><time>2026-05-03T12:08:10.005Z</time></trkpt><trkpt lat="43.8913258" lon="10.629017"><ele>133.83333333333334</ele><time>2026-05-03T12:08:10.994Z</time></trkpt><trkpt lat="43.891388" lon="10.6289231"><ele>136.0</ele><time>2026-05-03T12:08:11.999Z</time></trkpt><trkpt lat="43.8914358" lon="10.6288185"><ele>136.0</ele><time>2026-05-03T12:08:13.004Z</time></trkpt><trkpt lat="43.8914785" lon="10.6287161"><ele>136.0</ele><time>2026-05-03T12:08:13.983Z</time></trkpt><trkpt lat="43.8915192" lon="10.6286156"><ele>136.0</ele><time>2026-05-03T12:08:14.99Z</time></trkpt><trkpt lat="43.8915444" lon="10.6285344"><ele>136.0</ele><time>2026-05-03T12:08:15.987Z</time></trkpt><trkpt lat="43.8915729" lon="10.6284121"><ele>136.0</ele><time>2026-05-03T12:08:17.995Z</time></trkpt><trkpt lat="43.891605" lon="10.6282987"><ele>136.0</ele><time>2026-05-03T12:08:19.989Z</time></trkpt><trkpt lat="43.8916788" lon="10.6281525"><ele>136.66666666666669</ele><time>2026-05-03T12:08:21.985Z</time></trkpt><trkpt lat="43.8917315" lon="10.6280827"><ele>137.33333333333334</ele><time>2026-05-03T12:08:23.001Z</time></trkpt><trkpt lat="43.8917923" lon="10.6280278"><ele>138.0</ele><time>2026-05-03T12:08:23.989Z</time></trkpt><trkpt lat="43.8918641" lon="10.6279593"><ele>138.66666666666666</ele><time>2026-05-03T12:08:24.999Z</time></trkpt><trkpt lat="43.8919398" lon="10.6279043"><ele>139.33333333333331</ele><time>2026-05-03T12:08:25.996Z</time></trkpt><trkpt lat="43.8920126" lon="10.6278464"><ele>140.0</ele><time>2026-05-03T12:08:26.994Z</time></trkpt><trkpt lat="43.8920892" lon="10.627803"><ele>141.66666666666666</ele><time>2026-05-03T12:08:28Z</time></trkpt><trkpt lat="43.8921614" lon="10.6277691"><ele>143.33333333333331</ele><time>2026-05-03T12:08:28.997Z</time></trkpt><trkpt lat="43.8922405" lon="10.6277395"><ele>145.0</ele><time>2026-05-03T12:08:30.003Z</time></trkpt><trkpt lat="43.8923276" lon="10.6277039"><ele>146.66666666666666</ele><time>2026-05-03T12:08:31.007Z</time></trkpt><trkpt lat="43.892417" lon="10.6276682"><ele>148.33333333333334</ele><time>2026-05-03T12:08:32.006Z</time></trkpt><trkpt lat="43.8925044" lon="10.627623"><ele>150.0</ele><time>2026-05-03T12:08:33.008Z</time></trkpt><trkpt lat="43.8925971" lon="10.6275561"><ele>150.2</ele><time>2026-05-03T12:08:34.005Z</time></trkpt><trkpt lat="43.8926896" lon="10.6274896"><ele>150.4</ele><time>2026-05-03T12:08:35.005Z</time></trkpt><trkpt lat="43.8927704" lon="10.6274325"><ele>150.6</ele><time>2026-05-03T12:08:36.002Z</time></trkpt><trkpt lat="43.8928486" lon="10.6273846"><ele>150.8</ele><time>2026-05-03T12:08:37.018Z</time></trkpt><trkpt lat="43.8929276" lon="10.6273384"><ele>151.0</ele><time>2026-05-03T12:08:38.005Z</time></trkpt><trkpt lat="43.8930057" lon="10.6272881"><ele>151.0</ele><time>2026-05-03T12:08:39.006Z</time></trkpt><trkpt lat="43.8930845" lon="10.6272404"><ele>151.0</ele><time>2026-05-03T12:08:40.003Z</time></trkpt><trkpt lat="43.8931515" lon="10.6271963"><ele>151.0</ele><time>2026-05-03T12:08:40.999Z</time></trkpt><trkpt lat="43.8932425" lon="10.6271312"><ele>151.0</ele><time>2026-05-03T12:08:42.998Z</time></trkpt><trkpt lat="43.8932211" lon="10.6270084"><ele>151.0</ele><time>2026-05-03T12:08:47.002Z</time></trkpt><trkpt lat="43.8931668" lon="10.6268959"><ele>152.6</ele><time>2026-05-03T12:08:48.999Z</time></trkpt><trkpt lat="43.8931502" lon="10.6267887"><ele>154.2</ele><time>2026-05-03T12:08:50.999Z</time></trkpt><trkpt lat="43.8931997" lon="10.6267199"><ele>155.8</ele><time>2026-05-03T12:08:52.99Z</time></trkpt><trkpt lat="43.8932915" lon="10.6266406"><ele>157.4</ele><time>2026-05-03T12:08:55.001Z</time></trkpt><trkpt lat="43.8933876" lon="10.6265631"><ele>159.0</ele><time>2026-05-03T12:08:56.996Z</time></trkpt><trkpt lat="43.8934714" lon="10.6264352"><ele>160.0</ele><time>2026-05-03T12:08:58.993Z</time></trkpt><trkpt lat="43.8935116" lon="10.6263498"><ele>161.0</ele><time>2026-05-03T12:08:59.997Z</time></trkpt><trkpt lat="43.8935456" lon="10.6262589"><ele>162.0</ele><time>2026-05-03T12:09:01Z</time></trkpt><trkpt lat="43.8935872" lon="10.6261606"><ele>163.0</ele><time>2026-05-03T12:09:02.001Z</time></trkpt><trkpt lat="43.8936299" lon="10.6260505"><ele>164.0</ele><time>2026-05-03T12:09:02.998Z</time></trkpt><trkpt lat="43.89367" lon="10.6259407"><ele>165.0</ele><time>2026-05-03T12:09:03.995Z</time></trkpt><trkpt lat="43.8936995" lon="10.6258322"><ele>165.83333333333334</ele><time>2026-05-03T12:09:04.991Z</time></trkpt><trkpt lat="43.8937172" lon="10.6257204"><ele>166.66666666666666</ele><time>2026-05-03T12:09:05.998Z</time></trkpt><trkpt lat="43.8937277" lon="10.6256109"><ele>167.5</ele><time>2026-05-03T12:09:06.999Z</time></trkpt><trkpt lat="43.893727" lon="10.6255039"><ele>168.33333333333331</ele><time>2026-05-03T12:09:08.01Z</time></trkpt><trkpt lat="43.8937174" lon="10.6254007"><ele>169.16666666666666</ele><time>2026-05-03T12:09:08.99Z</time></trkpt><trkpt lat="43.8937055" lon="10.6252984"><ele>170.0</ele><time>2026-05-03T12:09:09.987Z</time></trkpt><trkpt lat="43.8936945" lon="10.6252032"><ele>170.16666666666666</ele><time>2026-05-03T12:09:10.994Z</time></trkpt><trkpt lat="43.8936898" lon="10.6251026"><ele>170.33333333333331</ele><time>2026-05-03T12:09:11.982Z</time></trkpt><trkpt lat="43.8936929" lon="10.624984"><ele>170.5</ele><time>2026-05-03T12:09:12.994Z</time></trkpt><trkpt lat="43.8937013" lon="10.6248645"><ele>170.66666666666666</ele><time>2026-05-03T12:09:13.993Z</time></trkpt><trkpt lat="43.8937049" lon="10.6247428"><ele>170.83333333333334</ele><time>2026-05-03T12:09:14.998Z</time></trkpt><trkpt lat="43.8937046" lon="10.6246164"><ele>171.0</ele><time>2026-05-03T12:09:15.998Z</time></trkpt><trkpt lat="43.8937027" lon="10.6244808"><ele>171.8</ele><time>2026-05-03T12:09:16.996Z</time></trkpt><trkpt lat="43.8936894" lon="10.6243388"><ele>172.60000000000002</ele><time>2026-05-03T12:09:17.995Z</time></trkpt><trkpt lat="43.893667" lon="10.6242012"><ele>173.4</ele><time>2026-05-03T12:09:18.992Z</time></trkpt><trkpt lat="43.893649" lon="10.6240761"><ele>174.2</ele><time>2026-05-03T12:09:19.979Z</time></trkpt><trkpt lat="43.8936348" lon="10.6239766"><ele>175.0</ele><time>2026-05-03T12:09:20.991Z</time></trkpt><trkpt lat="43.893625" lon="10.6238483"><ele>175.0</ele><time>2026-05-03T12:09:23Z</time></trkpt><trkpt lat="43.8936714" lon="10.6236759"><ele>175.0</ele><time>2026-05-03T12:09:24.99Z</time></trkpt><trkpt lat="43.8937164" lon="10.6235684"><ele>175.0</ele><time>2026-05-03T12:09:25.998Z</time></trkpt><trkpt lat="43.893761" lon="10.6234556"><ele>175.0</ele><time>2026-05-03T12:09:27.003Z</time></trkpt><trkpt lat="43.8938001" lon="10.6233297"><ele>175.0</ele><time>2026-05-03T12:09:27.993Z</time></trkpt><trkpt lat="43.8938262" lon="10.6231934"><ele>175.4</ele><time>2026-05-03T12:09:28.998Z</time></trkpt><trkpt lat="43.8938416" lon="10.6230457"><ele>175.8</ele><time>2026-05-03T12:09:29.998Z</time></trkpt><trkpt lat="43.8938465" lon="10.6228933"><ele>176.2</ele><time>2026-05-03T12:09:31.006Z</time></trkpt><trkpt lat="43.8938514" lon="10.6227461"><ele>176.6</ele><time>2026-05-03T12:09:32.004Z</time></trkpt><trkpt lat="43.8938635" lon="10.6226084"><ele>177.0</ele><time>2026-05-03T12:09:33.002Z</time></trkpt><trkpt lat="43.8938833" lon="10.6224824"><ele>177.0</ele><time>2026-05-03T12:09:33.999Z</time></trkpt><trkpt lat="43.8939089" lon="10.6223606"><ele>177.0</ele><time>2026-05-03T12:09:35.003Z</time></trkpt><trkpt lat="43.8939368" lon="10.6222478"><ele>177.0</ele><time>2026-05-03T12:09:35.992Z</time></trkpt><trkpt lat="43.8939625" lon="10.6221587"><ele>177.0</ele><time>2026-05-03T12:09:36.993Z</time></trkpt><trkpt lat="43.8939936" lon="10.6220805"><ele>177.0</ele><time>2026-05-03T12:09:37.993Z</time></trkpt><trkpt lat="43.8940755" lon="10.6219768"><ele>177.0</ele><time>2026-05-03T12:09:39.988Z</time></trkpt><trkpt lat="43.8941383" lon="10.6218956"><ele>177.0</ele><time>2026-05-03T12:09:41.984Z</time></trkpt><trkpt lat="43.8941619" lon="10.6217942"><ele>177.0</ele><time>2026-05-03T12:09:43.983Z</time></trkpt><trkpt lat="43.8941858" lon="10.6216604"><ele>177.0</ele><time>2026-05-03T12:09:45.975Z</time></trkpt><trkpt lat="43.8942067" lon="10.6215264"><ele>177.0</ele><time>2026-05-03T12:09:47.976Z</time></trkpt><trkpt lat="43.8942535" lon="10.6214326"><ele>177.0</ele><time>2026-05-03T12:09:49.966Z</time></trkpt><trkpt lat="43.8943192" lon="10.6215246"><ele>178.39999999999998</ele><time>2026-05-03T12:09:56.975Z</time></trkpt><trkpt lat="43.8943495" lon="10.621701"><ele>179.79999999999998</ele><time>2026-05-03T12:09:58.98Z</time></trkpt><trkpt lat="43.8943722" lon="10.6218073"><ele>181.2</ele><time>2026-05-03T12:09:59.979Z</time></trkpt><trkpt lat="43.8944052" lon="10.6219299"><ele>182.6</ele><time>2026-05-03T12:10:00.983Z</time></trkpt><trkpt lat="43.8944422" lon="10.6220662"><ele>184.0</ele><time>2026-05-03T12:10:01.992Z</time></trkpt><trkpt lat="43.8944791" lon="10.6221898"><ele>185.5</ele><time>2026-05-03T12:10:02.991Z</time></trkpt><trkpt lat="43.8945101" lon="10.6222991"><ele>187.0</ele><time>2026-05-03T12:10:03.982Z</time></trkpt><trkpt lat="43.8945465" lon="10.6224146"><ele>188.5</ele><time>2026-05-03T12:10:04.983Z</time></trkpt><trkpt lat="43.894589" lon="10.6225238"><ele>190.0</ele><time>2026-05-03T12:10:05.982Z</time></trkpt><trkpt lat="43.8946443" lon="10.6226231"><ele>191.49999999999997</ele><time>2026-05-03T12:10:06.99Z</time></trkpt><trkpt lat="43.8947109" lon="10.6227093"><ele>193.0</ele><time>2026-05-03T12:10:07.982Z</time></trkpt><trkpt lat="43.8947921" lon="10.6227849"><ele>193.0</ele><time>2026-05-03T12:10:08.985Z</time></trkpt><trkpt lat="43.8948851" lon="10.6228583"><ele>193.0</ele><time>2026-05-03T12:10:10.004Z</time></trkpt><trkpt lat="43.8949746" lon="10.622936"><ele>193.0</ele><time>2026-05-03T12:10:10.988Z</time></trkpt><trkpt lat="43.895058" lon="10.6230289"><ele>193.0</ele><time>2026-05-03T12:10:11.988Z</time></trkpt><trkpt lat="43.8951307" lon="10.6231428"><ele>193.0</ele><time>2026-05-03T12:10:12.98Z</time></trkpt><trkpt lat="43.8951869" lon="10.6232694"><ele>195.66666666666666</ele><time>2026-05-03T12:10:13.971Z</time></trkpt><trkpt lat="43.8952323" lon="10.6233931"><ele>198.33333333333331</ele><time>2026-05-03T12:10:14.982Z</time></trkpt><trkpt lat="43.8952717" lon="10.6234913"><ele>201.0</ele><time>2026-05-03T12:10:15.972Z</time></trkpt><trkpt lat="43.8953517" lon="10.623569"><ele>203.66666666666669</ele><time>2026-05-03T12:10:17.982Z</time></trkpt><trkpt lat="43.8954328" lon="10.6235153"><ele>206.33333333333334</ele><time>2026-05-03T12:10:19.979Z</time></trkpt><trkpt lat="43.8954659" lon="10.6234232"><ele>209.0</ele><time>2026-05-03T12:10:20.981Z</time></trkpt><trkpt lat="43.8954767" lon="10.6233051"><ele>209.00000000000003</ele><time>2026-05-03T12:10:21.975Z</time></trkpt><trkpt lat="43.8954764" lon="10.6231813"><ele>209.0</ele><time>2026-05-03T12:10:22.991Z</time></trkpt><trkpt lat="43.8954731" lon="10.6230518"><ele>209.0</ele><time>2026-05-03T12:10:23.984Z</time></trkpt><trkpt lat="43.8954769" lon="10.6229321"><ele>209.0</ele><time>2026-05-03T12:10:24.983Z</time></trkpt><trkpt lat="43.8954877" lon="10.6228214"><ele>209.00000000000003</ele><time>2026-05-03T12:10:25.986Z</time></trkpt><trkpt lat="43.8955143" lon="10.6227293"><ele>209.0</ele><time>2026-05-03T12:10:26.984Z</time></trkpt><trkpt lat="43.8955584" lon="10.6226572"><ele>209.14285714285714</ele><time>2026-05-03T12:10:27.996Z</time></trkpt><trkpt lat="43.8956189" lon="10.6226136"><ele>209.28571428571428</ele><time>2026-05-03T12:10:28.994Z</time></trkpt><trkpt lat="43.8956917" lon="10.622611"><ele>209.42857142857144</ele><time>2026-05-03T12:10:29.991Z</time></trkpt><trkpt lat="43.8957616" lon="10.6226407"><ele>209.57142857142856</ele><time>2026-05-03T12:10:30.992Z</time></trkpt><trkpt lat="43.8958324" lon="10.6226851"><ele>209.71428571428572</ele><time>2026-05-03T12:10:31.991Z</time></trkpt><trkpt lat="43.8959014" lon="10.6227293"><ele>209.85714285714286</ele><time>2026-05-03T12:10:32.991Z</time></trkpt><trkpt lat="43.8959696" lon="10.6227604"><ele>210.0</ele><time>2026-05-03T12:10:33.989Z</time></trkpt><trkpt lat="43.8960321" lon="10.6227781"><ele>210.0</ele><time>2026-05-03T12:10:34.987Z</time></trkpt><trkpt lat="43.8961396" lon="10.6228022"><ele>210.0</ele><time>2026-05-03T12:10:36.977Z</time></trkpt><trkpt lat="43.8962254" lon="10.622848"><ele>210.0</ele><time>2026-05-03T12:10:38.973Z</time></trkpt><trkpt lat="43.8962749" lon="10.6229403"><ele>210.0</ele><time>2026-05-03T12:10:41.004Z</time></trkpt><trkpt lat="43.8963319" lon="10.6230489"><ele>210.0</ele><time>2026-05-03T12:10:42.979Z</time></trkpt><trkpt lat="43.8963862" lon="10.6230943"><ele>210.0</ele><time>2026-05-03T12:10:44.981Z</time></trkpt><trkpt lat="43.8964536" lon="10.6230944"><ele>213.0</ele><time>2026-05-03T12:10:46.973Z</time></trkpt><trkpt lat="43.8965704" lon="10.6230499"><ele>216.0</ele><time>2026-05-03T12:10:48.977Z</time></trkpt><trkpt lat="43.8966375" lon="10.6230246"><ele>219.0</ele><time>2026-05-03T12:10:49.981Z</time></trkpt><trkpt lat="43.8967148" lon="10.6229971"><ele>222.0</ele><time>2026-05-03T12:10:50.973Z</time></trkpt><trkpt lat="43.8968004" lon="10.622974"><ele>225.0</ele><time>2026-05-03T12:10:51.967Z</time></trkpt><trkpt lat="43.8968995" lon="10.6229577"><ele>225.4</ele><time>2026-05-03T12:10:52.962Z</time></trkpt><trkpt lat="43.8970099" lon="10.6229535"><ele>225.8</ele><time>2026-05-03T12:10:53.968Z</time></trkpt><trkpt lat="43.897116" lon="10.622984"><ele>226.2</ele><time>2026-05-03T12:10:54.965Z</time></trkpt><trkpt lat="43.8972013" lon="10.6230259"><ele>226.6</ele><time>2026-05-03T12:10:55.96Z</time></trkpt><trkpt lat="43.8972779" lon="10.6230715"><ele>227.0</ele><time>2026-05-03T12:10:56.962Z</time></trkpt><trkpt lat="43.8973479" lon="10.6231281"><ele>227.00000000000003</ele><time>2026-05-03T12:10:57.959Z</time></trkpt><trkpt lat="43.8974103" lon="10.6231986"><ele>227.0</ele><time>2026-05-03T12:10:58.966Z</time></trkpt><trkpt lat="43.8974514" lon="10.6232974"><ele>227.0</ele><time>2026-05-03T12:10:59.971Z</time></trkpt><trkpt lat="43.8974739" lon="10.6234175"><ele>227.0</ele><time>2026-05-03T12:11:00.973Z</time></trkpt><trkpt lat="43.8974744" lon="10.6235448"><ele>227.00000000000003</ele><time>2026-05-03T12:11:01.967Z</time></trkpt><trkpt lat="43.8974766" lon="10.6236622"><ele>227.0</ele><time>2026-05-03T12:11:02.962Z</time></trkpt><trkpt lat="43.8974915" lon="10.6237562"><ele>227.16666666666669</ele><time>2026-05-03T12:11:03.965Z</time></trkpt><trkpt lat="43.8975338" lon="10.6238344"><ele>227.33333333333334</ele><time>2026-05-03T12:11:04.97Z</time></trkpt><trkpt lat="43.897595" lon="10.6238803"><ele>227.5</ele><time>2026-05-03T12:11:05.957Z</time></trkpt><trkpt lat="43.8976707" lon="10.6238998"><ele>227.66666666666669</ele><time>2026-05-03T12:11:06.948Z</time></trkpt><trkpt lat="43.897754" lon="10.6239018"><ele>227.83333333333334</ele><time>2026-05-03T12:11:07.941Z</time></trkpt><trkpt lat="43.8978448" lon="10.6238927"><ele>228.0</ele><time>2026-05-03T12:11:08.957Z</time></trkpt><trkpt lat="43.8979483" lon="10.6239165"><ele>230.2</ele><time>2026-05-03T12:11:09.953Z</time></trkpt><trkpt lat="43.8980591" lon="10.6239435"><ele>232.4</ele><time>2026-05-03T12:11:10.952Z</time></trkpt><trkpt lat="43.8981633" lon="10.6239687"><ele>234.59999999999997</ele><time>2026-05-03T12:11:11.971Z</time></trkpt><trkpt lat="43.8982581" lon="10.6239786"><ele>236.79999999999998</ele><time>2026-05-03T12:11:12.966Z</time></trkpt><trkpt lat="43.8983488" lon="10.6239844"><ele>239.0</ele><time>2026-05-03T12:11:13.964Z</time></trkpt><trkpt lat="43.8984357" lon="10.6239885"><ele>241.0</ele><time>2026-05-03T12:11:14.967Z</time></trkpt><trkpt lat="43.8985292" lon="10.6240016"><ele>242.99999999999997</ele><time>2026-05-03T12:11:15.964Z</time></trkpt><trkpt lat="43.8986316" lon="10.6240399"><ele>244.99999999999997</ele><time>2026-05-03T12:11:16.981Z</time></trkpt><trkpt lat="43.8987355" lon="10.6240737"><ele>247.0</ele><time>2026-05-03T12:11:17.975Z</time></trkpt><trkpt lat="43.8988439" lon="10.6240954"><ele>249.0</ele><time>2026-05-03T12:11:18.975Z</time></trkpt><trkpt lat="43.8989543" lon="10.6241068"><ele>249.0</ele><time>2026-05-03T12:11:19.976Z</time></trkpt><trkpt lat="43.8990607" lon="10.6241126"><ele>248.99999999999997</ele><time>2026-05-03T12:11:20.97Z</time></trkpt><trkpt lat="43.8991583" lon="10.6241053"><ele>248.99999999999997</ele><time>2026-05-03T12:11:21.972Z</time></trkpt><trkpt lat="43.8992528" lon="10.6240894"><ele>249.0</ele><time>2026-05-03T12:11:22.968Z</time></trkpt><trkpt lat="43.8993546" lon="10.6240665"><ele>249.0</ele><time>2026-05-03T12:11:23.974Z</time></trkpt><trkpt lat="43.8994605" lon="10.6240354"><ele>254.6</ele><time>2026-05-03T12:11:24.967Z</time></trkpt><trkpt lat="43.8995594" lon="10.6239879"><ele>260.2</ele><time>2026-05-03T12:11:25.961Z</time></trkpt><trkpt lat="43.8996484" lon="10.6239346"><ele>265.79999999999995</ele><time>2026-05-03T12:11:26.962Z</time></trkpt><trkpt lat="43.8997319" lon="10.623873"><ele>271.4</ele><time>2026-05-03T12:11:27.962Z</time></trkpt><trkpt lat="43.8998198" lon="10.6238093"><ele>277.0</ele><time>2026-05-03T12:11:28.949Z</time></trkpt><trkpt lat="43.8999013" lon="10.6237228"><ele>277.0</ele><time>2026-05-03T12:11:29.951Z</time></trkpt><trkpt lat="43.8999595" lon="10.6236228"><ele>277.0</ele><time>2026-05-03T12:11:30.956Z</time></trkpt><trkpt lat="43.8999954" lon="10.6235257"><ele>277.0</ele><time>2026-05-03T12:11:31.957Z</time></trkpt><trkpt lat="43.9000637" lon="10.6234804"><ele>277.0</ele><time>2026-05-03T12:11:33.956Z</time></trkpt><trkpt lat="43.9000863" lon="10.6235861"><ele>277.0</ele><time>2026-05-03T12:11:35.959Z</time></trkpt><trkpt lat="43.9000668" lon="10.6236808"><ele>277.0</ele><time>2026-05-03T12:11:36.947Z</time></trkpt><trkpt lat="43.900027" lon="10.6237795"><ele>277.0</ele><time>2026-05-03T12:11:37.952Z</time></trkpt><trkpt lat="43.8999737" lon="10.6238835"><ele>277.0</ele><time>2026-05-03T12:11:38.952Z</time></trkpt><trkpt lat="43.8999245" lon="10.6240097"><ele>277.0</ele><time>2026-05-03T12:11:39.954Z</time></trkpt><trkpt lat="43.8998687" lon="10.6241442"><ele>277.0</ele><time>2026-05-03T12:11:40.957Z</time></trkpt><trkpt lat="43.8998165" lon="10.6242608"><ele>277.0</ele><time>2026-05-03T12:11:41.959Z</time></trkpt><trkpt lat="43.8997685" lon="10.6243688"><ele>277.0</ele><time>2026-05-03T12:11:42.992Z</time></trkpt><trkpt lat="43.8997156" lon="10.6244722"><ele>277.0</ele><time>2026-05-03T12:11:43.957Z</time></trkpt><trkpt lat="43.8996733" lon="10.6245849"><ele>277.0</ele><time>2026-05-03T12:11:44.964Z</time></trkpt><trkpt lat="43.8996502" lon="10.6247032"><ele>277.0</ele><time>2026-05-03T12:11:45.964Z</time></trkpt><trkpt lat="43.899637" lon="10.6248135"><ele>277.0</ele><time>2026-05-03T12:11:46.966Z</time></trkpt><trkpt lat="43.8996393" lon="10.6249212"><ele>277.0</ele><time>2026-05-03T12:11:47.97Z</time></trkpt><trkpt lat="43.8996624" lon="10.6250261"><ele>277.3333333333333</ele><time>2026-05-03T12:11:48.97Z</time></trkpt><trkpt lat="43.8997116" lon="10.6251091"><ele>277.66666666666663</ele><time>2026-05-03T12:11:49.967Z</time></trkpt><trkpt lat="43.8997772" lon="10.6251656"><ele>278.0</ele><time>2026-05-03T12:11:50.975Z</time></trkpt><trkpt lat="43.899867" lon="10.6251831"><ele>278.3333333333333</ele><time>2026-05-03T12:11:51.965Z</time></trkpt><trkpt lat="43.8999622" lon="10.6252024"><ele>278.6666666666667</ele><time>2026-05-03T12:11:52.966Z</time></trkpt><trkpt lat="43.9000546" lon="10.6252262"><ele>279.0</ele><time>2026-05-03T12:11:53.957Z</time></trkpt><trkpt lat="43.9001324" lon="10.6252722"><ele>282.3333333333333</ele><time>2026-05-03T12:11:54.958Z</time></trkpt><trkpt lat="43.9001974" lon="10.6253391"><ele>285.6666666666667</ele><time>2026-05-03T12:11:55.954Z</time></trkpt><trkpt lat="43.9002334" lon="10.6254443"><ele>289.0</ele><time>2026-05-03T12:11:56.953Z</time></trkpt><trkpt lat="43.9002369" lon="10.6255635"><ele>292.33333333333337</ele><time>2026-05-03T12:11:57.961Z</time></trkpt><trkpt lat="43.9002064" lon="10.6256839"><ele>295.6666666666667</ele><time>2026-05-03T12:11:58.958Z</time></trkpt><trkpt lat="43.9001588" lon="10.6257935"><ele>299.0</ele><time>2026-05-03T12:11:59.964Z</time></trkpt><trkpt lat="43.9001202" lon="10.6258885"><ele>299.0</ele><time>2026-05-03T12:12:00.972Z</time></trkpt><trkpt lat="43.9001013" lon="10.625981"><ele>299.0</ele><time>2026-05-03T12:12:01.977Z</time></trkpt><trkpt lat="43.9001404" lon="10.6260908"><ele>299.0</ele><time>2026-05-03T12:12:03.988Z</time></trkpt><trkpt lat="43.900213" lon="10.6261016"><ele>299.0</ele><time>2026-05-03T12:12:04.972Z</time></trkpt><trkpt lat="43.9003114" lon="10.6260956"><ele>299.0</ele><time>2026-05-03T12:12:05.97Z</time></trkpt><trkpt lat="43.9004187" lon="10.6260721"><ele>299.0</ele><time>2026-05-03T12:12:06.972Z</time></trkpt><trkpt lat="43.9005329" lon="10.6260493"><ele>299.0</ele><time>2026-05-03T12:12:07.966Z</time></trkpt><trkpt lat="43.9006533" lon="10.6260352"><ele>299.0</ele><time>2026-05-03T12:12:08.965Z</time></trkpt><trkpt lat="43.9007767" lon="10.6260425"><ele>299.0</ele><time>2026-05-03T12:12:09.958Z</time></trkpt><trkpt lat="43.9008954" lon="10.6260757"><ele>299.0</ele><time>2026-05-03T12:12:10.955Z</time></trkpt><trkpt lat="43.9010073" lon="10.6261326"><ele>292.0</ele><time>2026-05-03T12:12:11.957Z</time></trkpt><trkpt lat="43.9011238" lon="10.6261871"><ele>285.0</ele><time>2026-05-03T12:12:12.97Z</time></trkpt><trkpt lat="43.9012365" lon="10.6262287"><ele>278.0</ele><time>2026-05-03T12:12:13.952Z</time></trkpt><trkpt lat="43.9013456" lon="10.6262525"><ele>271.0</ele><time>2026-05-03T12:12:14.953Z</time></trkpt><trkpt lat="43.901453" lon="10.6262448"><ele>271.0</ele><time>2026-05-03T12:12:15.956Z</time></trkpt><trkpt lat="43.9015575" lon="10.6262042"><ele>271.0</ele><time>2026-05-03T12:12:16.947Z</time></trkpt><trkpt lat="43.9016642" lon="10.6261575"><ele>271.0</ele><time>2026-05-03T12:12:17.946Z</time></trkpt><trkpt lat="43.9017703" lon="10.6261097"><ele>271.0</ele><time>2026-05-03T12:12:18.95Z</time></trkpt><trkpt lat="43.9018929" lon="10.6260734"><ele>279.0</ele><time>2026-05-03T12:12:19.95Z</time></trkpt><trkpt lat="43.9020099" lon="10.626032"><ele>287.0</ele><time>2026-05-03T12:12:20.955Z</time></trkpt><trkpt lat="43.9021199" lon="10.6259809"><ele>295.0</ele><time>2026-05-03T12:12:21.953Z</time></trkpt><trkpt lat="43.9022232" lon="10.6259147"><ele>303.0</ele><time>2026-05-03T12:12:22.953Z</time></trkpt><trkpt lat="43.9023328" lon="10.6258457"><ele>303.0</ele><time>2026-05-03T12:12:23.955Z</time></trkpt><trkpt lat="43.9024455" lon="10.625777"><ele>303.0</ele><time>2026-05-03T12:12:24.953Z</time></trkpt><trkpt lat="43.9025638" lon="10.6257266"><ele>303.0</ele><time>2026-05-03T12:12:25.964Z</time></trkpt><trkpt lat="43.9026857" lon="10.6257014"><ele>303.0</ele><time>2026-05-03T12:12:26.958Z</time></trkpt><trkpt lat="43.9028024" lon="10.625688"><ele>305.0</ele><time>2026-05-03T12:12:27.956Z</time></trkpt><trkpt lat="43.9029135" lon="10.6256808"><ele>307.0</ele><time>2026-05-03T12:12:28.961Z</time></trkpt><trkpt lat="43.9030136" lon="10.6256996"><ele>309.0</ele><time>2026-05-03T12:12:29.956Z</time></trkpt><trkpt lat="43.9031092" lon="10.6257152"><ele>311.0</ele><time>2026-05-03T12:12:30.959Z</time></trkpt><trkpt lat="43.9032004" lon="10.6257211"><ele>313.0</ele><time>2026-05-03T12:12:31.959Z</time></trkpt><trkpt lat="43.9032763" lon="10.6257405"><ele>313.0</ele><time>2026-05-03T12:12:32.951Z</time></trkpt><trkpt lat="43.9033366" lon="10.6257757"><ele>313.0</ele><time>2026-05-03T12:12:33.945Z</time></trkpt><trkpt lat="43.9034079" lon="10.6259117"><ele>313.0</ele><time>2026-05-03T12:12:35.949Z</time></trkpt><trkpt lat="43.90344" lon="10.6260097"><ele>313.0</ele><time>2026-05-03T12:12:36.943Z</time></trkpt><trkpt lat="43.9035014" lon="10.6260952"><ele>313.0</ele><time>2026-05-03T12:12:37.945Z</time></trkpt><trkpt lat="43.9035836" lon="10.6261651"><ele>313.0</ele><time>2026-05-03T12:12:38.943Z</time></trkpt><trkpt lat="43.9036675" lon="10.6262267"><ele>314.2</ele><time>2026-05-03T12:12:39.94Z</time></trkpt><trkpt lat="43.9037425" lon="10.6263019"><ele>315.4</ele><time>2026-05-03T12:12:40.94Z</time></trkpt><trkpt lat="43.9037983" lon="10.6263936"><ele>316.59999999999997</ele><time>2026-05-03T12:12:41.94Z</time></trkpt><trkpt lat="43.9038382" lon="10.6264977"><ele>317.8</ele><time>2026-05-03T12:12:42.947Z</time></trkpt><trkpt lat="43.9038741" lon="10.62662"><ele>319.0</ele><time>2026-05-03T12:12:43.966Z</time></trkpt><trkpt lat="43.9039292" lon="10.6267336"><ele>319.0</ele><time>2026-05-03T12:12:44.94Z</time></trkpt><trkpt lat="43.903997" lon="10.6268401"><ele>319.0</ele><time>2026-05-03T12:12:45.95Z</time></trkpt><trkpt lat="43.9040792" lon="10.6269239"><ele>319.0</ele><time>2026-05-03T12:12:46.942Z</time></trkpt><trkpt lat="43.9041663" lon="10.6269779"><ele>319.0</ele><time>2026-05-03T12:12:47.936Z</time></trkpt><trkpt lat="43.9042539" lon="10.6270134"><ele>319.0</ele><time>2026-05-03T12:12:48.955Z</time></trkpt><trkpt lat="43.904334" lon="10.6270245"><ele>322.66666666666663</ele><time>2026-05-03T12:12:49.948Z</time></trkpt><trkpt lat="43.9044167" lon="10.6270188"><ele>326.3333333333333</ele><time>2026-05-03T12:12:50.946Z</time></trkpt><trkpt lat="43.9045083" lon="10.6270055"><ele>330.0</ele><time>2026-05-03T12:12:51.953Z</time></trkpt><trkpt lat="43.9045965" lon="10.6269966"><ele>333.6666666666667</ele><time>2026-05-03T12:12:52.949Z</time></trkpt><trkpt lat="43.9046794" lon="10.6269905"><ele>337.33333333333337</ele><time>2026-05-03T12:12:53.95Z</time></trkpt><trkpt lat="43.9047548" lon="10.6269873"><ele>341.0</ele><time>2026-05-03T12:12:54.951Z</time></trkpt><trkpt lat="43.9048232" lon="10.6269902"><ele>341.0</ele><time>2026-05-03T12:12:55.947Z</time></trkpt><trkpt lat="43.9049314" lon="10.6270103"><ele>341.0</ele><time>2026-05-03T12:12:57.939Z</time></trkpt><trkpt lat="43.904991" lon="10.6270475"><ele>341.0</ele><time>2026-05-03T12:12:59.943Z</time></trkpt><trkpt lat="43.9049336" lon="10.6269567"><ele>341.0</ele><time>2026-05-03T12:13:05.937Z</time></trkpt><trkpt lat="43.9048562" lon="10.6269431"><ele>341.0</ele><time>2026-05-03T12:13:06.946Z</time></trkpt><trkpt lat="43.904782" lon="10.6269221"><ele>341.0</ele><time>2026-05-03T12:13:07.939Z</time></trkpt><trkpt lat="43.9047021" lon="10.6268967"><ele>340.4</ele><time>2026-05-03T12:13:08.937Z</time></trkpt><trkpt lat="43.9046021" lon="10.6268521"><ele>339.8</ele><time>2026-05-03T12:13:09.945Z</time></trkpt><trkpt lat="43.9044949" lon="10.6267845"><ele>339.2</ele><time>2026-05-03T12:13:10.941Z</time></trkpt><trkpt lat="43.9043936" lon="10.6267309"><ele>338.59999999999997</ele><time>2026-05-03T12:13:11.951Z</time></trkpt><trkpt lat="43.9043074" lon="10.6266801"><ele>338.0</ele><time>2026-05-03T12:13:12.947Z</time></trkpt><trkpt lat="43.9042288" lon="10.6266243"><ele>338.5</ele><time>2026-05-03T12:13:13.947Z</time></trkpt><trkpt lat="43.9041696" lon="10.6265619"><ele>339.0</ele><time>2026-05-03T12:13:14.962Z</time></trkpt><trkpt lat="43.9041297" lon="10.6264824"><ele>339.5</ele><time>2026-05-03T12:13:15.943Z</time></trkpt><trkpt lat="43.9040946" lon="10.6264055"><ele>340.0</ele><time>2026-05-03T12:13:16.944Z</time></trkpt><trkpt lat="43.9040759" lon="10.6262886"><ele>340.5</ele><time>2026-05-03T12:13:17.945Z</time></trkpt><trkpt lat="43.9040518" lon="10.6261551"><ele>341.0</ele><time>2026-05-03T12:13:18.948Z</time></trkpt><trkpt lat="43.9040213" lon="10.6260369"><ele>341.0</ele><time>2026-05-03T12:13:19.944Z</time></trkpt><trkpt lat="43.90398" lon="10.6259287"><ele>341.0</ele><time>2026-05-03T12:13:20.947Z</time></trkpt><trkpt lat="43.9039218" lon="10.6258232"><ele>341.0</ele><time>2026-05-03T12:13:21.953Z</time></trkpt><trkpt lat="43.9038534" lon="10.6257157"><ele>341.0</ele><time>2026-05-03T12:13:22.954Z</time></trkpt><trkpt lat="43.9037906" lon="10.6256082"><ele>341.0</ele><time>2026-05-03T12:13:23.954Z</time></trkpt><trkpt lat="43.9037189" lon="10.6254962"><ele>341.0</ele><time>2026-05-03T12:13:24.959Z</time></trkpt><trkpt lat="43.9036418" lon="10.6253872"><ele>341.0</ele><time>2026-05-03T12:13:25.954Z</time></trkpt><trkpt lat="43.9035627" lon="10.6252804"><ele>341.0</ele><time>2026-05-03T12:13:26.954Z</time></trkpt><trkpt lat="43.9034845" lon="10.6251717"><ele>341.0</ele><time>2026-05-03T12:13:27.954Z</time></trkpt><trkpt lat="43.9034196" lon="10.625071"><ele>341.0</ele><time>2026-05-03T12:13:28.957Z</time></trkpt><trkpt lat="43.9033594" lon="10.6249776"><ele>340.6666666666667</ele><time>2026-05-03T12:13:29.956Z</time></trkpt><trkpt lat="43.9033001" lon="10.6248871"><ele>340.33333333333337</ele><time>2026-05-03T12:13:30.951Z</time></trkpt><trkpt lat="43.9032322" lon="10.6248166"><ele>340.0</ele><time>2026-05-03T12:13:31.952Z</time></trkpt><trkpt lat="43.9031566" lon="10.6247686"><ele>339.6666666666667</ele><time>2026-05-03T12:13:32.952Z</time></trkpt><trkpt lat="43.9030725" lon="10.6247914"><ele>339.3333333333333</ele><time>2026-05-03T12:13:33.952Z</time></trkpt><trkpt lat="43.9029887" lon="10.6248252"><ele>339.0</ele><time>2026-05-03T12:13:34.953Z</time></trkpt><trkpt lat="43.9029116" lon="10.6248461"><ele>339.0</ele><time>2026-05-03T12:13:35.959Z</time></trkpt><trkpt lat="43.9027942" lon="10.6248775"><ele>339.0</ele><time>2026-05-03T12:13:37.963Z</time></trkpt><trkpt lat="43.9027291" lon="10.6248484"><ele>339.0</ele><time>2026-05-03T12:13:38.971Z</time></trkpt><trkpt lat="43.9026658" lon="10.624808"><ele>339.0</ele><time>2026-05-03T12:13:39.965Z</time></trkpt><trkpt lat="43.9026051" lon="10.6247763"><ele>339.0</ele><time>2026-05-03T12:13:40.961Z</time></trkpt><trkpt lat="43.9025202" lon="10.6246898"><ele>339.0</ele><time>2026-05-03T12:13:42.973Z</time></trkpt><trkpt lat="43.9025327" lon="10.624577"><ele>339.0</ele><time>2026-05-03T12:13:44.978Z</time></trkpt><trkpt lat="43.902622" lon="10.6245192"><ele>339.0</ele><time>2026-05-03T12:13:46.967Z</time></trkpt><trkpt lat="43.9027001" lon="10.6245588"><ele>339.0</ele><time>2026-05-03T12:13:48.977Z</time></trkpt><trkpt lat="43.9027963" lon="10.6246606"><ele>339.0</ele><time>2026-05-03T12:13:50.98Z</time></trkpt><trkpt lat="43.9028993" lon="10.6246905"><ele>339.0</ele><time>2026-05-03T12:13:52.975Z</time></trkpt><trkpt lat="43.9029648" lon="10.6246678"><ele>339.0</ele><time>2026-05-03T12:13:53.974Z</time></trkpt><trkpt lat="43.9030396" lon="10.6246401"><ele>339.0</ele><time>2026-05-03T12:13:54.975Z</time></trkpt><trkpt lat="43.9031157" lon="10.6246051"><ele>339.0</ele><time>2026-05-03T12:13:55.977Z</time></trkpt><trkpt lat="43.9031864" lon="10.6245642"><ele>339.0</ele><time>2026-05-03T12:13:56.968Z</time></trkpt><trkpt lat="43.9032548" lon="10.6245113"><ele>339.0</ele><time>2026-05-03T12:13:57.962Z</time></trkpt><trkpt lat="43.9033187" lon="10.6244529"><ele>339.0</ele><time>2026-05-03T12:13:58.956Z</time></trkpt><trkpt lat="43.9033756" lon="10.6243906"><ele>347.6</ele><time>2026-05-03T12:13:59.955Z</time></trkpt><trkpt lat="43.9034251" lon="10.6243249"><ele>356.2</ele><time>2026-05-03T12:14:00.963Z</time></trkpt><trkpt lat="43.9035237" lon="10.6242396"><ele>364.8</ele><time>2026-05-03T12:14:02.956Z</time></trkpt><trkpt lat="43.903651" lon="10.6242521"><ele>373.40000000000003</ele><time>2026-05-03T12:14:04.953Z</time></trkpt><trkpt lat="43.9037269" lon="10.6243087"><ele>382.0</ele><time>2026-05-03T12:14:05.955Z</time></trkpt><trkpt lat="43.9038058" lon="10.6243906"><ele>379.20000000000005</ele><time>2026-05-03T12:14:06.954Z</time></trkpt><trkpt lat="43.9038888" lon="10.6244939"><ele>376.4</ele><time>2026-05-03T12:14:07.954Z</time></trkpt><trkpt lat="43.9039648" lon="10.6246137"><ele>373.6</ele><time>2026-05-03T12:14:08.955Z</time></trkpt><trkpt lat="43.904043" lon="10.6247262"><ele>370.79999999999995</ele><time>2026-05-03T12:14:09.958Z</time></trkpt><trkpt lat="43.9041135" lon="10.6248244"><ele>368.0</ele><time>2026-05-03T12:14:10.959Z</time></trkpt><trkpt lat="43.904179" lon="10.6249266"><ele>372.1666666666667</ele><time>2026-05-03T12:14:11.963Z</time></trkpt><trkpt lat="43.9042473" lon="10.6250248"><ele>376.33333333333337</ele><time>2026-05-03T12:14:12.957Z</time></trkpt><trkpt lat="43.9043105" lon="10.625107"><ele>380.5</ele><time>2026-05-03T12:14:13.958Z</time></trkpt><trkpt lat="43.9043725" lon="10.6251682"><ele>384.6666666666667</ele><time>2026-05-03T12:14:14.959Z</time></trkpt><trkpt lat="43.9044396" lon="10.6252114"><ele>388.8333333333333</ele><time>2026-05-03T12:14:15.961Z</time></trkpt><trkpt lat="43.9045157" lon="10.6252373"><ele>393.0</ele><time>2026-05-03T12:14:16.975Z</time></trkpt><trkpt lat="43.904601" lon="10.6252448"><ele>393.0</ele><time>2026-05-03T12:14:17.962Z</time></trkpt><trkpt lat="43.9046924" lon="10.625234"><ele>393.0</ele><time>2026-05-03T12:14:18.961Z</time></trkpt><trkpt lat="43.9047877" lon="10.6252289"><ele>393.0</ele><time>2026-05-03T12:14:19.956Z</time></trkpt><trkpt lat="43.9048761" lon="10.6252418"><ele>393.0</ele><time>2026-05-03T12:14:20.961Z</time></trkpt><trkpt lat="43.9049567" lon="10.6252742"><ele>393.0</ele><time>2026-05-03T12:14:21.962Z</time></trkpt><trkpt lat="43.9050251" lon="10.6253052"><ele>393.0</ele><time>2026-05-03T12:14:22.958Z</time></trkpt><trkpt lat="43.9050909" lon="10.6253289"><ele>393.42857142857144</ele><time>2026-05-03T12:14:23.962Z</time></trkpt><trkpt lat="43.9051619" lon="10.6253251"><ele>393.8571428571429</ele><time>2026-05-03T12:14:24.958Z</time></trkpt><trkpt lat="43.9052321" lon="10.6253126"><ele>394.28571428571433</ele><time>2026-05-03T12:14:25.959Z</time></trkpt><trkpt lat="43.9052993" lon="10.6252903"><ele>394.7142857142857</ele><time>2026-05-03T12:14:26.958Z</time></trkpt><trkpt lat="43.9053566" lon="10.6252509"><ele>395.1428571428571</ele><time>2026-05-03T12:14:27.961Z</time></trkpt><trkpt lat="43.9054153" lon="10.6251911"><ele>395.5714285714286</ele><time>2026-05-03T12:14:28.959Z</time></trkpt><trkpt lat="43.9054718" lon="10.6251209"><ele>396.0</ele><time>2026-05-03T12:14:29.953Z</time></trkpt><trkpt lat="43.9055419" lon="10.6250463"><ele>396.0</ele><time>2026-05-03T12:14:30.949Z</time></trkpt><trkpt lat="43.9056249" lon="10.6249942"><ele>396.0</ele><time>2026-05-03T12:14:31.951Z</time></trkpt><trkpt lat="43.9057093" lon="10.6249437"><ele>396.0</ele><time>2026-05-03T12:14:32.95Z</time></trkpt><trkpt lat="43.9057935" lon="10.6249046"><ele>396.0</ele><time>2026-05-03T12:14:33.944Z</time></trkpt><trkpt lat="43.9058728" lon="10.624873"><ele>396.0</ele><time>2026-05-03T12:14:34.939Z</time></trkpt><trkpt lat="43.9059504" lon="10.6248575"><ele>396.0</ele><time>2026-05-03T12:14:35.944Z</time></trkpt><trkpt lat="43.9060212" lon="10.6248491"><ele>399.4</ele><time>2026-05-03T12:14:36.945Z</time></trkpt><trkpt lat="43.9061092" lon="10.624846"><ele>402.8</ele><time>2026-05-03T12:14:38.93Z</time></trkpt><trkpt lat="43.9061693" lon="10.6249307"><ele>406.2</ele><time>2026-05-03T12:14:40.941Z</time></trkpt><trkpt lat="43.9062368" lon="10.6250547"><ele>409.59999999999997</ele><time>2026-05-03T12:14:42.94Z</time></trkpt><trkpt lat="43.9063365" lon="10.6251221"><ele>413.0</ele><time>2026-05-03T12:14:44.952Z</time></trkpt><trkpt lat="43.9064299" lon="10.6251011"><ele>413.0</ele><time>2026-05-03T12:14:46.944Z</time></trkpt><trkpt lat="43.9065197" lon="10.6250161"><ele>413.0</ele><time>2026-05-03T12:14:48.951Z</time></trkpt><trkpt lat="43.9065542" lon="10.6248903"><ele>413.0</ele><time>2026-05-03T12:14:50.943Z</time></trkpt><trkpt lat="43.9065158" lon="10.6247778"><ele>413.0</ele><time>2026-05-03T12:14:52.943Z</time></trkpt><trkpt lat="43.9063713" lon="10.6245598"><ele>415.59999999999997</ele><time>2026-05-03T12:14:55.951Z</time></trkpt><trkpt lat="43.90631" lon="10.6244664"><ele>418.2</ele><time>2026-05-03T12:14:56.947Z</time></trkpt><trkpt lat="43.9062442" lon="10.62439"><ele>420.8</ele><time>2026-05-03T12:14:57.94Z</time></trkpt><trkpt lat="43.9061585" lon="10.6243367"><ele>423.4</ele><time>2026-05-03T12:14:58.94Z</time></trkpt><trkpt lat="43.9060528" lon="10.6242979"><ele>426.0</ele><time>2026-05-03T12:14:59.949Z</time></trkpt><trkpt lat="43.9059444" lon="10.6242687"><ele>424.5</ele><time>2026-05-03T12:15:00.95Z</time></trkpt><trkpt lat="43.9058516" lon="10.6242512"><ele>423.0</ele><time>2026-05-03T12:15:01.946Z</time></trkpt><trkpt lat="43.9057738" lon="10.6242624"><ele>421.5</ele><time>2026-05-03T12:15:02.944Z</time></trkpt><trkpt lat="43.9056983" lon="10.6242708"><ele>420.0</ele><time>2026-05-03T12:15:03.945Z</time></trkpt><trkpt lat="43.9056244" lon="10.6242655"><ele>418.5</ele><time>2026-05-03T12:15:04.948Z</time></trkpt><trkpt lat="43.9055469" lon="10.6242714"><ele>417.0</ele><time>2026-05-03T12:15:05.951Z</time></trkpt><trkpt lat="43.9054818" lon="10.6242837"><ele>417.0</ele><time>2026-05-03T12:15:06.943Z</time></trkpt><trkpt lat="43.9053936" lon="10.6243043"><ele>417.0</ele><time>2026-05-03T12:15:08.948Z</time></trkpt><trkpt lat="43.9054098" lon="10.6242104"><ele>417.0</ele><time>2026-05-03T12:15:13.963Z</time></trkpt><trkpt lat="43.9055016" lon="10.6241631"><ele>417.0</ele><time>2026-05-03T12:15:15.967Z</time></trkpt><trkpt lat="43.9055906" lon="10.6240972"><ele>417.0</ele><time>2026-05-03T12:15:17.968Z</time></trkpt><trkpt lat="43.9056676" lon="10.6239775"><ele>417.0</ele><time>2026-05-03T12:15:19.971Z</time></trkpt><trkpt lat="43.9057354" lon="10.6238661"><ele>417.0</ele><time>2026-05-03T12:15:21.973Z</time></trkpt><trkpt lat="43.9058356" lon="10.6238129"><ele>417.0</ele><time>2026-05-03T12:15:23.975Z</time></trkpt><trkpt lat="43.9058988" lon="10.6237893"><ele>417.0</ele><time>2026-05-03T12:15:24.974Z</time></trkpt><trkpt lat="43.906002" lon="10.6237489"><ele>417.0</ele><time>2026-05-03T12:15:26.982Z</time></trkpt><trkpt lat="43.9061092" lon="10.6237174"><ele>418.5</ele><time>2026-05-03T12:15:28.984Z</time></trkpt><trkpt lat="43.9061757" lon="10.6237223"><ele>420.0</ele><time>2026-05-03T12:15:29.986Z</time></trkpt><trkpt lat="43.9062426" lon="10.6237311"><ele>421.5</ele><time>2026-05-03T12:15:30.99Z</time></trkpt><trkpt lat="43.9063071" lon="10.6237496"><ele>423.0</ele><time>2026-05-03T12:15:31.991Z</time></trkpt><trkpt lat="43.9063677" lon="10.6237823"><ele>424.5</ele><time>2026-05-03T12:15:32.999Z</time></trkpt><trkpt lat="43.906477" lon="10.623865"><ele>426.0</ele><time>2026-05-03T12:15:34.998Z</time></trkpt><trkpt lat="43.9065394" lon="10.6239224"><ele>426.0</ele><time>2026-05-03T12:15:36.991Z</time></trkpt><trkpt lat="43.9065929" lon="10.6239908"><ele>426.0</ele><time>2026-05-03T12:15:39.984Z</time></trkpt><trkpt lat="43.9066509" lon="10.6240554"><ele>426.0</ele><time>2026-05-03T12:15:42.981Z</time></trkpt><trkpt lat="43.9067291" lon="10.6241249"><ele>426.0</ele><time>2026-05-03T12:15:44.981Z</time></trkpt><trkpt lat="43.9067794" lon="10.6241933"><ele>426.0</ele><time>2026-05-03T12:15:46.983Z</time></trkpt><trkpt lat="43.9068224" lon="10.6242645"><ele>426.0</ele><time>2026-05-03T12:15:48.988Z</time></trkpt><trkpt lat="43.9068724" lon="10.6243409"><ele>429.1428571428571</ele><time>2026-05-03T12:15:51.978Z</time></trkpt><trkpt lat="43.9069223" lon="10.6244316"><ele>432.2857142857143</ele><time>2026-05-03T12:15:54.976Z</time></trkpt><trkpt lat="43.9069465" lon="10.6245306"><ele>435.42857142857144</ele><time>2026-05-03T12:15:57.977Z</time></trkpt><trkpt lat="43.9069833" lon="10.6246049"><ele>438.57142857142856</ele><time>2026-05-03T12:15:59.975Z</time></trkpt><trkpt lat="43.9069997" lon="10.624694"><ele>441.7142857142857</ele><time>2026-05-03T12:16:01.977Z</time></trkpt><trkpt lat="43.9070203" lon="10.6247994"><ele>444.85714285714283</ele><time>2026-05-03T12:16:03.974Z</time></trkpt><trkpt lat="43.9070647" lon="10.6248717"><ele>448.0</ele><time>2026-05-03T12:16:05.972Z</time></trkpt><trkpt lat="43.9071263" lon="10.6249445"><ele>448.00000000000006</ele><time>2026-05-03T12:16:08.969Z</time></trkpt><trkpt lat="43.907168" lon="10.6250285"><ele>448.0</ele><time>2026-05-03T12:16:11.961Z</time></trkpt><trkpt lat="43.9071859" lon="10.6251374"><ele>448.0</ele><time>2026-05-03T12:16:14.959Z</time></trkpt><trkpt lat="43.9071606" lon="10.6252815"><ele>448.0</ele><time>2026-05-03T12:16:17.956Z</time></trkpt><trkpt lat="43.90713" lon="10.625381"><ele>448.00000000000006</ele><time>2026-05-03T12:16:19.955Z</time></trkpt><trkpt lat="43.907081" lon="10.6254517"><ele>448.0</ele><time>2026-05-03T12:16:21.956Z</time></trkpt><trkpt lat="43.9070472" lon="10.6255326"><ele>446.6666666666667</ele><time>2026-05-03T12:16:23.965Z</time></trkpt><trkpt lat="43.9070011" lon="10.6256453"><ele>445.33333333333337</ele><time>2026-05-03T12:16:26.973Z</time></trkpt><trkpt lat="43.9069766" lon="10.6257652"><ele>444.0</ele><time>2026-05-03T12:16:28.975Z</time></trkpt><trkpt lat="43.9069872" lon="10.6258867"><ele>442.66666666666663</ele><time>2026-05-03T12:16:30.97Z</time></trkpt><trkpt lat="43.9070068" lon="10.6259797"><ele>441.3333333333333</ele><time>2026-05-03T12:16:33.966Z</time></trkpt><trkpt lat="43.9069917" lon="10.6260659"><ele>440.0</ele><time>2026-05-03T12:16:35.97Z</time></trkpt><trkpt lat="43.9070064" lon="10.6261883"><ele>437.8333333333333</ele><time>2026-05-03T12:16:38.971Z</time></trkpt><trkpt lat="43.9070424" lon="10.6262713"><ele>435.66666666666663</ele><time>2026-05-03T12:16:40.965Z</time></trkpt><trkpt lat="43.9070913" lon="10.6263404"><ele>433.5</ele><time>2026-05-03T12:16:42.963Z</time></trkpt><trkpt lat="43.9071397" lon="10.6264138"><ele>431.33333333333337</ele><time>2026-05-03T12:16:44.957Z</time></trkpt><trkpt lat="43.9071768" lon="10.6265327"><ele>429.1666666666667</ele><time>2026-05-03T12:16:47.954Z</time></trkpt><trkpt lat="43.9071776" lon="10.6266533"><ele>427.0</ele><time>2026-05-03T12:16:49.958Z</time></trkpt><trkpt lat="43.9071983" lon="10.6267809"><ele>427.00000000000006</ele><time>2026-05-03T12:16:51.95Z</time></trkpt><trkpt lat="43.9072141" lon="10.6268797"><ele>427.0</ele><time>2026-05-03T12:16:53.948Z</time></trkpt><trkpt lat="43.9072398" lon="10.6269797"><ele>427.0</ele><time>2026-05-03T12:16:55.955Z</time></trkpt><trkpt lat="43.9072698" lon="10.6270791"><ele>427.0</ele><time>2026-05-03T12:16:57.956Z</time></trkpt><trkpt lat="43.9073277" lon="10.6271595"><ele>427.00000000000006</ele><time>2026-05-03T12:16:59.954Z</time></trkpt><trkpt lat="43.9074004" lon="10.6272211"><ele>427.0</ele><time>2026-05-03T12:17:01.959Z</time></trkpt><trkpt lat="43.9074643" lon="10.6272403"><ele>425.7142857142857</ele><time>2026-05-03T12:17:03.938Z</time></trkpt><trkpt lat="43.9075214" lon="10.6272864"><ele>424.42857142857144</ele><time>2026-05-03T12:17:06.952Z</time></trkpt><trkpt lat="43.9075789" lon="10.6273506"><ele>423.1428571428571</ele><time>2026-05-03T12:17:09.948Z</time></trkpt><trkpt lat="43.9076448" lon="10.6274062"><ele>421.8571428571429</ele><time>2026-05-03T12:17:12.944Z</time></trkpt><trkpt lat="43.9077097" lon="10.6274567"><ele>420.57142857142856</ele><time>2026-05-03T12:17:15.944Z</time></trkpt><trkpt lat="43.9077857" lon="10.627486"><ele>419.2857142857143</ele><time>2026-05-03T12:17:18.944Z</time></trkpt><trkpt lat="43.9078594" lon="10.6274947"><ele>418.0</ele><time>2026-05-03T12:17:20.943Z</time></trkpt><trkpt lat="43.9079405" lon="10.6274815"><ele>422.50000000000006</ele><time>2026-05-03T12:17:22.943Z</time></trkpt><trkpt lat="43.9080087" lon="10.6274662"><ele>427.0</ele><time>2026-05-03T12:17:29.939Z</time></trkpt><trkpt lat="43.9080751" lon="10.6274564"><ele>431.5</ele><time>2026-05-03T12:18:27.947Z</time></trkpt><trkpt lat="43.9081389" lon="10.6274318"><ele>436.0</ele><time>2026-05-03T12:19:20.938Z</time></trkpt><trkpt lat="43.9080761" lon="10.6274557"><ele>440.50000000000006</ele><time>2026-05-03T12:19:32.927Z</time></trkpt><trkpt lat="43.9079194" lon="10.6274941"><ele>445.0</ele><time>2026-05-03T12:19:34.927Z</time></trkpt><trkpt lat="43.9078538" lon="10.6275064"><ele>445.00000000000006</ele><time>2026-05-03T12:19:35.928Z</time></trkpt><trkpt lat="43.9077776" lon="10.6274967"><ele>445.0</ele><time>2026-05-03T12:19:37.94Z</time></trkpt><trkpt lat="43.9077193" lon="10.6274539"><ele>445.0</ele><time>2026-05-03T12:19:39.941Z</time></trkpt><trkpt lat="43.9076531" lon="10.6273944"><ele>445.0</ele><time>2026-05-03T12:19:42.939Z</time></trkpt><trkpt lat="43.9075857" lon="10.6273933"><ele>445.00000000000006</ele><time>2026-05-03T12:19:45.928Z</time></trkpt><trkpt lat="43.9075088" lon="10.627343"><ele>445.0</ele><time>2026-05-03T12:19:48.93Z</time></trkpt><trkpt lat="43.9074345" lon="10.6273141"><ele>441.4</ele><time>2026-05-03T12:19:50.926Z</time></trkpt><trkpt lat="43.9073629" lon="10.6272617"><ele>437.8</ele><time>2026-05-03T12:19:54.956Z</time></trkpt><trkpt lat="43.9072815" lon="10.6271825"><ele>434.20000000000005</ele><time>2026-05-03T12:19:57.95Z</time></trkpt><trkpt lat="43.9072539" lon="10.6270818"><ele>430.6</ele><time>2026-05-03T12:19:59.951Z</time></trkpt><trkpt lat="43.9072283" lon="10.6269359"><ele>427.0</ele><time>2026-05-03T12:20:01.957Z</time></trkpt><trkpt lat="43.9071977" lon="10.6268199"><ele>427.0</ele><time>2026-05-03T12:20:03.96Z</time></trkpt><trkpt lat="43.9071795" lon="10.6266731"><ele>427.00000000000006</ele><time>2026-05-03T12:20:05.962Z</time></trkpt><trkpt lat="43.9071703" lon="10.6265531"><ele>427.00000000000006</ele><time>2026-05-03T12:20:07.96Z</time></trkpt><trkpt lat="43.9071147" lon="10.6264641"><ele>427.0</ele><time>2026-05-03T12:20:09.964Z</time></trkpt><trkpt lat="43.9070574" lon="10.6263732"><ele>427.0</ele><time>2026-05-03T12:20:11.956Z</time></trkpt><trkpt lat="43.9070026" lon="10.626284"><ele>427.00000000000006</ele><time>2026-05-03T12:20:13.957Z</time></trkpt><trkpt lat="43.9070008" lon="10.6261626"><ele>427.0</ele><time>2026-05-03T12:20:16.966Z</time></trkpt><trkpt lat="43.9069861" lon="10.6260608"><ele>427.0</ele><time>2026-05-03T12:20:18.97Z</time></trkpt><trkpt lat="43.9069901" lon="10.6259731"><ele>427.0</ele><time>2026-05-03T12:20:20.971Z</time></trkpt><trkpt lat="43.9069956" lon="10.6258748"><ele>427.00000000000006</ele><time>2026-05-03T12:20:22.969Z</time></trkpt><trkpt lat="43.9069959" lon="10.6257495"><ele>427.0</ele><time>2026-05-03T12:20:24.973Z</time></trkpt><trkpt lat="43.9070333" lon="10.6256178"><ele>429.1666666666667</ele><time>2026-05-03T12:20:27.985Z</time></trkpt><trkpt lat="43.9070749" lon="10.6255055"><ele>431.33333333333337</ele><time>2026-05-03T12:20:29.964Z</time></trkpt><trkpt lat="43.9071314" lon="10.6254243"><ele>433.5</ele><time>2026-05-03T12:20:31.965Z</time></trkpt><trkpt lat="43.9071719" lon="10.6253462"><ele>435.66666666666663</ele><time>2026-05-03T12:20:34.951Z</time></trkpt><trkpt lat="43.9071849" lon="10.6252526"><ele>437.8333333333333</ele><time>2026-05-03T12:20:36.956Z</time></trkpt><trkpt lat="43.9071888" lon="10.6251518"><ele>440.0</ele><time>2026-05-03T12:20:38.955Z</time></trkpt><trkpt lat="43.907161" lon="10.6250536"><ele>441.3333333333333</ele><time>2026-05-03T12:20:40.949Z</time></trkpt><trkpt lat="43.9071125" lon="10.6249485"><ele>442.66666666666663</ele><time>2026-05-03T12:20:43.948Z</time></trkpt><trkpt lat="43.9070566" lon="10.6248622"><ele>444.0</ele><time>2026-05-03T12:20:46.956Z</time></trkpt><trkpt lat="43.9070302" lon="10.6247697"><ele>445.33333333333337</ele><time>2026-05-03T12:20:48.959Z</time></trkpt><trkpt lat="43.9070128" lon="10.6246334"><ele>446.6666666666667</ele><time>2026-05-03T12:20:50.959Z</time></trkpt><trkpt lat="43.9069617" lon="10.6245329"><ele>448.0</ele><time>2026-05-03T12:20:52.962Z</time></trkpt><trkpt lat="43.9069302" lon="10.624435"><ele>448.00000000000006</ele><time>2026-05-03T12:20:54.963Z</time></trkpt><trkpt lat="43.9068936" lon="10.6243347"><ele>448.0</ele><time>2026-05-03T12:20:57.968Z</time></trkpt><trkpt lat="43.9068426" lon="10.62426"><ele>448.0</ele><time>2026-05-03T12:20:59.969Z</time></trkpt><trkpt lat="43.9067686" lon="10.6241737"><ele>448.0</ele><time>2026-05-03T12:21:01.965Z</time></trkpt><trkpt lat="43.906724" lon="10.6240962"><ele>448.00000000000006</ele><time>2026-05-03T12:21:03.967Z</time></trkpt><trkpt lat="43.9066526" lon="10.62401"><ele>448.0</ele><time>2026-05-03T12:21:05.962Z</time></trkpt><trkpt lat="43.9065766" lon="10.62393"><ele>443.59999999999997</ele><time>2026-05-03T12:21:07.979Z</time></trkpt><trkpt lat="43.9065116" lon="10.6238813"><ele>439.19999999999993</ele><time>2026-05-03T12:21:09.99Z</time></trkpt><trkpt lat="43.906418" lon="10.6238241"><ele>434.8</ele><time>2026-05-03T12:21:11.979Z</time></trkpt><trkpt lat="43.906317" lon="10.6237615"><ele>430.4</ele><time>2026-05-03T12:21:13.996Z</time></trkpt><trkpt lat="43.9062189" lon="10.6237219"><ele>426.0</ele><time>2026-05-03T12:21:15.993Z</time></trkpt><trkpt lat="43.9060946" lon="10.623706"><ele>426.0</ele><time>2026-05-03T12:21:17.994Z</time></trkpt><trkpt lat="43.905992" lon="10.6237257"><ele>426.0</ele><time>2026-05-03T12:21:19.993Z</time></trkpt><trkpt lat="43.905878" lon="10.6237797"><ele>426.0</ele><time>2026-05-03T12:21:21.988Z</time></trkpt><trkpt lat="43.905785" lon="10.6238411"><ele>426.0</ele><time>2026-05-03T12:21:23.974Z</time></trkpt><trkpt lat="43.905713" lon="10.6239037"><ele>426.0</ele><time>2026-05-03T12:21:25.975Z</time></trkpt><trkpt lat="43.9056526" lon="10.6239891"><ele>424.5</ele><time>2026-05-03T12:21:27.964Z</time></trkpt><trkpt lat="43.9056078" lon="10.6240908"><ele>423.0</ele><time>2026-05-03T12:21:29.974Z</time></trkpt><trkpt lat="43.9055493" lon="10.6241431"><ele>421.5</ele><time>2026-05-03T12:21:31.966Z</time></trkpt><trkpt lat="43.9054799" lon="10.6241709"><ele>420.0</ele><time>2026-05-03T12:21:33.96Z</time></trkpt><trkpt lat="43.9053983" lon="10.6242107"><ele>418.5</ele><time>2026-05-03T12:21:35.964Z</time></trkpt><trkpt lat="43.9055023" lon="10.6242488"><ele>417.0</ele><time>2026-05-03T12:21:40.952Z</time></trkpt><trkpt lat="43.905571" lon="10.6242446"><ele>417.0</ele><time>2026-05-03T12:21:41.955Z</time></trkpt><trkpt lat="43.9056476" lon="10.6242524"><ele>417.0</ele><time>2026-05-03T12:21:42.954Z</time></trkpt><trkpt lat="43.9057226" lon="10.6242565"><ele>417.0</ele><time>2026-05-03T12:21:43.959Z</time></trkpt><trkpt lat="43.9057876" lon="10.6242511"><ele>417.0</ele><time>2026-05-03T12:21:44.961Z</time></trkpt><trkpt lat="43.9058565" lon="10.6242471"><ele>417.0</ele><time>2026-05-03T12:21:45.964Z</time></trkpt><trkpt lat="43.9059232" lon="10.6242455"><ele>417.0</ele><time>2026-05-03T12:21:46.961Z</time></trkpt><trkpt lat="43.9059861" lon="10.6242572"><ele>417.0</ele><time>2026-05-03T12:21:47.964Z</time></trkpt><trkpt lat="43.9060491" lon="10.6242827"><ele>416.20000000000005</ele><time>2026-05-03T12:21:48.965Z</time></trkpt><trkpt lat="43.9061295" lon="10.6243211"><ele>415.4</ele><time>2026-05-03T12:21:49.962Z</time></trkpt><trkpt lat="43.9062159" lon="10.6243607"><ele>414.6</ele><time>2026-05-03T12:21:50.956Z</time></trkpt><trkpt lat="43.9062916" lon="10.6244013"><ele>413.79999999999995</ele><time>2026-05-03T12:21:51.95Z</time></trkpt><trkpt lat="43.906353" lon="10.6244488"><ele>413.0</ele><time>2026-05-03T12:21:52.944Z</time></trkpt><trkpt lat="43.9064212" lon="10.6246023"><ele>412.99999999999994</ele><time>2026-05-03T12:21:54.947Z</time></trkpt><trkpt lat="43.9064613" lon="10.6246904"><ele>413.0</ele><time>2026-05-03T12:21:55.95Z</time></trkpt><trkpt lat="43.9065077" lon="10.6247652"><ele>413.0</ele><time>2026-05-03T12:21:56.947Z</time></trkpt><trkpt lat="43.9065815" lon="10.6248633"><ele>413.0</ele><time>2026-05-03T12:21:58.947Z</time></trkpt><trkpt lat="43.9065608" lon="10.6249819"><ele>412.99999999999994</ele><time>2026-05-03T12:22:01.952Z</time></trkpt><trkpt lat="43.9064754" lon="10.6250458"><ele>413.0</ele><time>2026-05-03T12:22:03.949Z</time></trkpt><trkpt lat="43.906363" lon="10.6250682"><ele>413.0</ele><time>2026-05-03T12:22:05.95Z</time></trkpt><trkpt lat="43.9062722" lon="10.6250498"><ele>413.0</ele><time>2026-05-03T12:22:07.951Z</time></trkpt><trkpt lat="43.9061791" lon="10.6249809"><ele>413.0</ele><time>2026-05-03T12:22:09.947Z</time></trkpt><trkpt lat="43.9060999" lon="10.6248513"><ele>413.0</ele><time>2026-05-03T12:22:11.948Z</time></trkpt><trkpt lat="43.9060165" lon="10.6248177"><ele>413.0</ele><time>2026-05-03T12:22:13.943Z</time></trkpt><trkpt lat="43.9059513" lon="10.6248365"><ele>409.59999999999997</ele><time>2026-05-03T12:22:14.946Z</time></trkpt><trkpt lat="43.9058563" lon="10.6248494"><ele>406.2</ele><time>2026-05-03T12:22:15.934Z</time></trkpt><trkpt lat="43.9057619" lon="10.6248806"><ele>402.8</ele><time>2026-05-03T12:22:16.93Z</time></trkpt><trkpt lat="43.905689" lon="10.6249275"><ele>399.4</ele><time>2026-05-03T12:22:17.939Z</time></trkpt><trkpt lat="43.9055991" lon="10.6249722"><ele>396.0</ele><time>2026-05-03T12:22:18.938Z</time></trkpt><trkpt lat="43.9055111" lon="10.6250161"><ele>396.0</ele><time>2026-05-03T12:22:19.939Z</time></trkpt><trkpt lat="43.9054447" lon="10.6250833"><ele>396.0</ele><time>2026-05-03T12:22:20.942Z</time></trkpt><trkpt lat="43.9053909" lon="10.6251626"><ele>396.0</ele><time>2026-05-03T12:22:21.945Z</time></trkpt><trkpt lat="43.9052886" lon="10.6252463"><ele>396.0</ele><time>2026-05-03T12:22:23.949Z</time></trkpt><trkpt lat="43.9051804" lon="10.625275"><ele>396.0</ele><time>2026-05-03T12:22:25.945Z</time></trkpt><trkpt lat="43.9050587" lon="10.625271"><ele>395.5</ele><time>2026-05-03T12:22:27.954Z</time></trkpt><trkpt lat="43.9049916" lon="10.625249"><ele>395.0</ele><time>2026-05-03T12:22:28.954Z</time></trkpt><trkpt lat="43.9049135" lon="10.6252257"><ele>394.5</ele><time>2026-05-03T12:22:29.956Z</time></trkpt><trkpt lat="43.9048219" lon="10.6251949"><ele>394.0</ele><time>2026-05-03T12:22:30.961Z</time></trkpt><trkpt lat="43.9047328" lon="10.6251733"><ele>393.5</ele><time>2026-05-03T12:22:31.977Z</time></trkpt><trkpt lat="43.9046451" lon="10.6251673"><ele>393.0</ele><time>2026-05-03T12:22:32.957Z</time></trkpt><trkpt lat="43.9045593" lon="10.6251693"><ele>393.0</ele><time>2026-05-03T12:22:33.955Z</time></trkpt><trkpt lat="43.9044802" lon="10.625168"><ele>393.0</ele><time>2026-05-03T12:22:34.952Z</time></trkpt><trkpt lat="43.9044097" lon="10.6251776"><ele>393.0</ele><time>2026-05-03T12:22:35.948Z</time></trkpt><trkpt lat="43.9042975" lon="10.6251441"><ele>393.0</ele><time>2026-05-03T12:22:37.958Z</time></trkpt><trkpt lat="43.9041811" lon="10.6250448"><ele>393.0</ele><time>2026-05-03T12:22:39.948Z</time></trkpt><trkpt lat="43.9041125" lon="10.6249566"><ele>390.79999999999995</ele><time>2026-05-03T12:22:40.946Z</time></trkpt><trkpt lat="43.9040525" lon="10.6248449"><ele>388.6</ele><time>2026-05-03T12:22:41.952Z</time></trkpt><trkpt lat="43.9039884" lon="10.624732"><ele>386.4</ele><time>2026-05-03T12:22:42.947Z</time></trkpt><trkpt lat="43.9039205" lon="10.6246178"><ele>384.20000000000005</ele><time>2026-05-03T12:22:43.95Z</time></trkpt><trkpt lat="43.9038513" lon="10.6245163"><ele>382.0</ele><time>2026-05-03T12:22:44.951Z</time></trkpt><trkpt lat="43.9037816" lon="10.6244161"><ele>382.0</ele><time>2026-05-03T12:22:45.954Z</time></trkpt><trkpt lat="43.9037063" lon="10.624334"><ele>382.0</ele><time>2026-05-03T12:22:46.953Z</time></trkpt><trkpt lat="43.9036463" lon="10.6242668"><ele>382.0</ele><time>2026-05-03T12:22:47.951Z</time></trkpt><trkpt lat="43.9035862" lon="10.6242153"><ele>382.0</ele><time>2026-05-03T12:22:48.96Z</time></trkpt><trkpt lat="43.903484" lon="10.624241"><ele>382.0</ele><time>2026-05-03T12:22:50.961Z</time></trkpt><trkpt lat="43.9033886" lon="10.6243275"><ele>377.40000000000003</ele><time>2026-05-03T12:22:52.953Z</time></trkpt><trkpt lat="43.9033185" lon="10.6243777"><ele>372.8</ele><time>2026-05-03T12:22:53.952Z</time></trkpt><trkpt lat="43.9032443" lon="10.6244276"><ele>368.2</ele><time>2026-05-03T12:22:54.954Z</time></trkpt><trkpt lat="43.9031428" lon="10.6245077"><ele>363.6</ele><time>2026-05-03T12:22:56.96Z</time></trkpt><trkpt lat="43.9030352" lon="10.6245616"><ele>359.0</ele><time>2026-05-03T12:22:58.959Z</time></trkpt><trkpt lat="43.9029216" lon="10.6246266"><ele>355.0</ele><time>2026-05-03T12:23:00.96Z</time></trkpt><trkpt lat="43.9028128" lon="10.6246525"><ele>351.0</ele><time>2026-05-03T12:23:02.974Z</time></trkpt><trkpt lat="43.902712" lon="10.6246082"><ele>347.0</ele><time>2026-05-03T12:23:04.969Z</time></trkpt><trkpt lat="43.9026366" lon="10.6245415"><ele>343.0</ele><time>2026-05-03T12:23:06.99Z</time></trkpt><trkpt lat="43.9025559" lon="10.6245864"><ele>339.0</ele><time>2026-05-03T12:23:09.99Z</time></trkpt><trkpt lat="43.9025497" lon="10.624727"><ele>339.0</ele><time>2026-05-03T12:23:11.979Z</time></trkpt><trkpt lat="43.9026458" lon="10.6248211"><ele>339.0</ele><time>2026-05-03T12:23:13.982Z</time></trkpt><trkpt lat="43.9027202" lon="10.6248592"><ele>339.0</ele><time>2026-05-03T12:23:14.981Z</time></trkpt><trkpt lat="43.9028029" lon="10.6248982"><ele>339.0</ele><time>2026-05-03T12:23:15.972Z</time></trkpt><trkpt lat="43.9028791" lon="10.6249288"><ele>339.0</ele><time>2026-05-03T12:23:16.964Z</time></trkpt><trkpt lat="43.9029521" lon="10.6249401"><ele>339.0</ele><time>2026-05-03T12:23:17.961Z</time></trkpt><trkpt lat="43.903027" lon="10.6249295"><ele>339.0</ele><time>2026-05-03T12:23:18.962Z</time></trkpt><trkpt lat="43.903107" lon="10.6249076"><ele>339.0</ele><time>2026-05-03T12:23:19.962Z</time></trkpt><trkpt lat="43.903191" lon="10.6248917"><ele>339.0</ele><time>2026-05-03T12:23:20.962Z</time></trkpt><trkpt lat="43.9032563" lon="10.6248851"><ele>339.0</ele><time>2026-05-03T12:23:21.956Z</time></trkpt><trkpt lat="43.9033643" lon="10.6249224"><ele>339.0</ele><time>2026-05-03T12:23:23.952Z</time></trkpt><trkpt lat="43.9034083" lon="10.6250178"><ele>339.0</ele><time>2026-05-03T12:23:24.956Z</time></trkpt><trkpt lat="43.903473" lon="10.6251245"><ele>339.4</ele><time>2026-05-03T12:23:25.956Z</time></trkpt><trkpt lat="43.9035433" lon="10.6252392"><ele>339.79999999999995</ele><time>2026-05-03T12:23:26.952Z</time></trkpt><trkpt lat="43.9036194" lon="10.6253668"><ele>340.20000000000005</ele><time>2026-05-03T12:23:27.943Z</time></trkpt><trkpt lat="43.903679" lon="10.6254839"><ele>340.6</ele><time>2026-05-03T12:23:28.941Z</time></trkpt><trkpt lat="43.9037414" lon="10.6255724"><ele>341.0</ele><time>2026-05-03T12:23:29.943Z</time></trkpt><trkpt lat="43.9037993" lon="10.6256735"><ele>341.0</ele><time>2026-05-03T12:23:30.948Z</time></trkpt><trkpt lat="43.9038716" lon="10.6257854"><ele>341.0</ele><time>2026-05-03T12:23:31.95Z</time></trkpt><trkpt lat="43.9039293" lon="10.6258857"><ele>341.0</ele><time>2026-05-03T12:23:32.95Z</time></trkpt><trkpt lat="43.9039858" lon="10.6259689"><ele>341.0</ele><time>2026-05-03T12:23:33.961Z</time></trkpt><trkpt lat="43.904041" lon="10.6260442"><ele>341.0</ele><time>2026-05-03T12:23:34.952Z</time></trkpt><trkpt lat="43.9041025" lon="10.6261782"><ele>340.5</ele><time>2026-05-03T12:23:36.954Z</time></trkpt><trkpt lat="43.904109" lon="10.6262657"><ele>340.0</ele><time>2026-05-03T12:23:37.958Z</time></trkpt><trkpt lat="43.9041284" lon="10.6263501"><ele>339.5</ele><time>2026-05-03T12:23:38.956Z</time></trkpt><trkpt lat="43.9041748" lon="10.6264983"><ele>339.0</ele><time>2026-05-03T12:23:40.951Z</time></trkpt><trkpt lat="43.9042283" lon="10.626563"><ele>338.5</ele><time>2026-05-03T12:23:41.945Z</time></trkpt><trkpt lat="43.9042976" lon="10.6266302"><ele>338.0</ele><time>2026-05-03T12:23:42.943Z</time></trkpt><trkpt lat="43.9043949" lon="10.6266971"><ele>338.0</ele><time>2026-05-03T12:23:43.953Z</time></trkpt><trkpt lat="43.9044951" lon="10.62675"><ele>338.0</ele><time>2026-05-03T12:23:44.947Z</time></trkpt><trkpt lat="43.9045826" lon="10.6267897"><ele>338.0</ele><time>2026-05-03T12:23:45.948Z</time></trkpt><trkpt lat="43.9046536" lon="10.6268341"><ele>338.0</ele><time>2026-05-03T12:23:46.955Z</time></trkpt><trkpt lat="43.9047156" lon="10.6268827"><ele>338.0</ele><time>2026-05-03T12:23:47.951Z</time></trkpt><trkpt lat="43.904779" lon="10.626933"><ele>338.0</ele><time>2026-05-03T12:23:48.957Z</time></trkpt><trkpt lat="43.9048977" lon="10.6270087"><ele>338.5</ele><time>2026-05-03T12:23:50.953Z</time></trkpt><trkpt lat="43.9049615" lon="10.6270342"><ele>339.0</ele><time>2026-05-03T12:23:51.954Z</time></trkpt><trkpt lat="43.9049782" lon="10.6271261"><ele>339.5</ele><time>2026-05-03T12:23:55.954Z</time></trkpt><trkpt lat="43.9049192" lon="10.6272173"><ele>340.0</ele><time>2026-05-03T12:23:57.956Z</time></trkpt><trkpt lat="43.9048057" lon="10.6273071"><ele>340.5</ele><time>2026-05-03T12:23:59.947Z</time></trkpt><trkpt lat="43.9047257" lon="10.6273357"><ele>341.0</ele><time>2026-05-03T12:24:00.957Z</time></trkpt><trkpt lat="43.9046233" lon="10.6273716"><ele>341.0</ele><time>2026-05-03T12:24:01.954Z</time></trkpt><trkpt lat="43.9045122" lon="10.627427"><ele>341.0</ele><time>2026-05-03T12:24:02.956Z</time></trkpt><trkpt lat="43.9044092" lon="10.6274902"><ele>341.0</ele><time>2026-05-03T12:24:03.957Z</time></trkpt><trkpt lat="43.9043015" lon="10.6275387"><ele>341.0</ele><time>2026-05-03T12:24:04.975Z</time></trkpt><trkpt lat="43.9042072" lon="10.6275801"><ele>341.0</ele><time>2026-05-03T12:24:05.962Z</time></trkpt><trkpt lat="43.9041282" lon="10.6276247"><ele>338.1666666666667</ele><time>2026-05-03T12:24:06.965Z</time></trkpt><trkpt lat="43.9040546" lon="10.6276715"><ele>335.33333333333337</ele><time>2026-05-03T12:24:07.965Z</time></trkpt><trkpt lat="43.9040011" lon="10.627733"><ele>332.5</ele><time>2026-05-03T12:24:08.966Z</time></trkpt><trkpt lat="43.9039631" lon="10.6278069"><ele>329.6666666666667</ele><time>2026-05-03T12:24:09.971Z</time></trkpt><trkpt lat="43.903944" lon="10.6279177"><ele>326.8333333333333</ele><time>2026-05-03T12:24:10.963Z</time></trkpt><trkpt lat="43.9039275" lon="10.6280664"><ele>324.0</ele><time>2026-05-03T12:24:11.972Z</time></trkpt><trkpt lat="43.9039006" lon="10.6282237"><ele>324.0</ele><time>2026-05-03T12:24:12.971Z</time></trkpt><trkpt lat="43.9038774" lon="10.6283936"><ele>324.0</ele><time>2026-05-03T12:24:13.97Z</time></trkpt><trkpt lat="43.9038474" lon="10.6285526"><ele>324.0</ele><time>2026-05-03T12:24:14.973Z</time></trkpt><trkpt lat="43.9038301" lon="10.6287184"><ele>324.0</ele><time>2026-05-03T12:24:15.969Z</time></trkpt><trkpt lat="43.9038273" lon="10.6288864"><ele>325.75</ele><time>2026-05-03T12:24:16.974Z</time></trkpt><trkpt lat="43.9038285" lon="10.6290545"><ele>327.5</ele><time>2026-05-03T12:24:17.972Z</time></trkpt><trkpt lat="43.9038147" lon="10.6292149"><ele>329.25</ele><time>2026-05-03T12:24:18.98Z</time></trkpt><trkpt lat="43.9037787" lon="10.6293543"><ele>331.0</ele><time>2026-05-03T12:24:19.978Z</time></trkpt><trkpt lat="43.9037282" lon="10.6294828"><ele>332.6</ele><time>2026-05-03T12:24:20.97Z</time></trkpt><trkpt lat="43.9036735" lon="10.6295991"><ele>334.20000000000005</ele><time>2026-05-03T12:24:21.982Z</time></trkpt><trkpt lat="43.9036034" lon="10.6297092"><ele>335.79999999999995</ele><time>2026-05-03T12:24:22.984Z</time></trkpt><trkpt lat="43.9035349" lon="10.6298318"><ele>337.4</ele><time>2026-05-03T12:24:23.979Z</time></trkpt><trkpt lat="43.9034694" lon="10.6299388"><ele>339.0</ele><time>2026-05-03T12:24:24.971Z</time></trkpt><trkpt lat="43.9034138" lon="10.6300421"><ele>337.0</ele><time>2026-05-03T12:24:25.97Z</time></trkpt><trkpt lat="43.9033509" lon="10.6301322"><ele>335.0</ele><time>2026-05-03T12:24:26.965Z</time></trkpt><trkpt lat="43.903291" lon="10.6302153"><ele>333.0</ele><time>2026-05-03T12:24:27.965Z</time></trkpt><trkpt lat="43.9032379" lon="10.6303005"><ele>331.0</ele><time>2026-05-03T12:24:28.975Z</time></trkpt><trkpt lat="43.9031854" lon="10.6303867"><ele>329.0</ele><time>2026-05-03T12:24:29.97Z</time></trkpt><trkpt lat="43.9031362" lon="10.630478"><ele>327.0</ele><time>2026-05-03T12:24:30.972Z</time></trkpt><trkpt lat="43.9030878" lon="10.630557"><ele>327.0</ele><time>2026-05-03T12:24:31.978Z</time></trkpt><trkpt lat="43.9030585" lon="10.6306623"><ele>327.0</ele><time>2026-05-03T12:24:32.973Z</time></trkpt><trkpt lat="43.9030291" lon="10.6307471"><ele>327.0</ele><time>2026-05-03T12:24:33.984Z</time></trkpt><trkpt lat="43.9030257" lon="10.6308481"><ele>327.0</ele><time>2026-05-03T12:24:34.991Z</time></trkpt><trkpt lat="43.9030538" lon="10.6309815"><ele>327.0</ele><time>2026-05-03T12:24:36.986Z</time></trkpt><trkpt lat="43.9031757" lon="10.6309929"><ele>327.0</ele><time>2026-05-03T12:24:38.984Z</time></trkpt><trkpt lat="43.9032494" lon="10.6309307"><ele>327.0</ele><time>2026-05-03T12:24:39.987Z</time></trkpt><trkpt lat="43.9033121" lon="10.6308442"><ele>327.0</ele><time>2026-05-03T12:24:40.977Z</time></trkpt><trkpt lat="43.9033638" lon="10.630746"><ele>327.0</ele><time>2026-05-03T12:24:41.988Z</time></trkpt><trkpt lat="43.903405" lon="10.6306416"><ele>327.0</ele><time>2026-05-03T12:24:42.988Z</time></trkpt><trkpt lat="43.9034602" lon="10.6305617"><ele>327.0</ele><time>2026-05-03T12:24:43.984Z</time></trkpt><trkpt lat="43.9035352" lon="10.630507"><ele>327.0</ele><time>2026-05-03T12:24:44.991Z</time></trkpt><trkpt lat="43.9036254" lon="10.6304566"><ele>329.40000000000003</ele><time>2026-05-03T12:24:45.99Z</time></trkpt><trkpt lat="43.9037134" lon="10.6303906"><ele>331.8</ele><time>2026-05-03T12:24:46.992Z</time></trkpt><trkpt lat="43.9037887" lon="10.6303117"><ele>334.2</ele><time>2026-05-03T12:24:47.986Z</time></trkpt><trkpt lat="43.9038526" lon="10.6302522"><ele>336.6</ele><time>2026-05-03T12:24:48.993Z</time></trkpt><trkpt lat="43.9039392" lon="10.6302555"><ele>339.0</ele><time>2026-05-03T12:24:50.984Z</time></trkpt><trkpt lat="43.9039303" lon="10.630388"><ele>342.0</ele><time>2026-05-03T12:24:52.986Z</time></trkpt><trkpt lat="43.9038989" lon="10.6304858"><ele>345.0</ele><time>2026-05-03T12:24:53.985Z</time></trkpt><trkpt lat="43.9038466" lon="10.6305938"><ele>348.0</ele><time>2026-05-03T12:24:54.987Z</time></trkpt><trkpt lat="43.9037986" lon="10.6307173"><ele>351.0</ele><time>2026-05-03T12:24:55.988Z</time></trkpt><trkpt lat="43.9037359" lon="10.6308658"><ele>354.0</ele><time>2026-05-03T12:24:56.999Z</time></trkpt><trkpt lat="43.9036876" lon="10.6310169"><ele>355.79999999999995</ele><time>2026-05-03T12:24:57.997Z</time></trkpt><trkpt lat="43.9036382" lon="10.6311665"><ele>357.59999999999997</ele><time>2026-05-03T12:24:58.997Z</time></trkpt><trkpt lat="43.9036" lon="10.6313103"><ele>359.4</ele><time>2026-05-03T12:24:59.996Z</time></trkpt><trkpt lat="43.903561" lon="10.6314263"><ele>361.2</ele><time>2026-05-03T12:25:00.994Z</time></trkpt><trkpt lat="43.9035151" lon="10.6315205"><ele>363.0</ele><time>2026-05-03T12:25:01.997Z</time></trkpt><trkpt lat="43.9034883" lon="10.6316113"><ele>363.0</ele><time>2026-05-03T12:25:02.986Z</time></trkpt><trkpt lat="43.9034874" lon="10.631709"><ele>363.0</ele><time>2026-05-03T12:25:03.998Z</time></trkpt><trkpt lat="43.9035633" lon="10.631822"><ele>363.0</ele><time>2026-05-03T12:25:05.995Z</time></trkpt><trkpt lat="43.903636" lon="10.6318291"><ele>363.0</ele><time>2026-05-03T12:25:06.999Z</time></trkpt><trkpt lat="43.9037135" lon="10.6318126"><ele>363.0</ele><time>2026-05-03T12:25:07.989Z</time></trkpt><trkpt lat="43.9037881" lon="10.6317741"><ele>363.0</ele><time>2026-05-03T12:25:08.983Z</time></trkpt><trkpt lat="43.903848" lon="10.6316945"><ele>363.0</ele><time>2026-05-03T12:25:09.98Z</time></trkpt><trkpt lat="43.9038983" lon="10.6315947"><ele>363.0</ele><time>2026-05-03T12:25:10.984Z</time></trkpt><trkpt lat="43.9039535" lon="10.6314855"><ele>363.0</ele><time>2026-05-03T12:25:11.985Z</time></trkpt><trkpt lat="43.9040275" lon="10.6313794"><ele>363.0</ele><time>2026-05-03T12:25:12.995Z</time></trkpt><trkpt lat="43.9041192" lon="10.6312742"><ele>363.0</ele><time>2026-05-03T12:25:13.994Z</time></trkpt><trkpt lat="43.9041968" lon="10.6311733"><ele>369.4</ele><time>2026-05-03T12:25:15.003Z</time></trkpt><trkpt lat="43.9042649" lon="10.6310549"><ele>375.79999999999995</ele><time>2026-05-03T12:25:16.001Z</time></trkpt><trkpt lat="43.9043284" lon="10.6309495"><ele>382.2</ele><time>2026-05-03T12:25:17.003Z</time></trkpt><trkpt lat="43.9043906" lon="10.6308261"><ele>388.6</ele><time>2026-05-03T12:25:17.997Z</time></trkpt><trkpt lat="43.9044489" lon="10.6307021"><ele>395.0</ele><time>2026-05-03T12:25:18.998Z</time></trkpt><trkpt lat="43.9045079" lon="10.6305767"><ele>395.0</ele><time>2026-05-03T12:25:20.001Z</time></trkpt><trkpt lat="43.9045605" lon="10.6304365"><ele>395.0</ele><time>2026-05-03T12:25:20.996Z</time></trkpt><trkpt lat="43.9046088" lon="10.6303059"><ele>395.0</ele><time>2026-05-03T12:25:21.999Z</time></trkpt><trkpt lat="43.904652" lon="10.6301702"><ele>395.0</ele><time>2026-05-03T12:25:23.001Z</time></trkpt><trkpt lat="43.9046938" lon="10.6300347"><ele>395.0</ele><time>2026-05-03T12:25:23.997Z</time></trkpt><trkpt lat="43.9047349" lon="10.6298986"><ele>392.4</ele><time>2026-05-03T12:25:24.99Z</time></trkpt><trkpt lat="43.9047836" lon="10.6297725"><ele>389.8</ele><time>2026-05-03T12:25:25.988Z</time></trkpt><trkpt lat="43.9048368" lon="10.6296577"><ele>387.20000000000005</ele><time>2026-05-03T12:25:26.993Z</time></trkpt><trkpt lat="43.9048948" lon="10.6295605"><ele>384.6</ele><time>2026-05-03T12:25:27.987Z</time></trkpt><trkpt lat="43.904968" lon="10.6294861"><ele>382.0</ele><time>2026-05-03T12:25:28.986Z</time></trkpt><trkpt lat="43.9050376" lon="10.6294087"><ele>388.0</ele><time>2026-05-03T12:25:29.984Z</time></trkpt><trkpt lat="43.9050927" lon="10.6293071"><ele>394.0</ele><time>2026-05-03T12:25:30.982Z</time></trkpt><trkpt lat="43.9051467" lon="10.6291826"><ele>400.0</ele><time>2026-05-03T12:25:31.991Z</time></trkpt><trkpt lat="43.9051936" lon="10.6290415"><ele>406.0</ele><time>2026-05-03T12:25:32.987Z</time></trkpt><trkpt lat="43.9052256" lon="10.6289016"><ele>412.0</ele><time>2026-05-03T12:25:33.984Z</time></trkpt><trkpt lat="43.9052629" lon="10.6287771"><ele>412.00000000000006</ele><time>2026-05-03T12:25:34.979Z</time></trkpt><trkpt lat="43.9053022" lon="10.6286609"><ele>412.0</ele><time>2026-05-03T12:25:35.981Z</time></trkpt><trkpt lat="43.9053395" lon="10.6285674"><ele>412.0</ele><time>2026-05-03T12:25:36.977Z</time></trkpt><trkpt lat="43.9053803" lon="10.6285006"><ele>412.0</ele><time>2026-05-03T12:25:38.019Z</time></trkpt><trkpt lat="43.9054297" lon="10.6285615"><ele>412.00000000000006</ele><time>2026-05-03T12:25:40.982Z</time></trkpt><trkpt lat="43.9053841" lon="10.628704"><ele>412.0</ele><time>2026-05-03T12:25:42.982Z</time></trkpt><trkpt lat="43.9053588" lon="10.6287915"><ele>412.00000000000006</ele><time>2026-05-03T12:25:43.98Z</time></trkpt><trkpt lat="43.9053511" lon="10.6288803"><ele>412.0</ele><time>2026-05-03T12:25:44.972Z</time></trkpt><trkpt lat="43.9053471" lon="10.6289788"><ele>412.0</ele><time>2026-05-03T12:25:45.979Z</time></trkpt><trkpt lat="43.9053443" lon="10.6290827"><ele>412.0</ele><time>2026-05-03T12:25:46.978Z</time></trkpt><trkpt lat="43.9053589" lon="10.629201"><ele>412.00000000000006</ele><time>2026-05-03T12:25:47.973Z</time></trkpt><trkpt lat="43.9053637" lon="10.6293116"><ele>412.0</ele><time>2026-05-03T12:25:48.971Z</time></trkpt><trkpt lat="43.9053627" lon="10.6294285"><ele>414.8</ele><time>2026-05-03T12:25:49.963Z</time></trkpt><trkpt lat="43.9053468" lon="10.629556"><ele>417.6</ele><time>2026-05-03T12:25:50.972Z</time></trkpt><trkpt lat="43.9053054" lon="10.6296823"><ele>420.40000000000003</ele><time>2026-05-03T12:25:51.978Z</time></trkpt><trkpt lat="43.9052542" lon="10.6297947"><ele>423.20000000000005</ele><time>2026-05-03T12:25:52.983Z</time></trkpt><trkpt lat="43.9052121" lon="10.6298974"><ele>426.0</ele><time>2026-05-03T12:25:53.984Z</time></trkpt><trkpt lat="43.9051704" lon="10.6300034"><ele>426.0</ele><time>2026-05-03T12:25:54.989Z</time></trkpt><trkpt lat="43.9051346" lon="10.6301291"><ele>426.0</ele><time>2026-05-03T12:25:55.986Z</time></trkpt><trkpt lat="43.9051154" lon="10.6302746"><ele>426.0</ele><time>2026-05-03T12:25:56.998Z</time></trkpt><trkpt lat="43.9050951" lon="10.630418"><ele>426.0</ele><time>2026-05-03T12:25:57.993Z</time></trkpt><trkpt lat="43.905074" lon="10.6305615"><ele>426.0</ele><time>2026-05-03T12:25:58.993Z</time></trkpt><trkpt lat="43.9050499" lon="10.6306955"><ele>420.20000000000005</ele><time>2026-05-03T12:25:59.992Z</time></trkpt><trkpt lat="43.9050316" lon="10.6308296"><ele>414.40000000000003</ele><time>2026-05-03T12:26:00.999Z</time></trkpt><trkpt lat="43.9050225" lon="10.6309568"><ele>408.6</ele><time>2026-05-03T12:26:01.997Z</time></trkpt><trkpt lat="43.905023" lon="10.63109"><ele>402.8</ele><time>2026-05-03T12:26:03Z</time></trkpt><trkpt lat="43.9050249" lon="10.6312189"><ele>397.0</ele><time>2026-05-03T12:26:03.998Z</time></trkpt><trkpt lat="43.9050301" lon="10.6313298"><ele>397.00000000000006</ele><time>2026-05-03T12:26:05.003Z</time></trkpt><trkpt lat="43.9050413" lon="10.631434"><ele>397.0</ele><time>2026-05-03T12:26:06Z</time></trkpt><trkpt lat="43.9050783" lon="10.6315283"><ele>397.0</ele><time>2026-05-03T12:26:06.994Z</time></trkpt><trkpt lat="43.905134" lon="10.63162"><ele>397.0</ele><time>2026-05-03T12:26:08.019Z</time></trkpt><trkpt lat="43.9051919" lon="10.6317104"><ele>397.00000000000006</ele><time>2026-05-03T12:26:08.993Z</time></trkpt><trkpt lat="43.9052426" lon="10.6317986"><ele>397.0</ele><time>2026-05-03T12:26:09.996Z</time></trkpt><trkpt lat="43.9052786" lon="10.631871"><ele>402.50000000000006</ele><time>2026-05-03T12:26:10.994Z</time></trkpt><trkpt lat="43.9053634" lon="10.6319167"><ele>408.0</ele><time>2026-05-03T12:26:12.993Z</time></trkpt><trkpt lat="43.9054279" lon="10.631778"><ele>413.5</ele><time>2026-05-03T12:26:14.987Z</time></trkpt><trkpt lat="43.9054311" lon="10.6316731"><ele>419.0</ele><time>2026-05-03T12:26:15.983Z</time></trkpt><trkpt lat="43.9054331" lon="10.6315682"><ele>424.50000000000006</ele><time>2026-05-03T12:26:16.976Z</time></trkpt><trkpt lat="43.9054486" lon="10.6314664"><ele>430.0</ele><time>2026-05-03T12:26:17.979Z</time></trkpt><trkpt lat="43.9054629" lon="10.6313607"><ele>430.00000000000006</ele><time>2026-05-03T12:26:18.979Z</time></trkpt><trkpt lat="43.9054798" lon="10.6312475"><ele>430.0</ele><time>2026-05-03T12:26:19.986Z</time></trkpt><trkpt lat="43.9054976" lon="10.6311341"><ele>430.0</ele><time>2026-05-03T12:26:20.986Z</time></trkpt><trkpt lat="43.9055069" lon="10.6310356"><ele>430.0</ele><time>2026-05-03T12:26:21.987Z</time></trkpt><trkpt lat="43.9055216" lon="10.630936"><ele>430.00000000000006</ele><time>2026-05-03T12:26:23.001Z</time></trkpt><trkpt lat="43.9055392" lon="10.6308458"><ele>430.0</ele><time>2026-05-03T12:26:23.991Z</time></trkpt><trkpt lat="43.9055981" lon="10.630741"><ele>430.0</ele><time>2026-05-03T12:26:25.988Z</time></trkpt><trkpt lat="43.9056471" lon="10.6308636"><ele>430.0</ele><time>2026-05-03T12:26:28.968Z</time></trkpt><trkpt lat="43.9056413" lon="10.6309777"><ele>430.0</ele><time>2026-05-03T12:26:29.967Z</time></trkpt><trkpt lat="43.9056425" lon="10.6310987"><ele>430.0</ele><time>2026-05-03T12:26:30.974Z</time></trkpt><trkpt lat="43.9056818" lon="10.6312366"><ele>430.0</ele><time>2026-05-03T12:26:31.976Z</time></trkpt><trkpt lat="43.9057048" lon="10.6313434"><ele>430.0</ele><time>2026-05-03T12:26:32.976Z</time></trkpt><trkpt lat="43.9057402" lon="10.6314293"><ele>430.0</ele><time>2026-05-03T12:26:33.97Z</time></trkpt><trkpt lat="43.9057753" lon="10.6315276"><ele>430.0</ele><time>2026-05-03T12:26:34.984Z</time></trkpt><trkpt lat="43.9058074" lon="10.6316113"><ele>430.0</ele><time>2026-05-03T12:26:35.998Z</time></trkpt><trkpt lat="43.9058776" lon="10.631645"><ele>430.0</ele><time>2026-05-03T12:26:37.994Z</time></trkpt><trkpt lat="43.9059181" lon="10.6315436"><ele>430.0</ele><time>2026-05-03T12:26:39.992Z</time></trkpt><trkpt lat="43.9059041" lon="10.6314525"><ele>430.0</ele><time>2026-05-03T12:26:40.982Z</time></trkpt><trkpt lat="43.9058768" lon="10.6313451"><ele>430.00000000000006</ele><time>2026-05-03T12:26:41.987Z</time></trkpt><trkpt lat="43.9058539" lon="10.6312516"><ele>430.0</ele><time>2026-05-03T12:26:42.986Z</time></trkpt><trkpt lat="43.9058354" lon="10.6311676"><ele>430.0</ele><time>2026-05-03T12:26:43.99Z</time></trkpt><trkpt lat="43.9058159" lon="10.6310645"><ele>430.0</ele><time>2026-05-03T12:26:44.996Z</time></trkpt><trkpt lat="43.9057994" lon="10.6309544"><ele>430.00000000000006</ele><time>2026-05-03T12:26:45.99Z</time></trkpt><trkpt lat="43.9058117" lon="10.6308461"><ele>430.0</ele><time>2026-05-03T12:26:46.992Z</time></trkpt><trkpt lat="43.9058401" lon="10.6307402"><ele>430.83333333333337</ele><time>2026-05-03T12:26:47.991Z</time></trkpt><trkpt lat="43.9058771" lon="10.630632"><ele>431.6666666666667</ele><time>2026-05-03T12:26:48.997Z</time></trkpt><trkpt lat="43.9059205" lon="10.6305209"><ele>432.5</ele><time>2026-05-03T12:26:49.994Z</time></trkpt><trkpt lat="43.9059626" lon="10.6304125"><ele>433.33333333333337</ele><time>2026-05-03T12:26:50.998Z</time></trkpt><trkpt lat="43.9060106" lon="10.6303114"><ele>434.1666666666667</ele><time>2026-05-03T12:26:51.989Z</time></trkpt><trkpt lat="43.9060669" lon="10.6302191"><ele>435.0</ele><time>2026-05-03T12:26:52.99Z</time></trkpt><trkpt lat="43.9061194" lon="10.6301201"><ele>439.1666666666667</ele><time>2026-05-03T12:26:53.983Z</time></trkpt><trkpt lat="43.9061705" lon="10.630041"><ele>443.33333333333337</ele><time>2026-05-03T12:26:54.977Z</time></trkpt><trkpt lat="43.9062298" lon="10.6299499"><ele>447.5</ele><time>2026-05-03T12:26:55.977Z</time></trkpt><trkpt lat="43.9062803" lon="10.6298564"><ele>451.6666666666667</ele><time>2026-05-03T12:26:56.987Z</time></trkpt><trkpt lat="43.9063287" lon="10.6297872"><ele>455.83333333333337</ele><time>2026-05-03T12:26:57.978Z</time></trkpt><trkpt lat="43.90637" lon="10.6297155"><ele>460.0</ele><time>2026-05-03T12:26:58.973Z</time></trkpt><trkpt lat="43.9064248" lon="10.6296589"><ele>460.0</ele><time>2026-05-03T12:26:59.97Z</time></trkpt><trkpt lat="43.9064817" lon="10.6296169"><ele>460.0</ele><time>2026-05-03T12:27:00.977Z</time></trkpt><trkpt lat="43.9065891" lon="10.6295629"><ele>460.0</ele><time>2026-05-03T12:27:02.97Z</time></trkpt><trkpt lat="43.9066565" lon="10.629563"><ele>460.0</ele><time>2026-05-03T12:27:03.973Z</time></trkpt><trkpt lat="43.9067361" lon="10.6296571"><ele>460.0</ele><time>2026-05-03T12:27:05.974Z</time></trkpt><trkpt lat="43.9067049" lon="10.6297913"><ele>460.00000000000006</ele><time>2026-05-03T12:27:07.994Z</time></trkpt><trkpt lat="43.9066381" lon="10.6299359"><ele>460.0</ele><time>2026-05-03T12:27:10.004Z</time></trkpt><trkpt lat="43.9066018" lon="10.6300249"><ele>460.0</ele><time>2026-05-03T12:27:10.986Z</time></trkpt><trkpt lat="43.9065664" lon="10.6301107"><ele>460.0</ele><time>2026-05-03T12:27:11.989Z</time></trkpt><trkpt lat="43.9065418" lon="10.6302163"><ele>460.00000000000006</ele><time>2026-05-03T12:27:12.987Z</time></trkpt><trkpt lat="43.9065197" lon="10.6303161"><ele>460.0</ele><time>2026-05-03T12:27:13.999Z</time></trkpt><trkpt lat="43.9065003" lon="10.6304187"><ele>460.6666666666667</ele><time>2026-05-03T12:27:14.993Z</time></trkpt><trkpt lat="43.906488" lon="10.6305135"><ele>461.33333333333337</ele><time>2026-05-03T12:27:15.997Z</time></trkpt><trkpt lat="43.9064797" lon="10.6306043"><ele>462.0</ele><time>2026-05-03T12:27:16.997Z</time></trkpt><trkpt lat="43.9064966" lon="10.6307862"><ele>462.66666666666663</ele><time>2026-05-03T12:27:19.005Z</time></trkpt><trkpt lat="43.9065282" lon="10.6308941"><ele>463.3333333333333</ele><time>2026-05-03T12:27:19.997Z</time></trkpt><trkpt lat="43.9065604" lon="10.6309955"><ele>464.0</ele><time>2026-05-03T12:27:20.997Z</time></trkpt><trkpt lat="43.9065862" lon="10.6310869"><ele>462.79999999999995</ele><time>2026-05-03T12:27:22.008Z</time></trkpt><trkpt lat="43.906624" lon="10.6311734"><ele>461.59999999999997</ele><time>2026-05-03T12:27:23.002Z</time></trkpt><trkpt lat="43.9067328" lon="10.6312538"><ele>460.4</ele><time>2026-05-03T12:27:25.007Z</time></trkpt><trkpt lat="43.9068071" lon="10.6312474"><ele>459.2</ele><time>2026-05-03T12:27:25.992Z</time></trkpt><trkpt lat="43.9068875" lon="10.6312341"><ele>458.0</ele><time>2026-05-03T12:27:26.998Z</time></trkpt><trkpt lat="43.9069895" lon="10.6312394"><ele>462.66666666666663</ele><time>2026-05-03T12:27:27.989Z</time></trkpt><trkpt lat="43.9070834" lon="10.6312387"><ele>467.3333333333333</ele><time>2026-05-03T12:27:28.984Z</time></trkpt><trkpt lat="43.9071741" lon="10.6312449"><ele>472.0</ele><time>2026-05-03T12:27:29.979Z</time></trkpt><trkpt lat="43.9072537" lon="10.6312534"><ele>476.66666666666663</ele><time>2026-05-03T12:27:30.982Z</time></trkpt><trkpt lat="43.907327" lon="10.6312681"><ele>481.3333333333333</ele><time>2026-05-03T12:27:31.976Z</time></trkpt><trkpt lat="43.907393" lon="10.631288"><ele>486.0</ele><time>2026-05-03T12:27:32.971Z</time></trkpt><trkpt lat="43.9074627" lon="10.6313905"><ele>486.0</ele><time>2026-05-03T12:27:34.975Z</time></trkpt><trkpt lat="43.907418" lon="10.6315443"><ele>486.0</ele><time>2026-05-03T12:27:36.971Z</time></trkpt><trkpt lat="43.9073791" lon="10.6316357"><ele>486.0</ele><time>2026-05-03T12:27:37.977Z</time></trkpt><trkpt lat="43.9073626" lon="10.6317302"><ele>486.0</ele><time>2026-05-03T12:27:38.975Z</time></trkpt><trkpt lat="43.9073745" lon="10.6318243"><ele>486.0</ele><time>2026-05-03T12:27:39.978Z</time></trkpt><trkpt lat="43.907407" lon="10.631923"><ele>486.0</ele><time>2026-05-03T12:27:41Z</time></trkpt><trkpt lat="43.9074499" lon="10.6320173"><ele>485.20000000000005</ele><time>2026-05-03T12:27:41.987Z</time></trkpt><trkpt lat="43.907505" lon="10.6321143"><ele>484.40000000000003</ele><time>2026-05-03T12:27:42.987Z</time></trkpt><trkpt lat="43.9075636" lon="10.6322158"><ele>483.6</ele><time>2026-05-03T12:27:43.983Z</time></trkpt><trkpt lat="43.9076283" lon="10.6323173"><ele>482.8</ele><time>2026-05-03T12:27:44.993Z</time></trkpt><trkpt lat="43.9077018" lon="10.6324145"><ele>482.0</ele><time>2026-05-03T12:27:45.992Z</time></trkpt><trkpt lat="43.9077702" lon="10.632505"><ele>489.40000000000003</ele><time>2026-05-03T12:27:46.988Z</time></trkpt><trkpt lat="43.9078295" lon="10.632592"><ele>496.80000000000007</ele><time>2026-05-03T12:27:47.986Z</time></trkpt><trkpt lat="43.9078874" lon="10.632662"><ele>504.2</ele><time>2026-05-03T12:27:48.987Z</time></trkpt><trkpt lat="43.9079356" lon="10.6327287"><ele>511.6</ele><time>2026-05-03T12:27:49.99Z</time></trkpt><trkpt lat="43.9079821" lon="10.6328775"><ele>519.0</ele><time>2026-05-03T12:27:51.977Z</time></trkpt><trkpt lat="43.9079307" lon="10.6330532"><ele>520.5</ele><time>2026-05-03T12:27:53.972Z</time></trkpt><trkpt lat="43.9079002" lon="10.633157"><ele>522.0</ele><time>2026-05-03T12:27:54.981Z</time></trkpt><trkpt lat="43.9078643" lon="10.6332623"><ele>523.5</ele><time>2026-05-03T12:27:55.983Z</time></trkpt><trkpt lat="43.9078242" lon="10.6333476"><ele>525.0</ele><time>2026-05-03T12:27:56.986Z</time></trkpt><trkpt lat="43.9077894" lon="10.6334235"><ele>526.5</ele><time>2026-05-03T12:27:57.975Z</time></trkpt><trkpt lat="43.9077651" lon="10.6335524"><ele>528.0</ele><time>2026-05-03T12:27:59.969Z</time></trkpt><trkpt lat="43.9078663" lon="10.6335972"><ele>528.0</ele><time>2026-05-03T12:28:02.978Z</time></trkpt><trkpt lat="43.9079767" lon="10.6335021"><ele>528.0</ele><time>2026-05-03T12:28:04.98Z</time></trkpt><trkpt lat="43.908028" lon="10.6334466"><ele>528.0</ele><time>2026-05-03T12:28:05.982Z</time></trkpt><trkpt lat="43.9080768" lon="10.6333713"><ele>528.0</ele><time>2026-05-03T12:28:06.983Z</time></trkpt><trkpt lat="43.9081294" lon="10.6332806"><ele>528.0</ele><time>2026-05-03T12:28:07.978Z</time></trkpt><trkpt lat="43.9081815" lon="10.6331957"><ele>528.0</ele><time>2026-05-03T12:28:08.988Z</time></trkpt><trkpt lat="43.9082305" lon="10.6331116"><ele>528.0</ele><time>2026-05-03T12:28:09.987Z</time></trkpt><trkpt lat="43.9082799" lon="10.6330297"><ele>528.0</ele><time>2026-05-03T12:28:10.985Z</time></trkpt><trkpt lat="43.9083164" lon="10.6329305"><ele>528.0</ele><time>2026-05-03T12:28:12Z</time></trkpt><trkpt lat="43.9083332" lon="10.632803"><ele>528.0</ele><time>2026-05-03T12:28:12.98Z</time></trkpt><trkpt lat="43.9083384" lon="10.6326608"><ele>528.0</ele><time>2026-05-03T12:28:13.983Z</time></trkpt><trkpt lat="43.9083446" lon="10.6324977"><ele>526.5</ele><time>2026-05-03T12:28:14.985Z</time></trkpt><trkpt lat="43.90835" lon="10.632349"><ele>525.0</ele><time>2026-05-03T12:28:15.986Z</time></trkpt><trkpt lat="43.9083533" lon="10.6322158"><ele>523.5</ele><time>2026-05-03T12:28:16.984Z</time></trkpt><trkpt lat="43.9083476" lon="10.6320939"><ele>522.0</ele><time>2026-05-03T12:28:17.996Z</time></trkpt><trkpt lat="43.9083664" lon="10.6319869"><ele>520.5</ele><time>2026-05-03T12:28:18.998Z</time></trkpt><trkpt lat="43.9083816" lon="10.6318897"><ele>519.0</ele><time>2026-05-03T12:28:19.995Z</time></trkpt><trkpt lat="43.9083999" lon="10.6318012"><ele>525.5</ele><time>2026-05-03T12:28:20.998Z</time></trkpt><trkpt lat="43.908426" lon="10.6317213"><ele>532.0</ele><time>2026-05-03T12:28:21.995Z</time></trkpt><trkpt lat="43.9085194" lon="10.6316043"><ele>538.5</ele><time>2026-05-03T12:28:23.99Z</time></trkpt><trkpt lat="43.9085552" lon="10.6315289"><ele>545.0</ele><time>2026-05-03T12:28:24.985Z</time></trkpt><trkpt lat="43.908579" lon="10.6314463"><ele>551.5</ele><time>2026-05-03T12:28:25.99Z</time></trkpt><trkpt lat="43.9086057" lon="10.6313641"><ele>558.0</ele><time>2026-05-03T12:28:26.986Z</time></trkpt><trkpt lat="43.9086806" lon="10.6312846"><ele>558.0</ele><time>2026-05-03T12:28:28.969Z</time></trkpt><trkpt lat="43.9087773" lon="10.6313178"><ele>558.0</ele><time>2026-05-03T12:28:30.964Z</time></trkpt><trkpt lat="43.9088497" lon="10.6314093"><ele>558.0</ele><time>2026-05-03T12:28:32.97Z</time></trkpt><trkpt lat="43.9088684" lon="10.631499"><ele>558.0</ele><time>2026-05-03T12:28:33.971Z</time></trkpt><trkpt lat="43.9088723" lon="10.63161"><ele>558.0</ele><time>2026-05-03T12:28:34.959Z</time></trkpt><trkpt lat="43.9088699" lon="10.6317544"><ele>558.0</ele><time>2026-05-03T12:28:35.97Z</time></trkpt><trkpt lat="43.9088842" lon="10.6318981"><ele>556.25</ele><time>2026-05-03T12:28:36.967Z</time></trkpt><trkpt lat="43.9089147" lon="10.6320535"><ele>554.5</ele><time>2026-05-03T12:28:37.973Z</time></trkpt><trkpt lat="43.9089515" lon="10.6321985"><ele>552.75</ele><time>2026-05-03T12:28:38.979Z</time></trkpt><trkpt lat="43.908985" lon="10.6323568"><ele>551.0</ele><time>2026-05-03T12:28:39.985Z</time></trkpt><trkpt lat="43.909023" lon="10.6325229"><ele>551.0</ele><time>2026-05-03T12:28:40.985Z</time></trkpt><trkpt lat="43.9090518" lon="10.6326704"><ele>551.0</ele><time>2026-05-03T12:28:41.981Z</time></trkpt><trkpt lat="43.9090709" lon="10.6328267"><ele>551.0</ele><time>2026-05-03T12:28:43Z</time></trkpt><trkpt lat="43.9090786" lon="10.6329805"><ele>551.0</ele><time>2026-05-03T12:28:43.972Z</time></trkpt><trkpt lat="43.9090696" lon="10.6331147"><ele>551.0</ele><time>2026-05-03T12:28:44.975Z</time></trkpt><trkpt lat="43.9090691" lon="10.6332484"><ele>551.6</ele><time>2026-05-03T12:28:45.98Z</time></trkpt><trkpt lat="43.9090612" lon="10.6333671"><ele>552.2</ele><time>2026-05-03T12:28:46.98Z</time></trkpt><trkpt lat="43.9090703" lon="10.6334816"><ele>552.8</ele><time>2026-05-03T12:28:47.982Z</time></trkpt><trkpt lat="43.9090767" lon="10.6336335"><ele>553.4</ele><time>2026-05-03T12:28:49.979Z</time></trkpt><trkpt lat="43.9091261" lon="10.6337737"><ele>554.0</ele><time>2026-05-03T12:28:51.978Z</time></trkpt><trkpt lat="43.9091772" lon="10.6338372"><ele>553.6</ele><time>2026-05-03T12:28:53.99Z</time></trkpt><trkpt lat="43.9092715" lon="10.6338761"><ele>553.2</ele><time>2026-05-03T12:28:56.99Z</time></trkpt><trkpt lat="43.9093459" lon="10.6338055"><ele>552.8000000000001</ele><time>2026-05-03T12:28:58.995Z</time></trkpt><trkpt lat="43.909377" lon="10.6336232"><ele>552.4</ele><time>2026-05-03T12:29:00.985Z</time></trkpt><trkpt lat="43.9093993" lon="10.6334973"><ele>552.0</ele><time>2026-05-03T12:29:01.985Z</time></trkpt><trkpt lat="43.9094423" lon="10.6333379"><ele>552.0</ele><time>2026-05-03T12:29:02.988Z</time></trkpt><trkpt lat="43.9094932" lon="10.6331813"><ele>552.0</ele><time>2026-05-03T12:29:03.982Z</time></trkpt><trkpt lat="43.9095344" lon="10.6330239"><ele>552.0</ele><time>2026-05-03T12:29:04.976Z</time></trkpt><trkpt lat="43.9095548" lon="10.6328517"><ele>552.0</ele><time>2026-05-03T12:29:06.002Z</time></trkpt><trkpt lat="43.9095673" lon="10.6326927"><ele>555.2</ele><time>2026-05-03T12:29:06.993Z</time></trkpt><trkpt lat="43.9095915" lon="10.6325717"><ele>558.4000000000001</ele><time>2026-05-03T12:29:07.997Z</time></trkpt><trkpt lat="43.9096386" lon="10.6324761"><ele>561.5999999999999</ele><time>2026-05-03T12:29:08.977Z</time></trkpt><trkpt lat="43.9097074" lon="10.6323893"><ele>564.8</ele><time>2026-05-03T12:29:09.98Z</time></trkpt><trkpt lat="43.9098056" lon="10.6322916"><ele>568.0</ele><time>2026-05-03T12:29:10.97Z</time></trkpt><trkpt lat="43.9099021" lon="10.6321741"><ele>568.0</ele><time>2026-05-03T12:29:11.965Z</time></trkpt><trkpt lat="43.9099901" lon="10.632067"><ele>568.0</ele><time>2026-05-03T12:29:12.967Z</time></trkpt><trkpt lat="43.9100908" lon="10.6319463"><ele>568.0</ele><time>2026-05-03T12:29:13.984Z</time></trkpt><trkpt lat="43.9101777" lon="10.6318315"><ele>568.0</ele><time>2026-05-03T12:29:14.967Z</time></trkpt><trkpt lat="43.9102682" lon="10.6317091"><ele>573.0</ele><time>2026-05-03T12:29:15.966Z</time></trkpt><trkpt lat="43.9103566" lon="10.6316153"><ele>578.0</ele><time>2026-05-03T12:29:16.97Z</time></trkpt><trkpt lat="43.9104539" lon="10.6315095"><ele>583.0</ele><time>2026-05-03T12:29:17.971Z</time></trkpt><trkpt lat="43.9105399" lon="10.6313861"><ele>588.0</ele><time>2026-05-03T12:29:18.972Z</time></trkpt><trkpt lat="43.9106092" lon="10.6312722"><ele>588.0</ele><time>2026-05-03T12:29:19.978Z</time></trkpt><trkpt lat="43.910677" lon="10.631161"><ele>588.0</ele><time>2026-05-03T12:29:20.98Z</time></trkpt><trkpt lat="43.9107394" lon="10.6310448"><ele>588.0</ele><time>2026-05-03T12:29:21.986Z</time></trkpt><trkpt lat="43.9107931" lon="10.6309246"><ele>588.0</ele><time>2026-05-03T12:29:22.99Z</time></trkpt><trkpt lat="43.9108503" lon="10.6308215"><ele>588.0</ele><time>2026-05-03T12:29:23.996Z</time></trkpt><trkpt lat="43.9109052" lon="10.6307491"><ele>594.0</ele><time>2026-05-03T12:29:24.998Z</time></trkpt><trkpt lat="43.9110106" lon="10.6306678"><ele>600.0</ele><time>2026-05-03T12:29:26.988Z</time></trkpt><trkpt lat="43.911083" lon="10.6306692"><ele>606.0</ele><time>2026-05-03T12:29:27.983Z</time></trkpt><trkpt lat="43.9111715" lon="10.6306759"><ele>612.0</ele><time>2026-05-03T12:29:28.982Z</time></trkpt><trkpt lat="43.9112661" lon="10.6306965"><ele>618.0</ele><time>2026-05-03T12:29:29.976Z</time></trkpt><trkpt lat="43.9113474" lon="10.630726"><ele>618.0</ele><time>2026-05-03T12:29:30.972Z</time></trkpt><trkpt lat="43.911428" lon="10.6307795"><ele>618.0</ele><time>2026-05-03T12:29:31.981Z</time></trkpt><trkpt lat="43.9115087" lon="10.630858"><ele>618.0</ele><time>2026-05-03T12:29:32.99Z</time></trkpt><trkpt lat="43.9116069" lon="10.6309559"><ele>618.0</ele><time>2026-05-03T12:29:33.986Z</time></trkpt><trkpt lat="43.9117071" lon="10.6310376"><ele>618.0</ele><time>2026-05-03T12:29:34.974Z</time></trkpt><trkpt lat="43.9118" lon="10.6310894"><ele>619.1999999999999</ele><time>2026-05-03T12:29:35.971Z</time></trkpt><trkpt lat="43.9118979" lon="10.631102"><ele>620.4</ele><time>2026-05-03T12:29:36.969Z</time></trkpt><trkpt lat="43.9119821" lon="10.6311072"><ele>621.5999999999999</ele><time>2026-05-03T12:29:37.967Z</time></trkpt><trkpt lat="43.9120459" lon="10.6311291"><ele>622.8</ele><time>2026-05-03T12:29:38.97Z</time></trkpt><trkpt lat="43.91214" lon="10.6312481"><ele>624.0</ele><time>2026-05-03T12:29:40.958Z</time></trkpt><trkpt lat="43.9121872" lon="10.6313517"><ele>624.0</ele><time>2026-05-03T12:29:41.963Z</time></trkpt><trkpt lat="43.9122452" lon="10.6314488"><ele>624.0</ele><time>2026-05-03T12:29:42.964Z</time></trkpt><trkpt lat="43.91231" lon="10.6315171"><ele>624.0</ele><time>2026-05-03T12:29:43.962Z</time></trkpt><trkpt lat="43.9123852" lon="10.6315755"><ele>624.0</ele><time>2026-05-03T12:29:44.983Z</time></trkpt><trkpt lat="43.9124731" lon="10.6316228"><ele>624.0</ele><time>2026-05-03T12:29:45.971Z</time></trkpt><trkpt lat="43.912572" lon="10.6316822"><ele>625.6</ele><time>2026-05-03T12:29:46.966Z</time></trkpt><trkpt lat="43.9126635" lon="10.631724"><ele>627.2</ele><time>2026-05-03T12:29:47.963Z</time></trkpt><trkpt lat="43.9127688" lon="10.6317468"><ele>628.8000000000001</ele><time>2026-05-03T12:29:48.97Z</time></trkpt><trkpt lat="43.9128761" lon="10.6317505"><ele>630.4</ele><time>2026-05-03T12:29:49.975Z</time></trkpt><trkpt lat="43.9129716" lon="10.6317237"><ele>632.0</ele><time>2026-05-03T12:29:50.954Z</time></trkpt><trkpt lat="43.9130619" lon="10.6316855"><ele>632.0</ele><time>2026-05-03T12:29:51.957Z</time></trkpt><trkpt lat="43.9131418" lon="10.6315977"><ele>632.0</ele><time>2026-05-03T12:29:52.967Z</time></trkpt><trkpt lat="43.9132086" lon="10.6315124"><ele>632.0</ele><time>2026-05-03T12:29:53.969Z</time></trkpt><trkpt lat="43.9132756" lon="10.6314249"><ele>632.0</ele><time>2026-05-03T12:29:54.973Z</time></trkpt><trkpt lat="43.9133424" lon="10.6313415"><ele>632.0</ele><time>2026-05-03T12:29:55.978Z</time></trkpt><trkpt lat="43.9134052" lon="10.6312693"><ele>631.0</ele><time>2026-05-03T12:29:56.975Z</time></trkpt><trkpt lat="43.9134718" lon="10.631218"><ele>630.0</ele><time>2026-05-03T12:29:57.971Z</time></trkpt><trkpt lat="43.9135347" lon="10.631155"><ele>629.0</ele><time>2026-05-03T12:29:58.971Z</time></trkpt><trkpt lat="43.9135865" lon="10.6310933"><ele>628.0</ele><time>2026-05-03T12:29:59.97Z</time></trkpt><trkpt lat="43.9136453" lon="10.6310226"><ele>627.0</ele><time>2026-05-03T12:30:00.973Z</time></trkpt><trkpt lat="43.9137176" lon="10.6309474"><ele>626.0</ele><time>2026-05-03T12:30:01.976Z</time></trkpt><trkpt lat="43.9137892" lon="10.6308722"><ele>628.8333333333333</ele><time>2026-05-03T12:30:02.97Z</time></trkpt><trkpt lat="43.9138571" lon="10.6307914"><ele>631.6666666666666</ele><time>2026-05-03T12:30:03.976Z</time></trkpt><trkpt lat="43.9139145" lon="10.6307226"><ele>634.5</ele><time>2026-05-03T12:30:04.977Z</time></trkpt><trkpt lat="43.9139793" lon="10.6306486"><ele>637.3333333333334</ele><time>2026-05-03T12:30:06.968Z</time></trkpt><trkpt lat="43.9140728" lon="10.6305859"><ele>640.1666666666667</ele><time>2026-05-03T12:30:09.966Z</time></trkpt><trkpt lat="43.9141426" lon="10.6305777"><ele>643.0</ele><time>2026-05-03T12:30:10.966Z</time></trkpt><trkpt lat="43.9142057" lon="10.6305655"><ele>642.1666666666667</ele><time>2026-05-03T12:30:11.963Z</time></trkpt><trkpt lat="43.9143132" lon="10.6305199"><ele>641.3333333333334</ele><time>2026-05-03T12:30:13.971Z</time></trkpt><trkpt lat="43.9143747" lon="10.6304881"><ele>640.5</ele><time>2026-05-03T12:30:14.971Z</time></trkpt><trkpt lat="43.9144379" lon="10.6304259"><ele>639.6666666666666</ele><time>2026-05-03T12:30:16.009Z</time></trkpt><trkpt lat="43.9145041" lon="10.6303579"><ele>638.8333333333333</ele><time>2026-05-03T12:30:16.98Z</time></trkpt><trkpt lat="43.9145485" lon="10.6302705"><ele>638.0</ele><time>2026-05-03T12:30:17.978Z</time></trkpt><trkpt lat="43.9145839" lon="10.6301888"><ele>640.3333333333333</ele><time>2026-05-03T12:30:18.985Z</time></trkpt><trkpt lat="43.9146263" lon="10.630095"><ele>642.6666666666666</ele><time>2026-05-03T12:30:19.978Z</time></trkpt><trkpt lat="43.9146626" lon="10.6299991"><ele>645.0</ele><time>2026-05-03T12:30:20.982Z</time></trkpt><trkpt lat="43.9146887" lon="10.6298994"><ele>647.3333333333334</ele><time>2026-05-03T12:30:21.985Z</time></trkpt><trkpt lat="43.9147012" lon="10.6297986"><ele>649.6666666666667</ele><time>2026-05-03T12:30:22.984Z</time></trkpt><trkpt lat="43.9147204" lon="10.6296808"><ele>652.0</ele><time>2026-05-03T12:30:23.977Z</time></trkpt><trkpt lat="43.9147527" lon="10.6295575"><ele>654.0</ele><time>2026-05-03T12:30:24.984Z</time></trkpt><trkpt lat="43.914775" lon="10.629443"><ele>656.0</ele><time>2026-05-03T12:30:25.978Z</time></trkpt><trkpt lat="43.9147899" lon="10.6293269"><ele>658.0</ele><time>2026-05-03T12:30:26.979Z</time></trkpt><trkpt lat="43.9147867" lon="10.6292064"><ele>660.0</ele><time>2026-05-03T12:30:27.968Z</time></trkpt><trkpt lat="43.9147898" lon="10.6291097"><ele>662.0</ele><time>2026-05-03T12:30:28.962Z</time></trkpt><trkpt lat="43.9148171" lon="10.628964"><ele>664.0</ele><time>2026-05-03T12:30:30.952Z</time></trkpt><trkpt lat="43.9149177" lon="10.6288767"><ele>664.0</ele><time>2026-05-03T12:30:32.958Z</time></trkpt><trkpt lat="43.9149943" lon="10.6288252"><ele>664.0</ele><time>2026-05-03T12:30:33.955Z</time></trkpt><trkpt lat="43.9150682" lon="10.6287756"><ele>664.0</ele><time>2026-05-03T12:30:34.952Z</time></trkpt><trkpt lat="43.915134" lon="10.6287188"><ele>664.0</ele><time>2026-05-03T12:30:35.962Z</time></trkpt><trkpt lat="43.9152004" lon="10.628654"><ele>664.0</ele><time>2026-05-03T12:30:36.964Z</time></trkpt><trkpt lat="43.9152674" lon="10.6285818"><ele>664.0</ele><time>2026-05-03T12:30:37.966Z</time></trkpt><trkpt lat="43.9153263" lon="10.6285251"><ele>665.1666666666667</ele><time>2026-05-03T12:30:38.973Z</time></trkpt><trkpt lat="43.9153785" lon="10.6284551"><ele>666.3333333333334</ele><time>2026-05-03T12:30:39.963Z</time></trkpt><trkpt lat="43.9154285" lon="10.62837"><ele>667.5</ele><time>2026-05-03T12:30:40.963Z</time></trkpt><trkpt lat="43.9154903" lon="10.6282725"><ele>668.6666666666666</ele><time>2026-05-03T12:30:41.972Z</time></trkpt><trkpt lat="43.9155572" lon="10.6281808"><ele>669.8333333333333</ele><time>2026-05-03T12:30:42.971Z</time></trkpt><trkpt lat="43.9156095" lon="10.6280764"><ele>671.0</ele><time>2026-05-03T12:30:43.969Z</time></trkpt><trkpt lat="43.9156583" lon="10.6279703"><ele>671.0</ele><time>2026-05-03T12:30:44.978Z</time></trkpt><trkpt lat="43.9156886" lon="10.6278756"><ele>671.0</ele><time>2026-05-03T12:30:45.993Z</time></trkpt><trkpt lat="43.9157216" lon="10.6277823"><ele>671.0</ele><time>2026-05-03T12:30:46.981Z</time></trkpt><trkpt lat="43.9157656" lon="10.6276899"><ele>671.0</ele><time>2026-05-03T12:30:47.978Z</time></trkpt><trkpt lat="43.9158261" lon="10.6276094"><ele>671.0</ele><time>2026-05-03T12:30:48.981Z</time></trkpt><trkpt lat="43.9158818" lon="10.6275321"><ele>671.0</ele><time>2026-05-03T12:30:49.982Z</time></trkpt><trkpt lat="43.9159366" lon="10.6274525"><ele>672.3333333333333</ele><time>2026-05-03T12:30:50.97Z</time></trkpt><trkpt lat="43.9159831" lon="10.6273898"><ele>673.6666666666666</ele><time>2026-05-03T12:30:51.972Z</time></trkpt><trkpt lat="43.9160851" lon="10.6272862"><ele>675.0</ele><time>2026-05-03T12:30:53.962Z</time></trkpt><trkpt lat="43.916148" lon="10.6272284"><ele>676.3333333333334</ele><time>2026-05-03T12:30:54.961Z</time></trkpt><trkpt lat="43.9162255" lon="10.6271764"><ele>677.6666666666667</ele><time>2026-05-03T12:30:55.961Z</time></trkpt><trkpt lat="43.9162968" lon="10.6271323"><ele>679.0</ele><time>2026-05-03T12:30:56.968Z</time></trkpt><trkpt lat="43.9163722" lon="10.6270937"><ele>679.0</ele><time>2026-05-03T12:30:57.967Z</time></trkpt><trkpt lat="43.9164525" lon="10.6270754"><ele>679.0</ele><time>2026-05-03T12:30:58.97Z</time></trkpt><trkpt lat="43.9165268" lon="10.6270533"><ele>679.0</ele><time>2026-05-03T12:30:59.97Z</time></trkpt><trkpt lat="43.9165972" lon="10.6270068"><ele>679.0</ele><time>2026-05-03T12:31:00.96Z</time></trkpt><trkpt lat="43.9166646" lon="10.6269534"><ele>679.0</ele><time>2026-05-03T12:31:01.959Z</time></trkpt><trkpt lat="43.9167289" lon="10.6268998"><ele>679.0</ele><time>2026-05-03T12:31:02.961Z</time></trkpt><trkpt lat="43.9167969" lon="10.6268285"><ele>682.3333333333334</ele><time>2026-05-03T12:31:03.962Z</time></trkpt><trkpt lat="43.9168605" lon="10.6267731"><ele>685.6666666666667</ele><time>2026-05-03T12:31:04.965Z</time></trkpt><trkpt lat="43.9169302" lon="10.626702"><ele>689.0</ele><time>2026-05-03T12:31:05.964Z</time></trkpt><trkpt lat="43.9169994" lon="10.6266305"><ele>692.3333333333334</ele><time>2026-05-03T12:31:06.967Z</time></trkpt><trkpt lat="43.9170712" lon="10.626558"><ele>695.6666666666666</ele><time>2026-05-03T12:31:07.965Z</time></trkpt><trkpt lat="43.9171492" lon="10.6265064"><ele>699.0</ele><time>2026-05-03T12:31:08.97Z</time></trkpt><trkpt lat="43.9172257" lon="10.6264799"><ele>699.0</ele><time>2026-05-03T12:31:09.966Z</time></trkpt><trkpt lat="43.9173031" lon="10.626466"><ele>699.0</ele><time>2026-05-03T12:31:10.969Z</time></trkpt><trkpt lat="43.9174127" lon="10.6264906"><ele>699.0</ele><time>2026-05-03T12:31:12.976Z</time></trkpt><trkpt lat="43.9174848" lon="10.6264973"><ele>699.0</ele><time>2026-05-03T12:31:14.971Z</time></trkpt><trkpt lat="43.9175559" lon="10.6264487"><ele>699.0</ele><time>2026-05-03T12:31:16.986Z</time></trkpt><trkpt lat="43.9176238" lon="10.6263362"><ele>699.0</ele><time>2026-05-03T12:31:18.974Z</time></trkpt><trkpt lat="43.9176538" lon="10.6262043"><ele>702.0</ele><time>2026-05-03T12:31:20.979Z</time></trkpt><trkpt lat="43.9176524" lon="10.6260748"><ele>705.0</ele><time>2026-05-03T12:31:22.986Z</time></trkpt><trkpt lat="43.9176037" lon="10.6259453"><ele>708.0</ele><time>2026-05-03T12:31:24.972Z</time></trkpt><trkpt lat="43.9175698" lon="10.6257731"><ele>711.0</ele><time>2026-05-03T12:31:26.979Z</time></trkpt><trkpt lat="43.9175438" lon="10.6256916"><ele>714.0</ele><time>2026-05-03T12:31:27.98Z</time></trkpt><trkpt lat="43.9175104" lon="10.625547"><ele>715.0</ele><time>2026-05-03T12:31:29.971Z</time></trkpt><trkpt lat="43.9175324" lon="10.6254057"><ele>716.0</ele><time>2026-05-03T12:31:31.976Z</time></trkpt><trkpt lat="43.9175783" lon="10.6252943"><ele>717.0</ele><time>2026-05-03T12:31:33.972Z</time></trkpt><trkpt lat="43.9176841" lon="10.6252022"><ele>718.0</ele><time>2026-05-03T12:31:35.974Z</time></trkpt><trkpt lat="43.917754" lon="10.625042"><ele>721.1666666666667</ele><time>2026-05-03T12:31:37.975Z</time></trkpt><trkpt lat="43.9177663" lon="10.6249333"><ele>724.3333333333334</ele><time>2026-05-03T12:31:38.969Z</time></trkpt><trkpt lat="43.9177751" lon="10.624829"><ele>727.5</ele><time>2026-05-03T12:31:39.973Z</time></trkpt><trkpt lat="43.9177766" lon="10.624731"><ele>730.6666666666666</ele><time>2026-05-03T12:31:40.97Z</time></trkpt><trkpt lat="43.9177778" lon="10.624634"><ele>733.8333333333333</ele><time>2026-05-03T12:31:41.976Z</time></trkpt><trkpt lat="43.9177834" lon="10.6245363"><ele>737.0</ele><time>2026-05-03T12:31:42.974Z</time></trkpt><trkpt lat="43.9178099" lon="10.6243788"><ele>738.8333333333333</ele><time>2026-05-03T12:31:44.975Z</time></trkpt><trkpt lat="43.9178302" lon="10.624288"><ele>740.6666666666666</ele><time>2026-05-03T12:31:45.982Z</time></trkpt><trkpt lat="43.9178646" lon="10.6241913"><ele>742.5</ele><time>2026-05-03T12:31:46.985Z</time></trkpt><trkpt lat="43.9179025" lon="10.6240989"><ele>744.3333333333334</ele><time>2026-05-03T12:31:47.995Z</time></trkpt><trkpt lat="43.9179595" lon="10.6240216"><ele>746.1666666666667</ele><time>2026-05-03T12:31:48.975Z</time></trkpt><trkpt lat="43.9179918" lon="10.6239056"><ele>748.0</ele><time>2026-05-03T12:31:50.969Z</time></trkpt><trkpt lat="43.9180002" lon="10.6237572"><ele>748.0</ele><time>2026-05-03T12:31:52.972Z</time></trkpt><trkpt lat="43.9180247" lon="10.6236504"><ele>748.0</ele><time>2026-05-03T12:31:53.97Z</time></trkpt><trkpt lat="43.9180641" lon="10.6235361"><ele>748.0</ele><time>2026-05-03T12:31:54.968Z</time></trkpt><trkpt lat="43.9180866" lon="10.6234122"><ele>748.0</ele><time>2026-05-03T12:31:55.976Z</time></trkpt><trkpt lat="43.9181164" lon="10.6233025"><ele>748.0</ele><time>2026-05-03T12:31:56.969Z</time></trkpt><trkpt lat="43.9181382" lon="10.6231958"><ele>748.0</ele><time>2026-05-03T12:31:57.963Z</time></trkpt><trkpt lat="43.9181669" lon="10.6231083"><ele>748.3333333333334</ele><time>2026-05-03T12:31:58.963Z</time></trkpt><trkpt lat="43.9182077" lon="10.6230124"><ele>748.6666666666667</ele><time>2026-05-03T12:31:59.971Z</time></trkpt><trkpt lat="43.9182291" lon="10.6229052"><ele>749.0</ele><time>2026-05-03T12:32:00.966Z</time></trkpt><trkpt lat="43.9182633" lon="10.6228005"><ele>749.3333333333334</ele><time>2026-05-03T12:32:01.966Z</time></trkpt><trkpt lat="43.9183079" lon="10.6227124"><ele>749.6666666666666</ele><time>2026-05-03T12:32:02.972Z</time></trkpt><trkpt lat="43.9183664" lon="10.6226552"><ele>750.0</ele><time>2026-05-03T12:32:03.976Z</time></trkpt><trkpt lat="43.9184327" lon="10.6225987"><ele>753.2</ele><time>2026-05-03T12:32:04.974Z</time></trkpt><trkpt lat="43.918491" lon="10.6225427"><ele>756.4</ele><time>2026-05-03T12:32:05.974Z</time></trkpt><trkpt lat="43.9185527" lon="10.6224027"><ele>759.5999999999999</ele><time>2026-05-03T12:32:07.98Z</time></trkpt><trkpt lat="43.9185393" lon="10.6222168"><ele>762.8</ele><time>2026-05-03T12:32:09.962Z</time></trkpt><trkpt lat="43.9185333" lon="10.6220839"><ele>766.0</ele><time>2026-05-03T12:32:10.974Z</time></trkpt><trkpt lat="43.9185369" lon="10.6219516"><ele>766.0</ele><time>2026-05-03T12:32:11.97Z</time></trkpt><trkpt lat="43.9185379" lon="10.6218371"><ele>766.0</ele><time>2026-05-03T12:32:12.977Z</time></trkpt><trkpt lat="43.9185563" lon="10.6216931"><ele>766.0</ele><time>2026-05-03T12:32:14.981Z</time></trkpt><trkpt lat="43.9186133" lon="10.6215626"><ele>766.0</ele><time>2026-05-03T12:32:16.986Z</time></trkpt><trkpt lat="43.9186586" lon="10.6214942"><ele>766.0</ele><time>2026-05-03T12:32:17.982Z</time></trkpt><trkpt lat="43.9187238" lon="10.6214369"><ele>766.0</ele><time>2026-05-03T12:32:18.995Z</time></trkpt><trkpt lat="43.9187902" lon="10.6213753"><ele>766.0</ele><time>2026-05-03T12:32:19.978Z</time></trkpt><trkpt lat="43.9188674" lon="10.6213134"><ele>766.0</ele><time>2026-05-03T12:32:20.982Z</time></trkpt><trkpt lat="43.9189422" lon="10.6212324"><ele>766.0</ele><time>2026-05-03T12:32:21.979Z</time></trkpt><trkpt lat="43.9190044" lon="10.6211563"><ele>766.0</ele><time>2026-05-03T12:32:22.98Z</time></trkpt><trkpt lat="43.9190711" lon="10.6210852"><ele>766.0</ele><time>2026-05-03T12:32:23.973Z</time></trkpt><trkpt lat="43.9191473" lon="10.6210392"><ele>766.0</ele><time>2026-05-03T12:32:24.975Z</time></trkpt><trkpt lat="43.9192146" lon="10.6209943"><ele>769.5</ele><time>2026-05-03T12:32:25.977Z</time></trkpt><trkpt lat="43.9192732" lon="10.6209497"><ele>773.0</ele><time>2026-05-03T12:32:26.979Z</time></trkpt><trkpt lat="43.9193339" lon="10.6209146"><ele>776.5</ele><time>2026-05-03T12:32:27.968Z</time></trkpt><trkpt lat="43.9194003" lon="10.6208881"><ele>780.0</ele><time>2026-05-03T12:32:28.969Z</time></trkpt><trkpt lat="43.9195067" lon="10.6208744"><ele>783.4999999999999</ele><time>2026-05-03T12:32:30.965Z</time></trkpt><trkpt lat="43.919472" lon="10.6207459"><ele>787.0</ele><time>2026-05-03T12:32:33.96Z</time></trkpt><trkpt lat="43.9193875" lon="10.6206468"><ele>786.9999999999999</ele><time>2026-05-03T12:32:35.956Z</time></trkpt><trkpt lat="43.9193262" lon="10.6205617"><ele>787.0</ele><time>2026-05-03T12:32:36.96Z</time></trkpt><trkpt lat="43.9192712" lon="10.6204845"><ele>787.0</ele><time>2026-05-03T12:32:37.952Z</time></trkpt><trkpt lat="43.919218" lon="10.6204039"><ele>787.0</ele><time>2026-05-03T12:32:38.957Z</time></trkpt><trkpt lat="43.9191949" lon="10.6203135"><ele>786.9999999999999</ele><time>2026-05-03T12:32:39.963Z</time></trkpt><trkpt lat="43.9191819" lon="10.6202077"><ele>787.0</ele><time>2026-05-03T12:32:40.968Z</time></trkpt><trkpt lat="43.9191804" lon="10.6200876"><ele>780.4999999999999</ele><time>2026-05-03T12:32:41.96Z</time></trkpt><trkpt lat="43.9191644" lon="10.619979"><ele>774.0</ele><time>2026-05-03T12:32:42.96Z</time></trkpt><trkpt lat="43.9191342" lon="10.6198766"><ele>767.5</ele><time>2026-05-03T12:32:43.958Z</time></trkpt><trkpt lat="43.9190904" lon="10.6197813"><ele>761.0</ele><time>2026-05-03T12:32:44.969Z</time></trkpt><trkpt lat="43.9190373" lon="10.6197073"><ele>754.5</ele><time>2026-05-03T12:32:45.971Z</time></trkpt><trkpt lat="43.9189977" lon="10.619626"><ele>748.0</ele><time>2026-05-03T12:32:46.97Z</time></trkpt><trkpt lat="43.9189732" lon="10.6195329"><ele>748.5714285714286</ele><time>2026-05-03T12:32:47.972Z</time></trkpt><trkpt lat="43.9189543" lon="10.6194114"><ele>749.1428571428572</ele><time>2026-05-03T12:32:48.983Z</time></trkpt><trkpt lat="43.9189584" lon="10.6193036"><ele>749.7142857142858</ele><time>2026-05-03T12:32:49.995Z</time></trkpt><trkpt lat="43.9189682" lon="10.6192139"><ele>750.2857142857142</ele><time>2026-05-03T12:32:50.971Z</time></trkpt><trkpt lat="43.9189946" lon="10.6191257"><ele>750.8571428571429</ele><time>2026-05-03T12:32:51.986Z</time></trkpt><trkpt lat="43.9190367" lon="10.619058"><ele>751.4285714285714</ele><time>2026-05-03T12:32:52.985Z</time></trkpt><trkpt lat="43.9190833" lon="10.6189934"><ele>752.0</ele><time>2026-05-03T12:32:53.981Z</time></trkpt><trkpt lat="43.9191393" lon="10.6189479"><ele>758.0</ele><time>2026-05-03T12:32:54.986Z</time></trkpt><trkpt lat="43.9192699" lon="10.6189013"><ele>764.0</ele><time>2026-05-03T12:32:56.986Z</time></trkpt><trkpt lat="43.9193631" lon="10.6188907"><ele>770.0</ele><time>2026-05-03T12:32:57.98Z</time></trkpt><trkpt lat="43.9194545" lon="10.6188672"><ele>776.0</ele><time>2026-05-03T12:32:58.975Z</time></trkpt><trkpt lat="43.9195304" lon="10.6188244"><ele>782.0</ele><time>2026-05-03T12:32:59.976Z</time></trkpt><trkpt lat="43.9196054" lon="10.6187947"><ele>782.0</ele><time>2026-05-03T12:33:00.975Z</time></trkpt><trkpt lat="43.9196636" lon="10.6187367"><ele>782.0</ele><time>2026-05-03T12:33:01.97Z</time></trkpt><trkpt lat="43.9197223" lon="10.6186759"><ele>782.0</ele><time>2026-05-03T12:33:02.964Z</time></trkpt><trkpt lat="43.9198108" lon="10.6186009"><ele>782.0</ele><time>2026-05-03T12:33:04.968Z</time></trkpt><trkpt lat="43.9199102" lon="10.6185243"><ele>782.0</ele><time>2026-05-03T12:33:06.962Z</time></trkpt><trkpt lat="43.9199645" lon="10.6183999"><ele>778.6666666666667</ele><time>2026-05-03T12:33:08.967Z</time></trkpt><trkpt lat="43.9199741" lon="10.6182696"><ele>775.3333333333334</ele><time>2026-05-03T12:33:10.967Z</time></trkpt><trkpt lat="43.9200455" lon="10.6181896"><ele>772.0</ele><time>2026-05-03T12:33:12.959Z</time></trkpt><trkpt lat="43.9201366" lon="10.618135"><ele>768.6666666666667</ele><time>2026-05-03T12:33:14.958Z</time></trkpt><trkpt lat="43.9202047" lon="10.6180868"><ele>765.3333333333334</ele><time>2026-05-03T12:33:16.959Z</time></trkpt><trkpt lat="43.9201945" lon="10.6179819"><ele>762.0</ele><time>2026-05-03T12:33:19.967Z</time></trkpt><trkpt lat="43.9201301" lon="10.6178497"><ele>762.8</ele><time>2026-05-03T12:33:21.96Z</time></trkpt><trkpt lat="43.9200512" lon="10.6177011"><ele>763.6</ele><time>2026-05-03T12:33:23.965Z</time></trkpt><trkpt lat="43.9200021" lon="10.6176201"><ele>764.4</ele><time>2026-05-03T12:33:24.963Z</time></trkpt><trkpt lat="43.9199478" lon="10.6175632"><ele>765.1999999999999</ele><time>2026-05-03T12:33:25.967Z</time></trkpt><trkpt lat="43.9198622" lon="10.617489"><ele>766.0</ele><time>2026-05-03T12:33:27.968Z</time></trkpt><trkpt lat="43.9197874" lon="10.6174058"><ele>766.0</ele><time>2026-05-03T12:33:29.976Z</time></trkpt><trkpt lat="43.9197453" lon="10.6172959"><ele>766.0</ele><time>2026-05-03T12:33:31.973Z</time></trkpt><trkpt lat="43.9197966" lon="10.6171631"><ele>766.0</ele><time>2026-05-03T12:33:33.973Z</time></trkpt><trkpt lat="43.9198349" lon="10.6170716"><ele>766.0</ele><time>2026-05-03T12:33:34.971Z</time></trkpt><trkpt lat="43.9198672" lon="10.6169815"><ele>766.0</ele><time>2026-05-03T12:33:35.967Z</time></trkpt><trkpt lat="43.9199012" lon="10.6168899"><ele>766.0</ele><time>2026-05-03T12:33:36.973Z</time></trkpt><trkpt lat="43.9199445" lon="10.6167802"><ele>767.4</ele><time>2026-05-03T12:33:37.968Z</time></trkpt><trkpt lat="43.9199997" lon="10.616685"><ele>768.8</ele><time>2026-05-03T12:33:38.963Z</time></trkpt><trkpt lat="43.9200506" lon="10.6165998"><ele>770.1999999999999</ele><time>2026-05-03T12:33:39.966Z</time></trkpt><trkpt lat="43.9200988" lon="10.6165288"><ele>771.5999999999999</ele><time>2026-05-03T12:33:40.96Z</time></trkpt><trkpt lat="43.9201882" lon="10.6164103"><ele>773.0</ele><time>2026-05-03T12:33:42.959Z</time></trkpt><trkpt lat="43.920263" lon="10.6163233"><ele>775.8333333333334</ele><time>2026-05-03T12:33:44.957Z</time></trkpt><trkpt lat="43.9202823" lon="10.6162336"><ele>778.6666666666667</ele><time>2026-05-03T12:33:47.96Z</time></trkpt><trkpt lat="43.9202131" lon="10.6161046"><ele>781.5</ele><time>2026-05-03T12:33:49.959Z</time></trkpt><trkpt lat="43.9201282" lon="10.6160534"><ele>784.3333333333333</ele><time>2026-05-03T12:33:51.972Z</time></trkpt><trkpt lat="43.9200681" lon="10.6160233"><ele>787.1666666666666</ele><time>2026-05-03T12:33:52.959Z</time></trkpt><trkpt lat="43.9200029" lon="10.6160033"><ele>790.0</ele><time>2026-05-03T12:33:53.961Z</time></trkpt><trkpt lat="43.9199263" lon="10.6159802"><ele>789.9999999999999</ele><time>2026-05-03T12:33:54.962Z</time></trkpt><trkpt lat="43.9198406" lon="10.6159543"><ele>790.0</ele><time>2026-05-03T12:33:55.957Z</time></trkpt><trkpt lat="43.9197717" lon="10.6159222"><ele>790.0</ele><time>2026-05-03T12:33:56.956Z</time></trkpt><trkpt lat="43.9197088" lon="10.6158878"><ele>790.0</ele><time>2026-05-03T12:33:57.964Z</time></trkpt><trkpt lat="43.9196352" lon="10.6158167"><ele>789.9999999999999</ele><time>2026-05-03T12:33:59.961Z</time></trkpt><trkpt lat="43.9195623" lon="10.6156886"><ele>790.0</ele><time>2026-05-03T12:34:01.96Z</time></trkpt><trkpt lat="43.9195239" lon="10.6156054"><ele>790.0</ele><time>2026-05-03T12:34:02.96Z</time></trkpt><trkpt lat="43.9194846" lon="10.6155166"><ele>790.0</ele><time>2026-05-03T12:34:03.959Z</time></trkpt><trkpt lat="43.9194431" lon="10.6154426"><ele>790.0</ele><time>2026-05-03T12:34:04.957Z</time></trkpt><trkpt lat="43.9193722" lon="10.6153121"><ele>790.0</ele><time>2026-05-03T12:34:06.965Z</time></trkpt><trkpt lat="43.9192755" lon="10.6152353"><ele>790.0</ele><time>2026-05-03T12:34:08.964Z</time></trkpt><trkpt lat="43.9192011" lon="10.6151662"><ele>791.4</ele><time>2026-05-03T12:34:10.968Z</time></trkpt><trkpt lat="43.919176" lon="10.6150435"><ele>792.8</ele><time>2026-05-03T12:34:12.966Z</time></trkpt><trkpt lat="43.9191751" lon="10.6149181"><ele>794.2</ele><time>2026-05-03T12:34:14.959Z</time></trkpt><trkpt lat="43.9190841" lon="10.614895"><ele>795.6</ele><time>2026-05-03T12:34:17.967Z</time></trkpt><trkpt lat="43.9190022" lon="10.6148874"><ele>797.0</ele><time>2026-05-03T12:34:19.958Z</time></trkpt><trkpt lat="43.9188917" lon="10.6148396"><ele>797.0</ele><time>2026-05-03T12:34:21.963Z</time></trkpt><trkpt lat="43.9188111" lon="10.6148339"><ele>797.0</ele><time>2026-05-03T12:34:23.963Z</time></trkpt><trkpt lat="43.9187148" lon="10.6149081"><ele>797.0</ele><time>2026-05-03T12:34:25.964Z</time></trkpt><trkpt lat="43.9186001" lon="10.6149653"><ele>797.0</ele><time>2026-05-03T12:34:27.963Z</time></trkpt><trkpt lat="43.9184744" lon="10.6149644"><ele>797.0</ele><time>2026-05-03T12:34:29.97Z</time></trkpt><trkpt lat="43.9183571" lon="10.6149453"><ele>795.4000000000001</ele><time>2026-05-03T12:34:31.976Z</time></trkpt><trkpt lat="43.918261" lon="10.6148955"><ele>793.8000000000001</ele><time>2026-05-03T12:34:33.972Z</time></trkpt><trkpt lat="43.9181551" lon="10.6147735"><ele>792.2</ele><time>2026-05-03T12:34:35.97Z</time></trkpt><trkpt lat="43.9180876" lon="10.6146939"><ele>790.6</ele><time>2026-05-03T12:34:36.968Z</time></trkpt><trkpt lat="43.9180056" lon="10.614604"><ele>789.0</ele><time>2026-05-03T12:34:37.967Z</time></trkpt><trkpt lat="43.9179296" lon="10.6145224"><ele>793.4000000000001</ele><time>2026-05-03T12:34:38.968Z</time></trkpt><trkpt lat="43.917862" lon="10.6144349"><ele>797.8</ele><time>2026-05-03T12:34:39.966Z</time></trkpt><trkpt lat="43.9177656" lon="10.6143761"><ele>802.2</ele><time>2026-05-03T12:34:41.967Z</time></trkpt><trkpt lat="43.9177445" lon="10.6142651"><ele>806.5999999999999</ele><time>2026-05-03T12:34:51.978Z</time></trkpt><trkpt lat="43.9177827" lon="10.6140556"><ele>811.0</ele><time>2026-05-03T12:34:53.996Z</time></trkpt><trkpt lat="43.9178073" lon="10.6139144"><ele>811.0</ele><time>2026-05-03T12:34:54.977Z</time></trkpt><trkpt lat="43.9178164" lon="10.6137935"><ele>811.0</ele><time>2026-05-03T12:34:55.99Z</time></trkpt><trkpt lat="43.9178346" lon="10.6136672"><ele>811.0</ele><time>2026-05-03T12:34:56.979Z</time></trkpt><trkpt lat="43.9178631" lon="10.613576"><ele>811.0</ele><time>2026-05-03T12:34:57.964Z</time></trkpt><trkpt lat="43.9178871" lon="10.6134192"><ele>811.0</ele><time>2026-05-03T12:34:59.974Z</time></trkpt><trkpt lat="43.9179082" lon="10.613224"><ele>811.9999999999999</ele><time>2026-05-03T12:35:01.973Z</time></trkpt><trkpt lat="43.9179403" lon="10.6131116"><ele>813.0</ele><time>2026-05-03T12:35:02.973Z</time></trkpt><trkpt lat="43.9179836" lon="10.6130178"><ele>814.0</ele><time>2026-05-03T12:35:03.981Z</time></trkpt><trkpt lat="43.9180449" lon="10.6129298"><ele>815.0</ele><time>2026-05-03T12:35:04.971Z</time></trkpt><trkpt lat="43.9181156" lon="10.612859"><ele>815.9999999999999</ele><time>2026-05-03T12:35:05.978Z</time></trkpt><trkpt lat="43.9181967" lon="10.6128085"><ele>817.0</ele><time>2026-05-03T12:35:06.974Z</time></trkpt><trkpt lat="43.9182644" lon="10.6127442"><ele>818.8</ele><time>2026-05-03T12:35:07.974Z</time></trkpt><trkpt lat="43.9183274" lon="10.6126547"><ele>820.6</ele><time>2026-05-03T12:35:08.978Z</time></trkpt><trkpt lat="43.9183834" lon="10.6125581"><ele>822.4</ele><time>2026-05-03T12:35:09.983Z</time></trkpt><trkpt lat="43.918432" lon="10.6124388"><ele>824.1999999999999</ele><time>2026-05-03T12:35:10.977Z</time></trkpt><trkpt lat="43.9184688" lon="10.6123151"><ele>826.0</ele><time>2026-05-03T12:35:11.977Z</time></trkpt><trkpt lat="43.9185031" lon="10.6122188"><ele>825.9999999999999</ele><time>2026-05-03T12:35:12.972Z</time></trkpt><trkpt lat="43.9185229" lon="10.6121226"><ele>826.0</ele><time>2026-05-03T12:35:13.978Z</time></trkpt><trkpt lat="43.9185572" lon="10.6120193"><ele>826.0</ele><time>2026-05-03T12:35:14.981Z</time></trkpt><trkpt lat="43.9185971" lon="10.6119159"><ele>826.0</ele><time>2026-05-03T12:35:15.984Z</time></trkpt><trkpt lat="43.9186348" lon="10.6118027"><ele>825.9999999999999</ele><time>2026-05-03T12:35:16.983Z</time></trkpt><trkpt lat="43.9186821" lon="10.6117108"><ele>826.0</ele><time>2026-05-03T12:35:17.978Z</time></trkpt><trkpt lat="43.9187184" lon="10.6116316"><ele>825.9999999999999</ele><time>2026-05-03T12:35:18.98Z</time></trkpt><trkpt lat="43.9187824" lon="10.611575"><ele>826.0</ele><time>2026-05-03T12:35:20.975Z</time></trkpt><trkpt lat="43.918829" lon="10.6116753"><ele>826.0</ele><time>2026-05-03T12:35:22.974Z</time></trkpt><trkpt lat="43.9188411" lon="10.6118394"><ele>826.0</ele><time>2026-05-03T12:35:24.999Z</time></trkpt><trkpt lat="43.9188453" lon="10.6119336"><ele>825.9999999999999</ele><time>2026-05-03T12:35:25.987Z</time></trkpt><trkpt lat="43.9188401" lon="10.6120472"><ele>826.0</ele><time>2026-05-03T12:35:26.997Z</time></trkpt><trkpt lat="43.9188012" lon="10.6121733"><ele>826.0</ele><time>2026-05-03T12:35:27.979Z</time></trkpt><trkpt lat="43.9187634" lon="10.6123066"><ele>826.0</ele><time>2026-05-03T12:35:28.973Z</time></trkpt><trkpt lat="43.9187202" lon="10.6124271"><ele>826.0</ele><time>2026-05-03T12:35:29.981Z</time></trkpt><trkpt lat="43.9186968" lon="10.6125491"><ele>826.0</ele><time>2026-05-03T12:35:30.984Z</time></trkpt><trkpt lat="43.9186817" lon="10.6126377"><ele>826.0</ele><time>2026-05-03T12:35:31.976Z</time></trkpt><trkpt lat="43.9186746" lon="10.6127831"><ele>828.3333333333333</ele><time>2026-05-03T12:35:33.973Z</time></trkpt><trkpt lat="43.9187009" lon="10.6129318"><ele>830.6666666666666</ele><time>2026-05-03T12:35:35.978Z</time></trkpt><trkpt lat="43.918706" lon="10.6130222"><ele>833.0</ele><time>2026-05-03T12:35:36.977Z</time></trkpt><trkpt lat="43.918706" lon="10.6131386"><ele>835.3333333333333</ele><time>2026-05-03T12:35:37.979Z</time></trkpt><trkpt lat="43.918713" lon="10.6132664"><ele>837.6666666666666</ele><time>2026-05-03T12:35:38.983Z</time></trkpt><trkpt lat="43.9187146" lon="10.6133771"><ele>840.0</ele><time>2026-05-03T12:35:39.979Z</time></trkpt><trkpt lat="43.9187071" lon="10.6134726"><ele>840.0</ele><time>2026-05-03T12:35:40.974Z</time></trkpt><trkpt lat="43.9187047" lon="10.6135627"><ele>840.0</ele><time>2026-05-03T12:35:41.978Z</time></trkpt><trkpt lat="43.9187496" lon="10.6136985"><ele>840.0</ele><time>2026-05-03T12:35:43.992Z</time></trkpt><trkpt lat="43.9188338" lon="10.6137369"><ele>840.0</ele><time>2026-05-03T12:35:45.994Z</time></trkpt><trkpt lat="43.9189466" lon="10.6137755"><ele>840.0</ele><time>2026-05-03T12:35:47.981Z</time></trkpt><trkpt lat="43.9190283" lon="10.6138233"><ele>840.6666666666666</ele><time>2026-05-03T12:35:48.984Z</time></trkpt><trkpt lat="43.919113" lon="10.6138492"><ele>841.3333333333333</ele><time>2026-05-03T12:35:49.979Z</time></trkpt><trkpt lat="43.9191871" lon="10.6138414"><ele>842.0</ele><time>2026-05-03T12:35:50.978Z</time></trkpt><trkpt lat="43.9192538" lon="10.6137985"><ele>842.6666666666666</ele><time>2026-05-03T12:35:51.975Z</time></trkpt><trkpt lat="43.9193531" lon="10.6137834"><ele>843.3333333333333</ele><time>2026-05-03T12:35:53.973Z</time></trkpt><trkpt lat="43.9194493" lon="10.6138511"><ele>844.0</ele><time>2026-05-03T12:35:55.977Z</time></trkpt><trkpt lat="43.919516" lon="10.6139266"><ele>844.0</ele><time>2026-05-03T12:35:56.962Z</time></trkpt><trkpt lat="43.9195907" lon="10.6140176"><ele>844.0</ele><time>2026-05-03T12:35:57.967Z</time></trkpt><trkpt lat="43.9196641" lon="10.6141147"><ele>844.0</ele><time>2026-05-03T12:35:58.966Z</time></trkpt><trkpt lat="43.9197209" lon="10.6141994"><ele>844.0</ele><time>2026-05-03T12:35:59.963Z</time></trkpt><trkpt lat="43.9197775" lon="10.6142783"><ele>844.0</ele><time>2026-05-03T12:36:00.966Z</time></trkpt><trkpt lat="43.9198767" lon="10.6143736"><ele>844.0</ele><time>2026-05-03T12:36:02.969Z</time></trkpt><trkpt lat="43.919977" lon="10.6144175"><ele>844.0</ele><time>2026-05-03T12:36:04.973Z</time></trkpt><trkpt lat="43.9200414" lon="10.6144387"><ele>844.0</ele><time>2026-05-03T12:36:05.976Z</time></trkpt><trkpt lat="43.9201043" lon="10.614462"><ele>844.0</ele><time>2026-05-03T12:36:06.976Z</time></trkpt><trkpt lat="43.9201693" lon="10.6144793"><ele>844.0</ele><time>2026-05-03T12:36:07.978Z</time></trkpt><trkpt lat="43.9202335" lon="10.6144922"><ele>844.0</ele><time>2026-05-03T12:36:08.973Z</time></trkpt><trkpt lat="43.9202988" lon="10.6145108"><ele>844.0</ele><time>2026-05-03T12:36:09.972Z</time></trkpt><trkpt lat="43.9204051" lon="10.614516"><ele>844.6666666666666</ele><time>2026-05-03T12:36:11.974Z</time></trkpt><trkpt lat="43.9205151" lon="10.6145112"><ele>845.3333333333333</ele><time>2026-05-03T12:36:13.967Z</time></trkpt><trkpt lat="43.9205766" lon="10.6145321"><ele>846.0</ele><time>2026-05-03T12:36:14.962Z</time></trkpt><trkpt lat="43.9206409" lon="10.6145842"><ele>846.6666666666667</ele><time>2026-05-03T12:36:15.966Z</time></trkpt><trkpt lat="43.920708" lon="10.6146806"><ele>847.3333333333334</ele><time>2026-05-03T12:36:16.97Z</time></trkpt><trkpt lat="43.9207692" lon="10.6147828"><ele>848.0</ele><time>2026-05-03T12:36:17.97Z</time></trkpt><trkpt lat="43.9208446" lon="10.614868"><ele>850.5999999999999</ele><time>2026-05-03T12:36:18.978Z</time></trkpt><trkpt lat="43.9209173" lon="10.6149596"><ele>853.1999999999999</ele><time>2026-05-03T12:36:19.97Z</time></trkpt><trkpt lat="43.9209812" lon="10.6150462"><ele>855.8</ele><time>2026-05-03T12:36:20.968Z</time></trkpt><trkpt lat="43.9210446" lon="10.6151129"><ele>858.4</ele><time>2026-05-03T12:36:21.982Z</time></trkpt><trkpt lat="43.9211377" lon="10.6152056"><ele>861.0</ele><time>2026-05-03T12:36:23.98Z</time></trkpt><trkpt lat="43.9212333" lon="10.6153482"><ele>861.3333333333334</ele><time>2026-05-03T12:36:25.984Z</time></trkpt><trkpt lat="43.9212867" lon="10.6154203"><ele>861.6666666666667</ele><time>2026-05-03T12:36:27.004Z</time></trkpt><trkpt lat="43.9213343" lon="10.6154891"><ele>862.0</ele><time>2026-05-03T12:36:27.98Z</time></trkpt><trkpt lat="43.9213848" lon="10.6155649"><ele>862.3333333333334</ele><time>2026-05-03T12:36:28.97Z</time></trkpt><trkpt lat="43.9214394" lon="10.6156644"><ele>862.6666666666667</ele><time>2026-05-03T12:36:29.973Z</time></trkpt><trkpt lat="43.9215026" lon="10.6157793"><ele>863.0</ele><time>2026-05-03T12:36:30.976Z</time></trkpt><trkpt lat="43.9215749" lon="10.615898"><ele>863.0</ele><time>2026-05-03T12:36:31.979Z</time></trkpt><trkpt lat="43.9216333" lon="10.6160143"><ele>863.0</ele><time>2026-05-03T12:36:32.979Z</time></trkpt><trkpt lat="43.9216865" lon="10.6161272"><ele>863.0</ele><time>2026-05-03T12:36:33.98Z</time></trkpt><trkpt lat="43.9217446" lon="10.6162369"><ele>863.0</ele><time>2026-05-03T12:36:34.976Z</time></trkpt><trkpt lat="43.9218005" lon="10.6163535"><ele>863.0</ele><time>2026-05-03T12:36:35.974Z</time></trkpt><trkpt lat="43.9218512" lon="10.6164636"><ele>865.5714285714287</ele><time>2026-05-03T12:36:36.971Z</time></trkpt><trkpt lat="43.9218934" lon="10.6165415"><ele>868.1428571428571</ele><time>2026-05-03T12:36:37.97Z</time></trkpt><trkpt lat="43.9219393" lon="10.6166063"><ele>870.7142857142858</ele><time>2026-05-03T12:36:40.969Z</time></trkpt><trkpt lat="43.921945" lon="10.6167177"><ele>873.2857142857143</ele><time>2026-05-03T12:37:11.989Z</time></trkpt><trkpt lat="43.9219238" lon="10.6166302"><ele>875.8571428571429</ele><time>2026-05-03T12:37:29.988Z</time></trkpt><trkpt lat="43.9219668" lon="10.6165599"><ele>878.4285714285714</ele><time>2026-05-03T12:37:36.983Z</time></trkpt><trkpt lat="43.922019" lon="10.6164844"><ele>881.0</ele><time>2026-05-03T12:37:41.989Z</time></trkpt><trkpt lat="43.9220724" lon="10.6164308"><ele>881.0</ele><time>2026-05-03T12:40:14.988Z</time></trkpt><trkpt lat="43.9220084" lon="10.6165144"><ele>880.9999999999999</ele><time>2026-05-03T12:43:01.997Z</time></trkpt><trkpt lat="43.9219494" lon="10.6165599"><ele>880.9999999999999</ele><time>2026-05-03T12:43:06.001Z</time></trkpt><trkpt lat="43.9219609" lon="10.6167153"><ele>881.0</ele><time>2026-05-03T12:43:15.984Z</time></trkpt><trkpt lat="43.9220018" lon="10.6168945"><ele>881.0</ele><time>2026-05-03T12:43:17.982Z</time></trkpt><trkpt lat="43.9220563" lon="10.6169846"><ele>879.6666666666667</ele><time>2026-05-03T12:43:18.989Z</time></trkpt><trkpt lat="43.9221075" lon="10.6170629"><ele>878.3333333333334</ele><time>2026-05-03T12:43:19.992Z</time></trkpt><trkpt lat="43.9221631" lon="10.617139"><ele>877.0</ele><time>2026-05-03T12:43:20.989Z</time></trkpt><trkpt lat="43.9221995" lon="10.617227"><ele>875.6666666666667</ele><time>2026-05-03T12:43:21.996Z</time></trkpt><trkpt lat="43.9222504" lon="10.61734"><ele>874.3333333333334</ele><time>2026-05-03T12:43:23.988Z</time></trkpt><trkpt lat="43.9222857" lon="10.6175045"><ele>873.0</ele><time>2026-05-03T12:43:25.994Z</time></trkpt><trkpt lat="43.9223079" lon="10.6176294"><ele>873.0</ele><time>2026-05-03T12:43:26.996Z</time></trkpt><trkpt lat="43.9223185" lon="10.6177644"><ele>873.0</ele><time>2026-05-03T12:43:27.982Z</time></trkpt><trkpt lat="43.9223213" lon="10.6178833"><ele>873.0</ele><time>2026-05-03T12:43:28.989Z</time></trkpt><trkpt lat="43.9223378" lon="10.6179916"><ele>873.0</ele><time>2026-05-03T12:43:29.989Z</time></trkpt><trkpt lat="43.9223672" lon="10.6180756"><ele>873.0</ele><time>2026-05-03T12:43:30.992Z</time></trkpt><trkpt lat="43.9224424" lon="10.6181616"><ele>873.0</ele><time>2026-05-03T12:43:32.993Z</time></trkpt><trkpt lat="43.9225589" lon="10.6181601"><ele>872.1666666666666</ele><time>2026-05-03T12:43:35Z</time></trkpt><trkpt lat="43.9226371" lon="10.6181161"><ele>871.3333333333333</ele><time>2026-05-03T12:43:36.006Z</time></trkpt><trkpt lat="43.9227148" lon="10.6180747"><ele>870.5</ele><time>2026-05-03T12:43:36.995Z</time></trkpt><trkpt lat="43.9227897" lon="10.6180515"><ele>869.6666666666666</ele><time>2026-05-03T12:43:38.004Z</time></trkpt><trkpt lat="43.9228689" lon="10.6180278"><ele>868.8333333333333</ele><time>2026-05-03T12:43:39.005Z</time></trkpt><trkpt lat="43.9229561" lon="10.6180064"><ele>868.0</ele><time>2026-05-03T12:43:40.019Z</time></trkpt><trkpt lat="43.923021" lon="10.6179915"><ele>868.0</ele><time>2026-05-03T12:43:40.997Z</time></trkpt><trkpt lat="43.9231213" lon="10.6179816"><ele>868.0</ele><time>2026-05-03T12:43:56.016Z</time></trkpt><trkpt lat="43.923222" lon="10.6179832"><ele>868.0</ele><time>2026-05-03T12:43:58.987Z</time></trkpt><trkpt lat="43.9232944" lon="10.617974"><ele>868.0</ele><time>2026-05-03T12:43:59.995Z</time></trkpt><trkpt lat="43.9233945" lon="10.617946"><ele>868.0</ele><time>2026-05-03T12:44:00.99Z</time></trkpt><trkpt lat="43.9235089" lon="10.6179311"><ele>866.4</ele><time>2026-05-03T12:44:01.984Z</time></trkpt><trkpt lat="43.9236215" lon="10.6179118"><ele>864.8</ele><time>2026-05-03T12:44:02.98Z</time></trkpt><trkpt lat="43.9237264" lon="10.6178963"><ele>863.2</ele><time>2026-05-03T12:44:03.976Z</time></trkpt><trkpt lat="43.9238245" lon="10.6178764"><ele>861.6</ele><time>2026-05-03T12:44:04.974Z</time></trkpt><trkpt lat="43.9239059" lon="10.6178634"><ele>860.0</ele><time>2026-05-03T12:44:05.975Z</time></trkpt><trkpt lat="43.923985" lon="10.6178353"><ele>860.5000000000001</ele><time>2026-05-03T12:44:06.978Z</time></trkpt><trkpt lat="43.9240711" lon="10.6178159"><ele>861.0</ele><time>2026-05-03T12:44:07.986Z</time></trkpt><trkpt lat="43.9241617" lon="10.617791"><ele>861.5</ele><time>2026-05-03T12:44:08.99Z</time></trkpt><trkpt lat="43.9242469" lon="10.6177688"><ele>862.0</ele><time>2026-05-03T12:44:09.992Z</time></trkpt><trkpt lat="43.924323" lon="10.6177566"><ele>862.5000000000001</ele><time>2026-05-03T12:44:11.019Z</time></trkpt><trkpt lat="43.92439" lon="10.6177046"><ele>863.0</ele><time>2026-05-03T12:44:11.987Z</time></trkpt><trkpt lat="43.9244659" lon="10.6176531"><ele>863.8333333333334</ele><time>2026-05-03T12:44:12.999Z</time></trkpt><trkpt lat="43.9245389" lon="10.6176026"><ele>864.6666666666667</ele><time>2026-05-03T12:44:13.991Z</time></trkpt><trkpt lat="43.9245957" lon="10.6175531"><ele>865.5</ele><time>2026-05-03T12:44:14.986Z</time></trkpt><trkpt lat="43.9246578" lon="10.6174903"><ele>866.3333333333333</ele><time>2026-05-03T12:44:15.988Z</time></trkpt><trkpt lat="43.9247058" lon="10.6173953"><ele>867.1666666666666</ele><time>2026-05-03T12:44:16.982Z</time></trkpt><trkpt lat="43.9247572" lon="10.6172392"><ele>868.0</ele><time>2026-05-03T12:44:18.986Z</time></trkpt><trkpt lat="43.9247803" lon="10.6170867"><ele>868.0</ele><time>2026-05-03T12:44:20.982Z</time></trkpt><trkpt lat="43.9248514" lon="10.6170296"><ele>868.0</ele><time>2026-05-03T12:44:31.992Z</time></trkpt><trkpt lat="43.9249817" lon="10.6169718"><ele>868.0</ele><time>2026-05-03T12:44:33.977Z</time></trkpt><trkpt lat="43.9250831" lon="10.6169367"><ele>868.0</ele><time>2026-05-03T12:44:34.975Z</time></trkpt><trkpt lat="43.9251777" lon="10.616923"><ele>868.0</ele><time>2026-05-03T12:44:35.974Z</time></trkpt><trkpt lat="43.9252629" lon="10.6169308"><ele>868.5999999999999</ele><time>2026-05-03T12:44:36.974Z</time></trkpt><trkpt lat="43.9253482" lon="10.6169527"><ele>869.1999999999999</ele><time>2026-05-03T12:44:37.983Z</time></trkpt><trkpt lat="43.9254312" lon="10.6169891"><ele>869.8</ele><time>2026-05-03T12:44:38.986Z</time></trkpt><trkpt lat="43.9255251" lon="10.6170485"><ele>870.4</ele><time>2026-05-03T12:44:39.982Z</time></trkpt><trkpt lat="43.9256218" lon="10.6171071"><ele>871.0</ele><time>2026-05-03T12:44:41.009Z</time></trkpt><trkpt lat="43.9256895" lon="10.6171509"><ele>870.9999999999999</ele><time>2026-05-03T12:44:41.985Z</time></trkpt><trkpt lat="43.9257525" lon="10.6172098"><ele>871.0</ele><time>2026-05-03T12:44:42.991Z</time></trkpt><trkpt lat="43.9257912" lon="10.6172809"><ele>871.0</ele><time>2026-05-03T12:44:43.989Z</time></trkpt><trkpt lat="43.9258383" lon="10.6173697"><ele>871.0</ele><time>2026-05-03T12:44:44.99Z</time></trkpt><trkpt lat="43.9258932" lon="10.6174753"><ele>870.9999999999999</ele><time>2026-05-03T12:44:45.997Z</time></trkpt><trkpt lat="43.9259612" lon="10.6175819"><ele>871.0</ele><time>2026-05-03T12:44:47.001Z</time></trkpt><trkpt lat="43.9260165" lon="10.6176681"><ele>870.8333333333333</ele><time>2026-05-03T12:44:47.999Z</time></trkpt><trkpt lat="43.9260619" lon="10.6177645"><ele>870.6666666666666</ele><time>2026-05-03T12:44:48.982Z</time></trkpt><trkpt lat="43.926103" lon="10.6178522"><ele>870.5</ele><time>2026-05-03T12:44:49.976Z</time></trkpt><trkpt lat="43.9261282" lon="10.6179494"><ele>870.3333333333333</ele><time>2026-05-03T12:44:50.972Z</time></trkpt><trkpt lat="43.9261426" lon="10.6180563"><ele>870.1666666666666</ele><time>2026-05-03T12:44:51.966Z</time></trkpt><trkpt lat="43.9261525" lon="10.6181788"><ele>870.0</ele><time>2026-05-03T12:44:52.972Z</time></trkpt><trkpt lat="43.9261722" lon="10.6182996"><ele>870.0</ele><time>2026-05-03T12:44:53.968Z</time></trkpt><trkpt lat="43.9262" lon="10.6184262"><ele>870.0</ele><time>2026-05-03T12:44:54.964Z</time></trkpt><trkpt lat="43.9262409" lon="10.6185559"><ele>870.0</ele><time>2026-05-03T12:44:55.967Z</time></trkpt><trkpt lat="43.9262733" lon="10.6186804"><ele>870.0</ele><time>2026-05-03T12:44:56.968Z</time></trkpt><trkpt lat="43.9262944" lon="10.6187915"><ele>870.0</ele><time>2026-05-03T12:44:57.965Z</time></trkpt><trkpt lat="43.9263249" lon="10.6188866"><ele>869.4</ele><time>2026-05-03T12:44:58.971Z</time></trkpt><trkpt lat="43.9263585" lon="10.6189757"><ele>868.8</ele><time>2026-05-03T12:44:59.965Z</time></trkpt><trkpt lat="43.92639" lon="10.6191301"><ele>868.2</ele><time>2026-05-03T12:45:01.963Z</time></trkpt><trkpt lat="43.9264052" lon="10.6192742"><ele>867.6</ele><time>2026-05-03T12:45:03.96Z</time></trkpt><trkpt lat="43.9264361" lon="10.6194453"><ele>867.0</ele><time>2026-05-03T12:45:05.954Z</time></trkpt><trkpt lat="43.9264547" lon="10.6195463"><ele>866.0</ele><time>2026-05-03T12:45:06.958Z</time></trkpt><trkpt lat="43.9264858" lon="10.6196647"><ele>865.0</ele><time>2026-05-03T12:45:07.958Z</time></trkpt><trkpt lat="43.9264882" lon="10.6197887"><ele>864.0</ele><time>2026-05-03T12:45:08.956Z</time></trkpt><trkpt lat="43.926477" lon="10.6199111"><ele>863.0</ele><time>2026-05-03T12:45:09.948Z</time></trkpt><trkpt lat="43.9264723" lon="10.6200118"><ele>862.0</ele><time>2026-05-03T12:45:10.947Z</time></trkpt><trkpt lat="43.9264686" lon="10.6201361"><ele>861.0</ele><time>2026-05-03T12:45:12.959Z</time></trkpt><trkpt lat="43.9265606" lon="10.6200848"><ele>861.0</ele><time>2026-05-03T12:45:19.966Z</time></trkpt><trkpt lat="43.9266797" lon="10.6200179"><ele>861.0</ele><time>2026-05-03T12:45:21.968Z</time></trkpt><trkpt lat="43.9267985" lon="10.619995"><ele>861.0</ele><time>2026-05-03T12:45:22.968Z</time></trkpt><trkpt lat="43.9269228" lon="10.6199965"><ele>861.0</ele><time>2026-05-03T12:45:23.971Z</time></trkpt><trkpt lat="43.927033" lon="10.6200007"><ele>863.25</ele><time>2026-05-03T12:45:24.979Z</time></trkpt><trkpt lat="43.9271744" lon="10.6200201"><ele>865.5</ele><time>2026-05-03T12:45:25.985Z</time></trkpt><trkpt lat="43.9272886" lon="10.6200288"><ele>867.75</ele><time>2026-05-03T12:45:26.989Z</time></trkpt><trkpt lat="43.9274011" lon="10.6200301"><ele>870.0</ele><time>2026-05-03T12:45:27.996Z</time></trkpt><trkpt lat="43.9275044" lon="10.6200497"><ele>870.1666666666666</ele><time>2026-05-03T12:45:28.991Z</time></trkpt><trkpt lat="43.927604" lon="10.6200775"><ele>870.3333333333333</ele><time>2026-05-03T12:45:29.997Z</time></trkpt><trkpt lat="43.9276947" lon="10.6201112"><ele>870.5</ele><time>2026-05-03T12:45:30.99Z</time></trkpt><trkpt lat="43.9277796" lon="10.6201323"><ele>870.6666666666666</ele><time>2026-05-03T12:45:32.003Z</time></trkpt><trkpt lat="43.9278633" lon="10.6201279"><ele>870.8333333333333</ele><time>2026-05-03T12:45:32.992Z</time></trkpt><trkpt lat="43.9279322" lon="10.6201139"><ele>871.0</ele><time>2026-05-03T12:45:33.99Z</time></trkpt><trkpt lat="43.9280496" lon="10.6200532"><ele>870.9999999999999</ele><time>2026-05-03T12:45:35.986Z</time></trkpt><trkpt lat="43.9281071" lon="10.619965"><ele>871.0</ele><time>2026-05-03T12:45:37.983Z</time></trkpt><trkpt lat="43.9281359" lon="10.6198716"><ele>871.0</ele><time>2026-05-03T12:45:40.987Z</time></trkpt><trkpt lat="43.9281994" lon="10.6197666"><ele>871.0</ele><time>2026-05-03T12:45:43Z</time></trkpt><trkpt lat="43.9282298" lon="10.6196742"><ele>870.9999999999999</ele><time>2026-05-03T12:45:43.991Z</time></trkpt><trkpt lat="43.9282751" lon="10.6195768"><ele>871.0</ele><time>2026-05-03T12:45:44.992Z</time></trkpt><trkpt lat="43.9283135" lon="10.6194767"><ele>872.1999999999999</ele><time>2026-05-03T12:45:45.991Z</time></trkpt><trkpt lat="43.9283421" lon="10.6193638"><ele>873.3999999999999</ele><time>2026-05-03T12:45:46.982Z</time></trkpt><trkpt lat="43.9283725" lon="10.6192347"><ele>874.6</ele><time>2026-05-03T12:45:47.987Z</time></trkpt><trkpt lat="43.928406" lon="10.6191016"><ele>875.8</ele><time>2026-05-03T12:45:48.982Z</time></trkpt><trkpt lat="43.9284516" lon="10.6189652"><ele>877.0</ele><time>2026-05-03T12:45:49.975Z</time></trkpt><trkpt lat="43.9284987" lon="10.6188253"><ele>877.2</ele><time>2026-05-03T12:45:50.981Z</time></trkpt><trkpt lat="43.9285436" lon="10.6187024"><ele>877.4000000000001</ele><time>2026-05-03T12:45:51.985Z</time></trkpt><trkpt lat="43.9285907" lon="10.6185799"><ele>877.5999999999999</ele><time>2026-05-03T12:45:52.99Z</time></trkpt><trkpt lat="43.9286434" lon="10.6184666"><ele>877.8</ele><time>2026-05-03T12:45:53.973Z</time></trkpt><trkpt lat="43.9286824" lon="10.6183399"><ele>878.0</ele><time>2026-05-03T12:45:54.974Z</time></trkpt><trkpt lat="43.9287155" lon="10.6182136"><ele>878.2</ele><time>2026-05-03T12:45:55.975Z</time></trkpt><trkpt lat="43.9287165" lon="10.6180708"><ele>878.4</ele><time>2026-05-03T12:45:56.97Z</time></trkpt><trkpt lat="43.9287078" lon="10.6179282"><ele>878.6000000000001</ele><time>2026-05-03T12:45:57.967Z</time></trkpt><trkpt lat="43.9286968" lon="10.6177777"><ele>878.8000000000001</ele><time>2026-05-03T12:45:58.977Z</time></trkpt><trkpt lat="43.9286892" lon="10.6176343"><ele>879.0</ele><time>2026-05-03T12:45:59.974Z</time></trkpt><trkpt lat="43.9286602" lon="10.617497"><ele>879.0</ele><time>2026-05-03T12:46:00.97Z</time></trkpt><trkpt lat="43.9286463" lon="10.6173677"><ele>879.0000000000001</ele><time>2026-05-03T12:46:01.982Z</time></trkpt><trkpt lat="43.9286401" lon="10.6172335"><ele>879.0000000000001</ele><time>2026-05-03T12:46:02.975Z</time></trkpt><trkpt lat="43.9286333" lon="10.6170986"><ele>879.0</ele><time>2026-05-03T12:46:03.975Z</time></trkpt><trkpt lat="43.9286515" lon="10.6169678"><ele>879.0</ele><time>2026-05-03T12:46:04.972Z</time></trkpt><trkpt lat="43.9286973" lon="10.6168408"><ele>878.8000000000001</ele><time>2026-05-03T12:46:05.974Z</time></trkpt><trkpt lat="43.9287489" lon="10.6167192"><ele>878.6000000000001</ele><time>2026-05-03T12:46:06.973Z</time></trkpt><trkpt lat="43.9287901" lon="10.6165976"><ele>878.4</ele><time>2026-05-03T12:46:07.976Z</time></trkpt><trkpt lat="43.9288274" lon="10.616473"><ele>878.2</ele><time>2026-05-03T12:46:08.974Z</time></trkpt><trkpt lat="43.9288683" lon="10.6163535"><ele>878.0</ele><time>2026-05-03T12:46:09.968Z</time></trkpt><trkpt lat="43.9289092" lon="10.6162516"><ele>879.5000000000001</ele><time>2026-05-03T12:46:10.964Z</time></trkpt><trkpt lat="43.9289428" lon="10.6161377"><ele>881.0</ele><time>2026-05-03T12:46:11.967Z</time></trkpt><trkpt lat="43.9289827" lon="10.6160271"><ele>882.5</ele><time>2026-05-03T12:46:12.965Z</time></trkpt><trkpt lat="43.9290159" lon="10.6159074"><ele>884.0</ele><time>2026-05-03T12:46:13.983Z</time></trkpt><trkpt lat="43.929046" lon="10.6157884"><ele>885.5000000000001</ele><time>2026-05-03T12:46:14.966Z</time></trkpt><trkpt lat="43.9290731" lon="10.6156804"><ele>887.0</ele><time>2026-05-03T12:46:15.97Z</time></trkpt><trkpt lat="43.9291079" lon="10.6155929"><ele>886.9999999999999</ele><time>2026-05-03T12:46:16.97Z</time></trkpt><trkpt lat="43.9291505" lon="10.6154917"><ele>887.0</ele><time>2026-05-03T12:46:17.974Z</time></trkpt><trkpt lat="43.9291896" lon="10.615394"><ele>887.0</ele><time>2026-05-03T12:46:18.976Z</time></trkpt><trkpt lat="43.9292201" lon="10.6153066"><ele>887.0</ele><time>2026-05-03T12:46:19.975Z</time></trkpt><trkpt lat="43.9292482" lon="10.6152231"><ele>887.0</ele><time>2026-05-03T12:46:20.972Z</time></trkpt><trkpt lat="43.9292854" lon="10.6151476"><ele>886.9999999999999</ele><time>2026-05-03T12:46:21.983Z</time></trkpt><trkpt lat="43.9293341" lon="10.6150602"><ele>887.0</ele><time>2026-05-03T12:46:22.974Z</time></trkpt><trkpt lat="43.9293902" lon="10.6149654"><ele>888.0</ele><time>2026-05-03T12:46:23.979Z</time></trkpt><trkpt lat="43.9294561" lon="10.6148782"><ele>889.0</ele><time>2026-05-03T12:46:24.985Z</time></trkpt><trkpt lat="43.9295257" lon="10.6147904"><ele>890.0</ele><time>2026-05-03T12:46:25.983Z</time></trkpt><trkpt lat="43.929601" lon="10.6147032"><ele>891.0</ele><time>2026-05-03T12:46:26.983Z</time></trkpt><trkpt lat="43.9296712" lon="10.6146203"><ele>892.0</ele><time>2026-05-03T12:46:27.979Z</time></trkpt><trkpt lat="43.9297388" lon="10.6145335"><ele>892.4285714285714</ele><time>2026-05-03T12:46:28.974Z</time></trkpt><trkpt lat="43.9297793" lon="10.6144385"><ele>892.8571428571429</ele><time>2026-05-03T12:46:29.982Z</time></trkpt><trkpt lat="43.9297932" lon="10.6143229"><ele>893.2857142857142</ele><time>2026-05-03T12:46:30.978Z</time></trkpt><trkpt lat="43.9297882" lon="10.614217"><ele>893.7142857142858</ele><time>2026-05-03T12:46:31.971Z</time></trkpt><trkpt lat="43.929788" lon="10.6141278"><ele>894.1428571428572</ele><time>2026-05-03T12:46:32.978Z</time></trkpt><trkpt lat="43.9298028" lon="10.6140425"><ele>894.5714285714286</ele><time>2026-05-03T12:46:33.981Z</time></trkpt><trkpt lat="43.9298279" lon="10.6139498"><ele>895.0</ele><time>2026-05-03T12:46:34.978Z</time></trkpt><trkpt lat="43.929871" lon="10.6138693"><ele>894.9999999999999</ele><time>2026-05-03T12:46:35.991Z</time></trkpt><trkpt lat="43.9299269" lon="10.6138072"><ele>895.0</ele><time>2026-05-03T12:46:36.979Z</time></trkpt><trkpt lat="43.9299865" lon="10.6137425"><ele>895.0</ele><time>2026-05-03T12:46:37.99Z</time></trkpt><trkpt lat="43.930058" lon="10.6136826"><ele>895.0</ele><time>2026-05-03T12:46:38.988Z</time></trkpt><trkpt lat="43.9301358" lon="10.6136115"><ele>894.9999999999999</ele><time>2026-05-03T12:46:39.992Z</time></trkpt><trkpt lat="43.9302132" lon="10.6135396"><ele>895.0</ele><time>2026-05-03T12:46:40.987Z</time></trkpt><trkpt lat="43.9302899" lon="10.613468"><ele>895.4</ele><time>2026-05-03T12:46:41.985Z</time></trkpt><trkpt lat="43.9303609" lon="10.6133839"><ele>895.8</ele><time>2026-05-03T12:46:42.979Z</time></trkpt><trkpt lat="43.9304353" lon="10.6133068"><ele>896.2</ele><time>2026-05-03T12:46:43.99Z</time></trkpt><trkpt lat="43.9305136" lon="10.6132277"><ele>896.6</ele><time>2026-05-03T12:46:45.004Z</time></trkpt><trkpt lat="43.9306031" lon="10.6131461"><ele>897.0</ele><time>2026-05-03T12:46:45.989Z</time></trkpt><trkpt lat="43.9306895" lon="10.6130641"><ele>897.0</ele><time>2026-05-03T12:46:47.001Z</time></trkpt><trkpt lat="43.9307823" lon="10.6129789"><ele>897.0</ele><time>2026-05-03T12:46:47.992Z</time></trkpt><trkpt lat="43.930871" lon="10.6129131"><ele>897.0</ele><time>2026-05-03T12:46:48.982Z</time></trkpt><trkpt lat="43.9309595" lon="10.6128294"><ele>897.0</ele><time>2026-05-03T12:46:49.987Z</time></trkpt><trkpt lat="43.9310382" lon="10.6127385"><ele>897.0</ele><time>2026-05-03T12:46:50.984Z</time></trkpt><trkpt lat="43.9311186" lon="10.6126621"><ele>898.8</ele><time>2026-05-03T12:46:51.99Z</time></trkpt><trkpt lat="43.9311969" lon="10.6125783"><ele>900.6</ele><time>2026-05-03T12:46:53Z</time></trkpt><trkpt lat="43.9312713" lon="10.6124945"><ele>902.3999999999999</ele><time>2026-05-03T12:46:53.997Z</time></trkpt><trkpt lat="43.9313407" lon="10.6124152"><ele>904.1999999999999</ele><time>2026-05-03T12:46:54.996Z</time></trkpt><trkpt lat="43.9314168" lon="10.6123412"><ele>906.0</ele><time>2026-05-03T12:46:55.997Z</time></trkpt><trkpt lat="43.9314823" lon="10.6122528"><ele>906.0</ele><time>2026-05-03T12:46:56.99Z</time></trkpt><trkpt lat="43.9315365" lon="10.6121411"><ele>906.0</ele><time>2026-05-03T12:46:57.981Z</time></trkpt><trkpt lat="43.9315914" lon="10.6120267"><ele>906.0</ele><time>2026-05-03T12:46:58.991Z</time></trkpt><trkpt lat="43.9316303" lon="10.611915"><ele>906.0</ele><time>2026-05-03T12:46:59.984Z</time></trkpt><trkpt lat="43.9316666" lon="10.6118189"><ele>906.0</ele><time>2026-05-03T12:47:00.986Z</time></trkpt><trkpt lat="43.9317018" lon="10.6117269"><ele>906.0</ele><time>2026-05-03T12:47:01.981Z</time></trkpt><trkpt lat="43.9317628" lon="10.6115952"><ele>906.4</ele><time>2026-05-03T12:47:03.986Z</time></trkpt><trkpt lat="43.9318195" lon="10.6114691"><ele>906.8</ele><time>2026-05-03T12:47:05.975Z</time></trkpt><trkpt lat="43.9318799" lon="10.6113289"><ele>907.1999999999999</ele><time>2026-05-03T12:47:07.955Z</time></trkpt><trkpt lat="43.9319116" lon="10.6112297"><ele>907.5999999999999</ele><time>2026-05-03T12:47:08.955Z</time></trkpt><trkpt lat="43.9319594" lon="10.6111219"><ele>908.0</ele><time>2026-05-03T12:47:09.952Z</time></trkpt><trkpt lat="43.9320139" lon="10.610968"><ele>906.25</ele><time>2026-05-03T12:47:10.943Z</time></trkpt><trkpt lat="43.9320781" lon="10.610819"><ele>904.5</ele><time>2026-05-03T12:47:11.95Z</time></trkpt><trkpt lat="43.9321487" lon="10.6106827"><ele>902.75</ele><time>2026-05-03T12:47:12.946Z</time></trkpt><trkpt lat="43.9322188" lon="10.6105611"><ele>901.0</ele><time>2026-05-03T12:47:13.948Z</time></trkpt><trkpt lat="43.9322939" lon="10.6104672"><ele>901.0</ele><time>2026-05-03T12:47:14.947Z</time></trkpt><trkpt lat="43.9323577" lon="10.610367"><ele>900.9999999999999</ele><time>2026-05-03T12:47:15.968Z</time></trkpt><trkpt lat="43.9324239" lon="10.6102699"><ele>900.9999999999999</ele><time>2026-05-03T12:47:16.947Z</time></trkpt><trkpt lat="43.9325064" lon="10.610177"><ele>901.0</ele><time>2026-05-03T12:47:17.948Z</time></trkpt><trkpt lat="43.9325829" lon="10.6100757"><ele>901.0</ele><time>2026-05-03T12:47:18.946Z</time></trkpt><trkpt lat="43.9326545" lon="10.609989"><ele>899.9999999999999</ele><time>2026-05-03T12:47:19.945Z</time></trkpt><trkpt lat="43.9327222" lon="10.609918"><ele>899.0</ele><time>2026-05-03T12:47:20.946Z</time></trkpt><trkpt lat="43.9327804" lon="10.6098559"><ele>898.0</ele><time>2026-05-03T12:47:21.945Z</time></trkpt><trkpt lat="43.9328233" lon="10.609774"><ele>897.0</ele><time>2026-05-03T12:47:22.963Z</time></trkpt><trkpt lat="43.9328623" lon="10.6097035"><ele>895.9999999999999</ele><time>2026-05-03T12:47:23.956Z</time></trkpt><trkpt lat="43.9328948" lon="10.6096034"><ele>895.0</ele><time>2026-05-03T12:47:24.966Z</time></trkpt><trkpt lat="43.9329282" lon="10.609482"><ele>894.8</ele><time>2026-05-03T12:47:25.964Z</time></trkpt><trkpt lat="43.9329604" lon="10.6093619"><ele>894.6</ele><time>2026-05-03T12:47:26.971Z</time></trkpt><trkpt lat="43.9330026" lon="10.6092538"><ele>894.4000000000001</ele><time>2026-05-03T12:47:27.968Z</time></trkpt><trkpt lat="43.9330532" lon="10.6091316"><ele>894.2</ele><time>2026-05-03T12:47:28.974Z</time></trkpt><trkpt lat="43.933104" lon="10.609"><ele>894.0</ele><time>2026-05-03T12:47:29.973Z</time></trkpt><trkpt lat="43.933164" lon="10.608869"><ele>894.0</ele><time>2026-05-03T12:47:30.98Z</time></trkpt><trkpt lat="43.9332101" lon="10.6087291"><ele>894.0000000000001</ele><time>2026-05-03T12:47:31.984Z</time></trkpt><trkpt lat="43.933254" lon="10.6085868"><ele>894.0000000000001</ele><time>2026-05-03T12:47:32.985Z</time></trkpt><trkpt lat="43.9333038" lon="10.6084567"><ele>894.0</ele><time>2026-05-03T12:47:33.983Z</time></trkpt><trkpt lat="43.933348" lon="10.6083417"><ele>894.0</ele><time>2026-05-03T12:47:34.981Z</time></trkpt><trkpt lat="43.9334066" lon="10.6082239"><ele>893.1666666666666</ele><time>2026-05-03T12:47:35.978Z</time></trkpt><trkpt lat="43.9334396" lon="10.6081036"><ele>892.3333333333333</ele><time>2026-05-03T12:47:36.972Z</time></trkpt><trkpt lat="43.9334805" lon="10.6079863"><ele>891.5</ele><time>2026-05-03T12:47:37.98Z</time></trkpt><trkpt lat="43.9335226" lon="10.6078745"><ele>890.6666666666666</ele><time>2026-05-03T12:47:38.978Z</time></trkpt><trkpt lat="43.9335452" lon="10.6077645"><ele>889.8333333333333</ele><time>2026-05-03T12:47:39.975Z</time></trkpt><trkpt lat="43.9335727" lon="10.6076691"><ele>889.0</ele><time>2026-05-03T12:47:40.984Z</time></trkpt><trkpt lat="43.9336079" lon="10.6075707"><ele>888.4999999999999</ele><time>2026-05-03T12:47:41.982Z</time></trkpt><trkpt lat="43.9336493" lon="10.6074806"><ele>888.0</ele><time>2026-05-03T12:47:42.988Z</time></trkpt><trkpt lat="43.9336907" lon="10.607388"><ele>887.5</ele><time>2026-05-03T12:47:43.98Z</time></trkpt><trkpt lat="43.9337351" lon="10.6072963"><ele>887.0</ele><time>2026-05-03T12:47:44.975Z</time></trkpt><trkpt lat="43.9337751" lon="10.6072093"><ele>886.4999999999999</ele><time>2026-05-03T12:47:45.981Z</time></trkpt><trkpt lat="43.9338161" lon="10.6071177"><ele>886.0</ele><time>2026-05-03T12:47:46.989Z</time></trkpt><trkpt lat="43.9338638" lon="10.6069628"><ele>885.1999999999999</ele><time>2026-05-03T12:47:48.974Z</time></trkpt><trkpt lat="43.9339169" lon="10.6068461"><ele>884.3999999999999</ele><time>2026-05-03T12:47:50.973Z</time></trkpt><trkpt lat="43.9339647" lon="10.6067432"><ele>883.6</ele><time>2026-05-03T12:47:52.979Z</time></trkpt><trkpt lat="43.9340186" lon="10.6066221"><ele>882.8</ele><time>2026-05-03T12:47:54.978Z</time></trkpt><trkpt lat="43.9340846" lon="10.606498"><ele>882.0</ele><time>2026-05-03T12:47:56.979Z</time></trkpt><trkpt lat="43.9341443" lon="10.6063589"><ele>882.0</ele><time>2026-05-03T12:47:58.971Z</time></trkpt><trkpt lat="43.9342071" lon="10.6062294"><ele>882.0</ele><time>2026-05-03T12:48:00.979Z</time></trkpt><trkpt lat="43.9342441" lon="10.6061166"><ele>882.0</ele><time>2026-05-03T12:48:02.98Z</time></trkpt><trkpt lat="43.934305" lon="10.6059827"><ele>882.0</ele><time>2026-05-03T12:48:04.968Z</time></trkpt><trkpt lat="43.9343677" lon="10.6058721"><ele>882.0</ele><time>2026-05-03T12:48:06.965Z</time></trkpt><trkpt lat="43.9344317" lon="10.6057609"><ele>884.0</ele><time>2026-05-03T12:48:08.963Z</time></trkpt><trkpt lat="43.934488" lon="10.6056409"><ele>886.0</ele><time>2026-05-03T12:48:10.97Z</time></trkpt><trkpt lat="43.9345525" lon="10.605552"><ele>888.0</ele><time>2026-05-03T12:48:12.965Z</time></trkpt><trkpt lat="43.9346112" lon="10.6054504"><ele>890.0</ele><time>2026-05-03T12:48:14.958Z</time></trkpt><trkpt lat="43.9346595" lon="10.6053462"><ele>892.0</ele><time>2026-05-03T12:48:16.97Z</time></trkpt><trkpt lat="43.9347171" lon="10.6052267"><ele>892.0</ele><time>2026-05-03T12:48:18.966Z</time></trkpt><trkpt lat="43.9347462" lon="10.6050905"><ele>892.0</ele><time>2026-05-03T12:48:20.972Z</time></trkpt><trkpt lat="43.9347722" lon="10.6049481"><ele>892.0</ele><time>2026-05-03T12:48:22.974Z</time></trkpt><trkpt lat="43.9348138" lon="10.6047928"><ele>892.0</ele><time>2026-05-03T12:48:24.984Z</time></trkpt><trkpt lat="43.9348664" lon="10.6046391"><ele>891.9999999999999</ele><time>2026-05-03T12:48:26.985Z</time></trkpt><trkpt lat="43.9349311" lon="10.6045438"><ele>892.0</ele><time>2026-05-03T12:48:28.977Z</time></trkpt><trkpt lat="43.9349903" lon="10.6044362"><ele>892.0</ele><time>2026-05-03T12:48:30.981Z</time></trkpt><trkpt lat="43.9350281" lon="10.6043645"><ele>892.0</ele><time>2026-05-03T12:48:31.977Z</time></trkpt><trkpt lat="43.9350744" lon="10.6042911"><ele>891.9999999999999</ele><time>2026-05-03T12:48:32.98Z</time></trkpt><trkpt lat="43.9351121" lon="10.6041647"><ele>892.0</ele><time>2026-05-03T12:48:33.974Z</time></trkpt><trkpt lat="43.9351347" lon="10.6040057"><ele>892.6666666666666</ele><time>2026-05-03T12:48:34.975Z</time></trkpt><trkpt lat="43.9351435" lon="10.6038797"><ele>893.3333333333333</ele><time>2026-05-03T12:48:35.974Z</time></trkpt><trkpt lat="43.9351501" lon="10.6037726"><ele>894.0</ele><time>2026-05-03T12:48:36.972Z</time></trkpt><trkpt lat="43.9351684" lon="10.6036765"><ele>894.6666666666667</ele><time>2026-05-03T12:48:37.975Z</time></trkpt><trkpt lat="43.9351966" lon="10.6035909"><ele>895.3333333333334</ele><time>2026-05-03T12:48:38.971Z</time></trkpt><trkpt lat="43.9352456" lon="10.6035138"><ele>896.0</ele><time>2026-05-03T12:48:39.966Z</time></trkpt><trkpt lat="43.9353128" lon="10.6034293"><ele>894.1999999999999</ele><time>2026-05-03T12:48:40.969Z</time></trkpt><trkpt lat="43.9353881" lon="10.6033439"><ele>892.3999999999999</ele><time>2026-05-03T12:48:41.97Z</time></trkpt><trkpt lat="43.9354663" lon="10.603236"><ele>890.6</ele><time>2026-05-03T12:48:42.973Z</time></trkpt><trkpt lat="43.9355405" lon="10.6031247"><ele>888.8</ele><time>2026-05-03T12:48:43.968Z</time></trkpt><trkpt lat="43.9356086" lon="10.6030363"><ele>887.0</ele><time>2026-05-03T12:48:44.968Z</time></trkpt><trkpt lat="43.9356804" lon="10.6029472"><ele>887.0</ele><time>2026-05-03T12:48:45.971Z</time></trkpt><trkpt lat="43.9357492" lon="10.6028617"><ele>887.0</ele><time>2026-05-03T12:48:46.965Z</time></trkpt><trkpt lat="43.9358193" lon="10.6027681"><ele>887.0</ele><time>2026-05-03T12:48:47.967Z</time></trkpt><trkpt lat="43.9359177" lon="10.6026906"><ele>887.0</ele><time>2026-05-03T12:48:48.978Z</time></trkpt><trkpt lat="43.9360061" lon="10.6025984"><ele>887.0</ele><time>2026-05-03T12:48:49.959Z</time></trkpt><trkpt lat="43.9360886" lon="10.6025019"><ele>885.8</ele><time>2026-05-03T12:48:50.957Z</time></trkpt><trkpt lat="43.93616" lon="10.6024311"><ele>884.6</ele><time>2026-05-03T12:48:51.958Z</time></trkpt><trkpt lat="43.9362331" lon="10.6023634"><ele>883.3999999999999</ele><time>2026-05-03T12:48:52.957Z</time></trkpt><trkpt lat="43.9363121" lon="10.6023034"><ele>882.1999999999999</ele><time>2026-05-03T12:48:53.955Z</time></trkpt><trkpt lat="43.936405" lon="10.6022571"><ele>881.0</ele><time>2026-05-03T12:48:54.953Z</time></trkpt><trkpt lat="43.9364928" lon="10.6022241"><ele>881.0000000000001</ele><time>2026-05-03T12:48:55.956Z</time></trkpt><trkpt lat="43.9365607" lon="10.602164"><ele>881.0</ele><time>2026-05-03T12:48:56.954Z</time></trkpt><trkpt lat="43.9366089" lon="10.6020968"><ele>881.0</ele><time>2026-05-03T12:48:57.953Z</time></trkpt><trkpt lat="43.9366311" lon="10.6019964"><ele>881.0</ele><time>2026-05-03T12:48:58.948Z</time></trkpt><trkpt lat="43.9366482" lon="10.6018874"><ele>881.0000000000001</ele><time>2026-05-03T12:48:59.949Z</time></trkpt><trkpt lat="43.9366623" lon="10.6017764"><ele>881.0</ele><time>2026-05-03T12:49:00.953Z</time></trkpt><trkpt lat="43.9366814" lon="10.6016875"><ele>879.5000000000001</ele><time>2026-05-03T12:49:01.957Z</time></trkpt><trkpt lat="43.9367444" lon="10.6015297"><ele>878.0</ele><time>2026-05-03T12:49:03.945Z</time></trkpt><trkpt lat="43.936796" lon="10.6014685"><ele>876.5</ele><time>2026-05-03T12:49:04.952Z</time></trkpt><trkpt lat="43.9368356" lon="10.6013977"><ele>875.0</ele><time>2026-05-03T12:49:05.958Z</time></trkpt><trkpt lat="43.9369" lon="10.6013527"><ele>873.5000000000001</ele><time>2026-05-03T12:49:06.954Z</time></trkpt><trkpt lat="43.9369914" lon="10.6013419"><ele>872.0</ele><time>2026-05-03T12:49:07.955Z</time></trkpt><trkpt lat="43.9370976" lon="10.6013379"><ele>872.0</ele><time>2026-05-03T12:49:08.953Z</time></trkpt><trkpt lat="43.9372085" lon="10.6013357"><ele>872.0</ele><time>2026-05-03T12:49:09.953Z</time></trkpt><trkpt lat="43.9373156" lon="10.6013253"><ele>872.0</ele><time>2026-05-03T12:49:10.953Z</time></trkpt><trkpt lat="43.9374099" lon="10.601305"><ele>872.0</ele><time>2026-05-03T12:49:11.953Z</time></trkpt><trkpt lat="43.9375045" lon="10.6012958"><ele>872.0</ele><time>2026-05-03T12:49:12.95Z</time></trkpt><trkpt lat="43.9376069" lon="10.6012874"><ele>871.4000000000001</ele><time>2026-05-03T12:49:13.949Z</time></trkpt><trkpt lat="43.9377148" lon="10.6012674"><ele>870.8000000000001</ele><time>2026-05-03T12:49:14.945Z</time></trkpt><trkpt lat="43.9378163" lon="10.6012315"><ele>870.2</ele><time>2026-05-03T12:49:15.947Z</time></trkpt><trkpt lat="43.9379256" lon="10.6011909"><ele>869.6</ele><time>2026-05-03T12:49:16.946Z</time></trkpt><trkpt lat="43.9380325" lon="10.6011486"><ele>869.0</ele><time>2026-05-03T12:49:17.949Z</time></trkpt><trkpt lat="43.9381416" lon="10.6011306"><ele>867.2</ele><time>2026-05-03T12:49:18.947Z</time></trkpt><trkpt lat="43.9382548" lon="10.6011014"><ele>865.4000000000001</ele><time>2026-05-03T12:49:19.965Z</time></trkpt><trkpt lat="43.9383556" lon="10.601093"><ele>863.6</ele><time>2026-05-03T12:49:20.951Z</time></trkpt><trkpt lat="43.9384388" lon="10.6011023"><ele>861.8</ele><time>2026-05-03T12:49:21.95Z</time></trkpt><trkpt lat="43.9385217" lon="10.601112"><ele>860.0</ele><time>2026-05-03T12:49:22.954Z</time></trkpt><trkpt lat="43.9386072" lon="10.6010917"><ele>860.0</ele><time>2026-05-03T12:49:23.946Z</time></trkpt><trkpt lat="43.9387274" lon="10.6011017"><ele>860.0</ele><time>2026-05-03T12:49:25.962Z</time></trkpt><trkpt lat="43.9388103" lon="10.601103"><ele>860.0</ele><time>2026-05-03T12:49:27.954Z</time></trkpt><trkpt lat="43.9388128" lon="10.600999"><ele>860.0</ele><time>2026-05-03T12:49:31.958Z</time></trkpt><trkpt lat="43.9387834" lon="10.6008969"><ele>860.0</ele><time>2026-05-03T12:49:33.961Z</time></trkpt><trkpt lat="43.9387471" lon="10.6007233"><ele>860.0000000000001</ele><time>2026-05-03T12:49:35.957Z</time></trkpt><trkpt lat="43.9387404" lon="10.6006151"><ele>860.0</ele><time>2026-05-03T12:49:36.955Z</time></trkpt><trkpt lat="43.9387334" lon="10.6005054"><ele>860.0</ele><time>2026-05-03T12:49:37.947Z</time></trkpt><trkpt lat="43.9387177" lon="10.6003873"><ele>860.0</ele><time>2026-05-03T12:49:38.952Z</time></trkpt><trkpt lat="43.9387072" lon="10.6002714"><ele>860.0000000000001</ele><time>2026-05-03T12:49:39.949Z</time></trkpt><trkpt lat="43.9387026" lon="10.6001624"><ele>860.0</ele><time>2026-05-03T12:49:40.948Z</time></trkpt><trkpt lat="43.9386908" lon="10.6000741"><ele>860.8571428571428</ele><time>2026-05-03T12:49:41.948Z</time></trkpt><trkpt lat="43.9386796" lon="10.5999836"><ele>861.7142857142858</ele><time>2026-05-03T12:49:42.948Z</time></trkpt><trkpt lat="43.938668" lon="10.5998921"><ele>862.5714285714286</ele><time>2026-05-03T12:49:43.948Z</time></trkpt><trkpt lat="43.9386423" lon="10.599808"><ele>863.4285714285713</ele><time>2026-05-03T12:49:44.952Z</time></trkpt><trkpt lat="43.9386129" lon="10.5997206"><ele>864.2857142857142</ele><time>2026-05-03T12:49:45.948Z</time></trkpt><trkpt lat="43.938584" lon="10.5996251"><ele>865.1428571428571</ele><time>2026-05-03T12:49:46.943Z</time></trkpt><trkpt lat="43.9385597" lon="10.5995382"><ele>866.0</ele><time>2026-05-03T12:49:47.952Z</time></trkpt><trkpt lat="43.9385206" lon="10.5994321"><ele>864.5999999999999</ele><time>2026-05-03T12:49:48.945Z</time></trkpt><trkpt lat="43.9384776" lon="10.5993159"><ele>863.1999999999999</ele><time>2026-05-03T12:49:49.939Z</time></trkpt><trkpt lat="43.9384531" lon="10.5991918"><ele>861.8000000000001</ele><time>2026-05-03T12:49:50.969Z</time></trkpt><trkpt lat="43.9384229" lon="10.5990947"><ele>860.4000000000001</ele><time>2026-05-03T12:49:51.949Z</time></trkpt><trkpt lat="43.9383712" lon="10.5989731"><ele>859.0</ele><time>2026-05-03T12:49:52.949Z</time></trkpt><trkpt lat="43.9383021" lon="10.5988607"><ele>858.9999999999999</ele><time>2026-05-03T12:49:53.946Z</time></trkpt><trkpt lat="43.9382338" lon="10.5987702"><ele>859.0</ele><time>2026-05-03T12:49:54.936Z</time></trkpt><trkpt lat="43.9381692" lon="10.5986753"><ele>859.0</ele><time>2026-05-03T12:49:55.952Z</time></trkpt><trkpt lat="43.9381097" lon="10.5986145"><ele>859.0</ele><time>2026-05-03T12:49:56.95Z</time></trkpt><trkpt lat="43.9380611" lon="10.5985332"><ele>858.9999999999999</ele><time>2026-05-03T12:49:57.956Z</time></trkpt><trkpt lat="43.9380201" lon="10.5984239"><ele>859.0</ele><time>2026-05-03T12:49:58.957Z</time></trkpt><trkpt lat="43.9379996" lon="10.5983263"><ele>858.4285714285713</ele><time>2026-05-03T12:49:59.959Z</time></trkpt><trkpt lat="43.9379787" lon="10.5982129"><ele>857.8571428571429</ele><time>2026-05-03T12:50:00.959Z</time></trkpt><trkpt lat="43.9379706" lon="10.5981191"><ele>857.2857142857142</ele><time>2026-05-03T12:50:01.96Z</time></trkpt><trkpt lat="43.9379788" lon="10.598023"><ele>856.7142857142857</ele><time>2026-05-03T12:50:02.951Z</time></trkpt><trkpt lat="43.9379955" lon="10.5979224"><ele>856.1428571428571</ele><time>2026-05-03T12:50:03.961Z</time></trkpt><trkpt lat="43.938044" lon="10.5978578"><ele>855.5714285714286</ele><time>2026-05-03T12:50:04.958Z</time></trkpt><trkpt lat="43.9380997" lon="10.5977948"><ele>855.0</ele><time>2026-05-03T12:50:05.953Z</time></trkpt><trkpt lat="43.9381675" lon="10.5977259"><ele>854.8</ele><time>2026-05-03T12:50:06.959Z</time></trkpt><trkpt lat="43.9382471" lon="10.597659"><ele>854.6</ele><time>2026-05-03T12:50:07.954Z</time></trkpt><trkpt lat="43.9383221" lon="10.59761"><ele>854.4000000000001</ele><time>2026-05-03T12:50:08.96Z</time></trkpt><trkpt lat="43.938385" lon="10.597556"><ele>854.2</ele><time>2026-05-03T12:50:09.948Z</time></trkpt><trkpt lat="43.9384976" lon="10.5975284"><ele>854.0</ele><time>2026-05-03T12:50:11.952Z</time></trkpt><trkpt lat="43.9386223" lon="10.5975154"><ele>853.5000000000001</ele><time>2026-05-03T12:50:13.949Z</time></trkpt><trkpt lat="43.9386946" lon="10.5975383"><ele>853.0</ele><time>2026-05-03T12:50:14.947Z</time></trkpt><trkpt lat="43.9387644" lon="10.5975506"><ele>852.5</ele><time>2026-05-03T12:50:15.946Z</time></trkpt><trkpt lat="43.9388439" lon="10.5975898"><ele>852.0</ele><time>2026-05-03T12:50:16.947Z</time></trkpt><trkpt lat="43.9389181" lon="10.5976091"><ele>851.5000000000001</ele><time>2026-05-03T12:50:17.938Z</time></trkpt><trkpt lat="43.9389886" lon="10.5976301"><ele>851.0</ele><time>2026-05-03T12:50:18.934Z</time></trkpt><trkpt lat="43.9390761" lon="10.5976419"><ele>851.0000000000001</ele><time>2026-05-03T12:50:19.93Z</time></trkpt><trkpt lat="43.9391638" lon="10.5976497"><ele>851.0</ele><time>2026-05-03T12:50:20.929Z</time></trkpt><trkpt lat="43.9392467" lon="10.5976689"><ele>851.0</ele><time>2026-05-03T12:50:21.942Z</time></trkpt><trkpt lat="43.9393393" lon="10.5977298"><ele>851.0</ele><time>2026-05-03T12:50:22.935Z</time></trkpt><trkpt lat="43.9394276" lon="10.5977732"><ele>851.0000000000001</ele><time>2026-05-03T12:50:23.936Z</time></trkpt><trkpt lat="43.9395007" lon="10.5978145"><ele>851.0</ele><time>2026-05-03T12:50:24.935Z</time></trkpt><trkpt lat="43.9395688" lon="10.5978547"><ele>849.1999999999999</ele><time>2026-05-03T12:50:25.935Z</time></trkpt><trkpt lat="43.9396467" lon="10.5978886"><ele>847.4</ele><time>2026-05-03T12:50:26.94Z</time></trkpt><trkpt lat="43.9397294" lon="10.597884"><ele>845.6</ele><time>2026-05-03T12:50:27.935Z</time></trkpt><trkpt lat="43.9398267" lon="10.5978895"><ele>843.8</ele><time>2026-05-03T12:50:28.938Z</time></trkpt><trkpt lat="43.9399201" lon="10.5978497"><ele>842.0</ele><time>2026-05-03T12:50:29.938Z</time></trkpt><trkpt lat="43.940018" lon="10.5977922"><ele>843.2</ele><time>2026-05-03T12:50:30.935Z</time></trkpt><trkpt lat="43.9401135" lon="10.5977212"><ele>844.4000000000001</ele><time>2026-05-03T12:50:31.941Z</time></trkpt><trkpt lat="43.9401636" lon="10.5975988"><ele>845.5999999999999</ele><time>2026-05-03T12:50:32.936Z</time></trkpt><trkpt lat="43.9402471" lon="10.5975304"><ele>846.8</ele><time>2026-05-03T12:50:33.928Z</time></trkpt><trkpt lat="43.940283" lon="10.5974193"><ele>848.0</ele><time>2026-05-03T12:50:34.929Z</time></trkpt><trkpt lat="43.9403326" lon="10.5973483"><ele>848.0000000000001</ele><time>2026-05-03T12:50:35.942Z</time></trkpt><trkpt lat="43.9404051" lon="10.5973481"><ele>848.0</ele><time>2026-05-03T12:50:36.937Z</time></trkpt><trkpt lat="43.9404878" lon="10.597347"><ele>848.0</ele><time>2026-05-03T12:50:37.935Z</time></trkpt><trkpt lat="43.9405549" lon="10.5973108"><ele>848.0</ele><time>2026-05-03T12:50:38.951Z</time></trkpt><trkpt lat="43.9406336" lon="10.597251"><ele>848.0000000000001</ele><time>2026-05-03T12:50:40.956Z</time></trkpt><trkpt lat="43.9407332" lon="10.5971686"><ele>848.0</ele><time>2026-05-03T12:50:42.959Z</time></trkpt><trkpt lat="43.9407991" lon="10.5971019"><ele>846.4</ele><time>2026-05-03T12:50:43.962Z</time></trkpt><trkpt lat="43.9408831" lon="10.5970478"><ele>844.8</ele><time>2026-05-03T12:50:44.957Z</time></trkpt><trkpt lat="43.9409629" lon="10.5969778"><ele>843.2</ele><time>2026-05-03T12:50:45.955Z</time></trkpt><trkpt lat="43.9410552" lon="10.5969222"><ele>841.6</ele><time>2026-05-03T12:50:46.951Z</time></trkpt><trkpt lat="43.9411466" lon="10.5968401"><ele>840.0</ele><time>2026-05-03T12:50:47.96Z</time></trkpt><trkpt lat="43.9412149" lon="10.5967083"><ele>840.0</ele><time>2026-05-03T12:50:48.953Z</time></trkpt><trkpt lat="43.9412779" lon="10.5965641"><ele>840.0</ele><time>2026-05-03T12:50:49.964Z</time></trkpt><trkpt lat="43.9413577" lon="10.596489"><ele>840.0</ele><time>2026-05-03T12:50:50.963Z</time></trkpt><trkpt lat="43.9414273" lon="10.596427"><ele>840.0</ele><time>2026-05-03T12:50:51.963Z</time></trkpt><trkpt lat="43.9415019" lon="10.5963722"><ele>840.0</ele><time>2026-05-03T12:50:52.982Z</time></trkpt><trkpt lat="43.9415866" lon="10.5963186"><ele>840.0</ele><time>2026-05-03T12:50:53.954Z</time></trkpt><trkpt lat="43.9416812" lon="10.5962934"><ele>840.0</ele><time>2026-05-03T12:50:54.956Z</time></trkpt><trkpt lat="43.9417749" lon="10.5962675"><ele>840.0</ele><time>2026-05-03T12:50:55.961Z</time></trkpt><trkpt lat="43.941844" lon="10.5962353"><ele>840.0</ele><time>2026-05-03T12:50:56.966Z</time></trkpt><trkpt lat="43.9419438" lon="10.5961467"><ele>840.0</ele><time>2026-05-03T12:50:58.959Z</time></trkpt><trkpt lat="43.9420424" lon="10.5960936"><ele>836.6</ele><time>2026-05-03T12:51:00.964Z</time></trkpt><trkpt lat="43.942111" lon="10.5961016"><ele>833.2</ele><time>2026-05-03T12:51:01.965Z</time></trkpt><trkpt lat="43.9422334" lon="10.5961394"><ele>829.8</ele><time>2026-05-03T12:51:03.958Z</time></trkpt><trkpt lat="43.9423025" lon="10.5961555"><ele>826.4</ele><time>2026-05-03T12:51:04.963Z</time></trkpt><trkpt lat="43.9424246" lon="10.596152"><ele>823.0</ele><time>2026-05-03T12:51:06.963Z</time></trkpt><trkpt lat="43.9425055" lon="10.5961063"><ele>826.9999999999999</ele><time>2026-05-03T12:51:07.96Z</time></trkpt><trkpt lat="43.9425842" lon="10.5960565"><ele>831.0</ele><time>2026-05-03T12:51:08.957Z</time></trkpt><trkpt lat="43.9426515" lon="10.5960179"><ele>835.0</ele><time>2026-05-03T12:51:09.959Z</time></trkpt><trkpt lat="43.9427164" lon="10.5959859"><ele>839.0</ele><time>2026-05-03T12:51:10.955Z</time></trkpt><trkpt lat="43.942759" lon="10.5959143"><ele>842.9999999999999</ele><time>2026-05-03T12:51:11.957Z</time></trkpt><trkpt lat="43.942795" lon="10.5957861"><ele>847.0</ele><time>2026-05-03T12:51:13.948Z</time></trkpt><trkpt lat="43.9428018" lon="10.5956975"><ele>847.0</ele><time>2026-05-03T12:51:14.954Z</time></trkpt><trkpt lat="43.9428102" lon="10.5955894"><ele>847.0</ele><time>2026-05-03T12:51:15.95Z</time></trkpt><trkpt lat="43.9428182" lon="10.595456"><ele>847.0</ele><time>2026-05-03T12:51:16.947Z</time></trkpt><trkpt lat="43.9428117" lon="10.5953235"><ele>847.0</ele><time>2026-05-03T12:51:17.952Z</time></trkpt><trkpt lat="43.9427838" lon="10.595176"><ele>847.0</ele><time>2026-05-03T12:51:18.955Z</time></trkpt><trkpt lat="43.9427915" lon="10.5950643"><ele>846.6666666666666</ele><time>2026-05-03T12:51:19.954Z</time></trkpt><trkpt lat="43.942798" lon="10.594961"><ele>846.3333333333333</ele><time>2026-05-03T12:51:20.957Z</time></trkpt><trkpt lat="43.9428025" lon="10.5948266"><ele>846.0</ele><time>2026-05-03T12:51:21.953Z</time></trkpt><trkpt lat="43.9428081" lon="10.5947159"><ele>845.6666666666667</ele><time>2026-05-03T12:51:22.952Z</time></trkpt><trkpt lat="43.9428014" lon="10.5946156"><ele>845.3333333333334</ele><time>2026-05-03T12:51:23.965Z</time></trkpt><trkpt lat="43.9427843" lon="10.5945231"><ele>845.0</ele><time>2026-05-03T12:51:24.954Z</time></trkpt><trkpt lat="43.9427539" lon="10.5944255"><ele>844.6</ele><time>2026-05-03T12:51:25.947Z</time></trkpt><trkpt lat="43.9426756" lon="10.594301"><ele>844.2</ele><time>2026-05-03T12:51:27.945Z</time></trkpt><trkpt lat="43.9426078" lon="10.5942446"><ele>843.8</ele><time>2026-05-03T12:51:28.95Z</time></trkpt><trkpt lat="43.9425255" lon="10.5941562"><ele>843.4</ele><time>2026-05-03T12:51:30.946Z</time></trkpt><trkpt lat="43.9425151" lon="10.5940391"><ele>843.0</ele><time>2026-05-03T12:51:32.941Z</time></trkpt><trkpt lat="43.9425284" lon="10.5939251"><ele>843.0</ele><time>2026-05-03T12:51:33.951Z</time></trkpt><trkpt lat="43.9425582" lon="10.5938042"><ele>843.0</ele><time>2026-05-03T12:51:34.951Z</time></trkpt><trkpt lat="43.9426011" lon="10.5936612"><ele>843.0</ele><time>2026-05-03T12:51:35.954Z</time></trkpt><trkpt lat="43.9426079" lon="10.5935363"><ele>843.0</ele><time>2026-05-03T12:51:36.952Z</time></trkpt><trkpt lat="43.9426451" lon="10.5934004"><ele>843.0</ele><time>2026-05-03T12:51:37.95Z</time></trkpt><trkpt lat="43.9426577" lon="10.5932502"><ele>842.3333333333334</ele><time>2026-05-03T12:51:38.954Z</time></trkpt><trkpt lat="43.942659" lon="10.593111"><ele>841.6666666666667</ele><time>2026-05-03T12:51:39.954Z</time></trkpt><trkpt lat="43.942657" lon="10.592988"><ele>841.0</ele><time>2026-05-03T12:51:40.959Z</time></trkpt><trkpt lat="43.9426257" lon="10.5929102"><ele>840.3333333333334</ele><time>2026-05-03T12:51:41.954Z</time></trkpt><trkpt lat="43.9426075" lon="10.5928093"><ele>839.6666666666667</ele><time>2026-05-03T12:51:42.96Z</time></trkpt><trkpt lat="43.9425967" lon="10.592712"><ele>839.0</ele><time>2026-05-03T12:51:43.96Z</time></trkpt><trkpt lat="43.9426159" lon="10.592572"><ele>837.6</ele><time>2026-05-03T12:51:45.967Z</time></trkpt><trkpt lat="43.9426876" lon="10.5924505"><ele>836.2</ele><time>2026-05-03T12:51:47.964Z</time></trkpt><trkpt lat="43.9427504" lon="10.5923932"><ele>834.8000000000001</ele><time>2026-05-03T12:51:48.962Z</time></trkpt><trkpt lat="43.9428358" lon="10.5923146"><ele>833.4000000000001</ele><time>2026-05-03T12:51:49.958Z</time></trkpt><trkpt lat="43.9428934" lon="10.5922112"><ele>832.0</ele><time>2026-05-03T12:51:50.959Z</time></trkpt><trkpt lat="43.9429349" lon="10.5920961"><ele>828.4999999999999</ele><time>2026-05-03T12:51:51.96Z</time></trkpt><trkpt lat="43.9429544" lon="10.5919733"><ele>825.0</ele><time>2026-05-03T12:51:52.957Z</time></trkpt><trkpt lat="43.9429616" lon="10.5918736"><ele>821.5</ele><time>2026-05-03T12:51:53.961Z</time></trkpt><trkpt lat="43.942998" lon="10.5917784"><ele>818.0</ele><time>2026-05-03T12:51:54.978Z</time></trkpt><trkpt lat="43.9430363" lon="10.591691"><ele>814.4999999999999</ele><time>2026-05-03T12:51:55.956Z</time></trkpt><trkpt lat="43.9430677" lon="10.5916111"><ele>811.0</ele><time>2026-05-03T12:51:56.961Z</time></trkpt><trkpt lat="43.9431065" lon="10.5915263"><ele>811.0</ele><time>2026-05-03T12:51:57.949Z</time></trkpt><trkpt lat="43.9431584" lon="10.5914239"><ele>811.0</ele><time>2026-05-03T12:51:58.953Z</time></trkpt><trkpt lat="43.9432238" lon="10.5913252"><ele>811.0</ele><time>2026-05-03T12:51:59.955Z</time></trkpt><trkpt lat="43.9432941" lon="10.5912377"><ele>811.0</ele><time>2026-05-03T12:52:00.952Z</time></trkpt><trkpt lat="43.9433612" lon="10.591144"><ele>811.0</ele><time>2026-05-03T12:52:01.955Z</time></trkpt><trkpt lat="43.9434258" lon="10.5910426"><ele>809.1666666666666</ele><time>2026-05-03T12:52:02.954Z</time></trkpt><trkpt lat="43.9434889" lon="10.5909369"><ele>807.3333333333333</ele><time>2026-05-03T12:52:03.951Z</time></trkpt><trkpt lat="43.9435478" lon="10.5908339"><ele>805.5</ele><time>2026-05-03T12:52:04.956Z</time></trkpt><trkpt lat="43.9436088" lon="10.5907611"><ele>803.6666666666667</ele><time>2026-05-03T12:52:05.956Z</time></trkpt><trkpt lat="43.9436673" lon="10.5906816"><ele>801.8333333333334</ele><time>2026-05-03T12:52:06.949Z</time></trkpt><trkpt lat="43.9437327" lon="10.5906247"><ele>800.0</ele><time>2026-05-03T12:52:07.945Z</time></trkpt><trkpt lat="43.9437976" lon="10.59055"><ele>800.0</ele><time>2026-05-03T12:52:08.947Z</time></trkpt><trkpt lat="43.9438979" lon="10.5905055"><ele>800.0</ele><time>2026-05-03T12:52:09.946Z</time></trkpt><trkpt lat="43.9439938" lon="10.5904537"><ele>800.0</ele><time>2026-05-03T12:52:10.946Z</time></trkpt><trkpt lat="43.9440771" lon="10.5903918"><ele>800.0</ele><time>2026-05-03T12:52:11.941Z</time></trkpt><trkpt lat="43.9441655" lon="10.5903337"><ele>800.0</ele><time>2026-05-03T12:52:12.942Z</time></trkpt><trkpt lat="43.9442398" lon="10.5902679"><ele>799.3333333333334</ele><time>2026-05-03T12:52:13.946Z</time></trkpt><trkpt lat="43.9443065" lon="10.5901945"><ele>798.6666666666667</ele><time>2026-05-03T12:52:14.949Z</time></trkpt><trkpt lat="43.9443651" lon="10.5901146"><ele>798.0</ele><time>2026-05-03T12:52:15.95Z</time></trkpt><trkpt lat="43.9444221" lon="10.5900258"><ele>797.3333333333333</ele><time>2026-05-03T12:52:16.94Z</time></trkpt><trkpt lat="43.9444796" lon="10.5899307"><ele>796.6666666666666</ele><time>2026-05-03T12:52:17.947Z</time></trkpt><trkpt lat="43.9445142" lon="10.5898169"><ele>796.0</ele><time>2026-05-03T12:52:18.949Z</time></trkpt><trkpt lat="43.9445522" lon="10.5897068"><ele>795.9999999999999</ele><time>2026-05-03T12:52:19.948Z</time></trkpt><trkpt lat="43.9446036" lon="10.5896064"><ele>796.0</ele><time>2026-05-03T12:52:20.952Z</time></trkpt><trkpt lat="43.944665" lon="10.5895315"><ele>796.0</ele><time>2026-05-03T12:52:21.948Z</time></trkpt><trkpt lat="43.9447231" lon="10.5894564"><ele>796.0</ele><time>2026-05-03T12:52:22.957Z</time></trkpt><trkpt lat="43.9447796" lon="10.5893829"><ele>795.9999999999999</ele><time>2026-05-03T12:52:23.96Z</time></trkpt><trkpt lat="43.9448438" lon="10.5893147"><ele>796.0</ele><time>2026-05-03T12:52:24.95Z</time></trkpt><trkpt lat="43.9449221" lon="10.5892342"><ele>793.4</ele><time>2026-05-03T12:52:25.965Z</time></trkpt><trkpt lat="43.9449852" lon="10.5891193"><ele>790.8</ele><time>2026-05-03T12:52:26.945Z</time></trkpt><trkpt lat="43.9450705" lon="10.5890467"><ele>788.1999999999999</ele><time>2026-05-03T12:52:27.943Z</time></trkpt><trkpt lat="43.9451447" lon="10.5889746"><ele>785.5999999999999</ele><time>2026-05-03T12:52:28.943Z</time></trkpt><trkpt lat="43.9452179" lon="10.5889207"><ele>783.0</ele><time>2026-05-03T12:52:29.944Z</time></trkpt><trkpt lat="43.9452928" lon="10.5888763"><ele>783.0</ele><time>2026-05-03T12:52:30.943Z</time></trkpt><trkpt lat="43.9453717" lon="10.5888351"><ele>783.0</ele><time>2026-05-03T12:52:31.945Z</time></trkpt><trkpt lat="43.9454337" lon="10.5887824"><ele>783.0</ele><time>2026-05-03T12:52:32.939Z</time></trkpt><trkpt lat="43.945485" lon="10.588709"><ele>783.0</ele><time>2026-05-03T12:52:33.944Z</time></trkpt><trkpt lat="43.9455445" lon="10.588638"><ele>783.0</ele><time>2026-05-03T12:52:34.942Z</time></trkpt><trkpt lat="43.9456135" lon="10.5885567"><ele>783.0</ele><time>2026-05-03T12:52:35.945Z</time></trkpt><trkpt lat="43.9456795" lon="10.5884741"><ele>784.1666666666666</ele><time>2026-05-03T12:52:36.945Z</time></trkpt><trkpt lat="43.9457281" lon="10.5884006"><ele>785.3333333333333</ele><time>2026-05-03T12:52:37.955Z</time></trkpt><trkpt lat="43.9457989" lon="10.5883507"><ele>786.5</ele><time>2026-05-03T12:52:38.956Z</time></trkpt><trkpt lat="43.9458736" lon="10.5883213"><ele>787.6666666666666</ele><time>2026-05-03T12:52:39.96Z</time></trkpt><trkpt lat="43.9459579" lon="10.5882817"><ele>788.8333333333333</ele><time>2026-05-03T12:52:40.959Z</time></trkpt><trkpt lat="43.9460338" lon="10.5882358"><ele>790.0</ele><time>2026-05-03T12:52:41.956Z</time></trkpt><trkpt lat="43.9460958" lon="10.5881762"><ele>789.9999999999999</ele><time>2026-05-03T12:52:42.959Z</time></trkpt><trkpt lat="43.9461454" lon="10.5880849"><ele>790.0</ele><time>2026-05-03T12:52:43.962Z</time></trkpt><trkpt lat="43.9461964" lon="10.5879967"><ele>790.0</ele><time>2026-05-03T12:52:44.966Z</time></trkpt><trkpt lat="43.9462438" lon="10.587905"><ele>790.0</ele><time>2026-05-03T12:52:45.963Z</time></trkpt><trkpt lat="43.9462868" lon="10.5878294"><ele>789.9999999999999</ele><time>2026-05-03T12:52:46.965Z</time></trkpt><trkpt lat="43.9463249" lon="10.5877375"><ele>790.0</ele><time>2026-05-03T12:52:47.966Z</time></trkpt><trkpt lat="43.9463744" lon="10.5876503"><ele>788.8333333333333</ele><time>2026-05-03T12:52:48.962Z</time></trkpt><trkpt lat="43.94642" lon="10.5875651"><ele>787.6666666666666</ele><time>2026-05-03T12:52:49.965Z</time></trkpt><trkpt lat="43.9464569" lon="10.5874869"><ele>786.5</ele><time>2026-05-03T12:52:50.962Z</time></trkpt><trkpt lat="43.9464941" lon="10.5874064"><ele>785.3333333333333</ele><time>2026-05-03T12:52:51.969Z</time></trkpt><trkpt lat="43.9465429" lon="10.5873404"><ele>784.1666666666666</ele><time>2026-05-03T12:52:57.947Z</time></trkpt><trkpt lat="43.9466042" lon="10.5873167"><ele>783.0</ele><time>2026-05-03T12:53:05.958Z</time></trkpt><trkpt lat="43.9467131" lon="10.5873434"><ele>783.0</ele><time>2026-05-03T12:53:07.946Z</time></trkpt><trkpt lat="43.9467842" lon="10.5873204"><ele>783.0</ele><time>2026-05-03T12:53:08.949Z</time></trkpt><trkpt lat="43.9468587" lon="10.5872546"><ele>783.0</ele><time>2026-05-03T12:53:09.949Z</time></trkpt><trkpt lat="43.9469294" lon="10.5871774"><ele>783.0</ele><time>2026-05-03T12:53:10.946Z</time></trkpt><trkpt lat="43.9469884" lon="10.5870949"><ele>783.0</ele><time>2026-05-03T12:53:11.951Z</time></trkpt><trkpt lat="43.94704" lon="10.5870197"><ele>783.0</ele><time>2026-05-03T12:53:12.953Z</time></trkpt><trkpt lat="43.9470806" lon="10.586912"><ele>779.0</ele><time>2026-05-03T12:53:13.955Z</time></trkpt><trkpt lat="43.9471501" lon="10.5868301"><ele>775.0</ele><time>2026-05-03T12:53:14.952Z</time></trkpt><trkpt lat="43.9472182" lon="10.5867559"><ele>771.0</ele><time>2026-05-03T12:53:15.949Z</time></trkpt><trkpt lat="43.9473025" lon="10.5866993"><ele>767.0</ele><time>2026-05-03T12:53:16.952Z</time></trkpt><trkpt lat="43.9473826" lon="10.5866411"><ele>763.0</ele><time>2026-05-03T12:53:17.947Z</time></trkpt><trkpt lat="43.947463" lon="10.5866375"><ele>759.0</ele><time>2026-05-03T12:53:18.947Z</time></trkpt><trkpt lat="43.947541" lon="10.586604"><ele>758.5</ele><time>2026-05-03T12:53:19.941Z</time></trkpt><trkpt lat="43.9476393" lon="10.586592"><ele>758.0</ele><time>2026-05-03T12:53:20.945Z</time></trkpt><trkpt lat="43.9477278" lon="10.5865909"><ele>757.5</ele><time>2026-05-03T12:53:21.944Z</time></trkpt><trkpt lat="43.9478121" lon="10.5865788"><ele>757.0</ele><time>2026-05-03T12:53:22.945Z</time></trkpt><trkpt lat="43.9478814" lon="10.5865828"><ele>756.5</ele><time>2026-05-03T12:53:23.942Z</time></trkpt><trkpt lat="43.947947" lon="10.5865769"><ele>756.0</ele><time>2026-05-03T12:53:24.94Z</time></trkpt><trkpt lat="43.9480301" lon="10.586577"><ele>756.0</ele><time>2026-05-03T12:53:25.945Z</time></trkpt><trkpt lat="43.9481017" lon="10.5865236"><ele>756.0</ele><time>2026-05-03T12:53:26.946Z</time></trkpt><trkpt lat="43.9481535" lon="10.5864505"><ele>756.0</ele><time>2026-05-03T12:53:27.974Z</time></trkpt><trkpt lat="43.9482067" lon="10.5863983"><ele>756.0</ele><time>2026-05-03T12:53:28.947Z</time></trkpt><trkpt lat="43.9482618" lon="10.5863326"><ele>756.0</ele><time>2026-05-03T12:53:29.945Z</time></trkpt><trkpt lat="43.9483153" lon="10.5862116"><ele>756.0</ele><time>2026-05-03T12:53:30.942Z</time></trkpt><trkpt lat="43.9483702" lon="10.586066"><ele>754.4</ele><time>2026-05-03T12:53:31.946Z</time></trkpt><trkpt lat="43.9484227" lon="10.5859284"><ele>752.8</ele><time>2026-05-03T12:53:32.948Z</time></trkpt><trkpt lat="43.9484647" lon="10.5857967"><ele>751.1999999999999</ele><time>2026-05-03T12:53:33.95Z</time></trkpt><trkpt lat="43.9485202" lon="10.5857222"><ele>749.5999999999999</ele><time>2026-05-03T12:53:34.945Z</time></trkpt><trkpt lat="43.9485908" lon="10.585677"><ele>748.0</ele><time>2026-05-03T12:53:35.949Z</time></trkpt><trkpt lat="43.9486702" lon="10.5856461"><ele>748.0</ele><time>2026-05-03T12:53:36.945Z</time></trkpt><trkpt lat="43.9487705" lon="10.5856491"><ele>748.0</ele><time>2026-05-03T12:53:37.947Z</time></trkpt><trkpt lat="43.9488747" lon="10.5856324"><ele>748.0</ele><time>2026-05-03T12:53:38.949Z</time></trkpt><trkpt lat="43.9489784" lon="10.5855891"><ele>748.0</ele><time>2026-05-03T12:53:39.946Z</time></trkpt><trkpt lat="43.949074" lon="10.5855472"><ele>748.0</ele><time>2026-05-03T12:53:40.948Z</time></trkpt><trkpt lat="43.949156" lon="10.5855344"><ele>749.6666666666667</ele><time>2026-05-03T12:53:41.948Z</time></trkpt><trkpt lat="43.9492299" lon="10.5855426"><ele>751.3333333333334</ele><time>2026-05-03T12:53:42.951Z</time></trkpt><trkpt lat="43.9492941" lon="10.5855723"><ele>753.0</ele><time>2026-05-03T12:53:43.947Z</time></trkpt><trkpt lat="43.9493682" lon="10.5855972"><ele>754.6666666666666</ele><time>2026-05-03T12:53:44.947Z</time></trkpt><trkpt lat="43.9494387" lon="10.5855995"><ele>756.3333333333333</ele><time>2026-05-03T12:53:45.947Z</time></trkpt><trkpt lat="43.9495049" lon="10.5855771"><ele>758.0</ele><time>2026-05-03T12:53:46.944Z</time></trkpt><trkpt lat="43.9496179" lon="10.5855497"><ele>758.0</ele><time>2026-05-03T12:53:48.944Z</time></trkpt><trkpt lat="43.9496769" lon="10.5855013"><ele>758.0</ele><time>2026-05-03T12:53:49.949Z</time></trkpt><trkpt lat="43.9497332" lon="10.5854396"><ele>758.0</ele><time>2026-05-03T12:53:50.942Z</time></trkpt><trkpt lat="43.9497814" lon="10.5853628"><ele>758.0</ele><time>2026-05-03T12:53:51.95Z</time></trkpt><trkpt lat="43.9498188" lon="10.58527"><ele>758.0</ele><time>2026-05-03T12:53:52.953Z</time></trkpt><trkpt lat="43.9498398" lon="10.5851338"><ele>758.0</ele><time>2026-05-03T12:53:53.952Z</time></trkpt><trkpt lat="43.9498481" lon="10.5849719"><ele>754.0</ele><time>2026-05-03T12:53:54.953Z</time></trkpt><trkpt lat="43.9498664" lon="10.5848182"><ele>750.0</ele><time>2026-05-03T12:53:55.953Z</time></trkpt><trkpt lat="43.9498811" lon="10.5846701"><ele>746.0</ele><time>2026-05-03T12:53:56.958Z</time></trkpt><trkpt lat="43.9499064" lon="10.5845288"><ele>742.0</ele><time>2026-05-03T12:53:57.968Z</time></trkpt><trkpt lat="43.9499392" lon="10.584427"><ele>738.0</ele><time>2026-05-03T12:53:58.951Z</time></trkpt><trkpt lat="43.9499878" lon="10.5843119"><ele>737.4</ele><time>2026-05-03T12:53:59.957Z</time></trkpt><trkpt lat="43.9500506" lon="10.5842259"><ele>736.8</ele><time>2026-05-03T12:54:00.961Z</time></trkpt><trkpt lat="43.9501217" lon="10.5841492"><ele>736.2</ele><time>2026-05-03T12:54:01.96Z</time></trkpt><trkpt lat="43.9502151" lon="10.584091"><ele>735.6</ele><time>2026-05-03T12:54:02.961Z</time></trkpt><trkpt lat="43.950307" lon="10.5840311"><ele>735.0</ele><time>2026-05-03T12:54:03.953Z</time></trkpt><trkpt lat="43.9503783" lon="10.5839668"><ele>735.0</ele><time>2026-05-03T12:54:04.953Z</time></trkpt><trkpt lat="43.9504582" lon="10.5839236"><ele>735.0</ele><time>2026-05-03T12:54:05.946Z</time></trkpt><trkpt lat="43.9505424" lon="10.5838976"><ele>735.0</ele><time>2026-05-03T12:54:06.944Z</time></trkpt><trkpt lat="43.9506314" lon="10.5838979"><ele>735.0</ele><time>2026-05-03T12:54:07.94Z</time></trkpt><trkpt lat="43.9507095" lon="10.5838872"><ele>735.0</ele><time>2026-05-03T12:54:08.942Z</time></trkpt><trkpt lat="43.950781" lon="10.583852"><ele>735.0</ele><time>2026-05-03T12:54:09.945Z</time></trkpt><trkpt lat="43.9508474" lon="10.5837814"><ele>735.1666666666666</ele><time>2026-05-03T12:54:10.946Z</time></trkpt><trkpt lat="43.9509116" lon="10.5837143"><ele>735.3333333333334</ele><time>2026-05-03T12:54:11.944Z</time></trkpt><trkpt lat="43.9509799" lon="10.5836428"><ele>735.5</ele><time>2026-05-03T12:54:12.944Z</time></trkpt><trkpt lat="43.9510506" lon="10.5836014"><ele>735.6666666666667</ele><time>2026-05-03T12:54:13.946Z</time></trkpt><trkpt lat="43.951122" lon="10.5835571"><ele>735.8333333333334</ele><time>2026-05-03T12:54:14.939Z</time></trkpt><trkpt lat="43.9511754" lon="10.5834886"><ele>736.0</ele><time>2026-05-03T12:54:15.943Z</time></trkpt><trkpt lat="43.9512167" lon="10.583393"><ele>736.0</ele><time>2026-05-03T12:54:16.947Z</time></trkpt><trkpt lat="43.9512611" lon="10.5832886"><ele>736.0</ele><time>2026-05-03T12:54:17.959Z</time></trkpt><trkpt lat="43.9512974" lon="10.5831937"><ele>736.0</ele><time>2026-05-03T12:54:18.953Z</time></trkpt><trkpt lat="43.9513447" lon="10.5830923"><ele>736.0</ele><time>2026-05-03T12:54:19.956Z</time></trkpt><trkpt lat="43.9513937" lon="10.5829951"><ele>736.0</ele><time>2026-05-03T12:54:20.953Z</time></trkpt><trkpt lat="43.9514317" lon="10.5828928"><ele>736.0</ele><time>2026-05-03T12:54:21.953Z</time></trkpt><trkpt lat="43.9514466" lon="10.5827921"><ele>740.4</ele><time>2026-05-03T12:54:22.949Z</time></trkpt><trkpt lat="43.9514814" lon="10.582663"><ele>744.8</ele><time>2026-05-03T12:54:24.949Z</time></trkpt><trkpt lat="43.9515872" lon="10.5826512"><ele>749.1999999999999</ele><time>2026-05-03T12:54:27.945Z</time></trkpt><trkpt lat="43.9517157" lon="10.5826752"><ele>753.5999999999999</ele><time>2026-05-03T12:54:29.948Z</time></trkpt><trkpt lat="43.9517897" lon="10.5826783"><ele>758.0</ele><time>2026-05-03T12:54:30.953Z</time></trkpt><trkpt lat="43.9518711" lon="10.5826556"><ele>758.8333333333333</ele><time>2026-05-03T12:54:31.951Z</time></trkpt><trkpt lat="43.9519542" lon="10.5826253"><ele>759.6666666666666</ele><time>2026-05-03T12:54:32.953Z</time></trkpt><trkpt lat="43.9520325" lon="10.5826055"><ele>760.5</ele><time>2026-05-03T12:54:33.954Z</time></trkpt><trkpt lat="43.95211" lon="10.5825983"><ele>761.3333333333334</ele><time>2026-05-03T12:54:34.958Z</time></trkpt><trkpt lat="43.9521816" lon="10.5825896"><ele>762.1666666666667</ele><time>2026-05-03T12:54:35.95Z</time></trkpt><trkpt lat="43.952257" lon="10.5826139"><ele>763.0</ele><time>2026-05-03T12:54:36.953Z</time></trkpt><trkpt lat="43.9523491" lon="10.5826229"><ele>763.0</ele><time>2026-05-03T12:54:37.948Z</time></trkpt><trkpt lat="43.952433" lon="10.5826339"><ele>763.0</ele><time>2026-05-03T12:54:38.952Z</time></trkpt><trkpt lat="43.9525345" lon="10.582648"><ele>763.0</ele><time>2026-05-03T12:54:39.95Z</time></trkpt><trkpt lat="43.9526365" lon="10.5826415"><ele>763.0</ele><time>2026-05-03T12:54:40.95Z</time></trkpt><trkpt lat="43.9527307" lon="10.5826537"><ele>763.0</ele><time>2026-05-03T12:54:41.945Z</time></trkpt><trkpt lat="43.9528192" lon="10.5826928"><ele>764.5</ele><time>2026-05-03T12:54:42.947Z</time></trkpt><trkpt lat="43.9529146" lon="10.5827829"><ele>766.0</ele><time>2026-05-03T12:54:43.953Z</time></trkpt><trkpt lat="43.9530018" lon="10.5828973"><ele>767.5</ele><time>2026-05-03T12:54:44.957Z</time></trkpt><trkpt lat="43.9530914" lon="10.5830079"><ele>769.0</ele><time>2026-05-03T12:54:45.95Z</time></trkpt><trkpt lat="43.9531782" lon="10.5830736"><ele>765.9999999999999</ele><time>2026-05-03T12:54:46.953Z</time></trkpt><trkpt lat="43.9532674" lon="10.583113"><ele>763.0</ele><time>2026-05-03T12:54:47.965Z</time></trkpt><trkpt lat="43.9533562" lon="10.5831155"><ele>760.0</ele><time>2026-05-03T12:54:48.96Z</time></trkpt><trkpt lat="43.9534476" lon="10.5831094"><ele>757.0</ele><time>2026-05-03T12:54:49.968Z</time></trkpt><trkpt lat="43.9535256" lon="10.5831204"><ele>754.0</ele><time>2026-05-03T12:54:50.979Z</time></trkpt><trkpt lat="43.9535996" lon="10.5831246"><ele>751.0</ele><time>2026-05-03T12:54:51.981Z</time></trkpt><trkpt lat="43.9537063" lon="10.5831005"><ele>750.7142857142858</ele><time>2026-05-03T12:54:53.982Z</time></trkpt><trkpt lat="43.9537601" lon="10.5830487"><ele>750.4285714285714</ele><time>2026-05-03T12:54:54.978Z</time></trkpt><trkpt lat="43.9538053" lon="10.582972"><ele>750.1428571428571</ele><time>2026-05-03T12:54:55.982Z</time></trkpt><trkpt lat="43.9538351" lon="10.5828777"><ele>749.8571428571429</ele><time>2026-05-03T12:54:56.984Z</time></trkpt><trkpt lat="43.9538374" lon="10.582789"><ele>749.5714285714286</ele><time>2026-05-03T12:54:57.981Z</time></trkpt><trkpt lat="43.953824" lon="10.5826876"><ele>749.2857142857143</ele><time>2026-05-03T12:54:58.98Z</time></trkpt><trkpt lat="43.9538098" lon="10.582565"><ele>749.0</ele><time>2026-05-03T12:55:00.001Z</time></trkpt><trkpt lat="43.9538022" lon="10.5824561"><ele>751.3333333333333</ele><time>2026-05-03T12:55:00.979Z</time></trkpt><trkpt lat="43.9538135" lon="10.5823658"><ele>753.6666666666666</ele><time>2026-05-03T12:55:01.978Z</time></trkpt><trkpt lat="43.9538527" lon="10.5822749"><ele>756.0</ele><time>2026-05-03T12:55:02.97Z</time></trkpt><trkpt lat="43.9539008" lon="10.5821701"><ele>758.3333333333334</ele><time>2026-05-03T12:55:03.974Z</time></trkpt><trkpt lat="43.9539797" lon="10.5820677"><ele>760.6666666666667</ele><time>2026-05-03T12:55:04.98Z</time></trkpt><trkpt lat="43.9540571" lon="10.5819603"><ele>763.0</ele><time>2026-05-03T12:55:05.98Z</time></trkpt><trkpt lat="43.9541228" lon="10.581838"><ele>764.5</ele><time>2026-05-03T12:55:06.983Z</time></trkpt><trkpt lat="43.95416" lon="10.58173"><ele>766.0</ele><time>2026-05-03T12:55:07.976Z</time></trkpt><trkpt lat="43.9541784" lon="10.5816385"><ele>767.5</ele><time>2026-05-03T12:55:08.97Z</time></trkpt><trkpt lat="43.9541311" lon="10.5815731"><ele>769.0</ele><time>2026-05-03T12:55:29.987Z</time></trkpt><trkpt lat="43.9540676" lon="10.5816192"><ele>770.4999999999999</ele><time>2026-05-03T12:55:31.984Z</time></trkpt><trkpt lat="43.9539846" lon="10.5816673"><ele>772.0</ele><time>2026-05-03T12:55:33.976Z</time></trkpt><trkpt lat="43.9539389" lon="10.5815948"><ele>772.0</ele><time>2026-05-03T12:56:02Z</time></trkpt><trkpt lat="43.9539222" lon="10.5814026"><ele>772.0</ele><time>2026-05-03T12:56:03.974Z</time></trkpt><trkpt lat="43.9539346" lon="10.5813007"><ele>772.0</ele><time>2026-05-03T12:56:04.966Z</time></trkpt><trkpt lat="43.9539325" lon="10.5811937"><ele>772.0</ele><time>2026-05-03T12:56:05.97Z</time></trkpt><trkpt lat="43.9539523" lon="10.5811091"><ele>772.0</ele><time>2026-05-03T12:56:06.974Z</time></trkpt><trkpt lat="43.9540091" lon="10.5809985"><ele>770.1666666666666</ele><time>2026-05-03T12:56:08.974Z</time></trkpt><trkpt lat="43.9540958" lon="10.580861"><ele>768.3333333333333</ele><time>2026-05-03T12:56:10.973Z</time></trkpt><trkpt lat="43.9541444" lon="10.5807941"><ele>766.5</ele><time>2026-05-03T12:56:11.979Z</time></trkpt><trkpt lat="43.9541942" lon="10.5807363"><ele>764.6666666666666</ele><time>2026-05-03T12:56:12.98Z</time></trkpt><trkpt lat="43.9542449" lon="10.5806752"><ele>762.8333333333333</ele><time>2026-05-03T12:56:13.975Z</time></trkpt><trkpt lat="43.9542919" lon="10.5806092"><ele>761.0</ele><time>2026-05-03T12:56:14.975Z</time></trkpt><trkpt lat="43.9543453" lon="10.5804647"><ele>763.5</ele><time>2026-05-03T12:56:16.978Z</time></trkpt><trkpt lat="43.9544318" lon="10.580342"><ele>766.0</ele><time>2026-05-03T12:56:18.979Z</time></trkpt><trkpt lat="43.9544943" lon="10.5802911"><ele>768.5</ele><time>2026-05-03T12:56:19.982Z</time></trkpt><trkpt lat="43.9545423" lon="10.5802186"><ele>771.0</ele><time>2026-05-03T12:56:20.982Z</time></trkpt><trkpt lat="43.9545851" lon="10.5801414"><ele>773.5000000000001</ele><time>2026-05-03T12:56:21.983Z</time></trkpt><trkpt lat="43.9546303" lon="10.5800557"><ele>776.0</ele><time>2026-05-03T12:56:22.987Z</time></trkpt><trkpt lat="43.9546714" lon="10.5799696"><ele>776.0000000000001</ele><time>2026-05-03T12:56:23.981Z</time></trkpt><trkpt lat="43.9547208" lon="10.5798802"><ele>776.0</ele><time>2026-05-03T12:56:24.979Z</time></trkpt><trkpt lat="43.9547703" lon="10.579772"><ele>776.0</ele><time>2026-05-03T12:56:25.988Z</time></trkpt><trkpt lat="43.9548143" lon="10.5796725"><ele>776.0</ele><time>2026-05-03T12:56:26.991Z</time></trkpt><trkpt lat="43.9548564" lon="10.5795575"><ele>776.0000000000001</ele><time>2026-05-03T12:56:27.99Z</time></trkpt><trkpt lat="43.9549039" lon="10.5794547"><ele>776.0</ele><time>2026-05-03T12:56:28.98Z</time></trkpt><trkpt lat="43.9549547" lon="10.5793557"><ele>776.6666666666667</ele><time>2026-05-03T12:56:29.978Z</time></trkpt><trkpt lat="43.9550061" lon="10.5792749"><ele>777.3333333333334</ele><time>2026-05-03T12:56:30.977Z</time></trkpt><trkpt lat="43.9550707" lon="10.5792081"><ele>778.0</ele><time>2026-05-03T12:56:31.978Z</time></trkpt><trkpt lat="43.955138" lon="10.5791473"><ele>778.6666666666667</ele><time>2026-05-03T12:56:32.999Z</time></trkpt><trkpt lat="43.955209" lon="10.579071"><ele>779.3333333333334</ele><time>2026-05-03T12:56:33.978Z</time></trkpt><trkpt lat="43.9552702" lon="10.5789951"><ele>780.0</ele><time>2026-05-03T12:56:34.975Z</time></trkpt><trkpt lat="43.9553199" lon="10.5789342"><ele>780.0</ele><time>2026-05-03T12:56:35.976Z</time></trkpt><trkpt lat="43.955381" lon="10.5788956"><ele>780.0</ele><time>2026-05-03T12:56:36.97Z</time></trkpt><trkpt lat="43.9554872" lon="10.5787946"><ele>780.0</ele><time>2026-05-03T12:56:38.977Z</time></trkpt><trkpt lat="43.9555707" lon="10.5786922"><ele>780.0</ele><time>2026-05-03T12:56:40.979Z</time></trkpt><trkpt lat="43.9556583" lon="10.5786189"><ele>780.0</ele><time>2026-05-03T12:56:42.978Z</time></trkpt><trkpt lat="43.9557645" lon="10.5785657"><ele>779.8</ele><time>2026-05-03T12:56:44.972Z</time></trkpt><trkpt lat="43.9558711" lon="10.578512"><ele>779.6</ele><time>2026-05-03T12:56:46.975Z</time></trkpt><trkpt lat="43.9559802" lon="10.5784707"><ele>779.4000000000001</ele><time>2026-05-03T12:56:48.972Z</time></trkpt><trkpt lat="43.9560681" lon="10.5784383"><ele>779.2</ele><time>2026-05-03T12:56:50.971Z</time></trkpt><trkpt lat="43.9561174" lon="10.5783711"><ele>779.0</ele><time>2026-05-03T12:56:52.994Z</time></trkpt><trkpt lat="43.9561504" lon="10.5782103"><ele>779.0000000000001</ele><time>2026-05-03T12:56:54.98Z</time></trkpt><trkpt lat="43.956173" lon="10.578117"><ele>779.0</ele><time>2026-05-03T12:56:55.987Z</time></trkpt><trkpt lat="43.9562108" lon="10.5780091"><ele>779.0</ele><time>2026-05-03T12:56:56.99Z</time></trkpt><trkpt lat="43.9562472" lon="10.5778915"><ele>779.0</ele><time>2026-05-03T12:56:57.979Z</time></trkpt><trkpt lat="43.9562997" lon="10.5778012"><ele>779.0000000000001</ele><time>2026-05-03T12:56:58.98Z</time></trkpt><trkpt lat="43.9563531" lon="10.5777174"><ele>779.0</ele><time>2026-05-03T12:56:59.987Z</time></trkpt><trkpt lat="43.9564126" lon="10.5776411"><ele>778.5000000000001</ele><time>2026-05-03T12:57:00.984Z</time></trkpt><trkpt lat="43.9564801" lon="10.5775824"><ele>778.0</ele><time>2026-05-03T12:57:01.979Z</time></trkpt><trkpt lat="43.956558" lon="10.5775327"><ele>777.5</ele><time>2026-05-03T12:57:02.972Z</time></trkpt><trkpt lat="43.9566285" lon="10.5774939"><ele>777.0</ele><time>2026-05-03T12:57:03.987Z</time></trkpt><trkpt lat="43.9567457" lon="10.5774075"><ele>776.5000000000001</ele><time>2026-05-03T12:57:05.973Z</time></trkpt><trkpt lat="43.9568092" lon="10.577367"><ele>776.0</ele><time>2026-05-03T12:57:06.968Z</time></trkpt><trkpt lat="43.9568684" lon="10.5773127"><ele>776.0</ele><time>2026-05-03T12:57:07.964Z</time></trkpt><trkpt lat="43.9569212" lon="10.5772469"><ele>776.0</ele><time>2026-05-03T12:57:08.968Z</time></trkpt><trkpt lat="43.9569769" lon="10.577195"><ele>776.0</ele><time>2026-05-03T12:57:09.962Z</time></trkpt><trkpt lat="43.9570277" lon="10.5771096"><ele>776.0</ele><time>2026-05-03T12:57:10.97Z</time></trkpt><trkpt lat="43.9570773" lon="10.5770261"><ele>776.0</ele><time>2026-05-03T12:57:11.975Z</time></trkpt><trkpt lat="43.9571243" lon="10.5769436"><ele>776.0</ele><time>2026-05-03T12:57:12.975Z</time></trkpt><trkpt lat="43.9571734" lon="10.576872"><ele>776.0</ele><time>2026-05-03T12:57:13.98Z</time></trkpt><trkpt lat="43.9572205" lon="10.5767974"><ele>775.4</ele><time>2026-05-03T12:57:14.974Z</time></trkpt><trkpt lat="43.9572702" lon="10.5767398"><ele>774.8</ele><time>2026-05-03T12:57:15.967Z</time></trkpt><trkpt lat="43.9573389" lon="10.5767008"><ele>774.1999999999999</ele><time>2026-05-03T12:57:16.968Z</time></trkpt><trkpt lat="43.9574189" lon="10.5766741"><ele>773.5999999999999</ele><time>2026-05-03T12:57:17.971Z</time></trkpt><trkpt lat="43.9575361" lon="10.576647"><ele>773.0</ele><time>2026-05-03T12:57:19.973Z</time></trkpt><trkpt lat="43.957624" lon="10.5765532"><ele>773.0</ele><time>2026-05-03T12:57:21.97Z</time></trkpt><trkpt lat="43.9576829" lon="10.5764376"><ele>773.0</ele><time>2026-05-03T12:57:23.969Z</time></trkpt><trkpt lat="43.9577673" lon="10.5763164"><ele>773.0</ele><time>2026-05-03T12:57:25.973Z</time></trkpt><trkpt lat="43.9578577" lon="10.5762604"><ele>773.0</ele><time>2026-05-03T12:57:27.964Z</time></trkpt><trkpt lat="43.9579393" lon="10.5762528"><ele>773.0</ele><time>2026-05-03T12:57:29.971Z</time></trkpt><trkpt lat="43.958075" lon="10.5763048"><ele>773.0</ele><time>2026-05-03T12:57:50.978Z</time></trkpt><trkpt lat="43.9581614" lon="10.5762645"><ele>773.0</ele><time>2026-05-03T12:57:52.971Z</time></trkpt><trkpt lat="43.9582451" lon="10.5761939"><ele>773.0</ele><time>2026-05-03T12:57:54.972Z</time></trkpt><trkpt lat="43.9583454" lon="10.5761599"><ele>773.0</ele><time>2026-05-03T12:57:56.971Z</time></trkpt><trkpt lat="43.9584237" lon="10.5761871"><ele>773.0</ele><time>2026-05-03T12:57:58.966Z</time></trkpt><trkpt lat="43.958452" lon="10.5762999"><ele>773.0</ele><time>2026-05-03T12:58:00.964Z</time></trkpt><trkpt lat="43.9584376" lon="10.5764649"><ele>773.0</ele><time>2026-05-03T12:58:02.96Z</time></trkpt><trkpt lat="43.9584052" lon="10.5765603"><ele>773.0</ele><time>2026-05-03T12:58:03.965Z</time></trkpt><trkpt lat="43.9583776" lon="10.5766425"><ele>773.0</ele><time>2026-05-03T12:58:04.966Z</time></trkpt><trkpt lat="43.9583249" lon="10.5767661"><ele>773.0</ele><time>2026-05-03T12:58:06.965Z</time></trkpt><trkpt lat="43.9582501" lon="10.5768435"><ele>773.0000000000001</ele><time>2026-05-03T12:58:08.975Z</time></trkpt><trkpt lat="43.9581872" lon="10.5768531"><ele>773.0</ele><time>2026-05-03T12:58:09.967Z</time></trkpt><trkpt lat="43.9581005" lon="10.5769248"><ele>773.0</ele><time>2026-05-03T12:58:11.965Z</time></trkpt><trkpt lat="43.9580487" lon="10.5770256"><ele>773.0</ele><time>2026-05-03T12:58:13.966Z</time></trkpt><trkpt lat="43.9580513" lon="10.5771397"><ele>773.0000000000001</ele><time>2026-05-03T12:58:15.963Z</time></trkpt><trkpt lat="43.95803" lon="10.5772338"><ele>773.0</ele><time>2026-05-03T12:58:17.966Z</time></trkpt><trkpt lat="43.9579413" lon="10.5772795"><ele>770.2857142857142</ele><time>2026-05-03T12:58:19.964Z</time></trkpt><trkpt lat="43.9578431" lon="10.5772954"><ele>767.5714285714286</ele><time>2026-05-03T12:58:21.96Z</time></trkpt><trkpt lat="43.9577789" lon="10.5773387"><ele>764.8571428571429</ele><time>2026-05-03T12:58:23.959Z</time></trkpt><trkpt lat="43.9577542" lon="10.5774248"><ele>762.1428571428571</ele><time>2026-05-03T12:58:25.967Z</time></trkpt><trkpt lat="43.9577958" lon="10.5775005"><ele>759.4285714285714</ele><time>2026-05-03T12:58:29.972Z</time></trkpt><trkpt lat="43.9578633" lon="10.577506"><ele>756.7142857142857</ele><time>2026-05-03T12:58:31.96Z</time></trkpt><trkpt lat="43.9579308" lon="10.5775105"><ele>754.0</ele><time>2026-05-03T12:58:32.961Z</time></trkpt><trkpt lat="43.9580122" lon="10.5775054"><ele>754.0</ele><time>2026-05-03T12:58:33.956Z</time></trkpt><trkpt lat="43.9580908" lon="10.5774795"><ele>754.0</ele><time>2026-05-03T12:58:34.963Z</time></trkpt><trkpt lat="43.958152" lon="10.5774312"><ele>754.0</ele><time>2026-05-03T12:58:35.971Z</time></trkpt><trkpt lat="43.958235" lon="10.577369"><ele>754.0</ele><time>2026-05-03T12:58:36.959Z</time></trkpt><trkpt lat="43.958317" lon="10.5773061"><ele>754.0</ele><time>2026-05-03T12:58:37.967Z</time></trkpt><trkpt lat="43.9583992" lon="10.5772659"><ele>754.0</ele><time>2026-05-03T12:58:38.97Z</time></trkpt><trkpt lat="43.9584615" lon="10.5772212"><ele>754.1666666666667</ele><time>2026-05-03T12:58:39.967Z</time></trkpt><trkpt lat="43.9585319" lon="10.5771482"><ele>754.3333333333334</ele><time>2026-05-03T12:58:40.96Z</time></trkpt><trkpt lat="43.9586043" lon="10.5770666"><ele>754.5</ele><time>2026-05-03T12:58:41.97Z</time></trkpt><trkpt lat="43.9586611" lon="10.5769513"><ele>754.6666666666666</ele><time>2026-05-03T12:58:42.962Z</time></trkpt><trkpt lat="43.958713" lon="10.57685"><ele>754.8333333333333</ele><time>2026-05-03T12:58:43.961Z</time></trkpt><trkpt lat="43.9587609" lon="10.5767796"><ele>755.0</ele><time>2026-05-03T12:58:44.959Z</time></trkpt><trkpt lat="43.9588745" lon="10.5767637"><ele>755.0</ele><time>2026-05-03T12:58:46.96Z</time></trkpt><trkpt lat="43.9589904" lon="10.5768429"><ele>755.0</ele><time>2026-05-03T12:58:48.956Z</time></trkpt><trkpt lat="43.9590687" lon="10.5769054"><ele>755.0</ele><time>2026-05-03T12:58:49.953Z</time></trkpt><trkpt lat="43.9592014" lon="10.5769255"><ele>755.0</ele><time>2026-05-03T12:58:51.957Z</time></trkpt><trkpt lat="43.9592774" lon="10.5768787"><ele>755.0</ele><time>2026-05-03T12:58:52.96Z</time></trkpt><trkpt lat="43.9593716" lon="10.5768632"><ele>755.0</ele><time>2026-05-03T12:58:53.957Z</time></trkpt><trkpt lat="43.9594744" lon="10.5768653"><ele>755.0</ele><time>2026-05-03T12:58:54.959Z</time></trkpt><trkpt lat="43.9595865" lon="10.576886"><ele>755.0</ele><time>2026-05-03T12:58:55.96Z</time></trkpt><trkpt lat="43.9596888" lon="10.576917"><ele>755.0</ele><time>2026-05-03T12:58:56.96Z</time></trkpt><trkpt lat="43.9597826" lon="10.5769276"><ele>755.0</ele><time>2026-05-03T12:58:57.962Z</time></trkpt><trkpt lat="43.9598719" lon="10.5769138"><ele>755.0</ele><time>2026-05-03T12:58:58.96Z</time></trkpt><trkpt lat="43.9599595" lon="10.5768726"><ele>755.0</ele><time>2026-05-03T12:58:59.957Z</time></trkpt><trkpt lat="43.9600488" lon="10.576837"><ele>755.0</ele><time>2026-05-03T12:59:00.949Z</time></trkpt><trkpt lat="43.9601309" lon="10.5768011"><ele>755.0</ele><time>2026-05-03T12:59:01.962Z</time></trkpt><trkpt lat="43.9602031" lon="10.5767969"><ele>755.0</ele><time>2026-05-03T12:59:02.963Z</time></trkpt><trkpt lat="43.9602812" lon="10.5768654"><ele>755.0</ele><time>2026-05-03T12:59:03.962Z</time></trkpt><trkpt lat="43.9603371" lon="10.5769072"><ele>753.8</ele><time>2026-05-03T12:59:04.971Z</time></trkpt><trkpt lat="43.9604714" lon="10.5768924"><ele>752.6</ele><time>2026-05-03T12:59:06.984Z</time></trkpt><trkpt lat="43.960557" lon="10.5768553"><ele>751.4000000000001</ele><time>2026-05-03T12:59:07.972Z</time></trkpt><trkpt lat="43.960643" lon="10.5768079"><ele>750.2</ele><time>2026-05-03T12:59:08.971Z</time></trkpt><trkpt lat="43.9607165" lon="10.5767749"><ele>749.0</ele><time>2026-05-03T12:59:09.967Z</time></trkpt><trkpt lat="43.9607891" lon="10.5767478"><ele>749.0</ele><time>2026-05-03T12:59:10.975Z</time></trkpt><trkpt lat="43.9608485" lon="10.5767187"><ele>749.0</ele><time>2026-05-03T12:59:11.973Z</time></trkpt><trkpt lat="43.9609525" lon="10.57669"><ele>749.0</ele><time>2026-05-03T12:59:13.964Z</time></trkpt><trkpt lat="43.961048" lon="10.5767097"><ele>749.0</ele><time>2026-05-03T12:59:15.973Z</time></trkpt><trkpt lat="43.9611024" lon="10.5766577"><ele>749.0</ele><time>2026-05-03T12:59:17.977Z</time></trkpt><trkpt lat="43.9611233" lon="10.5765178"><ele>749.0</ele><time>2026-05-03T12:59:19.971Z</time></trkpt><trkpt lat="43.9611252" lon="10.5764089"><ele>748.8333333333333</ele><time>2026-05-03T12:59:20.969Z</time></trkpt><trkpt lat="43.9611291" lon="10.5763134"><ele>748.6666666666666</ele><time>2026-05-03T12:59:21.971Z</time></trkpt><trkpt lat="43.9611688" lon="10.5761526"><ele>748.5</ele><time>2026-05-03T12:59:23.967Z</time></trkpt><trkpt lat="43.9612259" lon="10.576099"><ele>748.3333333333334</ele><time>2026-05-03T12:59:24.971Z</time></trkpt><trkpt lat="43.9612892" lon="10.5760575"><ele>748.1666666666667</ele><time>2026-05-03T12:59:25.97Z</time></trkpt><trkpt lat="43.9613546" lon="10.5760438"><ele>748.0</ele><time>2026-05-03T12:59:26.967Z</time></trkpt><trkpt lat="43.9614217" lon="10.5760433"><ele>748.0</ele><time>2026-05-03T12:59:27.97Z</time></trkpt><trkpt lat="43.9614982" lon="10.576034"><ele>748.0</ele><time>2026-05-03T12:59:28.968Z</time></trkpt><trkpt lat="43.9615725" lon="10.5760099"><ele>748.0</ele><time>2026-05-03T12:59:29.963Z</time></trkpt><trkpt lat="43.9616477" lon="10.575965"><ele>748.0</ele><time>2026-05-03T12:59:30.969Z</time></trkpt><trkpt lat="43.9617152" lon="10.5758902"><ele>748.0</ele><time>2026-05-03T12:59:31.966Z</time></trkpt><trkpt lat="43.9617721" lon="10.5758128"><ele>748.0</ele><time>2026-05-03T12:59:32.962Z</time></trkpt><trkpt lat="43.961881" lon="10.5757624"><ele>745.8571428571428</ele><time>2026-05-03T12:59:34.965Z</time></trkpt><trkpt lat="43.9619788" lon="10.5758114"><ele>743.7142857142858</ele><time>2026-05-03T12:59:36.962Z</time></trkpt><trkpt lat="43.9620186" lon="10.575881"><ele>741.5714285714286</ele><time>2026-05-03T12:59:37.984Z</time></trkpt><trkpt lat="43.9620719" lon="10.5759525"><ele>739.4285714285713</ele><time>2026-05-03T12:59:38.961Z</time></trkpt><trkpt lat="43.962139" lon="10.5759922"><ele>737.2857142857142</ele><time>2026-05-03T12:59:39.962Z</time></trkpt><trkpt lat="43.9622039" lon="10.5760113"><ele>735.1428571428571</ele><time>2026-05-03T12:59:40.964Z</time></trkpt><trkpt lat="43.9622715" lon="10.5760152"><ele>733.0</ele><time>2026-05-03T12:59:41.971Z</time></trkpt><trkpt lat="43.9623432" lon="10.5760115"><ele>733.0</ele><time>2026-05-03T12:59:42.967Z</time></trkpt><trkpt lat="43.962459" lon="10.5759651"><ele>733.0</ele><time>2026-05-03T12:59:44.981Z</time></trkpt><trkpt lat="43.9625579" lon="10.575873"><ele>733.0</ele><time>2026-05-03T12:59:46.974Z</time></trkpt><trkpt lat="43.9625998" lon="10.5757238"><ele>733.0</ele><time>2026-05-03T12:59:48.974Z</time></trkpt><trkpt lat="43.9626699" lon="10.5755803"><ele>731.1428571428571</ele><time>2026-05-03T12:59:50.971Z</time></trkpt><trkpt lat="43.9627332" lon="10.5755481"><ele>729.2857142857142</ele><time>2026-05-03T12:59:51.976Z</time></trkpt><trkpt lat="43.9628003" lon="10.5755247"><ele>727.4285714285713</ele><time>2026-05-03T12:59:52.98Z</time></trkpt><trkpt lat="43.9628662" lon="10.5754976"><ele>725.5714285714286</ele><time>2026-05-03T12:59:53.973Z</time></trkpt><trkpt lat="43.9629186" lon="10.5754352"><ele>723.7142857142858</ele><time>2026-05-03T12:59:54.991Z</time></trkpt><trkpt lat="43.962974" lon="10.5753475"><ele>721.8571428571428</ele><time>2026-05-03T12:59:55.986Z</time></trkpt><trkpt lat="43.9630167" lon="10.5752719"><ele>720.0</ele><time>2026-05-03T12:59:56.989Z</time></trkpt><trkpt lat="43.9630649" lon="10.5752017"><ele>720.0</ele><time>2026-05-03T12:59:57.982Z</time></trkpt><trkpt lat="43.9631063" lon="10.5751325"><ele>720.0</ele><time>2026-05-03T12:59:58.976Z</time></trkpt><trkpt lat="43.9631323" lon="10.5749514"><ele>720.0</ele><time>2026-05-03T13:00:00.974Z</time></trkpt><trkpt lat="43.9631126" lon="10.5748438"><ele>720.0</ele><time>2026-05-03T13:00:01.984Z</time></trkpt><trkpt lat="43.9630956" lon="10.574747"><ele>720.0</ele><time>2026-05-03T13:00:02.98Z</time></trkpt><trkpt lat="43.963093" lon="10.5746595"><ele>720.0</ele><time>2026-05-03T13:00:03.968Z</time></trkpt><trkpt lat="43.9630923" lon="10.5745628"><ele>720.0</ele><time>2026-05-03T13:00:05.976Z</time></trkpt><trkpt lat="43.9631868" lon="10.5745914"><ele>720.0</ele><time>2026-05-03T13:00:07.971Z</time></trkpt><trkpt lat="43.9632386" lon="10.5746415"><ele>720.0</ele><time>2026-05-03T13:00:08.978Z</time></trkpt><trkpt lat="43.9633025" lon="10.5746676"><ele>720.0</ele><time>2026-05-03T13:00:09.966Z</time></trkpt><trkpt lat="43.9633668" lon="10.5746623"><ele>720.0</ele><time>2026-05-03T13:00:10.965Z</time></trkpt><trkpt lat="43.9634255" lon="10.5746184"><ele>720.0</ele><time>2026-05-03T13:00:11.963Z</time></trkpt><trkpt lat="43.9634783" lon="10.5745593"><ele>720.0</ele><time>2026-05-03T13:00:12.952Z</time></trkpt><trkpt lat="43.9635415" lon="10.5744986"><ele>720.1666666666666</ele><time>2026-05-03T13:00:13.968Z</time></trkpt><trkpt lat="43.9635994" lon="10.5744377"><ele>720.3333333333334</ele><time>2026-05-03T13:00:14.962Z</time></trkpt><trkpt lat="43.9636777" lon="10.5744014"><ele>720.5</ele><time>2026-05-03T13:00:15.959Z</time></trkpt><trkpt lat="43.9637607" lon="10.5743744"><ele>720.6666666666667</ele><time>2026-05-03T13:00:16.957Z</time></trkpt><trkpt lat="43.9638511" lon="10.5743505"><ele>720.8333333333334</ele><time>2026-05-03T13:00:17.963Z</time></trkpt><trkpt lat="43.9639518" lon="10.5743537"><ele>721.0</ele><time>2026-05-03T13:00:18.958Z</time></trkpt><trkpt lat="43.9640426" lon="10.5743723"><ele>721.0</ele><time>2026-05-03T13:00:19.961Z</time></trkpt><trkpt lat="43.964117" lon="10.5744065"><ele>721.0</ele><time>2026-05-03T13:00:20.959Z</time></trkpt><trkpt lat="43.9641924" lon="10.574473"><ele>721.0</ele><time>2026-05-03T13:00:21.963Z</time></trkpt><trkpt lat="43.9642523" lon="10.5745215"><ele>721.0</ele><time>2026-05-03T13:00:22.966Z</time></trkpt><trkpt lat="43.9643498" lon="10.5744672"><ele>721.0</ele><time>2026-05-03T13:00:24.968Z</time></trkpt><trkpt lat="43.9644017" lon="10.5743423"><ele>721.0</ele><time>2026-05-03T13:00:26.975Z</time></trkpt><trkpt lat="43.9644097" lon="10.5742491"><ele>719.8333333333334</ele><time>2026-05-03T13:00:27.968Z</time></trkpt><trkpt lat="43.9644209" lon="10.5741602"><ele>718.6666666666667</ele><time>2026-05-03T13:00:28.964Z</time></trkpt><trkpt lat="43.9645062" lon="10.5740824"><ele>717.5</ele><time>2026-05-03T13:00:30.963Z</time></trkpt><trkpt lat="43.9645794" lon="10.5741022"><ele>716.3333333333334</ele><time>2026-05-03T13:00:31.963Z</time></trkpt><trkpt lat="43.9646472" lon="10.5741392"><ele>715.1666666666666</ele><time>2026-05-03T13:00:32.966Z</time></trkpt><trkpt lat="43.9647598" lon="10.5741022"><ele>714.0</ele><time>2026-05-03T13:00:34.958Z</time></trkpt><trkpt lat="43.9648093" lon="10.5740237"><ele>714.0</ele><time>2026-05-03T13:00:35.963Z</time></trkpt><trkpt lat="43.9648381" lon="10.5739362"><ele>714.0</ele><time>2026-05-03T13:00:36.968Z</time></trkpt><trkpt lat="43.9648557" lon="10.5738485"><ele>714.0</ele><time>2026-05-03T13:00:37.962Z</time></trkpt><trkpt lat="43.9649104" lon="10.5737588"><ele>714.0</ele><time>2026-05-03T13:00:39.974Z</time></trkpt><trkpt lat="43.9649695" lon="10.5737973"><ele>714.0</ele><time>2026-05-03T13:00:54.962Z</time></trkpt><trkpt lat="43.9649832" lon="10.5736882"><ele>714.0</ele><time>2026-05-03T13:01:12.973Z</time></trkpt><trkpt lat="43.9650325" lon="10.5736272"><ele>714.0</ele><time>2026-05-03T13:01:15.95Z</time></trkpt><trkpt lat="43.9650941" lon="10.5736613"><ele>714.0</ele><time>2026-05-03T13:01:18.948Z</time></trkpt><trkpt lat="43.96517" lon="10.5736372"><ele>714.0</ele><time>2026-05-03T13:01:20.943Z</time></trkpt><trkpt lat="43.9652282" lon="10.573691"><ele>714.0</ele><time>2026-05-03T13:01:21.951Z</time></trkpt><trkpt lat="43.9653724" lon="10.5736814"><ele>714.0</ele><time>2026-05-03T13:01:24.973Z</time></trkpt><trkpt lat="43.9654429" lon="10.5736383"><ele>714.0</ele><time>2026-05-03T13:01:26.983Z</time></trkpt><trkpt lat="43.9654164" lon="10.5735363"><ele>714.0</ele><time>2026-05-03T13:01:31.985Z</time></trkpt><trkpt lat="43.9653518" lon="10.5735084"><ele>714.0</ele><time>2026-05-03T13:01:33.991Z</time></trkpt><trkpt lat="43.965301" lon="10.5733932"><ele>714.0</ele><time>2026-05-03T13:01:35.995Z</time></trkpt><trkpt lat="43.9652493" lon="10.5732465"><ele>714.0</ele><time>2026-05-03T13:01:37.986Z</time></trkpt><trkpt lat="43.9651959" lon="10.573173"><ele>714.0</ele><time>2026-05-03T13:01:38.982Z</time></trkpt><trkpt lat="43.9651259" lon="10.5730996"><ele>714.0</ele><time>2026-05-03T13:01:39.979Z</time></trkpt><trkpt lat="43.9650478" lon="10.5730456"><ele>716.1666666666666</ele><time>2026-05-03T13:01:40.982Z</time></trkpt><trkpt lat="43.9649821" lon="10.5730038"><ele>718.3333333333334</ele><time>2026-05-03T13:01:41.99Z</time></trkpt><trkpt lat="43.9649256" lon="10.5729617"><ele>720.5</ele><time>2026-05-03T13:01:42.98Z</time></trkpt><trkpt lat="43.9648157" lon="10.5729175"><ele>722.6666666666667</ele><time>2026-05-03T13:01:44.977Z</time></trkpt><trkpt lat="43.9647261" lon="10.5729358"><ele>724.8333333333334</ele><time>2026-05-03T13:01:46.977Z</time></trkpt><trkpt lat="43.9646815" lon="10.5728466"><ele>727.0</ele><time>2026-05-03T13:01:49.984Z</time></trkpt><trkpt lat="43.9647291" lon="10.5727434"><ele>727.0</ele><time>2026-05-03T13:01:52.979Z</time></trkpt><trkpt lat="43.9647074" lon="10.5726583"><ele>727.0</ele><time>2026-05-03T13:01:56.977Z</time></trkpt><trkpt lat="43.9646484" lon="10.5727402"><ele>727.0</ele><time>2026-05-03T13:02:00.979Z</time></trkpt><trkpt lat="43.9645567" lon="10.5727624"><ele>727.0</ele><time>2026-05-03T13:02:03.969Z</time></trkpt><trkpt lat="43.9644888" lon="10.5727844"><ele>727.0</ele><time>2026-05-03T13:02:05.976Z</time></trkpt><trkpt lat="43.9643849" lon="10.5728135"><ele>727.0</ele><time>2026-05-03T13:02:07.969Z</time></trkpt><trkpt lat="43.9643137" lon="10.5728338"><ele>729.0</ele><time>2026-05-03T13:02:08.965Z</time></trkpt><trkpt lat="43.9641964" lon="10.5728909"><ele>731.0</ele><time>2026-05-03T13:02:10.971Z</time></trkpt><trkpt lat="43.9640691" lon="10.5729134"><ele>733.0</ele><time>2026-05-03T13:02:12.984Z</time></trkpt><trkpt lat="43.963999" lon="10.5729378"><ele>735.0</ele><time>2026-05-03T13:02:13.975Z</time></trkpt><trkpt lat="43.9639292" lon="10.5729586"><ele>737.0</ele><time>2026-05-03T13:02:14.983Z</time></trkpt><trkpt lat="43.9638106" lon="10.5729821"><ele>737.0</ele><time>2026-05-03T13:02:16.984Z</time></trkpt><trkpt lat="43.9636917" lon="10.5729992"><ele>737.0</ele><time>2026-05-03T13:02:18.981Z</time></trkpt><trkpt lat="43.9636161" lon="10.5730441"><ele>737.0</ele><time>2026-05-03T13:02:20.981Z</time></trkpt><trkpt lat="43.9635088" lon="10.5730593"><ele>737.0</ele><time>2026-05-03T13:02:22.983Z</time></trkpt><trkpt lat="43.9633908" lon="10.5730671"><ele>737.0</ele><time>2026-05-03T13:02:24.975Z</time></trkpt><trkpt lat="43.9633217" lon="10.5730569"><ele>738.8333333333333</ele><time>2026-05-03T13:02:25.98Z</time></trkpt><trkpt lat="43.9632527" lon="10.5730493"><ele>740.6666666666666</ele><time>2026-05-03T13:02:26.983Z</time></trkpt><trkpt lat="43.9631795" lon="10.5730328"><ele>742.5</ele><time>2026-05-03T13:02:27.985Z</time></trkpt><trkpt lat="43.9631097" lon="10.5730187"><ele>744.3333333333334</ele><time>2026-05-03T13:02:28.982Z</time></trkpt><trkpt lat="43.9630077" lon="10.5730079"><ele>746.1666666666667</ele><time>2026-05-03T13:02:30.981Z</time></trkpt><trkpt lat="43.9629438" lon="10.5730136"><ele>748.0</ele><time>2026-05-03T13:02:32.992Z</time></trkpt><trkpt lat="43.9628661" lon="10.5730436"><ele>748.0</ele><time>2026-05-03T13:02:34.988Z</time></trkpt><trkpt lat="43.962765" lon="10.5730978"><ele>748.0</ele><time>2026-05-03T13:02:36.986Z</time></trkpt><trkpt lat="43.9626464" lon="10.5732074"><ele>748.0</ele><time>2026-05-03T13:02:38.99Z</time></trkpt><trkpt lat="43.9625736" lon="10.5732795"><ele>748.0</ele><time>2026-05-03T13:02:39.978Z</time></trkpt><trkpt lat="43.9625064" lon="10.5733543"><ele>748.0</ele><time>2026-05-03T13:02:40.969Z</time></trkpt><trkpt lat="43.9624599" lon="10.5734224"><ele>748.5</ele><time>2026-05-03T13:02:41.959Z</time></trkpt><trkpt lat="43.9624223" lon="10.5734933"><ele>749.0</ele><time>2026-05-03T13:02:42.962Z</time></trkpt><trkpt lat="43.9623293" lon="10.5735654"><ele>749.5</ele><time>2026-05-03T13:02:44.959Z</time></trkpt><trkpt lat="43.9622735" lon="10.5736204"><ele>750.0</ele><time>2026-05-03T13:02:45.963Z</time></trkpt><trkpt lat="43.9622074" lon="10.5736896"><ele>750.5</ele><time>2026-05-03T13:02:46.96Z</time></trkpt><trkpt lat="43.9621445" lon="10.5737544"><ele>751.0</ele><time>2026-05-03T13:02:47.959Z</time></trkpt><trkpt lat="43.9620767" lon="10.5738069"><ele>751.0</ele><time>2026-05-03T13:02:48.972Z</time></trkpt><trkpt lat="43.9620026" lon="10.573849"><ele>751.0</ele><time>2026-05-03T13:02:49.971Z</time></trkpt><trkpt lat="43.9619304" lon="10.5738865"><ele>751.0</ele><time>2026-05-03T13:02:50.971Z</time></trkpt><trkpt lat="43.9618659" lon="10.5739324"><ele>751.0</ele><time>2026-05-03T13:02:51.971Z</time></trkpt><trkpt lat="43.9617357" lon="10.5739727"><ele>751.0</ele><time>2026-05-03T13:02:53.978Z</time></trkpt><trkpt lat="43.9616589" lon="10.5739871"><ele>751.0</ele><time>2026-05-03T13:02:54.972Z</time></trkpt><trkpt lat="43.9615722" lon="10.5739986"><ele>754.1666666666667</ele><time>2026-05-03T13:02:55.978Z</time></trkpt><trkpt lat="43.9614858" lon="10.5740144"><ele>757.3333333333334</ele><time>2026-05-03T13:02:56.974Z</time></trkpt><trkpt lat="43.9613975" lon="10.5740338"><ele>760.5</ele><time>2026-05-03T13:02:57.978Z</time></trkpt><trkpt lat="43.9613128" lon="10.5740571"><ele>763.6666666666667</ele><time>2026-05-03T13:02:58.971Z</time></trkpt><trkpt lat="43.9612426" lon="10.5741079"><ele>766.8333333333334</ele><time>2026-05-03T13:02:59.972Z</time></trkpt><trkpt lat="43.9611723" lon="10.5741615"><ele>770.0</ele><time>2026-05-03T13:03:00.977Z</time></trkpt><trkpt lat="43.9610962" lon="10.574213"><ele>770.0000000000001</ele><time>2026-05-03T13:03:01.969Z</time></trkpt><trkpt lat="43.9610159" lon="10.5742614"><ele>770.0</ele><time>2026-05-03T13:03:02.98Z</time></trkpt><trkpt lat="43.9609487" lon="10.5743095"><ele>770.0</ele><time>2026-05-03T13:03:03.973Z</time></trkpt><trkpt lat="43.9608843" lon="10.5743547"><ele>770.0</ele><time>2026-05-03T13:03:04.969Z</time></trkpt><trkpt lat="43.9607908" lon="10.5744136"><ele>770.0000000000001</ele><time>2026-05-03T13:03:06.979Z</time></trkpt><trkpt lat="43.9607093" lon="10.5744985"><ele>770.0</ele><time>2026-05-03T13:03:08.982Z</time></trkpt><trkpt lat="43.9606539" lon="10.5745563"><ele>771.4</ele><time>2026-05-03T13:03:09.978Z</time></trkpt><trkpt lat="43.9605979" lon="10.5746068"><ele>772.8</ele><time>2026-05-03T13:03:10.99Z</time></trkpt><trkpt lat="43.9605364" lon="10.5746415"><ele>774.2</ele><time>2026-05-03T13:03:11.987Z</time></trkpt><trkpt lat="43.9604299" lon="10.5746845"><ele>775.6</ele><time>2026-05-03T13:03:14.002Z</time></trkpt><trkpt lat="43.9602993" lon="10.5747352"><ele>777.0</ele><time>2026-05-03T13:03:15.994Z</time></trkpt><trkpt lat="43.9602264" lon="10.5747598"><ele>777.0</ele><time>2026-05-03T13:03:16.992Z</time></trkpt><trkpt lat="43.9601498" lon="10.5747834"><ele>777.0</ele><time>2026-05-03T13:03:17.985Z</time></trkpt><trkpt lat="43.9600719" lon="10.5748139"><ele>777.0</ele><time>2026-05-03T13:03:18.985Z</time></trkpt><trkpt lat="43.9599976" lon="10.5748351"><ele>777.0</ele><time>2026-05-03T13:03:19.99Z</time></trkpt><trkpt lat="43.9599211" lon="10.5748637"><ele>777.0</ele><time>2026-05-03T13:03:20.987Z</time></trkpt><trkpt lat="43.959843" lon="10.5749038"><ele>777.0</ele><time>2026-05-03T13:03:21.991Z</time></trkpt><trkpt lat="43.9597692" lon="10.5749349"><ele>779.2</ele><time>2026-05-03T13:03:22.987Z</time></trkpt><trkpt lat="43.9597076" lon="10.5749645"><ele>781.4000000000001</ele><time>2026-05-03T13:03:23.982Z</time></trkpt><trkpt lat="43.9596222" lon="10.5750265"><ele>783.5999999999999</ele><time>2026-05-03T13:03:25.98Z</time></trkpt><trkpt lat="43.9595421" lon="10.5750883"><ele>785.8</ele><time>2026-05-03T13:03:28.002Z</time></trkpt><trkpt lat="43.959451" lon="10.5751228"><ele>788.0</ele><time>2026-05-03T13:03:29.993Z</time></trkpt><trkpt lat="43.9593444" lon="10.5751542"><ele>788.0</ele><time>2026-05-03T13:03:31.994Z</time></trkpt><trkpt lat="43.9592501" lon="10.5751935"><ele>788.0</ele><time>2026-05-03T13:03:33.987Z</time></trkpt><trkpt lat="43.9591456" lon="10.5752361"><ele>788.0</ele><time>2026-05-03T13:03:35.991Z</time></trkpt><trkpt lat="43.9590507" lon="10.5752854"><ele>788.0</ele><time>2026-05-03T13:03:37.991Z</time></trkpt><trkpt lat="43.9589555" lon="10.5753405"><ele>788.0</ele><time>2026-05-03T13:03:39.989Z</time></trkpt><trkpt lat="43.9588328" lon="10.5753823"><ele>785.5999999999999</ele><time>2026-05-03T13:03:41.989Z</time></trkpt><trkpt lat="43.9587162" lon="10.5754268"><ele>783.1999999999999</ele><time>2026-05-03T13:03:43.992Z</time></trkpt><trkpt lat="43.9586457" lon="10.575457"><ele>780.8</ele><time>2026-05-03T13:03:45.008Z</time></trkpt><trkpt lat="43.9585852" lon="10.5754892"><ele>778.4</ele><time>2026-05-03T13:03:45.986Z</time></trkpt><trkpt lat="43.9584832" lon="10.575537"><ele>776.0</ele><time>2026-05-03T13:03:47.99Z</time></trkpt><trkpt lat="43.958379" lon="10.5755937"><ele>777.8333333333334</ele><time>2026-05-03T13:03:49.997Z</time></trkpt><trkpt lat="43.9582964" lon="10.5755996"><ele>779.6666666666667</ele><time>2026-05-03T13:03:52Z</time></trkpt><trkpt lat="43.9582298" lon="10.5756106"><ele>781.5</ele><time>2026-05-03T13:03:53.988Z</time></trkpt><trkpt lat="43.9581622" lon="10.5756577"><ele>783.3333333333333</ele><time>2026-05-03T13:03:55.994Z</time></trkpt><trkpt lat="43.9580916" lon="10.57568"><ele>785.1666666666666</ele><time>2026-05-03T13:04:00.982Z</time></trkpt><trkpt lat="43.9580385" lon="10.5757446"><ele>787.0</ele><time>2026-05-03T13:04:02.981Z</time></trkpt><trkpt lat="43.9580031" lon="10.5758657"><ele>786.9999999999999</ele><time>2026-05-03T13:04:04.97Z</time></trkpt><trkpt lat="43.9579898" lon="10.575956"><ele>787.0</ele><time>2026-05-03T13:04:05.976Z</time></trkpt><trkpt lat="43.9579957" lon="10.5760932"><ele>787.0</ele><time>2026-05-03T13:04:07.973Z</time></trkpt><trkpt lat="43.9580379" lon="10.5761704"><ele>787.0</ele><time>2026-05-03T13:04:09.975Z</time></trkpt><trkpt lat="43.9581226" lon="10.5761732"><ele>786.9999999999999</ele><time>2026-05-03T13:04:12.978Z</time></trkpt><trkpt lat="43.9582068" lon="10.5760994"><ele>787.0</ele><time>2026-05-03T13:04:14.984Z</time></trkpt><trkpt lat="43.9582758" lon="10.576052"><ele>787.0</ele><time>2026-05-03T13:04:16.97Z</time></trkpt><trkpt lat="43.9583466" lon="10.5760907"><ele>787.0</ele><time>2026-05-03T13:04:19.962Z</time></trkpt><trkpt lat="43.9583588" lon="10.576197"><ele>787.0</ele><time>2026-05-03T13:04:21.966Z</time></trkpt><trkpt lat="43.9583419" lon="10.5763414"><ele>787.0</ele><time>2026-05-03T13:04:23.969Z</time></trkpt><trkpt lat="43.9583282" lon="10.5764844"><ele>787.0</ele><time>2026-05-03T13:04:25.966Z</time></trkpt><trkpt lat="43.9583091" lon="10.576613"><ele>784.6666666666666</ele><time>2026-05-03T13:04:27.965Z</time></trkpt><trkpt lat="43.9582673" lon="10.5767032"><ele>782.3333333333333</ele><time>2026-05-03T13:04:29.96Z</time></trkpt><trkpt lat="43.9581777" lon="10.5767433"><ele>780.0</ele><time>2026-05-03T13:04:31.962Z</time></trkpt><trkpt lat="43.9581191" lon="10.5768131"><ele>777.6666666666667</ele><time>2026-05-03T13:04:33.966Z</time></trkpt><trkpt lat="43.9580668" lon="10.5769229"><ele>775.3333333333334</ele><time>2026-05-03T13:04:35.956Z</time></trkpt><trkpt lat="43.9580634" lon="10.5770379"><ele>773.0</ele><time>2026-05-03T13:04:37.964Z</time></trkpt><trkpt lat="43.9580581" lon="10.5771393"><ele>769.2</ele><time>2026-05-03T13:04:39.967Z</time></trkpt><trkpt lat="43.9579873" lon="10.5772065"><ele>765.4</ele><time>2026-05-03T13:04:42.955Z</time></trkpt><trkpt lat="43.9578941" lon="10.577254"><ele>761.6</ele><time>2026-05-03T13:04:44.958Z</time></trkpt><trkpt lat="43.9577932" lon="10.5772723"><ele>757.8000000000001</ele><time>2026-05-03T13:04:46.955Z</time></trkpt><trkpt lat="43.9577753" lon="10.577369"><ele>754.0</ele><time>2026-05-03T13:04:52.953Z</time></trkpt><trkpt lat="43.9578935" lon="10.5774188"><ele>754.0</ele><time>2026-05-03T13:04:56.946Z</time></trkpt><trkpt lat="43.9579837" lon="10.5774219"><ele>754.0</ele><time>2026-05-03T13:04:57.943Z</time></trkpt><trkpt lat="43.9580856" lon="10.5774117"><ele>754.0</ele><time>2026-05-03T13:04:58.946Z</time></trkpt><trkpt lat="43.9581525" lon="10.5774053"><ele>754.0</ele><time>2026-05-03T13:04:59.944Z</time></trkpt><trkpt lat="43.9582107" lon="10.5773561"><ele>754.0</ele><time>2026-05-03T13:05:00.959Z</time></trkpt><trkpt lat="43.9583223" lon="10.5772818"><ele>754.2</ele><time>2026-05-03T13:05:02.954Z</time></trkpt><trkpt lat="43.9584336" lon="10.5772143"><ele>754.4000000000001</ele><time>2026-05-03T13:05:04.97Z</time></trkpt><trkpt lat="43.9584958" lon="10.577155"><ele>754.6</ele><time>2026-05-03T13:05:05.966Z</time></trkpt><trkpt lat="43.9585553" lon="10.5770707"><ele>754.8</ele><time>2026-05-03T13:05:06.958Z</time></trkpt><trkpt lat="43.9586121" lon="10.5769809"><ele>755.0</ele><time>2026-05-03T13:05:07.96Z</time></trkpt><trkpt lat="43.9586724" lon="10.5768916"><ele>755.0</ele><time>2026-05-03T13:05:08.956Z</time></trkpt><trkpt lat="43.9587238" lon="10.5768256"><ele>755.0</ele><time>2026-05-03T13:05:09.955Z</time></trkpt><trkpt lat="43.9588134" lon="10.5767978"><ele>755.0</ele><time>2026-05-03T13:05:11.948Z</time></trkpt><trkpt lat="43.9588954" lon="10.5768603"><ele>755.0</ele><time>2026-05-03T13:05:13.942Z</time></trkpt><trkpt lat="43.9589541" lon="10.5769278"><ele>755.0</ele><time>2026-05-03T13:05:14.95Z</time></trkpt><trkpt lat="43.9590206" lon="10.5769652"><ele>755.0</ele><time>2026-05-03T13:05:15.962Z</time></trkpt><trkpt lat="43.9590994" lon="10.5769912"><ele>755.0</ele><time>2026-05-03T13:05:16.946Z</time></trkpt><trkpt lat="43.9591803" lon="10.5769751"><ele>755.0</ele><time>2026-05-03T13:05:17.951Z</time></trkpt><trkpt lat="43.9592713" lon="10.576949"><ele>755.0</ele><time>2026-05-03T13:05:18.951Z</time></trkpt><trkpt lat="43.9593679" lon="10.5769441"><ele>755.0</ele><time>2026-05-03T13:05:19.953Z</time></trkpt><trkpt lat="43.9594657" lon="10.5769441"><ele>755.0</ele><time>2026-05-03T13:05:20.953Z</time></trkpt><trkpt lat="43.9595624" lon="10.5769369"><ele>755.0</ele><time>2026-05-03T13:05:21.948Z</time></trkpt><trkpt lat="43.9596538" lon="10.5769119"><ele>755.0</ele><time>2026-05-03T13:05:22.948Z</time></trkpt><trkpt lat="43.959728" lon="10.5768743"><ele>755.0</ele><time>2026-05-03T13:05:23.957Z</time></trkpt><trkpt lat="43.9598061" lon="10.5768085"><ele>755.0</ele><time>2026-05-03T13:05:24.955Z</time></trkpt><trkpt lat="43.959884" lon="10.5767446"><ele>755.0</ele><time>2026-05-03T13:05:25.956Z</time></trkpt><trkpt lat="43.9599689" lon="10.57673"><ele>755.0</ele><time>2026-05-03T13:05:26.965Z</time></trkpt><trkpt lat="43.9600467" lon="10.576736"><ele>754.0</ele><time>2026-05-03T13:05:27.958Z</time></trkpt><trkpt lat="43.9601202" lon="10.5767565"><ele>753.0</ele><time>2026-05-03T13:05:28.958Z</time></trkpt><trkpt lat="43.9601973" lon="10.5767765"><ele>752.0</ele><time>2026-05-03T13:05:29.969Z</time></trkpt><trkpt lat="43.9602717" lon="10.5767965"><ele>751.0</ele><time>2026-05-03T13:05:30.966Z</time></trkpt><trkpt lat="43.9603458" lon="10.5768033"><ele>750.0</ele><time>2026-05-03T13:05:31.964Z</time></trkpt><trkpt lat="43.9604328" lon="10.5767901"><ele>749.0</ele><time>2026-05-03T13:05:32.96Z</time></trkpt><trkpt lat="43.9605221" lon="10.5767631"><ele>749.0</ele><time>2026-05-03T13:05:33.967Z</time></trkpt><trkpt lat="43.9606126" lon="10.5767342"><ele>749.0</ele><time>2026-05-03T13:05:34.97Z</time></trkpt><trkpt lat="43.9606965" lon="10.5767272"><ele>749.0</ele><time>2026-05-03T13:05:35.965Z</time></trkpt><trkpt lat="43.960789" lon="10.5767156"><ele>749.0</ele><time>2026-05-03T13:05:36.967Z</time></trkpt><trkpt lat="43.9608683" lon="10.5767037"><ele>749.0</ele><time>2026-05-03T13:05:37.972Z</time></trkpt><trkpt lat="43.9609382" lon="10.5766992"><ele>749.0</ele><time>2026-05-03T13:05:38.98Z</time></trkpt><trkpt lat="43.9610592" lon="10.5767024"><ele>748.8333333333333</ele><time>2026-05-03T13:05:40.975Z</time></trkpt><trkpt lat="43.9611098" lon="10.5766424"><ele>748.6666666666666</ele><time>2026-05-03T13:05:42.967Z</time></trkpt><trkpt lat="43.9611115" lon="10.5764689"><ele>748.5</ele><time>2026-05-03T13:05:44.959Z</time></trkpt><trkpt lat="43.9611102" lon="10.5763425"><ele>748.3333333333334</ele><time>2026-05-03T13:05:45.963Z</time></trkpt><trkpt lat="43.9611197" lon="10.5762272"><ele>748.1666666666667</ele><time>2026-05-03T13:05:46.983Z</time></trkpt><trkpt lat="43.9611478" lon="10.5761311"><ele>748.0</ele><time>2026-05-03T13:05:47.957Z</time></trkpt><trkpt lat="43.9611834" lon="10.5760536"><ele>748.0</ele><time>2026-05-03T13:05:48.968Z</time></trkpt><trkpt lat="43.9612843" lon="10.5759932"><ele>748.0</ele><time>2026-05-03T13:05:50.964Z</time></trkpt><trkpt lat="43.9614085" lon="10.5759976"><ele>748.0</ele><time>2026-05-03T13:05:52.959Z</time></trkpt><trkpt lat="43.9614829" lon="10.5759955"><ele>748.0</ele><time>2026-05-03T13:05:53.954Z</time></trkpt><trkpt lat="43.9615594" lon="10.5759924"><ele>748.0</ele><time>2026-05-03T13:05:54.969Z</time></trkpt><trkpt lat="43.9616289" lon="10.5759317"><ele>748.0</ele><time>2026-05-03T13:05:55.96Z</time></trkpt><trkpt lat="43.9616833" lon="10.5758366"><ele>748.0</ele><time>2026-05-03T13:05:56.957Z</time></trkpt><trkpt lat="43.9617382" lon="10.5757602"><ele>748.0</ele><time>2026-05-03T13:05:57.955Z</time></trkpt><trkpt lat="43.961791" lon="10.5756888"><ele>748.0</ele><time>2026-05-03T13:05:58.96Z</time></trkpt><trkpt lat="43.9618626" lon="10.5756759"><ele>748.0</ele><time>2026-05-03T13:05:59.962Z</time></trkpt><trkpt lat="43.961925" lon="10.5757071"><ele>748.0</ele><time>2026-05-03T13:06:00.958Z</time></trkpt><trkpt lat="43.9620207" lon="10.5758438"><ele>745.5</ele><time>2026-05-03T13:06:02.962Z</time></trkpt><trkpt lat="43.9621303" lon="10.5759102"><ele>743.0</ele><time>2026-05-03T13:06:04.964Z</time></trkpt><trkpt lat="43.9621919" lon="10.5759412"><ele>740.5</ele><time>2026-05-03T13:06:05.964Z</time></trkpt><trkpt lat="43.9622567" lon="10.5759464"><ele>738.0</ele><time>2026-05-03T13:06:06.965Z</time></trkpt><trkpt lat="43.9623265" lon="10.5759396"><ele>735.5</ele><time>2026-05-03T13:06:07.967Z</time></trkpt><trkpt lat="43.9623935" lon="10.575934"><ele>733.0</ele><time>2026-05-03T13:06:08.962Z</time></trkpt><trkpt lat="43.9624972" lon="10.5758864"><ele>726.5</ele><time>2026-05-03T13:06:10.967Z</time></trkpt><trkpt lat="43.9625758" lon="10.5757998"><ele>720.0</ele><time>2026-05-03T13:06:12.968Z</time></trkpt><trkpt lat="43.9626146" lon="10.5756349"><ele>713.5</ele><time>2026-05-03T13:06:14.977Z</time></trkpt><trkpt lat="43.9626815" lon="10.5755302"><ele>707.0</ele><time>2026-05-03T13:06:17.006Z</time></trkpt><trkpt lat="43.9628058" lon="10.5754899"><ele>707.0</ele><time>2026-05-03T13:06:18.971Z</time></trkpt><trkpt lat="43.9628779" lon="10.575469"><ele>707.0</ele><time>2026-05-03T13:06:19.975Z</time></trkpt><trkpt lat="43.9629454" lon="10.5754354"><ele>707.0</ele><time>2026-05-03T13:06:20.975Z</time></trkpt><trkpt lat="43.9630352" lon="10.5753124"><ele>707.0</ele><time>2026-05-03T13:06:22.984Z</time></trkpt><trkpt lat="43.9630736" lon="10.575228"><ele>707.0</ele><time>2026-05-03T13:06:23.978Z</time></trkpt><trkpt lat="43.963094" lon="10.5751452"><ele>707.0</ele><time>2026-05-03T13:06:24.974Z</time></trkpt><trkpt lat="43.9630977" lon="10.5750508"><ele>709.1666666666666</ele><time>2026-05-03T13:06:25.977Z</time></trkpt><trkpt lat="43.9630917" lon="10.5749453"><ele>711.3333333333333</ele><time>2026-05-03T13:06:26.976Z</time></trkpt><trkpt lat="43.9630774" lon="10.5748218"><ele>713.5</ele><time>2026-05-03T13:06:27.972Z</time></trkpt><trkpt lat="43.9630728" lon="10.5747102"><ele>715.6666666666666</ele><time>2026-05-03T13:06:28.975Z</time></trkpt><trkpt lat="43.963068" lon="10.5745771"><ele>717.8333333333334</ele><time>2026-05-03T13:06:30.972Z</time></trkpt><trkpt lat="43.9631278" lon="10.5745135"><ele>720.0</ele><time>2026-05-03T13:06:32.962Z</time></trkpt><trkpt lat="43.9632529" lon="10.574556"><ele>720.0</ele><time>2026-05-03T13:06:34.952Z</time></trkpt><trkpt lat="43.9633211" lon="10.5745817"><ele>720.0</ele><time>2026-05-03T13:06:35.957Z</time></trkpt><trkpt lat="43.9633858" lon="10.5745802"><ele>720.0</ele><time>2026-05-03T13:06:36.948Z</time></trkpt><trkpt lat="43.9634473" lon="10.5745357"><ele>720.0</ele><time>2026-05-03T13:06:37.951Z</time></trkpt><trkpt lat="43.963505" lon="10.5744893"><ele>720.0</ele><time>2026-05-03T13:06:38.946Z</time></trkpt><trkpt lat="43.9635529" lon="10.5744283"><ele>720.0</ele><time>2026-05-03T13:06:39.949Z</time></trkpt><trkpt lat="43.9636239" lon="10.574362"><ele>720.0</ele><time>2026-05-03T13:06:41.946Z</time></trkpt><trkpt lat="43.9636884" lon="10.5743535"><ele>720.1666666666666</ele><time>2026-05-03T13:06:42.944Z</time></trkpt><trkpt lat="43.9637682" lon="10.5743612"><ele>720.3333333333334</ele><time>2026-05-03T13:06:43.945Z</time></trkpt><trkpt lat="43.9638392" lon="10.5743797"><ele>720.5</ele><time>2026-05-03T13:06:44.948Z</time></trkpt><trkpt lat="43.9639314" lon="10.5744157"><ele>720.6666666666667</ele><time>2026-05-03T13:06:45.947Z</time></trkpt><trkpt lat="43.9640032" lon="10.5744709"><ele>720.8333333333334</ele><time>2026-05-03T13:06:46.955Z</time></trkpt><trkpt lat="43.9640803" lon="10.5745107"><ele>721.0</ele><time>2026-05-03T13:06:47.975Z</time></trkpt><trkpt lat="43.9642066" lon="10.5745442"><ele>719.8333333333334</ele><time>2026-05-03T13:06:49.958Z</time></trkpt><trkpt lat="43.9642757" lon="10.5745474"><ele>718.6666666666667</ele><time>2026-05-03T13:06:50.96Z</time></trkpt><trkpt lat="43.964358" lon="10.5744787"><ele>717.5</ele><time>2026-05-03T13:06:52.967Z</time></trkpt><trkpt lat="43.9643664" lon="10.5743006"><ele>716.3333333333334</ele><time>2026-05-03T13:06:54.958Z</time></trkpt><trkpt lat="43.9643876" lon="10.5742108"><ele>715.1666666666666</ele><time>2026-05-03T13:06:55.957Z</time></trkpt><trkpt lat="43.964431" lon="10.5741384"><ele>714.0</ele><time>2026-05-03T13:06:56.956Z</time></trkpt><trkpt lat="43.9645541" lon="10.5741086"><ele>714.0</ele><time>2026-05-03T13:06:58.954Z</time></trkpt><trkpt lat="43.9646336" lon="10.5741206"><ele>714.0</ele><time>2026-05-03T13:06:59.953Z</time></trkpt><trkpt lat="43.9647233" lon="10.5740626"><ele>714.0</ele><time>2026-05-03T13:07:01.966Z</time></trkpt><trkpt lat="43.9647558" lon="10.5739868"><ele>714.0</ele><time>2026-05-03T13:07:02.95Z</time></trkpt><trkpt lat="43.9647764" lon="10.5738924"><ele>714.0</ele><time>2026-05-03T13:07:03.959Z</time></trkpt><trkpt lat="43.964809" lon="10.5737978"><ele>714.0</ele><time>2026-05-03T13:07:04.952Z</time></trkpt><trkpt lat="43.9648399" lon="10.5737172"><ele>714.0</ele><time>2026-05-03T13:07:05.949Z</time></trkpt><trkpt lat="43.9649054" lon="10.5736489"><ele>714.0</ele><time>2026-05-03T13:07:07.94Z</time></trkpt><trkpt lat="43.9649618" lon="10.5737226"><ele>714.0</ele><time>2026-05-03T13:07:11.935Z</time></trkpt><trkpt lat="43.9649996" lon="10.5738054"><ele>714.0</ele><time>2026-05-03T13:07:12.937Z</time></trkpt><trkpt lat="43.9650541" lon="10.5739786"><ele>714.0</ele><time>2026-05-03T13:07:13.935Z</time></trkpt><trkpt lat="43.9651453" lon="10.5741993"><ele>711.4000000000001</ele><time>2026-05-03T13:07:14.935Z</time></trkpt><trkpt lat="43.9652418" lon="10.5743346"><ele>708.8</ele><time>2026-05-03T13:07:15.935Z</time></trkpt><trkpt lat="43.9653278" lon="10.5744095"><ele>706.2</ele><time>2026-05-03T13:07:16.935Z</time></trkpt><trkpt lat="43.9654076" lon="10.5744743"><ele>703.5999999999999</ele><time>2026-05-03T13:07:17.936Z</time></trkpt><trkpt lat="43.9654826" lon="10.5745004"><ele>701.0</ele><time>2026-05-03T13:07:18.96Z</time></trkpt><trkpt lat="43.9655461" lon="10.5744823"><ele>701.0</ele><time>2026-05-03T13:07:19.946Z</time></trkpt><trkpt lat="43.9656399" lon="10.574381"><ele>701.0</ele><time>2026-05-03T13:07:21.963Z</time></trkpt><trkpt lat="43.9656751" lon="10.5743034"><ele>701.0</ele><time>2026-05-03T13:07:22.972Z</time></trkpt><trkpt lat="43.9657007" lon="10.5741971"><ele>701.0</ele><time>2026-05-03T13:07:23.97Z</time></trkpt><trkpt lat="43.9657271" lon="10.5740755"><ele>701.0</ele><time>2026-05-03T13:07:24.964Z</time></trkpt><trkpt lat="43.9657655" lon="10.5739593"><ele>701.0</ele><time>2026-05-03T13:07:25.977Z</time></trkpt><trkpt lat="43.9658208" lon="10.5738425"><ele>698.1666666666666</ele><time>2026-05-03T13:07:26.979Z</time></trkpt><trkpt lat="43.9658965" lon="10.5737343"><ele>695.3333333333333</ele><time>2026-05-03T13:07:27.972Z</time></trkpt><trkpt lat="43.9659638" lon="10.5736391"><ele>692.5</ele><time>2026-05-03T13:07:28.974Z</time></trkpt><trkpt lat="43.9660256" lon="10.5735566"><ele>689.6666666666666</ele><time>2026-05-03T13:07:29.967Z</time></trkpt><trkpt lat="43.9660892" lon="10.5734981"><ele>686.8333333333334</ele><time>2026-05-03T13:07:30.97Z</time></trkpt><trkpt lat="43.966157" lon="10.5734557"><ele>684.0</ele><time>2026-05-03T13:07:31.982Z</time></trkpt><trkpt lat="43.9662235" lon="10.5734043"><ele>684.0</ele><time>2026-05-03T13:07:32.973Z</time></trkpt><trkpt lat="43.9662753" lon="10.5733289"><ele>684.0</ele><time>2026-05-03T13:07:33.966Z</time></trkpt><trkpt lat="43.9663123" lon="10.5731819"><ele>684.0</ele><time>2026-05-03T13:07:35.97Z</time></trkpt><trkpt lat="43.9662482" lon="10.5730586"><ele>684.0</ele><time>2026-05-03T13:07:37.964Z</time></trkpt><trkpt lat="43.9662043" lon="10.5729672"><ele>684.0</ele><time>2026-05-03T13:07:38.966Z</time></trkpt><trkpt lat="43.9661892" lon="10.5728716"><ele>684.0</ele><time>2026-05-03T13:07:39.966Z</time></trkpt><trkpt lat="43.9661921" lon="10.5727792"><ele>684.25</ele><time>2026-05-03T13:07:40.969Z</time></trkpt><trkpt lat="43.9662427" lon="10.5726211"><ele>684.5</ele><time>2026-05-03T13:07:42.976Z</time></trkpt><trkpt lat="43.9662347" lon="10.5724803"><ele>684.75</ele><time>2026-05-03T13:07:44.975Z</time></trkpt><trkpt lat="43.9661622" lon="10.5723135"><ele>685.0</ele><time>2026-05-03T13:07:46.983Z</time></trkpt><trkpt lat="43.9661114" lon="10.5721796"><ele>685.0</ele><time>2026-05-03T13:07:47.988Z</time></trkpt><trkpt lat="43.9660595" lon="10.5720438"><ele>685.0</ele><time>2026-05-03T13:07:48.99Z</time></trkpt><trkpt lat="43.9660246" lon="10.571935"><ele>685.0</ele><time>2026-05-03T13:07:50.009Z</time></trkpt><trkpt lat="43.9659827" lon="10.5718467"><ele>685.0</ele><time>2026-05-03T13:07:50.989Z</time></trkpt><trkpt lat="43.9659321" lon="10.5717827"><ele>685.0</ele><time>2026-05-03T13:07:51.995Z</time></trkpt><trkpt lat="43.9658566" lon="10.5716824"><ele>685.0</ele><time>2026-05-03T13:07:53.992Z</time></trkpt><trkpt lat="43.9658325" lon="10.5715889"><ele>683.25</ele><time>2026-05-03T13:07:55.996Z</time></trkpt><trkpt lat="43.9658681" lon="10.571456"><ele>681.5</ele><time>2026-05-03T13:07:57.991Z</time></trkpt><trkpt lat="43.965922" lon="10.5712644"><ele>679.75</ele><time>2026-05-03T13:07:59.987Z</time></trkpt><trkpt lat="43.9659502" lon="10.5711405"><ele>678.0</ele><time>2026-05-03T13:08:00.998Z</time></trkpt><trkpt lat="43.9659798" lon="10.5709965"><ele>678.0</ele><time>2026-05-03T13:08:01.996Z</time></trkpt><trkpt lat="43.966012" lon="10.57087"><ele>678.0</ele><time>2026-05-03T13:08:02.985Z</time></trkpt><trkpt lat="43.9660469" lon="10.5707567"><ele>678.0</ele><time>2026-05-03T13:08:03.983Z</time></trkpt><trkpt lat="43.9660734" lon="10.5706628"><ele>678.0</ele><time>2026-05-03T13:08:04.982Z</time></trkpt><trkpt lat="43.9661219" lon="10.5705912"><ele>678.0</ele><time>2026-05-03T13:08:05.991Z</time></trkpt><trkpt lat="43.9661711" lon="10.5705252"><ele>678.0</ele><time>2026-05-03T13:08:06.997Z</time></trkpt><trkpt lat="43.9662198" lon="10.5703644"><ele>676.8</ele><time>2026-05-03T13:08:08.988Z</time></trkpt><trkpt lat="43.9662078" lon="10.5702007"><ele>675.5999999999999</ele><time>2026-05-03T13:08:10.989Z</time></trkpt><trkpt lat="43.9661544" lon="10.5700433"><ele>674.4000000000001</ele><time>2026-05-03T13:08:12.991Z</time></trkpt><trkpt lat="43.9661243" lon="10.5699649"><ele>673.2</ele><time>2026-05-03T13:08:13.985Z</time></trkpt><trkpt lat="43.9660858" lon="10.5698811"><ele>672.0</ele><time>2026-05-03T13:08:14.98Z</time></trkpt><trkpt lat="43.966084" lon="10.5697286"><ele>672.0</ele><time>2026-05-03T13:08:16.978Z</time></trkpt><trkpt lat="43.9661801" lon="10.5696253"><ele>672.0</ele><time>2026-05-03T13:08:18.983Z</time></trkpt><trkpt lat="43.9662936" lon="10.5695639"><ele>672.0</ele><time>2026-05-03T13:08:21Z</time></trkpt><trkpt lat="43.9663547" lon="10.5695249"><ele>672.0</ele><time>2026-05-03T13:08:21.977Z</time></trkpt><trkpt lat="43.9664555" lon="10.5694917"><ele>672.0</ele><time>2026-05-03T13:08:23.978Z</time></trkpt><trkpt lat="43.9665522" lon="10.5695365"><ele>672.0</ele><time>2026-05-03T13:08:25.984Z</time></trkpt><trkpt lat="43.9666135" lon="10.5695862"><ele>672.0</ele><time>2026-05-03T13:08:26.98Z</time></trkpt><trkpt lat="43.9666924" lon="10.5696456"><ele>672.0</ele><time>2026-05-03T13:08:27.983Z</time></trkpt><trkpt lat="43.966757" lon="10.5696908"><ele>672.0</ele><time>2026-05-03T13:08:28.985Z</time></trkpt><trkpt lat="43.9668277" lon="10.5697162"><ele>672.0</ele><time>2026-05-03T13:08:29.982Z</time></trkpt><trkpt lat="43.9669" lon="10.5697307"><ele>672.0</ele><time>2026-05-03T13:08:30.987Z</time></trkpt><trkpt lat="43.9669738" lon="10.5698136"><ele>666.8333333333334</ele><time>2026-05-03T13:08:32.979Z</time></trkpt><trkpt lat="43.9669985" lon="10.5699314"><ele>661.6666666666666</ele><time>2026-05-03T13:08:34.982Z</time></trkpt><trkpt lat="43.966999" lon="10.5700702"><ele>656.5</ele><time>2026-05-03T13:08:36.969Z</time></trkpt><trkpt lat="43.9670696" lon="10.5701318"><ele>651.3333333333333</ele><time>2026-05-03T13:08:38.961Z</time></trkpt><trkpt lat="43.967131" lon="10.5700077"><ele>646.1666666666666</ele><time>2026-05-03T13:08:41.973Z</time></trkpt><trkpt lat="43.9671582" lon="10.5699216"><ele>641.0</ele><time>2026-05-03T13:08:42.968Z</time></trkpt><trkpt lat="43.9671662" lon="10.5698048"><ele>641.0</ele><time>2026-05-03T13:08:43.969Z</time></trkpt><trkpt lat="43.9671541" lon="10.5696753"><ele>641.0</ele><time>2026-05-03T13:08:44.974Z</time></trkpt><trkpt lat="43.9671272" lon="10.5695495"><ele>641.0</ele><time>2026-05-03T13:08:45.976Z</time></trkpt><trkpt lat="43.9671136" lon="10.5694396"><ele>641.0</ele><time>2026-05-03T13:08:46.974Z</time></trkpt><trkpt lat="43.9671083" lon="10.5693486"><ele>641.0</ele><time>2026-05-03T13:08:47.978Z</time></trkpt><trkpt lat="43.9671494" lon="10.5692037"><ele>641.0</ele><time>2026-05-03T13:08:49.978Z</time></trkpt><trkpt lat="43.9672453" lon="10.5691484"><ele>641.3333333333333</ele><time>2026-05-03T13:08:51.985Z</time></trkpt><trkpt lat="43.9673083" lon="10.5691635"><ele>641.6666666666666</ele><time>2026-05-03T13:08:52.968Z</time></trkpt><trkpt lat="43.9673858" lon="10.5691943"><ele>642.0</ele><time>2026-05-03T13:08:53.971Z</time></trkpt><trkpt lat="43.9674655" lon="10.56922"><ele>642.3333333333334</ele><time>2026-05-03T13:08:54.965Z</time></trkpt><trkpt lat="43.9675404" lon="10.5692386"><ele>642.6666666666667</ele><time>2026-05-03T13:08:55.958Z</time></trkpt><trkpt lat="43.9676047" lon="10.5692469"><ele>643.0</ele><time>2026-05-03T13:08:56.962Z</time></trkpt><trkpt lat="43.9677078" lon="10.5691866"><ele>640.8333333333334</ele><time>2026-05-03T13:08:58.962Z</time></trkpt><trkpt lat="43.9677571" lon="10.5691228"><ele>638.6666666666667</ele><time>2026-05-03T13:08:59.966Z</time></trkpt><trkpt lat="43.9678071" lon="10.5690293"><ele>636.5</ele><time>2026-05-03T13:09:00.968Z</time></trkpt><trkpt lat="43.9678594" lon="10.5689276"><ele>634.3333333333334</ele><time>2026-05-03T13:09:01.976Z</time></trkpt><trkpt lat="43.9679083" lon="10.5688484"><ele>632.1666666666666</ele><time>2026-05-03T13:09:02.982Z</time></trkpt><trkpt lat="43.9679662" lon="10.5687663"><ele>630.0</ele><time>2026-05-03T13:09:03.976Z</time></trkpt><trkpt lat="43.9680289" lon="10.5686927"><ele>630.0</ele><time>2026-05-03T13:09:04.969Z</time></trkpt><trkpt lat="43.9681082" lon="10.5686371"><ele>630.0</ele><time>2026-05-03T13:09:05.975Z</time></trkpt><trkpt lat="43.9681885" lon="10.5685834"><ele>630.0</ele><time>2026-05-03T13:09:06.991Z</time></trkpt><trkpt lat="43.9682608" lon="10.5685388"><ele>630.0</ele><time>2026-05-03T13:09:07.972Z</time></trkpt><trkpt lat="43.9683242" lon="10.5684892"><ele>630.0</ele><time>2026-05-03T13:09:08.97Z</time></trkpt><trkpt lat="43.9683938" lon="10.5684438"><ele>630.0</ele><time>2026-05-03T13:09:09.981Z</time></trkpt><trkpt lat="43.9684559" lon="10.5683907"><ele>626.8571428571429</ele><time>2026-05-03T13:09:10.975Z</time></trkpt><trkpt lat="43.968515" lon="10.5683482"><ele>623.7142857142858</ele><time>2026-05-03T13:09:11.98Z</time></trkpt><trkpt lat="43.9685789" lon="10.5683129"><ele>620.5714285714286</ele><time>2026-05-03T13:09:12.982Z</time></trkpt><trkpt lat="43.9686391" lon="10.5682651"><ele>617.4285714285714</ele><time>2026-05-03T13:09:13.987Z</time></trkpt><trkpt lat="43.9686699" lon="10.5681582"><ele>614.2857142857143</ele><time>2026-05-03T13:09:15.991Z</time></trkpt><trkpt lat="43.9686326" lon="10.5680448"><ele>611.1428571428571</ele><time>2026-05-03T13:09:17.994Z</time></trkpt><trkpt lat="43.9685861" lon="10.5679854"><ele>608.0</ele><time>2026-05-03T13:09:18.988Z</time></trkpt><trkpt lat="43.9685226" lon="10.5679167"><ele>607.1666666666666</ele><time>2026-05-03T13:09:19.991Z</time></trkpt><trkpt lat="43.9684544" lon="10.5678596"><ele>606.3333333333333</ele><time>2026-05-03T13:09:20.985Z</time></trkpt><trkpt lat="43.9683754" lon="10.567808"><ele>605.5</ele><time>2026-05-03T13:09:21.991Z</time></trkpt><trkpt lat="43.9682827" lon="10.5677816"><ele>604.6666666666666</ele><time>2026-05-03T13:09:23.003Z</time></trkpt><trkpt lat="43.968202" lon="10.5677815"><ele>603.8333333333334</ele><time>2026-05-03T13:09:23.979Z</time></trkpt><trkpt lat="43.9681302" lon="10.5677733"><ele>603.0</ele><time>2026-05-03T13:09:24.974Z</time></trkpt><trkpt lat="43.9680441" lon="10.5677178"><ele>603.0</ele><time>2026-05-03T13:09:26.979Z</time></trkpt><trkpt lat="43.968088" lon="10.5676448"><ele>603.0</ele><time>2026-05-03T13:09:29.969Z</time></trkpt><trkpt lat="43.9681514" lon="10.5676091"><ele>603.0</ele><time>2026-05-03T13:09:30.961Z</time></trkpt><trkpt lat="43.9682265" lon="10.5675976"><ele>603.0</ele><time>2026-05-03T13:09:31.966Z</time></trkpt><trkpt lat="43.9682895" lon="10.5675961"><ele>603.0</ele><time>2026-05-03T13:09:32.967Z</time></trkpt><trkpt lat="43.9683636" lon="10.5675879"><ele>603.0</ele><time>2026-05-03T13:09:33.969Z</time></trkpt><trkpt lat="43.9685009" lon="10.5675805"><ele>603.0</ele><time>2026-05-03T13:09:35.964Z</time></trkpt><trkpt lat="43.9685948" lon="10.5675631"><ele>603.0</ele><time>2026-05-03T13:09:36.959Z</time></trkpt><trkpt lat="43.9686786" lon="10.5675307"><ele>603.0</ele><time>2026-05-03T13:09:37.97Z</time></trkpt><trkpt lat="43.9687589" lon="10.5674801"><ele>603.0</ele><time>2026-05-03T13:09:38.975Z</time></trkpt><trkpt lat="43.968838" lon="10.5674413"><ele>603.0</ele><time>2026-05-03T13:09:39.971Z</time></trkpt><trkpt lat="43.9689078" lon="10.5674056"><ele>603.0</ele><time>2026-05-03T13:09:40.972Z</time></trkpt><trkpt lat="43.9689728" lon="10.5674044"><ele>603.0</ele><time>2026-05-03T13:09:41.975Z</time></trkpt><trkpt lat="43.9690387" lon="10.5674286"><ele>603.0</ele><time>2026-05-03T13:09:42.978Z</time></trkpt><trkpt lat="43.9691327" lon="10.567459"><ele>603.0</ele><time>2026-05-03T13:09:43.981Z</time></trkpt><trkpt lat="43.969225" lon="10.567492"><ele>603.0</ele><time>2026-05-03T13:09:44.978Z</time></trkpt><trkpt lat="43.9693044" lon="10.5675224"><ele>603.0</ele><time>2026-05-03T13:09:45.975Z</time></trkpt><trkpt lat="43.9693799" lon="10.5675396"><ele>603.0</ele><time>2026-05-03T13:09:46.976Z</time></trkpt><trkpt lat="43.969449" lon="10.5675583"><ele>600.5</ele><time>2026-05-03T13:09:47.989Z</time></trkpt><trkpt lat="43.9695152" lon="10.5675657"><ele>598.0</ele><time>2026-05-03T13:09:48.978Z</time></trkpt><trkpt lat="43.9695775" lon="10.5675833"><ele>595.5</ele><time>2026-05-03T13:09:49.971Z</time></trkpt><trkpt lat="43.9696718" lon="10.5676344"><ele>593.0</ele><time>2026-05-03T13:09:51.973Z</time></trkpt><trkpt lat="43.9697211" lon="10.5677314"><ele>590.5</ele><time>2026-05-03T13:09:53.996Z</time></trkpt><trkpt lat="43.9697532" lon="10.5678698"><ele>588.0</ele><time>2026-05-03T13:09:55.983Z</time></trkpt><trkpt lat="43.9697382" lon="10.5680203"><ele>588.0</ele><time>2026-05-03T13:09:57.977Z</time></trkpt><trkpt lat="43.9696997" lon="10.5681242"><ele>588.0</ele><time>2026-05-03T13:09:58.979Z</time></trkpt><trkpt lat="43.9696712" lon="10.568235"><ele>588.0</ele><time>2026-05-03T13:09:59.976Z</time></trkpt><trkpt lat="43.9696625" lon="10.5683412"><ele>588.0</ele><time>2026-05-03T13:10:00.976Z</time></trkpt><trkpt lat="43.9696628" lon="10.5684458"><ele>588.0</ele><time>2026-05-03T13:10:01.981Z</time></trkpt><trkpt lat="43.969673" lon="10.5685464"><ele>588.0</ele><time>2026-05-03T13:10:02.981Z</time></trkpt><trkpt lat="43.9696929" lon="10.5686295"><ele>588.0</ele><time>2026-05-03T13:10:03.979Z</time></trkpt><trkpt lat="43.9697407" lon="10.5687166"><ele>588.0</ele><time>2026-05-03T13:10:05.985Z</time></trkpt><trkpt lat="43.9698224" lon="10.568665"><ele>588.0</ele><time>2026-05-03T13:10:08.973Z</time></trkpt><trkpt lat="43.9698291" lon="10.5685478"><ele>588.0</ele><time>2026-05-03T13:10:10.984Z</time></trkpt><trkpt lat="43.9698114" lon="10.5684021"><ele>588.0</ele><time>2026-05-03T13:10:12.976Z</time></trkpt><trkpt lat="43.9698096" lon="10.5683086"><ele>588.0</ele><time>2026-05-03T13:10:13.979Z</time></trkpt><trkpt lat="43.9698712" lon="10.5681856"><ele>588.0</ele><time>2026-05-03T13:10:15.966Z</time></trkpt><trkpt lat="43.9699986" lon="10.5681457"><ele>588.0</ele><time>2026-05-03T13:10:17.958Z</time></trkpt><trkpt lat="43.9700959" lon="10.5681338"><ele>588.0</ele><time>2026-05-03T13:10:18.959Z</time></trkpt><trkpt lat="43.9701876" lon="10.5681473"><ele>588.0</ele><time>2026-05-03T13:10:19.969Z</time></trkpt><trkpt lat="43.9702616" lon="10.5681651"><ele>588.0</ele><time>2026-05-03T13:10:20.965Z</time></trkpt><trkpt lat="43.970329" lon="10.5681581"><ele>584.8333333333334</ele><time>2026-05-03T13:10:21.962Z</time></trkpt><trkpt lat="43.9703875" lon="10.5681111"><ele>581.6666666666666</ele><time>2026-05-03T13:10:22.966Z</time></trkpt><trkpt lat="43.9704408" lon="10.5680475"><ele>578.5</ele><time>2026-05-03T13:10:23.966Z</time></trkpt><trkpt lat="43.9704854" lon="10.567976"><ele>575.3333333333333</ele><time>2026-05-03T13:10:24.987Z</time></trkpt><trkpt lat="43.9705476" lon="10.5678341"><ele>572.1666666666666</ele><time>2026-05-03T13:10:26.979Z</time></trkpt><trkpt lat="43.9705598" lon="10.5676928"><ele>569.0</ele><time>2026-05-03T13:10:28.982Z</time></trkpt><trkpt lat="43.9704708" lon="10.5675975"><ele>569.0</ele><time>2026-05-03T13:10:30.969Z</time></trkpt><trkpt lat="43.9704093" lon="10.5675615"><ele>569.0</ele><time>2026-05-03T13:10:31.968Z</time></trkpt><trkpt lat="43.9703537" lon="10.56751"><ele>569.0</ele><time>2026-05-03T13:10:32.972Z</time></trkpt><trkpt lat="43.9702948" lon="10.5673968"><ele>569.0</ele><time>2026-05-03T13:10:34.965Z</time></trkpt><trkpt lat="43.9703151" lon="10.5673096"><ele>569.0</ele><time>2026-05-03T13:10:36.971Z</time></trkpt><trkpt lat="43.9704179" lon="10.5673177"><ele>569.0</ele><time>2026-05-03T13:10:38.967Z</time></trkpt><trkpt lat="43.9704873" lon="10.5673364"><ele>569.0</ele><time>2026-05-03T13:10:39.974Z</time></trkpt><trkpt lat="43.9705495" lon="10.5673623"><ele>569.0</ele><time>2026-05-03T13:10:40.977Z</time></trkpt><trkpt lat="43.9706216" lon="10.5673853"><ele>569.0</ele><time>2026-05-03T13:10:41.977Z</time></trkpt><trkpt lat="43.9706873" lon="10.5673951"><ele>569.0</ele><time>2026-05-03T13:10:42.977Z</time></trkpt><trkpt lat="43.9707733" lon="10.5674976"><ele>569.0</ele><time>2026-05-03T13:10:44.978Z</time></trkpt><trkpt lat="43.9708227" lon="10.5676297"><ele>569.0</ele><time>2026-05-03T13:10:46.982Z</time></trkpt><trkpt lat="43.970911" lon="10.5676526"><ele>565.3333333333333</ele><time>2026-05-03T13:10:48.973Z</time></trkpt><trkpt lat="43.9709792" lon="10.5675839"><ele>561.6666666666666</ele><time>2026-05-03T13:10:50.971Z</time></trkpt><trkpt lat="43.9709972" lon="10.5674928"><ele>558.0</ele><time>2026-05-03T13:10:51.968Z</time></trkpt><trkpt lat="43.9710147" lon="10.567373"><ele>554.3333333333334</ele><time>2026-05-03T13:10:52.975Z</time></trkpt><trkpt lat="43.9710375" lon="10.5672385"><ele>550.6666666666667</ele><time>2026-05-03T13:10:53.968Z</time></trkpt><trkpt lat="43.9710637" lon="10.5671069"><ele>547.0</ele><time>2026-05-03T13:10:54.971Z</time></trkpt><trkpt lat="43.9711028" lon="10.5670033"><ele>547.0</ele><time>2026-05-03T13:10:55.994Z</time></trkpt><trkpt lat="43.9711414" lon="10.5669167"><ele>547.0</ele><time>2026-05-03T13:10:56.983Z</time></trkpt><trkpt lat="43.971191" lon="10.5668503"><ele>547.0</ele><time>2026-05-03T13:10:57.984Z</time></trkpt><trkpt lat="43.971247" lon="10.566798"><ele>547.0</ele><time>2026-05-03T13:10:58.986Z</time></trkpt><trkpt lat="43.9713134" lon="10.5667406"><ele>547.0</ele><time>2026-05-03T13:10:59.983Z</time></trkpt><trkpt lat="43.9713858" lon="10.5666687"><ele>547.0</ele><time>2026-05-03T13:11:00.985Z</time></trkpt><trkpt lat="43.9714463" lon="10.5666198"><ele>547.0</ele><time>2026-05-03T13:11:01.978Z</time></trkpt><trkpt lat="43.9715819" lon="10.566582"><ele>544.4</ele><time>2026-05-03T13:11:04.687Z</time></trkpt><trkpt lat="43.971702" lon="10.5665901"><ele>541.8000000000001</ele><time>2026-05-03T13:11:06.493Z</time></trkpt><trkpt lat="43.9718118" lon="10.5665783"><ele>539.2</ele><time>2026-05-03T13:11:08.284Z</time></trkpt><trkpt lat="43.971887" lon="10.5666331"><ele>536.6</ele><time>2026-05-03T13:11:10.095Z</time></trkpt><trkpt lat="43.9719726" lon="10.5667354"><ele>534.0</ele><time>2026-05-03T13:11:11.992Z</time></trkpt><trkpt lat="43.9720468" lon="10.5667956"><ele>534.0</ele><time>2026-05-03T13:11:12.989Z</time></trkpt><trkpt lat="43.9721155" lon="10.5668604"><ele>534.0</ele><time>2026-05-03T13:11:13.989Z</time></trkpt><trkpt lat="43.9721907" lon="10.5669361"><ele>534.0</ele><time>2026-05-03T13:11:14.994Z</time></trkpt><trkpt lat="43.9722562" lon="10.5669852"><ele>534.0</ele><time>2026-05-03T13:11:15.985Z</time></trkpt><trkpt lat="43.9723277" lon="10.5670815"><ele>534.0</ele><time>2026-05-03T13:11:17.983Z</time></trkpt><trkpt lat="43.9723294" lon="10.5671967"><ele>534.0</ele><time>2026-05-03T13:11:19.992Z</time></trkpt><trkpt lat="43.9723031" lon="10.5672776"><ele>534.8</ele><time>2026-05-03T13:11:20.986Z</time></trkpt><trkpt lat="43.9722759" lon="10.567365"><ele>535.5999999999999</ele><time>2026-05-03T13:11:21.984Z</time></trkpt><trkpt lat="43.9722316" lon="10.5674538"><ele>536.4</ele><time>2026-05-03T13:11:22.98Z</time></trkpt><trkpt lat="43.9722106" lon="10.5675877"><ele>537.1999999999999</ele><time>2026-05-03T13:11:24.97Z</time></trkpt><trkpt lat="43.9722858" lon="10.5676761"><ele>538.0</ele><time>2026-05-03T13:11:26.988Z</time></trkpt><trkpt lat="43.9723966" lon="10.5677044"><ele>538.0</ele><time>2026-05-03T13:11:28.98Z</time></trkpt><trkpt lat="43.9724677" lon="10.5676199"><ele>538.0</ele><time>2026-05-03T13:11:30.974Z</time></trkpt><trkpt lat="43.9724849" lon="10.5675288"><ele>538.0</ele><time>2026-05-03T13:11:31.976Z</time></trkpt><trkpt lat="43.9725131" lon="10.5674119"><ele>538.0</ele><time>2026-05-03T13:11:32.971Z</time></trkpt><trkpt lat="43.972541" lon="10.5672905"><ele>538.0</ele><time>2026-05-03T13:11:33.978Z</time></trkpt><trkpt lat="43.9725687" lon="10.5671794"><ele>538.0</ele><time>2026-05-03T13:11:34.977Z</time></trkpt><trkpt lat="43.9726104" lon="10.5670861"><ele>534.1999999999999</ele><time>2026-05-03T13:11:35.98Z</time></trkpt><trkpt lat="43.9726532" lon="10.567001"><ele>530.4</ele><time>2026-05-03T13:11:36.977Z</time></trkpt><trkpt lat="43.9727128" lon="10.566883"><ele>526.5999999999999</ele><time>2026-05-03T13:11:38.968Z</time></trkpt><trkpt lat="43.9728012" lon="10.56687"><ele>522.8</ele><time>2026-05-03T13:11:40.978Z</time></trkpt><trkpt lat="43.9728055" lon="10.5669668"><ele>519.0</ele><time>2026-05-03T13:11:43.968Z</time></trkpt><trkpt lat="43.9727365" lon="10.5671089"><ele>517.5</ele><time>2026-05-03T13:11:45.962Z</time></trkpt><trkpt lat="43.9726987" lon="10.5671827"><ele>516.0</ele><time>2026-05-03T13:11:46.964Z</time></trkpt><trkpt lat="43.9726668" lon="10.5673276"><ele>514.5</ele><time>2026-05-03T13:11:48.968Z</time></trkpt><trkpt lat="43.9726856" lon="10.5674787"><ele>513.0</ele><time>2026-05-03T13:11:50.976Z</time></trkpt><trkpt lat="43.9726955" lon="10.5675688"><ele>511.5</ele><time>2026-05-03T13:11:51.978Z</time></trkpt><trkpt lat="43.9726854" lon="10.5676657"><ele>510.0</ele><time>2026-05-03T13:11:52.973Z</time></trkpt><trkpt lat="43.9726808" lon="10.5677728"><ele>508.6666666666667</ele><time>2026-05-03T13:11:53.974Z</time></trkpt><trkpt lat="43.9726599" lon="10.5678844"><ele>507.33333333333337</ele><time>2026-05-03T13:11:54.984Z</time></trkpt><trkpt lat="43.972648" lon="10.5679862"><ele>506.0</ele><time>2026-05-03T13:11:55.987Z</time></trkpt><trkpt lat="43.972654" lon="10.5680759"><ele>504.6666666666667</ele><time>2026-05-03T13:11:56.997Z</time></trkpt><trkpt lat="43.9727158" lon="10.5681829"><ele>503.33333333333337</ele><time>2026-05-03T13:11:58.992Z</time></trkpt><trkpt lat="43.9727978" lon="10.5682777"><ele>502.0</ele><time>2026-05-03T13:12:00.999Z</time></trkpt><trkpt lat="43.9728243" lon="10.5684167"><ele>502.0</ele><time>2026-05-03T13:12:02.994Z</time></trkpt><trkpt lat="43.9728044" lon="10.5685733"><ele>502.00000000000006</ele><time>2026-05-03T13:12:04.993Z</time></trkpt><trkpt lat="43.9727852" lon="10.5686873"><ele>502.00000000000006</ele><time>2026-05-03T13:12:06.994Z</time></trkpt><trkpt lat="43.9728538" lon="10.5686868"><ele>502.0</ele><time>2026-05-03T13:12:08.982Z</time></trkpt><trkpt lat="43.9729178" lon="10.5685966"><ele>502.0</ele><time>2026-05-03T13:12:10.977Z</time></trkpt><trkpt lat="43.9729832" lon="10.5684509"><ele>502.00000000000006</ele><time>2026-05-03T13:12:12.982Z</time></trkpt><trkpt lat="43.9730159" lon="10.5683579"><ele>502.0</ele><time>2026-05-03T13:12:13.982Z</time></trkpt><trkpt lat="43.9730213" lon="10.5682243"><ele>502.0</ele><time>2026-05-03T13:12:15.99Z</time></trkpt><trkpt lat="43.9729619" lon="10.5681451"><ele>502.0</ele><time>2026-05-03T13:12:17.982Z</time></trkpt><trkpt lat="43.972899" lon="10.5681345"><ele>502.00000000000006</ele><time>2026-05-03T13:12:18.981Z</time></trkpt><trkpt lat="43.9728314" lon="10.568109"><ele>502.0</ele><time>2026-05-03T13:12:19.97Z</time></trkpt><trkpt lat="43.9727683" lon="10.5680078"><ele>503.33333333333337</ele><time>2026-05-03T13:12:21.977Z</time></trkpt><trkpt lat="43.9728067" lon="10.5678414"><ele>504.6666666666667</ele><time>2026-05-03T13:12:23.979Z</time></trkpt><trkpt lat="43.9728599" lon="10.5677764"><ele>506.0</ele><time>2026-05-03T13:12:24.969Z</time></trkpt><trkpt lat="43.9729135" lon="10.5676938"><ele>507.33333333333337</ele><time>2026-05-03T13:12:25.971Z</time></trkpt><trkpt lat="43.9729629" lon="10.567606"><ele>508.6666666666667</ele><time>2026-05-03T13:12:26.967Z</time></trkpt><trkpt lat="43.972995" lon="10.5675261"><ele>510.0</ele><time>2026-05-03T13:12:27.984Z</time></trkpt><trkpt lat="43.9729983" lon="10.5674345"><ele>510.0</ele><time>2026-05-03T13:12:28.965Z</time></trkpt><trkpt lat="43.9730015" lon="10.5673371"><ele>510.0</ele><time>2026-05-03T13:12:29.968Z</time></trkpt><trkpt lat="43.9730513" lon="10.5672106"><ele>510.0</ele><time>2026-05-03T13:12:31.967Z</time></trkpt><trkpt lat="43.9731903" lon="10.5671805"><ele>510.0</ele><time>2026-05-03T13:12:33.963Z</time></trkpt><trkpt lat="43.9732613" lon="10.5671559"><ele>510.0</ele><time>2026-05-03T13:12:34.959Z</time></trkpt><trkpt lat="43.9733477" lon="10.567078"><ele>504.5</ele><time>2026-05-03T13:12:36.973Z</time></trkpt><trkpt lat="43.9733626" lon="10.5669244"><ele>499.0</ele><time>2026-05-03T13:12:38.997Z</time></trkpt><trkpt lat="43.9733673" lon="10.5668067"><ele>493.5</ele><time>2026-05-03T13:12:39.984Z</time></trkpt><trkpt lat="43.973389" lon="10.5666959"><ele>488.0</ele><time>2026-05-03T13:12:40.991Z</time></trkpt><trkpt lat="43.9734254" lon="10.5666113"><ele>482.5</ele><time>2026-05-03T13:12:41.983Z</time></trkpt><trkpt lat="43.973472" lon="10.5665426"><ele>477.0</ele><time>2026-05-03T13:12:42.985Z</time></trkpt><trkpt lat="43.9735192" lon="10.5664652"><ele>477.0</ele><time>2026-05-03T13:12:43.985Z</time></trkpt><trkpt lat="43.9735518" lon="10.5663051"><ele>477.00000000000006</ele><time>2026-05-03T13:12:45.979Z</time></trkpt><trkpt lat="43.9735098" lon="10.5661976"><ele>477.00000000000006</ele><time>2026-05-03T13:12:47.99Z</time></trkpt><trkpt lat="43.973388" lon="10.5661252"><ele>477.0</ele><time>2026-05-03T13:12:49.99Z</time></trkpt><trkpt lat="43.9733134" lon="10.5660693"><ele>477.0</ele><time>2026-05-03T13:12:50.978Z</time></trkpt><trkpt lat="43.9732407" lon="10.5660002"><ele>481.6666666666667</ele><time>2026-05-03T13:12:51.981Z</time></trkpt><trkpt lat="43.9731745" lon="10.5659244"><ele>486.33333333333337</ele><time>2026-05-03T13:12:52.982Z</time></trkpt><trkpt lat="43.9731289" lon="10.5658605"><ele>491.0</ele><time>2026-05-03T13:12:53.977Z</time></trkpt><trkpt lat="43.9730287" lon="10.5657772"><ele>495.6666666666667</ele><time>2026-05-03T13:12:55.987Z</time></trkpt><trkpt lat="43.9729601" lon="10.5657561"><ele>500.33333333333337</ele><time>2026-05-03T13:12:56.978Z</time></trkpt><trkpt lat="43.9728943" lon="10.5657728"><ele>505.0</ele><time>2026-05-03T13:12:57.978Z</time></trkpt><trkpt lat="43.9728306" lon="10.5657735"><ele>505.0</ele><time>2026-05-03T13:12:59Z</time></trkpt><trkpt lat="43.9727383" lon="10.5656747"><ele>504.99999999999994</ele><time>2026-05-03T13:13:00.976Z</time></trkpt><trkpt lat="43.9727069" lon="10.5655976"><ele>505.0</ele><time>2026-05-03T13:13:01.984Z</time></trkpt><trkpt lat="43.972659" lon="10.5655389"><ele>505.0</ele><time>2026-05-03T13:13:02.969Z</time></trkpt><trkpt lat="43.9725938" lon="10.5655131"><ele>504.99999999999994</ele><time>2026-05-03T13:13:03.969Z</time></trkpt><trkpt lat="43.9725337" lon="10.5654855"><ele>505.0</ele><time>2026-05-03T13:13:04.98Z</time></trkpt><trkpt lat="43.9724658" lon="10.5654997"><ele>505.0</ele><time>2026-05-03T13:13:05.979Z</time></trkpt><trkpt lat="43.9723961" lon="10.5655033"><ele>505.6666666666667</ele><time>2026-05-03T13:13:06.973Z</time></trkpt><trkpt lat="43.9723502" lon="10.5654358"><ele>506.33333333333337</ele><time>2026-05-03T13:13:08.99Z</time></trkpt><trkpt lat="43.9723748" lon="10.5653164"><ele>507.0</ele><time>2026-05-03T13:13:10.985Z</time></trkpt><trkpt lat="43.9724691" lon="10.5652756"><ele>507.66666666666663</ele><time>2026-05-03T13:13:12.992Z</time></trkpt><trkpt lat="43.972533" lon="10.5652806"><ele>508.3333333333333</ele><time>2026-05-03T13:13:13.99Z</time></trkpt><trkpt lat="43.9726612" lon="10.5653043"><ele>509.0</ele><time>2026-05-03T13:13:15.986Z</time></trkpt><trkpt lat="43.9727419" lon="10.5653304"><ele>508.3333333333333</ele><time>2026-05-03T13:13:16.99Z</time></trkpt><trkpt lat="43.9728279" lon="10.565356"><ele>507.66666666666663</ele><time>2026-05-03T13:13:17.994Z</time></trkpt><trkpt lat="43.9729066" lon="10.5653893"><ele>507.0</ele><time>2026-05-03T13:13:18.987Z</time></trkpt><trkpt lat="43.9729826" lon="10.5654267"><ele>506.33333333333337</ele><time>2026-05-03T13:13:19.985Z</time></trkpt><trkpt lat="43.9730721" lon="10.5654348"><ele>505.6666666666667</ele><time>2026-05-03T13:13:20.982Z</time></trkpt><trkpt lat="43.9731591" lon="10.5654296"><ele>505.0</ele><time>2026-05-03T13:13:21.985Z</time></trkpt><trkpt lat="43.9732463" lon="10.5654239"><ele>505.0</ele><time>2026-05-03T13:13:22.983Z</time></trkpt><trkpt lat="43.9733329" lon="10.5654023"><ele>505.0</ele><time>2026-05-03T13:13:23.987Z</time></trkpt><trkpt lat="43.9734369" lon="10.5653842"><ele>505.0</ele><time>2026-05-03T13:13:24.983Z</time></trkpt><trkpt lat="43.9735313" lon="10.5653517"><ele>505.0</ele><time>2026-05-03T13:13:25.983Z</time></trkpt><trkpt lat="43.9736002" lon="10.5653183"><ele>505.0</ele><time>2026-05-03T13:13:26.97Z</time></trkpt><trkpt lat="43.9737066" lon="10.5652423"><ele>499.33333333333337</ele><time>2026-05-03T13:13:28.972Z</time></trkpt><trkpt lat="43.9737862" lon="10.5653034"><ele>493.6666666666667</ele><time>2026-05-03T13:13:30.973Z</time></trkpt><trkpt lat="43.9738233" lon="10.5653766"><ele>488.0</ele><time>2026-05-03T13:13:31.984Z</time></trkpt><trkpt lat="43.9738606" lon="10.5654628"><ele>482.33333333333337</ele><time>2026-05-03T13:13:32.979Z</time></trkpt><trkpt lat="43.973887" lon="10.5655577"><ele>476.6666666666667</ele><time>2026-05-03T13:13:33.976Z</time></trkpt><trkpt lat="43.9739052" lon="10.5656691"><ele>471.0</ele><time>2026-05-03T13:13:34.974Z</time></trkpt><trkpt lat="43.9739241" lon="10.5657624"><ele>471.0</ele><time>2026-05-03T13:13:35.974Z</time></trkpt><trkpt lat="43.9740048" lon="10.5659051"><ele>471.0</ele><time>2026-05-03T13:13:37.974Z</time></trkpt><trkpt lat="43.974048" lon="10.565981"><ele>471.0</ele><time>2026-05-03T13:13:38.974Z</time></trkpt><trkpt lat="43.9740853" lon="10.566059"><ele>471.0</ele><time>2026-05-03T13:13:39.974Z</time></trkpt><trkpt lat="43.974108" lon="10.566141"><ele>471.0</ele><time>2026-05-03T13:13:40.978Z</time></trkpt><trkpt lat="43.97411" lon="10.5663195"><ele>472.0</ele><time>2026-05-03T13:13:42.971Z</time></trkpt><trkpt lat="43.9741154" lon="10.5664254"><ele>473.0</ele><time>2026-05-03T13:13:43.969Z</time></trkpt><trkpt lat="43.9741382" lon="10.5665362"><ele>474.0</ele><time>2026-05-03T13:13:44.98Z</time></trkpt><trkpt lat="43.9741586" lon="10.5666439"><ele>475.0</ele><time>2026-05-03T13:13:45.978Z</time></trkpt><trkpt lat="43.9741813" lon="10.5667586"><ele>476.0</ele><time>2026-05-03T13:13:46.982Z</time></trkpt><trkpt lat="43.9742094" lon="10.5668742"><ele>477.0</ele><time>2026-05-03T13:13:47.985Z</time></trkpt><trkpt lat="43.9742429" lon="10.5669863"><ele>470.6</ele><time>2026-05-03T13:13:48.979Z</time></trkpt><trkpt lat="43.974279" lon="10.5670921"><ele>464.20000000000005</ele><time>2026-05-03T13:13:49.983Z</time></trkpt><trkpt lat="43.9743423" lon="10.5671917"><ele>457.8</ele><time>2026-05-03T13:13:50.982Z</time></trkpt><trkpt lat="43.9744034" lon="10.5672888"><ele>451.4</ele><time>2026-05-03T13:13:51.985Z</time></trkpt><trkpt lat="43.9744603" lon="10.5673943"><ele>445.0</ele><time>2026-05-03T13:13:52.985Z</time></trkpt><trkpt lat="43.9745023" lon="10.5674998"><ele>445.00000000000006</ele><time>2026-05-03T13:13:53.985Z</time></trkpt><trkpt lat="43.9745375" lon="10.567609"><ele>445.0</ele><time>2026-05-03T13:13:54.985Z</time></trkpt><trkpt lat="43.9745788" lon="10.5677207"><ele>445.0</ele><time>2026-05-03T13:13:55.988Z</time></trkpt><trkpt lat="43.9746213" lon="10.5678402"><ele>445.0</ele><time>2026-05-03T13:13:56.993Z</time></trkpt><trkpt lat="43.9746584" lon="10.5679524"><ele>445.00000000000006</ele><time>2026-05-03T13:13:57.983Z</time></trkpt><trkpt lat="43.9746935" lon="10.5680602"><ele>445.0</ele><time>2026-05-03T13:13:58.984Z</time></trkpt><trkpt lat="43.9747152" lon="10.5682277"><ele>445.1666666666667</ele><time>2026-05-03T13:14:01.004Z</time></trkpt><trkpt lat="43.974718" lon="10.5683189"><ele>445.33333333333337</ele><time>2026-05-03T13:14:01.984Z</time></trkpt><trkpt lat="43.9747079" lon="10.5684188"><ele>445.5</ele><time>2026-05-03T13:14:02.985Z</time></trkpt><trkpt lat="43.9746992" lon="10.568531"><ele>445.66666666666663</ele><time>2026-05-03T13:14:03.994Z</time></trkpt><trkpt lat="43.9746682" lon="10.568647"><ele>445.8333333333333</ele><time>2026-05-03T13:14:04.995Z</time></trkpt><trkpt lat="43.9746428" lon="10.5687669"><ele>446.0</ele><time>2026-05-03T13:14:05.986Z</time></trkpt><trkpt lat="43.9746188" lon="10.5688719"><ele>446.0</ele><time>2026-05-03T13:14:06.99Z</time></trkpt><trkpt lat="43.9745912" lon="10.5689766"><ele>446.0</ele><time>2026-05-03T13:14:07.99Z</time></trkpt><trkpt lat="43.9745687" lon="10.5690643"><ele>446.0</ele><time>2026-05-03T13:14:08.987Z</time></trkpt><trkpt lat="43.9745664" lon="10.5691567"><ele>446.0</ele><time>2026-05-03T13:14:09.989Z</time></trkpt><trkpt lat="43.9745818" lon="10.5692416"><ele>446.0</ele><time>2026-05-03T13:14:10.981Z</time></trkpt><trkpt lat="43.974612" lon="10.5693238"><ele>446.0</ele><time>2026-05-03T13:14:11.983Z</time></trkpt><trkpt lat="43.9746932" lon="10.5694023"><ele>446.0</ele><time>2026-05-03T13:14:13.978Z</time></trkpt><trkpt lat="43.9748056" lon="10.5693677"><ele>445.99999999999994</ele><time>2026-05-03T13:14:15.981Z</time></trkpt><trkpt lat="43.9748691" lon="10.5693317"><ele>446.0</ele><time>2026-05-03T13:14:16.977Z</time></trkpt><trkpt lat="43.9749413" lon="10.5692695"><ele>446.0</ele><time>2026-05-03T13:14:17.983Z</time></trkpt><trkpt lat="43.9749995" lon="10.5692079"><ele>446.0</ele><time>2026-05-03T13:14:18.983Z</time></trkpt><trkpt lat="43.9750577" lon="10.5691559"><ele>445.99999999999994</ele><time>2026-05-03T13:14:19.976Z</time></trkpt><trkpt lat="43.9751143" lon="10.5691054"><ele>446.0</ele><time>2026-05-03T13:14:20.987Z</time></trkpt><trkpt lat="43.9751836" lon="10.5689972"><ele>442.3333333333333</ele><time>2026-05-03T13:14:22.985Z</time></trkpt><trkpt lat="43.9751891" lon="10.5689066"><ele>438.66666666666663</ele><time>2026-05-03T13:14:23.984Z</time></trkpt><trkpt lat="43.9751878" lon="10.5688029"><ele>435.0</ele><time>2026-05-03T13:14:24.983Z</time></trkpt><trkpt lat="43.9751773" lon="10.5686908"><ele>431.33333333333337</ele><time>2026-05-03T13:14:25.995Z</time></trkpt><trkpt lat="43.975167" lon="10.5685816"><ele>427.6666666666667</ele><time>2026-05-03T13:14:27.003Z</time></trkpt><trkpt lat="43.9751439" lon="10.5684841"><ele>424.0</ele><time>2026-05-03T13:14:27.998Z</time></trkpt><trkpt lat="43.9751164" lon="10.5683858"><ele>422.83333333333337</ele><time>2026-05-03T13:14:29.004Z</time></trkpt><trkpt lat="43.9750816" lon="10.5682829"><ele>421.6666666666667</ele><time>2026-05-03T13:14:30.002Z</time></trkpt><trkpt lat="43.9750421" lon="10.5681737"><ele>420.5</ele><time>2026-05-03T13:14:31.014Z</time></trkpt><trkpt lat="43.9750138" lon="10.5680728"><ele>419.33333333333337</ele><time>2026-05-03T13:14:31.996Z</time></trkpt><trkpt lat="43.9749785" lon="10.5679769"><ele>418.1666666666667</ele><time>2026-05-03T13:14:32.999Z</time></trkpt><trkpt lat="43.9749667" lon="10.5678906"><ele>417.0</ele><time>2026-05-03T13:14:33.992Z</time></trkpt><trkpt lat="43.9750169" lon="10.5677625"><ele>417.0</ele><time>2026-05-03T13:14:35.994Z</time></trkpt><trkpt lat="43.9751016" lon="10.5677732"><ele>417.0</ele><time>2026-05-03T13:14:37.984Z</time></trkpt><trkpt lat="43.9751736" lon="10.567859"><ele>417.0</ele><time>2026-05-03T13:14:39.976Z</time></trkpt><trkpt lat="43.9751918" lon="10.5680326"><ele>417.0</ele><time>2026-05-03T13:14:41.982Z</time></trkpt><trkpt lat="43.9751931" lon="10.5681387"><ele>417.0</ele><time>2026-05-03T13:14:42.993Z</time></trkpt><trkpt lat="43.9752092" lon="10.5682315"><ele>417.0</ele><time>2026-05-03T13:14:43.975Z</time></trkpt><trkpt lat="43.9752406" lon="10.5683122"><ele>417.0</ele><time>2026-05-03T13:14:45.115Z</time></trkpt><trkpt lat="43.975373" lon="10.5684703"><ele>417.0</ele><time>2026-05-03T13:14:46.966Z</time></trkpt><trkpt lat="43.9754528" lon="10.5685599"><ele>417.0</ele><time>2026-05-03T13:14:47.968Z</time></trkpt><trkpt lat="43.9755421" lon="10.5686602"><ele>418.1666666666667</ele><time>2026-05-03T13:14:48.983Z</time></trkpt><trkpt lat="43.97563" lon="10.5687477"><ele>419.33333333333337</ele><time>2026-05-03T13:14:49.974Z</time></trkpt><trkpt lat="43.9756933" lon="10.5688396"><ele>420.5</ele><time>2026-05-03T13:14:50.979Z</time></trkpt><trkpt lat="43.975733" lon="10.5689214"><ele>421.6666666666667</ele><time>2026-05-03T13:14:51.981Z</time></trkpt><trkpt lat="43.9757767" lon="10.569002"><ele>422.83333333333337</ele><time>2026-05-03T13:14:52.988Z</time></trkpt><trkpt lat="43.9758352" lon="10.5690896"><ele>424.0</ele><time>2026-05-03T13:14:54.974Z</time></trkpt><trkpt lat="43.9759028" lon="10.5690643"><ele>424.0</ele><time>2026-05-03T13:14:56.973Z</time></trkpt><trkpt lat="43.9759139" lon="10.5689482"><ele>424.0</ele><time>2026-05-03T13:14:58.993Z</time></trkpt><trkpt lat="43.9758406" lon="10.5688481"><ele>424.0</ele><time>2026-05-03T13:15:00.986Z</time></trkpt><trkpt lat="43.9757321" lon="10.5687205"><ele>424.0</ele><time>2026-05-03T13:15:02.974Z</time></trkpt><trkpt lat="43.9756504" lon="10.5686222"><ele>424.0</ele><time>2026-05-03T13:15:03.985Z</time></trkpt><trkpt lat="43.9755782" lon="10.5685205"><ele>422.83333333333337</ele><time>2026-05-03T13:15:04.986Z</time></trkpt><trkpt lat="43.9755111" lon="10.5684191"><ele>421.6666666666667</ele><time>2026-05-03T13:15:05.975Z</time></trkpt><trkpt lat="43.9754545" lon="10.5683096"><ele>420.5</ele><time>2026-05-03T13:15:06.972Z</time></trkpt><trkpt lat="43.9754198" lon="10.5682058"><ele>419.33333333333337</ele><time>2026-05-03T13:15:07.979Z</time></trkpt><trkpt lat="43.975424" lon="10.5680966"><ele>418.1666666666667</ele><time>2026-05-03T13:15:08.977Z</time></trkpt><trkpt lat="43.9754495" lon="10.5680112"><ele>417.0</ele><time>2026-05-03T13:15:09.967Z</time></trkpt><trkpt lat="43.9754895" lon="10.567924"><ele>414.5</ele><time>2026-05-03T13:15:10.982Z</time></trkpt><trkpt lat="43.9755207" lon="10.5678182"><ele>412.0</ele><time>2026-05-03T13:15:11.979Z</time></trkpt><trkpt lat="43.975527" lon="10.5677076"><ele>409.5</ele><time>2026-05-03T13:15:12.975Z</time></trkpt><trkpt lat="43.9755197" lon="10.5676001"><ele>407.0</ele><time>2026-05-03T13:15:13.974Z</time></trkpt><trkpt lat="43.9754982" lon="10.5675015"><ele>404.5</ele><time>2026-05-03T13:15:14.967Z</time></trkpt><trkpt lat="43.9754708" lon="10.5674037"><ele>402.0</ele><time>2026-05-03T13:15:15.976Z</time></trkpt><trkpt lat="43.9754393" lon="10.5673117"><ele>402.0</ele><time>2026-05-03T13:15:16.973Z</time></trkpt><trkpt lat="43.9754428" lon="10.5672037"><ele>402.0</ele><time>2026-05-03T13:15:18.964Z</time></trkpt><trkpt lat="43.975517" lon="10.5672296"><ele>402.0</ele><time>2026-05-03T13:15:20.967Z</time></trkpt><trkpt lat="43.9755608" lon="10.5673048"><ele>402.0</ele><time>2026-05-03T13:15:21.96Z</time></trkpt><trkpt lat="43.9756074" lon="10.5674243"><ele>402.0</ele><time>2026-05-03T13:15:22.965Z</time></trkpt><trkpt lat="43.9756418" lon="10.5675529"><ele>402.0</ele><time>2026-05-03T13:15:23.968Z</time></trkpt><trkpt lat="43.9756623" lon="10.567678"><ele>402.0</ele><time>2026-05-03T13:15:24.966Z</time></trkpt><trkpt lat="43.9756684" lon="10.5677855"><ele>402.0</ele><time>2026-05-03T13:15:25.969Z</time></trkpt><trkpt lat="43.9756708" lon="10.5678877"><ele>402.0</ele><time>2026-05-03T13:15:26.962Z</time></trkpt><trkpt lat="43.9756674" lon="10.5679928"><ele>402.0</ele><time>2026-05-03T13:15:27.963Z</time></trkpt><trkpt lat="43.9756651" lon="10.5680928"><ele>402.0</ele><time>2026-05-03T13:15:28.968Z</time></trkpt><trkpt lat="43.9756674" lon="10.5681845"><ele>402.0</ele><time>2026-05-03T13:15:29.958Z</time></trkpt><trkpt lat="43.9757602" lon="10.568277"><ele>399.6</ele><time>2026-05-03T13:15:31.965Z</time></trkpt><trkpt lat="43.9758451" lon="10.5682792"><ele>397.20000000000005</ele><time>2026-05-03T13:15:33.001Z</time></trkpt><trkpt lat="43.9759542" lon="10.5682733"><ele>394.8</ele><time>2026-05-03T13:15:33.957Z</time></trkpt><trkpt lat="43.9760743" lon="10.5682626"><ele>392.4</ele><time>2026-05-03T13:15:34.961Z</time></trkpt><trkpt lat="43.9761914" lon="10.5682803"><ele>390.0</ele><time>2026-05-03T13:15:35.97Z</time></trkpt><trkpt lat="43.9763008" lon="10.5683096"><ele>390.0</ele><time>2026-05-03T13:15:36.972Z</time></trkpt><trkpt lat="43.976398" lon="10.5683593"><ele>390.0</ele><time>2026-05-03T13:15:37.984Z</time></trkpt><trkpt lat="43.976486" lon="10.5684377"><ele>390.0</ele><time>2026-05-03T13:15:38.972Z</time></trkpt><trkpt lat="43.9765803" lon="10.5685144"><ele>390.0</ele><time>2026-05-03T13:15:39.985Z</time></trkpt><trkpt lat="43.9766733" lon="10.5685945"><ele>390.0</ele><time>2026-05-03T13:15:40.987Z</time></trkpt><trkpt lat="43.9767507" lon="10.568671"><ele>386.0</ele><time>2026-05-03T13:15:41.982Z</time></trkpt><trkpt lat="43.9768113" lon="10.5687467"><ele>382.0</ele><time>2026-05-03T13:15:42.98Z</time></trkpt><trkpt lat="43.9768467" lon="10.5688329"><ele>378.0</ele><time>2026-05-03T13:15:43.969Z</time></trkpt><trkpt lat="43.9768571" lon="10.5689415"><ele>374.0</ele><time>2026-05-03T13:15:44.978Z</time></trkpt><trkpt lat="43.9768368" lon="10.5690715"><ele>370.0</ele><time>2026-05-03T13:15:45.981Z</time></trkpt><trkpt lat="43.9768034" lon="10.5691931"><ele>366.0</ele><time>2026-05-03T13:15:46.967Z</time></trkpt><trkpt lat="43.9768097" lon="10.5692982"><ele>366.0</ele><time>2026-05-03T13:15:47.976Z</time></trkpt><trkpt lat="43.9768813" lon="10.5693882"><ele>366.0</ele><time>2026-05-03T13:15:49.971Z</time></trkpt><trkpt lat="43.9769684" lon="10.5692949"><ele>366.0</ele><time>2026-05-03T13:15:51.962Z</time></trkpt><trkpt lat="43.9769923" lon="10.5691967"><ele>366.0</ele><time>2026-05-03T13:15:52.973Z</time></trkpt><trkpt lat="43.9770064" lon="10.5690672"><ele>366.0</ele><time>2026-05-03T13:15:53.969Z</time></trkpt><trkpt lat="43.9770337" lon="10.5689272"><ele>366.0</ele><time>2026-05-03T13:15:54.983Z</time></trkpt><trkpt lat="43.9770588" lon="10.5688037"><ele>366.0</ele><time>2026-05-03T13:15:55.977Z</time></trkpt><trkpt lat="43.9770619" lon="10.5687039"><ele>366.0</ele><time>2026-05-03T13:15:56.978Z</time></trkpt><trkpt lat="43.9770277" lon="10.5686086"><ele>366.0</ele><time>2026-05-03T13:15:57.971Z</time></trkpt><trkpt lat="43.9769754" lon="10.568508"><ele>366.0</ele><time>2026-05-03T13:15:58.98Z</time></trkpt><trkpt lat="43.9768878" lon="10.5683951"><ele>365.25</ele><time>2026-05-03T13:15:59.98Z</time></trkpt><trkpt lat="43.9767815" lon="10.5682764"><ele>364.5</ele><time>2026-05-03T13:16:00.982Z</time></trkpt><trkpt lat="43.9766762" lon="10.5681516"><ele>363.75</ele><time>2026-05-03T13:16:01.981Z</time></trkpt><trkpt lat="43.9765732" lon="10.5680324"><ele>363.0</ele><time>2026-05-03T13:16:02.994Z</time></trkpt><trkpt lat="43.9764638" lon="10.567927"><ele>363.59999999999997</ele><time>2026-05-03T13:16:03.969Z</time></trkpt><trkpt lat="43.9763549" lon="10.5678514"><ele>364.2</ele><time>2026-05-03T13:16:04.976Z</time></trkpt><trkpt lat="43.9762527" lon="10.5677844"><ele>364.8</ele><time>2026-05-03T13:16:05.97Z</time></trkpt><trkpt lat="43.9761747" lon="10.5677229"><ele>365.4</ele><time>2026-05-03T13:16:06.973Z</time></trkpt><trkpt lat="43.97613" lon="10.5676573"><ele>366.0</ele><time>2026-05-03T13:16:07.96Z</time></trkpt><trkpt lat="43.9761248" lon="10.5674814"><ele>366.0</ele><time>2026-05-03T13:16:09.968Z</time></trkpt><trkpt lat="43.976133" lon="10.5673764"><ele>366.0</ele><time>2026-05-03T13:16:10.965Z</time></trkpt><trkpt lat="43.9761314" lon="10.5672602"><ele>366.0</ele><time>2026-05-03T13:16:11.965Z</time></trkpt><trkpt lat="43.9761126" lon="10.5671158"><ele>366.0</ele><time>2026-05-03T13:16:12.958Z</time></trkpt><trkpt lat="43.9760918" lon="10.5669693"><ele>366.0</ele><time>2026-05-03T13:16:13.969Z</time></trkpt><trkpt lat="43.9760735" lon="10.5668293"><ele>364.3333333333333</ele><time>2026-05-03T13:16:14.963Z</time></trkpt><trkpt lat="43.9760413" lon="10.5667139"><ele>362.6666666666667</ele><time>2026-05-03T13:16:15.966Z</time></trkpt><trkpt lat="43.975991" lon="10.5666249"><ele>361.0</ele><time>2026-05-03T13:16:16.974Z</time></trkpt><trkpt lat="43.9759473" lon="10.5665358"><ele>359.33333333333337</ele><time>2026-05-03T13:16:17.961Z</time></trkpt><trkpt lat="43.9759391" lon="10.566443"><ele>357.6666666666667</ele><time>2026-05-03T13:16:18.964Z</time></trkpt><trkpt lat="43.9759576" lon="10.5662728"><ele>356.0</ele><time>2026-05-03T13:16:20.949Z</time></trkpt><trkpt lat="43.976044" lon="10.566196"><ele>356.0</ele><time>2026-05-03T13:16:22.949Z</time></trkpt><trkpt lat="43.9761472" lon="10.5661545"><ele>356.0</ele><time>2026-05-03T13:16:24.95Z</time></trkpt><trkpt lat="43.9762239" lon="10.5661604"><ele>356.0</ele><time>2026-05-03T13:16:25.958Z</time></trkpt><trkpt lat="43.9763056" lon="10.5661826"><ele>356.0</ele><time>2026-05-03T13:16:26.962Z</time></trkpt><trkpt lat="43.9763839" lon="10.5662076"><ele>356.0</ele><time>2026-05-03T13:16:27.952Z</time></trkpt><trkpt lat="43.976448" lon="10.566194"><ele>356.0</ele><time>2026-05-03T13:16:28.967Z</time></trkpt><trkpt lat="43.9765177" lon="10.5660675"><ele>356.6666666666667</ele><time>2026-05-03T13:16:30.986Z</time></trkpt><trkpt lat="43.9765193" lon="10.5659645"><ele>357.33333333333337</ele><time>2026-05-03T13:16:31.972Z</time></trkpt><trkpt lat="43.9765087" lon="10.5658716"><ele>358.0</ele><time>2026-05-03T13:16:32.98Z</time></trkpt><trkpt lat="43.9764921" lon="10.5657749"><ele>358.6666666666667</ele><time>2026-05-03T13:16:33.988Z</time></trkpt><trkpt lat="43.9764667" lon="10.5656477"><ele>359.3333333333333</ele><time>2026-05-03T13:16:34.971Z</time></trkpt><trkpt lat="43.976419" lon="10.5655099"><ele>360.0</ele><time>2026-05-03T13:16:35.972Z</time></trkpt><trkpt lat="43.9763696" lon="10.5653636"><ele>359.2</ele><time>2026-05-03T13:16:36.974Z</time></trkpt><trkpt lat="43.9763305" lon="10.5652211"><ele>358.4</ele><time>2026-05-03T13:16:37.974Z</time></trkpt><trkpt lat="43.9763155" lon="10.5650936"><ele>357.6</ele><time>2026-05-03T13:16:38.991Z</time></trkpt><trkpt lat="43.9762943" lon="10.5649673"><ele>356.8</ele><time>2026-05-03T13:16:39.979Z</time></trkpt><trkpt lat="43.9763078" lon="10.5648467"><ele>356.0</ele><time>2026-05-03T13:16:40.99Z</time></trkpt><trkpt lat="43.9763269" lon="10.56474"><ele>356.0</ele><time>2026-05-03T13:16:41.989Z</time></trkpt><trkpt lat="43.9763646" lon="10.5646467"><ele>356.0</ele><time>2026-05-03T13:16:42.992Z</time></trkpt><trkpt lat="43.9764058" lon="10.5645682"><ele>356.0</ele><time>2026-05-03T13:16:43.992Z</time></trkpt><trkpt lat="43.9764521" lon="10.5644793"><ele>356.0</ele><time>2026-05-03T13:16:44.987Z</time></trkpt><trkpt lat="43.9765056" lon="10.5643798"><ele>356.0</ele><time>2026-05-03T13:16:45.988Z</time></trkpt><trkpt lat="43.9765622" lon="10.56426"><ele>356.0</ele><time>2026-05-03T13:16:46.987Z</time></trkpt><trkpt lat="43.9766038" lon="10.5641229"><ele>356.0</ele><time>2026-05-03T13:16:47.983Z</time></trkpt><trkpt lat="43.9766447" lon="10.5639939"><ele>356.0</ele><time>2026-05-03T13:16:48.986Z</time></trkpt><trkpt lat="43.9766949" lon="10.5638893"><ele>356.0</ele><time>2026-05-03T13:16:49.982Z</time></trkpt><trkpt lat="43.9767666" lon="10.5638237"><ele>356.0</ele><time>2026-05-03T13:16:50.984Z</time></trkpt><trkpt lat="43.9768523" lon="10.5637709"><ele>356.0</ele><time>2026-05-03T13:16:51.986Z</time></trkpt><trkpt lat="43.976946" lon="10.5637424"><ele>355.0</ele><time>2026-05-03T13:16:52.988Z</time></trkpt><trkpt lat="43.9770357" lon="10.5637297"><ele>354.0</ele><time>2026-05-03T13:16:53.99Z</time></trkpt><trkpt lat="43.9771198" lon="10.56371"><ele>353.0</ele><time>2026-05-03T13:16:54.986Z</time></trkpt><trkpt lat="43.977206" lon="10.5636779"><ele>352.0</ele><time>2026-05-03T13:16:55.982Z</time></trkpt><trkpt lat="43.97729" lon="10.5636558"><ele>351.0</ele><time>2026-05-03T13:16:56.99Z</time></trkpt><trkpt lat="43.9773621" lon="10.5636453"><ele>350.0</ele><time>2026-05-03T13:16:57.976Z</time></trkpt><trkpt lat="43.9774259" lon="10.5636284"><ele>350.0</ele><time>2026-05-03T13:16:58.983Z</time></trkpt><trkpt lat="43.9774991" lon="10.5636183"><ele>350.0</ele><time>2026-05-03T13:17:01.987Z</time></trkpt><trkpt lat="43.9774904" lon="10.5637297"><ele>350.0</ele><time>2026-05-03T13:17:04.991Z</time></trkpt><trkpt lat="43.9774788" lon="10.5638945"><ele>350.0</ele><time>2026-05-03T13:17:06.988Z</time></trkpt><trkpt lat="43.9774837" lon="10.563991"><ele>350.0</ele><time>2026-05-03T13:17:07.987Z</time></trkpt><trkpt lat="43.9774827" lon="10.564157"><ele>348.5</ele><time>2026-05-03T13:17:09.984Z</time></trkpt><trkpt lat="43.977481" lon="10.564248"><ele>347.0</ele><time>2026-05-03T13:17:10.997Z</time></trkpt><trkpt lat="43.9774745" lon="10.5643521"><ele>345.5</ele><time>2026-05-03T13:17:11.997Z</time></trkpt><trkpt lat="43.9774734" lon="10.5644583"><ele>344.0</ele><time>2026-05-03T13:17:12.996Z</time></trkpt><trkpt lat="43.9774713" lon="10.564557"><ele>342.5</ele><time>2026-05-03T13:17:13.993Z</time></trkpt><trkpt lat="43.9774736" lon="10.5646804"><ele>341.0</ele><time>2026-05-03T13:17:14.991Z</time></trkpt><trkpt lat="43.9774821" lon="10.5648043"><ele>341.0</ele><time>2026-05-03T13:17:15.995Z</time></trkpt><trkpt lat="43.9774892" lon="10.5649349"><ele>341.0</ele><time>2026-05-03T13:17:16.985Z</time></trkpt><trkpt lat="43.9775156" lon="10.5650625"><ele>341.0</ele><time>2026-05-03T13:17:17.995Z</time></trkpt><trkpt lat="43.9775509" lon="10.5652071"><ele>341.0</ele><time>2026-05-03T13:17:18.989Z</time></trkpt><trkpt lat="43.9775892" lon="10.5653522"><ele>341.0</ele><time>2026-05-03T13:17:19.995Z</time></trkpt><trkpt lat="43.9776348" lon="10.5654963"><ele>341.20000000000005</ele><time>2026-05-03T13:17:20.994Z</time></trkpt><trkpt lat="43.9776811" lon="10.5656318"><ele>341.40000000000003</ele><time>2026-05-03T13:17:21.985Z</time></trkpt><trkpt lat="43.9777292" lon="10.5657591"><ele>341.6</ele><time>2026-05-03T13:17:22.995Z</time></trkpt><trkpt lat="43.9777771" lon="10.5658827"><ele>341.8</ele><time>2026-05-03T13:17:23.981Z</time></trkpt><trkpt lat="43.9778288" lon="10.5660124"><ele>342.0</ele><time>2026-05-03T13:17:24.988Z</time></trkpt><trkpt lat="43.9778855" lon="10.5661577"><ele>341.75</ele><time>2026-05-03T13:17:25.982Z</time></trkpt><trkpt lat="43.9779493" lon="10.5663076"><ele>341.5</ele><time>2026-05-03T13:17:26.987Z</time></trkpt><trkpt lat="43.9780165" lon="10.566461"><ele>341.25</ele><time>2026-05-03T13:17:27.988Z</time></trkpt><trkpt lat="43.9780674" lon="10.5666078"><ele>341.0</ele><time>2026-05-03T13:17:28.99Z</time></trkpt><trkpt lat="43.9781257" lon="10.5667459"><ele>341.0</ele><time>2026-05-03T13:17:29.986Z</time></trkpt><trkpt lat="43.9781888" lon="10.566875"><ele>341.0</ele><time>2026-05-03T13:17:30.986Z</time></trkpt><trkpt lat="43.9782556" lon="10.5669798"><ele>341.0</ele><time>2026-05-03T13:17:31.995Z</time></trkpt><trkpt lat="43.9783331" lon="10.5670565"><ele>341.0</ele><time>2026-05-03T13:17:32.982Z</time></trkpt><trkpt lat="43.9784271" lon="10.5671086"><ele>341.0</ele><time>2026-05-03T13:17:33.976Z</time></trkpt><trkpt lat="43.9785353" lon="10.5671469"><ele>338.0</ele><time>2026-05-03T13:17:34.978Z</time></trkpt><trkpt lat="43.9786544" lon="10.5671908"><ele>335.0</ele><time>2026-05-03T13:17:35.994Z</time></trkpt><trkpt lat="43.9787696" lon="10.5672269"><ele>332.0</ele><time>2026-05-03T13:17:36.977Z</time></trkpt><trkpt lat="43.9788841" lon="10.5672615"><ele>329.0</ele><time>2026-05-03T13:17:37.977Z</time></trkpt><trkpt lat="43.9789934" lon="10.5672894"><ele>329.0</ele><time>2026-05-03T13:17:38.982Z</time></trkpt><trkpt lat="43.9790941" lon="10.5673464"><ele>329.0</ele><time>2026-05-03T13:17:39.969Z</time></trkpt><trkpt lat="43.9791817" lon="10.5674309"><ele>329.0</ele><time>2026-05-03T13:17:40.963Z</time></trkpt><trkpt lat="43.9792675" lon="10.56752"><ele>329.0</ele><time>2026-05-03T13:17:41.971Z</time></trkpt><trkpt lat="43.979332" lon="10.56763"><ele>329.0</ele><time>2026-05-03T13:17:42.962Z</time></trkpt><trkpt lat="43.9794004" lon="10.567728"><ele>328.0</ele><time>2026-05-03T13:17:43.965Z</time></trkpt><trkpt lat="43.9794639" lon="10.56785"><ele>327.0</ele><time>2026-05-03T13:17:44.97Z</time></trkpt><trkpt lat="43.9795422" lon="10.5679934"><ele>326.0</ele><time>2026-05-03T13:17:45.963Z</time></trkpt><trkpt lat="43.9796158" lon="10.5681377"><ele>325.0</ele><time>2026-05-03T13:17:46.952Z</time></trkpt><trkpt lat="43.9796986" lon="10.5682977"><ele>325.0</ele><time>2026-05-03T13:17:47.947Z</time></trkpt><trkpt lat="43.9797729" lon="10.5684532"><ele>325.0</ele><time>2026-05-03T13:17:48.933Z</time></trkpt><trkpt lat="43.979853" lon="10.5685798"><ele>325.0</ele><time>2026-05-03T13:17:49.943Z</time></trkpt><trkpt lat="43.9799273" lon="10.5687001"><ele>325.0</ele><time>2026-05-03T13:17:50.951Z</time></trkpt><trkpt lat="43.9800037" lon="10.5688256"><ele>323.8</ele><time>2026-05-03T13:17:51.956Z</time></trkpt><trkpt lat="43.9800728" lon="10.5689308"><ele>322.6</ele><time>2026-05-03T13:17:52.974Z</time></trkpt><trkpt lat="43.9801386" lon="10.5690355"><ele>321.4</ele><time>2026-05-03T13:17:53.975Z</time></trkpt><trkpt lat="43.9802014" lon="10.5691548"><ele>320.2</ele><time>2026-05-03T13:17:54.969Z</time></trkpt><trkpt lat="43.9802433" lon="10.5692889"><ele>319.0</ele><time>2026-05-03T13:17:55.971Z</time></trkpt><trkpt lat="43.9802638" lon="10.5694293"><ele>321.66666666666663</ele><time>2026-05-03T13:17:56.977Z</time></trkpt><trkpt lat="43.9802992" lon="10.5695402"><ele>324.3333333333333</ele><time>2026-05-03T13:17:57.966Z</time></trkpt><trkpt lat="43.9803399" lon="10.5696386"><ele>327.0</ele><time>2026-05-03T13:17:58.98Z</time></trkpt><trkpt lat="43.9803969" lon="10.5697062"><ele>329.6666666666667</ele><time>2026-05-03T13:17:59.966Z</time></trkpt><trkpt lat="43.9804763" lon="10.5697624"><ele>332.33333333333337</ele><time>2026-05-03T13:18:00.965Z</time></trkpt><trkpt lat="43.9805614" lon="10.5697905"><ele>335.0</ele><time>2026-05-03T13:18:01.968Z</time></trkpt><trkpt lat="43.9806551" lon="10.5698111"><ele>335.0</ele><time>2026-05-03T13:18:02.964Z</time></trkpt><trkpt lat="43.9807706" lon="10.5698128"><ele>335.0</ele><time>2026-05-03T13:18:03.967Z</time></trkpt><trkpt lat="43.980887" lon="10.5697944"><ele>335.0</ele><time>2026-05-03T13:18:04.968Z</time></trkpt><trkpt lat="43.9809987" lon="10.569776"><ele>335.0</ele><time>2026-05-03T13:18:05.966Z</time></trkpt><trkpt lat="43.9811128" lon="10.5697418"><ele>332.2</ele><time>2026-05-03T13:18:06.971Z</time></trkpt><trkpt lat="43.981218" lon="10.5696914"><ele>329.4</ele><time>2026-05-03T13:18:07.958Z</time></trkpt><trkpt lat="43.9813188" lon="10.569629"><ele>326.6</ele><time>2026-05-03T13:18:08.961Z</time></trkpt><trkpt lat="43.9814354" lon="10.5696131"><ele>323.8</ele><time>2026-05-03T13:18:09.953Z</time></trkpt><trkpt lat="43.9815356" lon="10.5695963"><ele>321.0</ele><time>2026-05-03T13:18:10.95Z</time></trkpt><trkpt lat="43.9816467" lon="10.5696018"><ele>318.0</ele><time>2026-05-03T13:18:11.952Z</time></trkpt><trkpt lat="43.9817507" lon="10.5696259"><ele>315.0</ele><time>2026-05-03T13:18:12.953Z</time></trkpt><trkpt lat="43.9818406" lon="10.5696687"><ele>312.0</ele><time>2026-05-03T13:18:13.958Z</time></trkpt><trkpt lat="43.9819349" lon="10.5697204"><ele>309.0</ele><time>2026-05-03T13:18:14.952Z</time></trkpt><trkpt lat="43.9820213" lon="10.5697698"><ele>306.0</ele><time>2026-05-03T13:18:15.967Z</time></trkpt><trkpt lat="43.9821112" lon="10.5698209"><ele>306.0</ele><time>2026-05-03T13:18:16.968Z</time></trkpt><trkpt lat="43.9821912" lon="10.5698859"><ele>306.0</ele><time>2026-05-03T13:18:17.964Z</time></trkpt><trkpt lat="43.9822641" lon="10.5699743"><ele>306.0</ele><time>2026-05-03T13:18:18.975Z</time></trkpt><trkpt lat="43.982335" lon="10.5700713"><ele>306.0</ele><time>2026-05-03T13:18:19.973Z</time></trkpt><trkpt lat="43.9824177" lon="10.5701707"><ele>306.0</ele><time>2026-05-03T13:18:20.966Z</time></trkpt><trkpt lat="43.9825034" lon="10.570278"><ele>305.5</ele><time>2026-05-03T13:18:21.965Z</time></trkpt><trkpt lat="43.9826037" lon="10.5703684"><ele>305.0</ele><time>2026-05-03T13:18:22.963Z</time></trkpt><trkpt lat="43.9827184" lon="10.5704382"><ele>304.5</ele><time>2026-05-03T13:18:23.962Z</time></trkpt><trkpt lat="43.9828408" lon="10.5705107"><ele>304.0</ele><time>2026-05-03T13:18:24.96Z</time></trkpt><trkpt lat="43.9829684" lon="10.5705899"><ele>304.0</ele><time>2026-05-03T13:18:25.951Z</time></trkpt><trkpt lat="43.9831071" lon="10.5706729"><ele>304.0</ele><time>2026-05-03T13:18:26.957Z</time></trkpt><trkpt lat="43.9832497" lon="10.5707354"><ele>304.0</ele><time>2026-05-03T13:18:27.954Z</time></trkpt><trkpt lat="43.9833795" lon="10.5708097"><ele>304.0</ele><time>2026-05-03T13:18:28.946Z</time></trkpt><trkpt lat="43.9835053" lon="10.570916"><ele>299.3333333333333</ele><time>2026-05-03T13:18:29.949Z</time></trkpt><trkpt lat="43.9836538" lon="10.5710359"><ele>294.6666666666667</ele><time>2026-05-03T13:18:30.95Z</time></trkpt><trkpt lat="43.9838125" lon="10.5710986"><ele>290.0</ele><time>2026-05-03T13:18:31.947Z</time></trkpt><trkpt lat="43.983962" lon="10.5711854"><ele>288.75</ele><time>2026-05-03T13:18:32.948Z</time></trkpt><trkpt lat="43.9841181" lon="10.5712438"><ele>287.5</ele><time>2026-05-03T13:18:33.94Z</time></trkpt><trkpt lat="43.9842214" lon="10.5712929"><ele>286.25</ele><time>2026-05-03T13:18:34.937Z</time></trkpt><trkpt lat="43.9843386" lon="10.5713265"><ele>285.0</ele><time>2026-05-03T13:18:35.94Z</time></trkpt><trkpt lat="43.984445" lon="10.5713805"><ele>285.0</ele><time>2026-05-03T13:18:36.935Z</time></trkpt><trkpt lat="43.9845685" lon="10.5714391"><ele>285.0</ele><time>2026-05-03T13:18:37.958Z</time></trkpt><trkpt lat="43.9846918" lon="10.5714977"><ele>285.0</ele><time>2026-05-03T13:18:38.935Z</time></trkpt><trkpt lat="43.9848146" lon="10.5715645"><ele>285.0</ele><time>2026-05-03T13:18:39.934Z</time></trkpt><trkpt lat="43.9849316" lon="10.5716166"><ele>286.0</ele><time>2026-05-03T13:18:40.94Z</time></trkpt><trkpt lat="43.9850375" lon="10.5716843"><ele>287.0</ele><time>2026-05-03T13:18:41.946Z</time></trkpt><trkpt lat="43.9851482" lon="10.5717312"><ele>288.0</ele><time>2026-05-03T13:18:42.942Z</time></trkpt><trkpt lat="43.9852714" lon="10.5718582"><ele>289.0</ele><time>2026-05-03T13:18:43.935Z</time></trkpt><trkpt lat="43.9853556" lon="10.5719602"><ele>286.5</ele><time>2026-05-03T13:18:44.933Z</time></trkpt><trkpt lat="43.9854243" lon="10.5720927"><ele>284.0</ele><time>2026-05-03T13:18:45.937Z</time></trkpt><trkpt lat="43.9854938" lon="10.5722299"><ele>281.5</ele><time>2026-05-03T13:18:46.936Z</time></trkpt><trkpt lat="43.9855679" lon="10.5723562"><ele>279.0</ele><time>2026-05-03T13:18:47.934Z</time></trkpt><trkpt lat="43.9856498" lon="10.5724827"><ele>279.0</ele><time>2026-05-03T13:18:48.93Z</time></trkpt><trkpt lat="43.9857413" lon="10.5725922"><ele>279.0</ele><time>2026-05-03T13:18:49.928Z</time></trkpt><trkpt lat="43.9858469" lon="10.5726874"><ele>279.0</ele><time>2026-05-03T13:18:50.918Z</time></trkpt><trkpt lat="43.9859629" lon="10.572765"><ele>279.0</ele><time>2026-05-03T13:18:51.921Z</time></trkpt><trkpt lat="43.9860975" lon="10.5728174"><ele>275.6666666666667</ele><time>2026-05-03T13:18:52.922Z</time></trkpt><trkpt lat="43.9862461" lon="10.5728384"><ele>272.33333333333337</ele><time>2026-05-03T13:18:53.92Z</time></trkpt><trkpt lat="43.9864116" lon="10.5728558"><ele>269.0</ele><time>2026-05-03T13:18:54.924Z</time></trkpt><trkpt lat="43.9865626" lon="10.5729082"><ele>271.0</ele><time>2026-05-03T13:18:55.924Z</time></trkpt><trkpt lat="43.9866889" lon="10.5729502"><ele>273.0</ele><time>2026-05-03T13:18:56.93Z</time></trkpt><trkpt lat="43.9868347" lon="10.5730013"><ele>275.0</ele><time>2026-05-03T13:18:57.932Z</time></trkpt><trkpt lat="43.9869648" lon="10.5730546"><ele>277.0</ele><time>2026-05-03T13:18:58.936Z</time></trkpt><trkpt lat="43.9870796" lon="10.5730829"><ele>277.0</ele><time>2026-05-03T13:18:59.93Z</time></trkpt><trkpt lat="43.9871624" lon="10.573022"><ele>277.0</ele><time>2026-05-03T13:19:00.938Z</time></trkpt><trkpt lat="43.987247" lon="10.5729309"><ele>277.0</ele><time>2026-05-03T13:19:01.94Z</time></trkpt><trkpt lat="43.9873159" lon="10.5728354"><ele>277.0</ele><time>2026-05-03T13:19:02.933Z</time></trkpt><trkpt lat="43.9873864" lon="10.5727529"><ele>277.0</ele><time>2026-05-03T13:19:03.937Z</time></trkpt><trkpt lat="43.9874552" lon="10.5726567"><ele>275.5</ele><time>2026-05-03T13:19:04.943Z</time></trkpt><trkpt lat="43.9875307" lon="10.5726188"><ele>274.0</ele><time>2026-05-03T13:19:05.939Z</time></trkpt><trkpt lat="43.9875985" lon="10.5726151"><ele>272.5</ele><time>2026-05-03T13:19:06.938Z</time></trkpt><trkpt lat="43.9876678" lon="10.5726502"><ele>271.0</ele><time>2026-05-03T13:19:07.935Z</time></trkpt><trkpt lat="43.9877332" lon="10.5727129"><ele>269.5</ele><time>2026-05-03T13:19:08.965Z</time></trkpt><trkpt lat="43.9878017" lon="10.5727706"><ele>268.0</ele><time>2026-05-03T13:19:09.942Z</time></trkpt><trkpt lat="43.9878849" lon="10.5728192"><ele>268.0</ele><time>2026-05-03T13:19:10.94Z</time></trkpt><trkpt lat="43.98798" lon="10.5728269"><ele>268.0</ele><time>2026-05-03T13:19:11.94Z</time></trkpt><trkpt lat="43.9880806" lon="10.5728236"><ele>268.0</ele><time>2026-05-03T13:19:12.939Z</time></trkpt><trkpt lat="43.9881878" lon="10.5728219"><ele>268.0</ele><time>2026-05-03T13:19:13.938Z</time></trkpt><trkpt lat="43.9882963" lon="10.5728128"><ele>268.0</ele><time>2026-05-03T13:19:14.938Z</time></trkpt><trkpt lat="43.9883963" lon="10.5727886"><ele>263.8</ele><time>2026-05-03T13:19:15.938Z</time></trkpt><trkpt lat="43.9884932" lon="10.5727379"><ele>259.6</ele><time>2026-05-03T13:19:16.934Z</time></trkpt><trkpt lat="43.9885842" lon="10.5726479"><ele>255.39999999999998</ele><time>2026-05-03T13:19:17.935Z</time></trkpt><trkpt lat="43.988672" lon="10.5725627"><ele>251.2</ele><time>2026-05-03T13:19:18.944Z</time></trkpt><trkpt lat="43.9887575" lon="10.5724669"><ele>247.0</ele><time>2026-05-03T13:19:19.943Z</time></trkpt><trkpt lat="43.9888445" lon="10.5723981"><ele>247.0</ele><time>2026-05-03T13:19:20.945Z</time></trkpt><trkpt lat="43.9889347" lon="10.5723506"><ele>247.0</ele><time>2026-05-03T13:19:21.944Z</time></trkpt><trkpt lat="43.9890322" lon="10.572322"><ele>247.0</ele><time>2026-05-03T13:19:22.941Z</time></trkpt><trkpt lat="43.989123" lon="10.5723447"><ele>247.0</ele><time>2026-05-03T13:19:23.941Z</time></trkpt><trkpt lat="43.9892095" lon="10.5723995"><ele>247.0</ele><time>2026-05-03T13:19:24.947Z</time></trkpt><trkpt lat="43.9892939" lon="10.5724484"><ele>244.8</ele><time>2026-05-03T13:19:25.95Z</time></trkpt><trkpt lat="43.9893817" lon="10.5725106"><ele>242.6</ele><time>2026-05-03T13:19:26.947Z</time></trkpt><trkpt lat="43.9894731" lon="10.5725646"><ele>240.40000000000003</ele><time>2026-05-03T13:19:27.946Z</time></trkpt><trkpt lat="43.9895633" lon="10.5726052"><ele>238.20000000000002</ele><time>2026-05-03T13:19:28.947Z</time></trkpt><trkpt lat="43.9896633" lon="10.5726224"><ele>236.0</ele><time>2026-05-03T13:19:29.946Z</time></trkpt><trkpt lat="43.9897829" lon="10.5726167"><ele>236.0</ele><time>2026-05-03T13:19:30.951Z</time></trkpt><trkpt lat="43.9899117" lon="10.5725925"><ele>236.0</ele><time>2026-05-03T13:19:31.949Z</time></trkpt><trkpt lat="43.99003" lon="10.5725608"><ele>236.0</ele><time>2026-05-03T13:19:32.944Z</time></trkpt><trkpt lat="43.990142" lon="10.5725218"><ele>236.0</ele><time>2026-05-03T13:19:33.945Z</time></trkpt><trkpt lat="43.9902367" lon="10.5724715"><ele>235.20000000000002</ele><time>2026-05-03T13:19:34.946Z</time></trkpt><trkpt lat="43.9903268" lon="10.5724188"><ele>234.40000000000003</ele><time>2026-05-03T13:19:35.948Z</time></trkpt><trkpt lat="43.9904248" lon="10.5723941"><ele>233.6</ele><time>2026-05-03T13:19:36.946Z</time></trkpt><trkpt lat="43.9905351" lon="10.5723935"><ele>232.8</ele><time>2026-05-03T13:19:37.942Z</time></trkpt><trkpt lat="43.9906466" lon="10.5724173"><ele>232.0</ele><time>2026-05-03T13:19:38.958Z</time></trkpt><trkpt lat="43.9907722" lon="10.5724394"><ele>233.75</ele><time>2026-05-03T13:19:39.972Z</time></trkpt><trkpt lat="43.9908972" lon="10.5724466"><ele>235.5</ele><time>2026-05-03T13:19:40.956Z</time></trkpt><trkpt lat="43.9910263" lon="10.5724443"><ele>237.25</ele><time>2026-05-03T13:19:41.955Z</time></trkpt><trkpt lat="43.9911667" lon="10.5724158"><ele>239.0</ele><time>2026-05-03T13:19:42.951Z</time></trkpt><trkpt lat="43.9913174" lon="10.5723726"><ele>239.0</ele><time>2026-05-03T13:19:43.947Z</time></trkpt><trkpt lat="43.9914713" lon="10.5723048"><ele>239.0</ele><time>2026-05-03T13:19:44.953Z</time></trkpt><trkpt lat="43.9915933" lon="10.5722688"><ele>239.0</ele><time>2026-05-03T13:19:45.954Z</time></trkpt><trkpt lat="43.9917165" lon="10.572277"><ele>239.0</ele><time>2026-05-03T13:19:46.949Z</time></trkpt><trkpt lat="43.9918237" lon="10.5722353"><ele>242.0</ele><time>2026-05-03T13:19:47.945Z</time></trkpt><trkpt lat="43.9919327" lon="10.5722067"><ele>244.99999999999997</ele><time>2026-05-03T13:19:48.947Z</time></trkpt><trkpt lat="43.9920273" lon="10.57215"><ele>247.99999999999997</ele><time>2026-05-03T13:19:49.947Z</time></trkpt><trkpt lat="43.9921027" lon="10.5721125"><ele>251.0</ele><time>2026-05-03T13:19:50.944Z</time></trkpt><trkpt lat="43.9921953" lon="10.5720207"><ele>254.0</ele><time>2026-05-03T13:19:51.942Z</time></trkpt><trkpt lat="43.9922938" lon="10.5719495"><ele>247.2</ele><time>2026-05-03T13:19:52.945Z</time></trkpt><trkpt lat="43.9923804" lon="10.5718864"><ele>240.39999999999998</ele><time>2026-05-03T13:19:53.934Z</time></trkpt><trkpt lat="43.9924604" lon="10.5718287"><ele>233.6</ele><time>2026-05-03T13:19:54.943Z</time></trkpt><trkpt lat="43.9925641" lon="10.5717645"><ele>226.8</ele><time>2026-05-03T13:19:55.945Z</time></trkpt><trkpt lat="43.9926767" lon="10.5717034"><ele>220.0</ele><time>2026-05-03T13:19:56.938Z</time></trkpt><trkpt lat="43.9927688" lon="10.5716219"><ele>220.0</ele><time>2026-05-03T13:19:57.943Z</time></trkpt><trkpt lat="43.992845" lon="10.5715592"><ele>220.0</ele><time>2026-05-03T13:19:58.942Z</time></trkpt><trkpt lat="43.9929511" lon="10.5714993"><ele>220.0</ele><time>2026-05-03T13:19:59.94Z</time></trkpt><trkpt lat="43.9930581" lon="10.5714761"><ele>220.0</ele><time>2026-05-03T13:20:00.941Z</time></trkpt><trkpt lat="43.9931793" lon="10.5714961"><ele>220.0</ele><time>2026-05-03T13:20:01.942Z</time></trkpt><trkpt lat="43.9933189" lon="10.5715171"><ele>218.25</ele><time>2026-05-03T13:20:02.948Z</time></trkpt><trkpt lat="43.9934649" lon="10.5715377"><ele>216.5</ele><time>2026-05-03T13:20:03.952Z</time></trkpt><trkpt lat="43.993608" lon="10.5715594"><ele>214.75</ele><time>2026-05-03T13:20:04.958Z</time></trkpt><trkpt lat="43.9937528" lon="10.5715552"><ele>213.0</ele><time>2026-05-03T13:20:05.953Z</time></trkpt><trkpt lat="43.9939166" lon="10.5715995"><ele>213.0</ele><time>2026-05-03T13:20:06.961Z</time></trkpt><trkpt lat="43.9940758" lon="10.5716527"><ele>213.0</ele><time>2026-05-03T13:20:07.962Z</time></trkpt><trkpt lat="43.9942158" lon="10.57169"><ele>213.0</ele><time>2026-05-03T13:20:08.968Z</time></trkpt><trkpt lat="43.9943653" lon="10.5717788"><ele>215.0</ele><time>2026-05-03T13:20:09.959Z</time></trkpt><trkpt lat="43.9944817" lon="10.571758"><ele>217.0</ele><time>2026-05-03T13:20:10.976Z</time></trkpt><trkpt lat="43.9945867" lon="10.5717127"><ele>219.0</ele><time>2026-05-03T13:20:11.952Z</time></trkpt><trkpt lat="43.9946925" lon="10.5716854"><ele>221.0</ele><time>2026-05-03T13:20:12.941Z</time></trkpt><trkpt lat="43.9947855" lon="10.5715715"><ele>221.0</ele><time>2026-05-03T13:20:13.939Z</time></trkpt><trkpt lat="43.9948442" lon="10.571458"><ele>221.00000000000003</ele><time>2026-05-03T13:20:14.939Z</time></trkpt><trkpt lat="43.9949236" lon="10.5714059"><ele>221.00000000000003</ele><time>2026-05-03T13:20:15.942Z</time></trkpt><trkpt lat="43.9949952" lon="10.5712683"><ele>221.0</ele><time>2026-05-03T13:20:16.944Z</time></trkpt><trkpt lat="43.9950636" lon="10.5711341"><ele>221.0</ele><time>2026-05-03T13:20:17.948Z</time></trkpt><trkpt lat="43.9951257" lon="10.5709886"><ele>218.75</ele><time>2026-05-03T13:20:18.954Z</time></trkpt><trkpt lat="43.995188" lon="10.5708224"><ele>216.5</ele><time>2026-05-03T13:20:19.953Z</time></trkpt><trkpt lat="43.9952556" lon="10.5706676"><ele>214.25</ele><time>2026-05-03T13:20:20.956Z</time></trkpt><trkpt lat="43.9953208" lon="10.5705117"><ele>212.0</ele><time>2026-05-03T13:20:21.954Z</time></trkpt><trkpt lat="43.9953835" lon="10.5703861"><ele>209.33333333333334</ele><time>2026-05-03T13:20:22.949Z</time></trkpt><trkpt lat="43.9954453" lon="10.5702938"><ele>206.66666666666669</ele><time>2026-05-03T13:20:23.951Z</time></trkpt><trkpt lat="43.9955044" lon="10.5702207"><ele>204.0</ele><time>2026-05-03T13:20:24.95Z</time></trkpt><trkpt lat="43.9955807" lon="10.5701859"><ele>201.33333333333331</ele><time>2026-05-03T13:20:25.953Z</time></trkpt><trkpt lat="43.9956696" lon="10.5701593"><ele>198.66666666666666</ele><time>2026-05-03T13:20:26.954Z</time></trkpt><trkpt lat="43.9957737" lon="10.5701425"><ele>196.0</ele><time>2026-05-03T13:20:27.955Z</time></trkpt><trkpt lat="43.9958892" lon="10.5701197"><ele>196.0</ele><time>2026-05-03T13:20:28.962Z</time></trkpt><trkpt lat="43.9959986" lon="10.5700849"><ele>196.0</ele><time>2026-05-03T13:20:29.958Z</time></trkpt><trkpt lat="43.9961066" lon="10.5700437"><ele>196.0</ele><time>2026-05-03T13:20:30.953Z</time></trkpt><trkpt lat="43.9962182" lon="10.5700085"><ele>196.0</ele><time>2026-05-03T13:20:31.957Z</time></trkpt><trkpt lat="43.9963299" lon="10.5699717"><ele>196.0</ele><time>2026-05-03T13:20:32.956Z</time></trkpt><trkpt lat="43.9964242" lon="10.5699287"><ele>196.0</ele><time>2026-05-03T13:20:33.961Z</time></trkpt><trkpt lat="43.9965259" lon="10.5698663"><ele>196.0</ele><time>2026-05-03T13:20:34.957Z</time></trkpt><trkpt lat="43.9966163" lon="10.5697943"><ele>196.0</ele><time>2026-05-03T13:20:35.955Z</time></trkpt><trkpt lat="43.9966898" lon="10.5697102"><ele>196.0</ele><time>2026-05-03T13:20:36.962Z</time></trkpt><trkpt lat="43.9967578" lon="10.5696312"><ele>197.4</ele><time>2026-05-03T13:20:37.955Z</time></trkpt><trkpt lat="43.9968231" lon="10.5695436"><ele>198.8</ele><time>2026-05-03T13:20:38.957Z</time></trkpt><trkpt lat="43.9968834" lon="10.5694494"><ele>200.20000000000002</ele><time>2026-05-03T13:20:39.956Z</time></trkpt><trkpt lat="43.9969388" lon="10.5693487"><ele>201.60000000000002</ele><time>2026-05-03T13:20:40.95Z</time></trkpt><trkpt lat="43.9969773" lon="10.5692023"><ele>203.0</ele><time>2026-05-03T13:20:41.973Z</time></trkpt><trkpt lat="43.9970133" lon="10.5690531"><ele>203.0</ele><time>2026-05-03T13:20:42.952Z</time></trkpt><trkpt lat="43.9970556" lon="10.5689051"><ele>203.0</ele><time>2026-05-03T13:20:43.945Z</time></trkpt><trkpt lat="43.9970974" lon="10.5687572"><ele>203.0</ele><time>2026-05-03T13:20:44.948Z</time></trkpt><trkpt lat="43.9971338" lon="10.568623"><ele>203.0</ele><time>2026-05-03T13:20:45.951Z</time></trkpt><trkpt lat="43.9971826" lon="10.568498"><ele>203.0</ele><time>2026-05-03T13:20:46.954Z</time></trkpt><trkpt lat="43.9972497" lon="10.5684029"><ele>201.66666666666669</ele><time>2026-05-03T13:20:47.955Z</time></trkpt><trkpt lat="43.9973172" lon="10.5683324"><ele>200.33333333333334</ele><time>2026-05-03T13:20:48.956Z</time></trkpt><trkpt lat="43.9973959" lon="10.5682742"><ele>199.0</ele><time>2026-05-03T13:20:49.945Z</time></trkpt><trkpt lat="43.9974613" lon="10.5682141"><ele>197.66666666666669</ele><time>2026-05-03T13:20:50.944Z</time></trkpt><trkpt lat="43.9975534" lon="10.5681543"><ele>196.33333333333334</ele><time>2026-05-03T13:20:52.939Z</time></trkpt><trkpt lat="43.9976042" lon="10.5680708"><ele>195.0</ele><time>2026-05-03T13:20:54.938Z</time></trkpt><trkpt lat="43.9976248" lon="10.5679846"><ele>195.0</ele><time>2026-05-03T13:20:55.941Z</time></trkpt><trkpt lat="43.9976595" lon="10.5678951"><ele>195.0</ele><time>2026-05-03T13:20:56.945Z</time></trkpt><trkpt lat="43.9977158" lon="10.5678088"><ele>195.0</ele><time>2026-05-03T13:20:57.941Z</time></trkpt><trkpt lat="43.997804" lon="10.567756"><ele>195.0</ele><time>2026-05-03T13:20:58.945Z</time></trkpt><trkpt lat="43.9978947" lon="10.5677228"><ele>195.0</ele><time>2026-05-03T13:20:59.947Z</time></trkpt><trkpt lat="43.9979843" lon="10.5676873"><ele>195.0</ele><time>2026-05-03T13:21:00.946Z</time></trkpt><trkpt lat="43.9980704" lon="10.567643"><ele>193.83333333333334</ele><time>2026-05-03T13:21:01.949Z</time></trkpt><trkpt lat="43.9981516" lon="10.5675911"><ele>192.66666666666666</ele><time>2026-05-03T13:21:02.948Z</time></trkpt><trkpt lat="43.9982208" lon="10.5675294"><ele>191.5</ele><time>2026-05-03T13:21:03.947Z</time></trkpt><trkpt lat="43.9982807" lon="10.5674579"><ele>190.33333333333331</ele><time>2026-05-03T13:21:04.944Z</time></trkpt><trkpt lat="43.9983276" lon="10.5673721"><ele>189.16666666666666</ele><time>2026-05-03T13:21:05.948Z</time></trkpt><trkpt lat="43.9983624" lon="10.5672599"><ele>188.0</ele><time>2026-05-03T13:21:06.944Z</time></trkpt><trkpt lat="43.9983985" lon="10.5671369"><ele>184.0</ele><time>2026-05-03T13:21:07.937Z</time></trkpt><trkpt lat="43.9984478" lon="10.5670085"><ele>180.0</ele><time>2026-05-03T13:21:08.943Z</time></trkpt><trkpt lat="43.9985311" lon="10.5668871"><ele>176.0</ele><time>2026-05-03T13:21:09.943Z</time></trkpt><trkpt lat="43.9986243" lon="10.5667757"><ele>172.0</ele><time>2026-05-03T13:21:10.945Z</time></trkpt><trkpt lat="43.9987176" lon="10.5666602"><ele>172.0</ele><time>2026-05-03T13:21:11.951Z</time></trkpt><trkpt lat="43.9988201" lon="10.5665683"><ele>172.0</ele><time>2026-05-03T13:21:12.969Z</time></trkpt><trkpt lat="43.9989407" lon="10.5664898"><ele>172.0</ele><time>2026-05-03T13:21:13.945Z</time></trkpt><trkpt lat="43.9990679" lon="10.5664318"><ele>172.0</ele><time>2026-05-03T13:21:14.943Z</time></trkpt><trkpt lat="43.9991904" lon="10.5663855"><ele>171.2</ele><time>2026-05-03T13:21:15.954Z</time></trkpt><trkpt lat="43.9993079" lon="10.5663457"><ele>170.39999999999998</ele><time>2026-05-03T13:21:16.947Z</time></trkpt><trkpt lat="43.9994137" lon="10.5663059"><ele>169.60000000000002</ele><time>2026-05-03T13:21:17.952Z</time></trkpt><trkpt lat="43.9995037" lon="10.566267"><ele>168.8</ele><time>2026-05-03T13:21:18.947Z</time></trkpt><trkpt lat="43.9995926" lon="10.5662225"><ele>168.0</ele><time>2026-05-03T13:21:19.948Z</time></trkpt><trkpt lat="43.9996786" lon="10.566165"><ele>169.8</ele><time>2026-05-03T13:21:20.953Z</time></trkpt><trkpt lat="43.9997618" lon="10.5661024"><ele>171.60000000000002</ele><time>2026-05-03T13:21:21.951Z</time></trkpt><trkpt lat="43.9998467" lon="10.5660407"><ele>173.39999999999998</ele><time>2026-05-03T13:21:22.947Z</time></trkpt><trkpt lat="43.9999355" lon="10.5659948"><ele>175.2</ele><time>2026-05-03T13:21:23.945Z</time></trkpt><trkpt lat="44.0000316" lon="10.565964"><ele>177.0</ele><time>2026-05-03T13:21:24.95Z</time></trkpt><trkpt lat="44.0001187" lon="10.5659522"><ele>177.0</ele><time>2026-05-03T13:21:25.944Z</time></trkpt><trkpt lat="44.0002129" lon="10.565933"><ele>177.0</ele><time>2026-05-03T13:21:26.947Z</time></trkpt><trkpt lat="44.0003013" lon="10.5658991"><ele>177.0</ele><time>2026-05-03T13:21:27.948Z</time></trkpt><trkpt lat="44.0003927" lon="10.5658645"><ele>177.0</ele><time>2026-05-03T13:21:28.95Z</time></trkpt><trkpt lat="44.000476" lon="10.5658205"><ele>177.0</ele><time>2026-05-03T13:21:29.951Z</time></trkpt><trkpt lat="44.0005557" lon="10.5658002"><ele>177.0</ele><time>2026-05-03T13:21:30.949Z</time></trkpt><trkpt lat="44.0006436" lon="10.5657893"><ele>177.0</ele><time>2026-05-03T13:21:31.948Z</time></trkpt><trkpt lat="44.0007247" lon="10.5657758"><ele>177.0</ele><time>2026-05-03T13:21:32.944Z</time></trkpt><trkpt lat="44.0008148" lon="10.5657602"><ele>177.0</ele><time>2026-05-03T13:21:33.945Z</time></trkpt><trkpt lat="44.0009012" lon="10.5657544"><ele>177.0</ele><time>2026-05-03T13:21:34.947Z</time></trkpt><trkpt lat="44.0009814" lon="10.5657518"><ele>177.0</ele><time>2026-05-03T13:21:35.94Z</time></trkpt><trkpt lat="44.0010842" lon="10.5657523"><ele>173.0</ele><time>2026-05-03T13:21:37.949Z</time></trkpt><trkpt lat="44.0011454" lon="10.5657749"><ele>169.0</ele><time>2026-05-03T13:21:51.949Z</time></trkpt><trkpt lat="44.0012688" lon="10.5657943"><ele>165.0</ele><time>2026-05-03T13:21:54.937Z</time></trkpt><trkpt lat="44.0013642" lon="10.5658092"><ele>161.0</ele><time>2026-05-03T13:21:55.941Z</time></trkpt><trkpt lat="44.0014643" lon="10.5658203"><ele>157.0</ele><time>2026-05-03T13:21:56.946Z</time></trkpt><trkpt lat="44.0015661" lon="10.565835"><ele>156.0</ele><time>2026-05-03T13:21:57.945Z</time></trkpt><trkpt lat="44.0016659" lon="10.5658513"><ele>155.0</ele><time>2026-05-03T13:21:58.942Z</time></trkpt><trkpt lat="44.0017734" lon="10.5658704"><ele>154.0</ele><time>2026-05-03T13:21:59.952Z</time></trkpt><trkpt lat="44.0018804" lon="10.5658987"><ele>153.0</ele><time>2026-05-03T13:22:00.944Z</time></trkpt><trkpt lat="44.0019784" lon="10.5659437"><ele>152.0</ele><time>2026-05-03T13:22:01.951Z</time></trkpt><trkpt lat="44.0020629" lon="10.5660041"><ele>152.0</ele><time>2026-05-03T13:22:02.945Z</time></trkpt><trkpt lat="44.0021475" lon="10.5660853"><ele>152.0</ele><time>2026-05-03T13:22:03.944Z</time></trkpt><trkpt lat="44.0022378" lon="10.566166"><ele>152.0</ele><time>2026-05-03T13:22:04.946Z</time></trkpt><trkpt lat="44.0023354" lon="10.5662278"><ele>152.0</ele><time>2026-05-03T13:22:05.942Z</time></trkpt><trkpt lat="44.0024338" lon="10.5662722"><ele>152.0</ele><time>2026-05-03T13:22:06.942Z</time></trkpt><trkpt lat="44.0025225" lon="10.5663032"><ele>154.0</ele><time>2026-05-03T13:22:07.94Z</time></trkpt><trkpt lat="44.0025982" lon="10.5663189"><ele>156.0</ele><time>2026-05-03T13:22:08.95Z</time></trkpt><trkpt lat="44.002669" lon="10.5663912"><ele>158.0</ele><time>2026-05-03T13:22:10.945Z</time></trkpt><trkpt lat="44.002719" lon="10.5665449"><ele>160.0</ele><time>2026-05-03T13:22:12.94Z</time></trkpt><trkpt lat="44.0027652" lon="10.5666196"><ele>162.0</ele><time>2026-05-03T13:22:13.947Z</time></trkpt><trkpt lat="44.0028345" lon="10.5666848"><ele>164.0</ele><time>2026-05-03T13:22:14.964Z</time></trkpt><trkpt lat="44.0029198" lon="10.566725"><ele>164.0</ele><time>2026-05-03T13:22:15.948Z</time></trkpt><trkpt lat="44.0029908" lon="10.5667195"><ele>164.0</ele><time>2026-05-03T13:22:16.935Z</time></trkpt><trkpt lat="44.0030708" lon="10.5666678"><ele>164.0</ele><time>2026-05-03T13:22:17.938Z</time></trkpt><trkpt lat="44.0031546" lon="10.5665917"><ele>164.0</ele><time>2026-05-03T13:22:18.947Z</time></trkpt><trkpt lat="44.0032396" lon="10.5665011"><ele>164.0</ele><time>2026-05-03T13:22:19.949Z</time></trkpt><trkpt lat="44.0033286" lon="10.5664165"><ele>163.6</ele><time>2026-05-03T13:22:20.943Z</time></trkpt><trkpt lat="44.0034185" lon="10.5663114"><ele>163.2</ele><time>2026-05-03T13:22:21.947Z</time></trkpt><trkpt lat="44.0035053" lon="10.5662123"><ele>162.79999999999998</ele><time>2026-05-03T13:22:22.944Z</time></trkpt><trkpt lat="44.003589" lon="10.5661293"><ele>162.39999999999998</ele><time>2026-05-03T13:22:23.94Z</time></trkpt><trkpt lat="44.003673" lon="10.5660589"><ele>162.0</ele><time>2026-05-03T13:22:24.944Z</time></trkpt><trkpt lat="44.0037651" lon="10.5660052"><ele>160.4</ele><time>2026-05-03T13:22:25.94Z</time></trkpt><trkpt lat="44.0038681" lon="10.5659762"><ele>158.79999999999998</ele><time>2026-05-03T13:22:26.939Z</time></trkpt><trkpt lat="44.0039749" lon="10.5659695"><ele>157.2</ele><time>2026-05-03T13:22:27.941Z</time></trkpt><trkpt lat="44.0040836" lon="10.5659719"><ele>155.6</ele><time>2026-05-03T13:22:28.946Z</time></trkpt><trkpt lat="44.0042038" lon="10.5659731"><ele>154.0</ele><time>2026-05-03T13:22:29.95Z</time></trkpt><trkpt lat="44.0043069" lon="10.5659693"><ele>151.5</ele><time>2026-05-03T13:22:30.948Z</time></trkpt><trkpt lat="44.0044025" lon="10.5659538"><ele>149.0</ele><time>2026-05-03T13:22:31.947Z</time></trkpt><trkpt lat="44.0044735" lon="10.5659133"><ele>146.5</ele><time>2026-05-03T13:22:32.951Z</time></trkpt><trkpt lat="44.0045276" lon="10.5658554"><ele>144.0</ele><time>2026-05-03T13:22:33.948Z</time></trkpt><trkpt lat="44.0045822" lon="10.5657818"><ele>141.5</ele><time>2026-05-03T13:22:35.954Z</time></trkpt><trkpt lat="44.004669" lon="10.5657403"><ele>139.0</ele><time>2026-05-03T13:22:38.956Z</time></trkpt><trkpt lat="44.0047841" lon="10.5656786"><ele>139.0</ele><time>2026-05-03T13:22:40.956Z</time></trkpt><trkpt lat="44.0048523" lon="10.5656399"><ele>139.0</ele><time>2026-05-03T13:22:41.963Z</time></trkpt><trkpt lat="44.0049205" lon="10.5655894"><ele>139.0</ele><time>2026-05-03T13:22:42.969Z</time></trkpt><trkpt lat="44.004988" lon="10.5655398"><ele>139.0</ele><time>2026-05-03T13:22:43.966Z</time></trkpt><trkpt lat="44.0050613" lon="10.5654946"><ele>139.0</ele><time>2026-05-03T13:22:44.973Z</time></trkpt><trkpt lat="44.0051418" lon="10.5654805"><ele>139.0</ele><time>2026-05-03T13:22:45.991Z</time></trkpt><trkpt lat="44.0052105" lon="10.5654627"><ele>138.33333333333334</ele><time>2026-05-03T13:22:46.965Z</time></trkpt><trkpt lat="44.005276" lon="10.5654405"><ele>137.66666666666669</ele><time>2026-05-03T13:22:47.967Z</time></trkpt><trkpt lat="44.005342" lon="10.5654088"><ele>137.0</ele><time>2026-05-03T13:22:48.967Z</time></trkpt><trkpt lat="44.0054071" lon="10.5653566"><ele>136.33333333333334</ele><time>2026-05-03T13:22:49.964Z</time></trkpt><trkpt lat="44.0054939" lon="10.5652872"><ele>135.66666666666666</ele><time>2026-05-03T13:22:50.967Z</time></trkpt><trkpt lat="44.0055953" lon="10.565229"><ele>135.0</ele><time>2026-05-03T13:22:51.974Z</time></trkpt><trkpt lat="44.0056895" lon="10.5651817"><ele>135.8</ele><time>2026-05-03T13:22:52.972Z</time></trkpt><trkpt lat="44.0057738" lon="10.5651586"><ele>136.6</ele><time>2026-05-03T13:22:53.971Z</time></trkpt><trkpt lat="44.0058608" lon="10.5651578"><ele>137.4</ele><time>2026-05-03T13:22:54.965Z</time></trkpt><trkpt lat="44.0059499" lon="10.5651975"><ele>138.2</ele><time>2026-05-03T13:22:55.983Z</time></trkpt><trkpt lat="44.0060362" lon="10.5652718"><ele>139.0</ele><time>2026-05-03T13:22:56.979Z</time></trkpt><trkpt lat="44.0061073" lon="10.5653713"><ele>139.0</ele><time>2026-05-03T13:22:57.977Z</time></trkpt><trkpt lat="44.0061669" lon="10.5654947"><ele>139.0</ele><time>2026-05-03T13:22:58.975Z</time></trkpt><trkpt lat="44.0062179" lon="10.5656426"><ele>139.0</ele><time>2026-05-03T13:22:59.966Z</time></trkpt><trkpt lat="44.0062635" lon="10.5658059"><ele>139.0</ele><time>2026-05-03T13:23:00.967Z</time></trkpt><trkpt lat="44.0063145" lon="10.5659731"><ele>139.0</ele><time>2026-05-03T13:23:01.958Z</time></trkpt><trkpt lat="44.0063645" lon="10.5661178"><ele>139.0</ele><time>2026-05-03T13:23:02.964Z</time></trkpt><trkpt lat="44.0064361" lon="10.5662726"><ele>139.0</ele><time>2026-05-03T13:23:03.969Z</time></trkpt><trkpt lat="44.0065101" lon="10.5664235"><ele>139.0</ele><time>2026-05-03T13:23:04.975Z</time></trkpt><trkpt lat="44.0065901" lon="10.5665686"><ele>136.25</ele><time>2026-05-03T13:23:05.972Z</time></trkpt><trkpt lat="44.0066769" lon="10.5667056"><ele>133.5</ele><time>2026-05-03T13:23:06.97Z</time></trkpt><trkpt lat="44.0067752" lon="10.5668239"><ele>130.75</ele><time>2026-05-03T13:23:07.978Z</time></trkpt><trkpt lat="44.0068635" lon="10.5669167"><ele>128.0</ele><time>2026-05-03T13:23:08.983Z</time></trkpt><trkpt lat="44.0069412" lon="10.5669918"><ele>127.99999999999999</ele><time>2026-05-03T13:23:09.98Z</time></trkpt><trkpt lat="44.0070139" lon="10.5670476"><ele>128.0</ele><time>2026-05-03T13:23:10.975Z</time></trkpt><trkpt lat="44.0070832" lon="10.567073"><ele>128.0</ele><time>2026-05-03T13:23:11.983Z</time></trkpt><trkpt lat="44.0071517" lon="10.5670713"><ele>128.0</ele><time>2026-05-03T13:23:12.968Z</time></trkpt><trkpt lat="44.0072065" lon="10.5670264"><ele>127.99999999999999</ele><time>2026-05-03T13:23:13.977Z</time></trkpt><trkpt lat="44.0072854" lon="10.5669266"><ele>128.0</ele><time>2026-05-03T13:23:15.972Z</time></trkpt><trkpt lat="44.0073571" lon="10.5669319"><ele>127.0</ele><time>2026-05-03T13:23:30.975Z</time></trkpt><trkpt lat="44.0074223" lon="10.5670879"><ele>126.0</ele><time>2026-05-03T13:23:32.97Z</time></trkpt><trkpt lat="44.0074812" lon="10.5672147"><ele>125.0</ele><time>2026-05-03T13:23:33.968Z</time></trkpt><trkpt lat="44.0075445" lon="10.5673451"><ele>124.0</ele><time>2026-05-03T13:23:34.968Z</time></trkpt><trkpt lat="44.007617" lon="10.5674866"><ele>124.0</ele><time>2026-05-03T13:23:35.971Z</time></trkpt><trkpt lat="44.0076716" lon="10.5676255"><ele>124.0</ele><time>2026-05-03T13:23:36.977Z</time></trkpt><trkpt lat="44.007736" lon="10.5677704"><ele>124.0</ele><time>2026-05-03T13:23:37.979Z</time></trkpt><trkpt lat="44.007809" lon="10.5679191"><ele>124.0</ele><time>2026-05-03T13:23:38.978Z</time></trkpt><trkpt lat="44.0078799" lon="10.5680866"><ele>129.5</ele><time>2026-05-03T13:23:39.973Z</time></trkpt><trkpt lat="44.007949" lon="10.5682472"><ele>135.0</ele><time>2026-05-03T13:23:40.968Z</time></trkpt><trkpt lat="44.0080043" lon="10.5684032"><ele>140.5</ele><time>2026-05-03T13:23:41.972Z</time></trkpt><trkpt lat="44.0080664" lon="10.568558"><ele>146.0</ele><time>2026-05-03T13:23:42.962Z</time></trkpt><trkpt lat="44.0081356" lon="10.5687224"><ele>151.75</ele><time>2026-05-03T13:23:43.963Z</time></trkpt><trkpt lat="44.0081928" lon="10.5688999"><ele>157.5</ele><time>2026-05-03T13:23:44.953Z</time></trkpt><trkpt lat="44.0082292" lon="10.5691011"><ele>163.25</ele><time>2026-05-03T13:23:45.957Z</time></trkpt><trkpt lat="44.0082706" lon="10.5692801"><ele>169.0</ele><time>2026-05-03T13:23:46.958Z</time></trkpt><trkpt lat="44.0083198" lon="10.5694832"><ele>161.25</ele><time>2026-05-03T13:23:47.967Z</time></trkpt><trkpt lat="44.0083723" lon="10.5696724"><ele>153.5</ele><time>2026-05-03T13:23:48.951Z</time></trkpt><trkpt lat="44.0083916" lon="10.5698483"><ele>145.75</ele><time>2026-05-03T13:23:49.941Z</time></trkpt><trkpt lat="44.0084531" lon="10.5700377"><ele>138.0</ele><time>2026-05-03T13:23:50.938Z</time></trkpt><trkpt lat="44.0085174" lon="10.5702329"><ele>140.25</ele><time>2026-05-03T13:23:51.943Z</time></trkpt><trkpt lat="44.0085607" lon="10.5704204"><ele>142.5</ele><time>2026-05-03T13:23:52.947Z</time></trkpt><trkpt lat="44.0086142" lon="10.5705963"><ele>144.75</ele><time>2026-05-03T13:23:53.941Z</time></trkpt><trkpt lat="44.008665" lon="10.5707708"><ele>147.0</ele><time>2026-05-03T13:23:54.954Z</time></trkpt><trkpt lat="44.0086806" lon="10.570956"><ele>147.0</ele><time>2026-05-03T13:23:55.958Z</time></trkpt><trkpt lat="44.0087011" lon="10.5711302"><ele>147.0</ele><time>2026-05-03T13:23:56.963Z</time></trkpt><trkpt lat="44.0087079" lon="10.5712829"><ele>147.0</ele><time>2026-05-03T13:23:57.96Z</time></trkpt><trkpt lat="44.0087487" lon="10.5714668"><ele>147.0</ele><time>2026-05-03T13:23:58.972Z</time></trkpt><trkpt lat="44.0087663" lon="10.5716501"><ele>150.25</ele><time>2026-05-03T13:23:59.964Z</time></trkpt><trkpt lat="44.0087682" lon="10.5718242"><ele>153.5</ele><time>2026-05-03T13:24:00.967Z</time></trkpt><trkpt lat="44.0087598" lon="10.5719945"><ele>156.75</ele><time>2026-05-03T13:24:01.972Z</time></trkpt><trkpt lat="44.0087595" lon="10.5721722"><ele>160.0</ele><time>2026-05-03T13:24:02.96Z</time></trkpt><trkpt lat="44.0087691" lon="10.5723508"><ele>161.5</ele><time>2026-05-03T13:24:03.968Z</time></trkpt><trkpt lat="44.0087775" lon="10.5725392"><ele>163.0</ele><time>2026-05-03T13:24:04.968Z</time></trkpt><trkpt lat="44.0087966" lon="10.5727259"><ele>164.5</ele><time>2026-05-03T13:24:05.973Z</time></trkpt><trkpt lat="44.0088361" lon="10.5729147"><ele>166.0</ele><time>2026-05-03T13:24:06.968Z</time></trkpt><trkpt lat="44.0088691" lon="10.5731263"><ele>166.25</ele><time>2026-05-03T13:24:07.953Z</time></trkpt><trkpt lat="44.0088962" lon="10.5733195"><ele>166.5</ele><time>2026-05-03T13:24:08.954Z</time></trkpt><trkpt lat="44.0089105" lon="10.5735258"><ele>166.75</ele><time>2026-05-03T13:24:09.953Z</time></trkpt><trkpt lat="44.0089226" lon="10.573711"><ele>167.0</ele><time>2026-05-03T13:24:10.965Z</time></trkpt><trkpt lat="44.008961" lon="10.57391"><ele>167.25</ele><time>2026-05-03T13:24:11.962Z</time></trkpt><trkpt lat="44.0089861" lon="10.5741233"><ele>167.5</ele><time>2026-05-03T13:24:12.965Z</time></trkpt><trkpt lat="44.0090267" lon="10.574329"><ele>167.75</ele><time>2026-05-03T13:24:13.968Z</time></trkpt><trkpt lat="44.0090145" lon="10.5745031"><ele>168.0</ele><time>2026-05-03T13:24:14.956Z</time></trkpt><trkpt lat="44.0090393" lon="10.5746759"><ele>168.0</ele><time>2026-05-03T13:24:15.973Z</time></trkpt><trkpt lat="44.0090534" lon="10.5748767"><ele>168.0</ele><time>2026-05-03T13:24:16.978Z</time></trkpt><trkpt lat="44.0090732" lon="10.575077"><ele>168.0</ele><time>2026-05-03T13:24:17.98Z</time></trkpt><trkpt lat="44.0091082" lon="10.5752594"><ele>168.0</ele><time>2026-05-03T13:24:18.984Z</time></trkpt><trkpt lat="44.0091314" lon="10.5754316"><ele>169.25</ele><time>2026-05-03T13:24:19.976Z</time></trkpt><trkpt lat="44.0091335" lon="10.5756246"><ele>170.5</ele><time>2026-05-03T13:24:20.972Z</time></trkpt><trkpt lat="44.0091589" lon="10.5758232"><ele>171.75</ele><time>2026-05-03T13:24:21.976Z</time></trkpt><trkpt lat="44.0091811" lon="10.5760138"><ele>173.0</ele><time>2026-05-03T13:24:22.98Z</time></trkpt><trkpt lat="44.0092062" lon="10.5762067"><ele>164.75</ele><time>2026-05-03T13:24:23.982Z</time></trkpt><trkpt lat="44.0092481" lon="10.5764069"><ele>156.5</ele><time>2026-05-03T13:24:24.983Z</time></trkpt><trkpt lat="44.0092747" lon="10.5765853"><ele>148.25</ele><time>2026-05-03T13:24:25.973Z</time></trkpt><trkpt lat="44.0093015" lon="10.5767391"><ele>140.0</ele><time>2026-05-03T13:24:26.968Z</time></trkpt><trkpt lat="44.0093357" lon="10.5768621"><ele>140.0</ele><time>2026-05-03T13:24:27.978Z</time></trkpt><trkpt lat="44.0093534" lon="10.5769926"><ele>140.0</ele><time>2026-05-03T13:24:28.98Z</time></trkpt><trkpt lat="44.009382" lon="10.5771228"><ele>140.0</ele><time>2026-05-03T13:24:29.98Z</time></trkpt><trkpt lat="44.0094118" lon="10.5772447"><ele>140.0</ele><time>2026-05-03T13:24:30.969Z</time></trkpt><trkpt lat="44.0094482" lon="10.5773737"><ele>140.0</ele><time>2026-05-03T13:24:31.979Z</time></trkpt><trkpt lat="44.0094789" lon="10.5775044"><ele>140.2</ele><time>2026-05-03T13:24:32.981Z</time></trkpt><trkpt lat="44.0095038" lon="10.5776401"><ele>140.4</ele><time>2026-05-03T13:24:33.974Z</time></trkpt><trkpt lat="44.0095215" lon="10.5777708"><ele>140.6</ele><time>2026-05-03T13:24:34.976Z</time></trkpt><trkpt lat="44.0095318" lon="10.57789"><ele>140.8</ele><time>2026-05-03T13:24:35.964Z</time></trkpt><trkpt lat="44.0095247" lon="10.5780062"><ele>141.0</ele><time>2026-05-03T13:24:36.971Z</time></trkpt><trkpt lat="44.0094787" lon="10.5781076"><ele>139.6</ele><time>2026-05-03T13:24:37.965Z</time></trkpt><trkpt lat="44.0094113" lon="10.5781899"><ele>138.2</ele><time>2026-05-03T13:24:38.961Z</time></trkpt><trkpt lat="44.0093393" lon="10.5782569"><ele>136.8</ele><time>2026-05-03T13:24:39.953Z</time></trkpt><trkpt lat="44.0092274" lon="10.5782777"><ele>135.4</ele><time>2026-05-03T13:24:40.949Z</time></trkpt><trkpt lat="44.0091191" lon="10.5783062"><ele>134.0</ele><time>2026-05-03T13:24:41.945Z</time></trkpt><trkpt lat="44.0090187" lon="10.5783133"><ele>134.0</ele><time>2026-05-03T13:24:42.945Z</time></trkpt><trkpt lat="44.0089185" lon="10.5783047"><ele>134.0</ele><time>2026-05-03T13:24:43.931Z</time></trkpt><trkpt lat="44.0088246" lon="10.578326"><ele>134.0</ele><time>2026-05-03T13:24:44.933Z</time></trkpt><trkpt lat="44.0087181" lon="10.5783519"><ele>134.0</ele><time>2026-05-03T13:24:45.942Z</time></trkpt><trkpt lat="44.0086333" lon="10.5783914"><ele>134.0</ele><time>2026-05-03T13:24:46.943Z</time></trkpt><trkpt lat="44.0085421" lon="10.578431"><ele>134.0</ele><time>2026-05-03T13:24:47.946Z</time></trkpt><trkpt lat="44.0084586" lon="10.578466"><ele>134.0</ele><time>2026-05-03T13:24:48.945Z</time></trkpt><trkpt lat="44.0083771" lon="10.5785058"><ele>134.0</ele><time>2026-05-03T13:24:49.983Z</time></trkpt><trkpt lat="44.0082885" lon="10.578529"><ele>134.0</ele><time>2026-05-03T13:24:50.94Z</time></trkpt><trkpt lat="44.0081813" lon="10.5785077"><ele>134.0</ele><time>2026-05-03T13:24:51.941Z</time></trkpt><trkpt lat="44.0080795" lon="10.5784949"><ele>136.5</ele><time>2026-05-03T13:24:52.935Z</time></trkpt><trkpt lat="44.0079708" lon="10.5784782"><ele>139.0</ele><time>2026-05-03T13:24:53.935Z</time></trkpt><trkpt lat="44.0078574" lon="10.5784577"><ele>141.5</ele><time>2026-05-03T13:24:54.941Z</time></trkpt><trkpt lat="44.0077322" lon="10.5784502"><ele>144.0</ele><time>2026-05-03T13:24:55.937Z</time></trkpt><trkpt lat="44.0076087" lon="10.5784318"><ele>141.75</ele><time>2026-05-03T13:24:56.947Z</time></trkpt><trkpt lat="44.0074779" lon="10.5784234"><ele>139.5</ele><time>2026-05-03T13:24:57.943Z</time></trkpt><trkpt lat="44.0073516" lon="10.5784262"><ele>137.25</ele><time>2026-05-03T13:24:58.952Z</time></trkpt><trkpt lat="44.0072166" lon="10.578424"><ele>135.0</ele><time>2026-05-03T13:24:59.946Z</time></trkpt><trkpt lat="44.0070827" lon="10.578418"><ele>135.0</ele><time>2026-05-03T13:25:00.943Z</time></trkpt><trkpt lat="44.0069469" lon="10.5784165"><ele>135.0</ele><time>2026-05-03T13:25:01.95Z</time></trkpt><trkpt lat="44.0068111" lon="10.5784053"><ele>135.0</ele><time>2026-05-03T13:25:02.946Z</time></trkpt><trkpt lat="44.0066951" lon="10.578397"><ele>135.0</ele><time>2026-05-03T13:25:03.95Z</time></trkpt><trkpt lat="44.0065776" lon="10.5783595"><ele>132.75</ele><time>2026-05-03T13:25:04.945Z</time></trkpt><trkpt lat="44.0064567" lon="10.5783442"><ele>130.5</ele><time>2026-05-03T13:25:05.953Z</time></trkpt><trkpt lat="44.0063302" lon="10.5783173"><ele>128.25</ele><time>2026-05-03T13:25:06.95Z</time></trkpt><trkpt lat="44.0062017" lon="10.5783046"><ele>126.0</ele><time>2026-05-03T13:25:07.949Z</time></trkpt><trkpt lat="44.0060568" lon="10.5782849"><ele>126.0</ele><time>2026-05-03T13:25:08.954Z</time></trkpt><trkpt lat="44.005922" lon="10.5782707"><ele>126.0</ele><time>2026-05-03T13:25:09.95Z</time></trkpt><trkpt lat="44.0057903" lon="10.5782629"><ele>126.0</ele><time>2026-05-03T13:25:10.945Z</time></trkpt><trkpt lat="44.0056536" lon="10.5782479"><ele>126.0</ele><time>2026-05-03T13:25:11.947Z</time></trkpt><trkpt lat="44.0055139" lon="10.5782353"><ele>126.25</ele><time>2026-05-03T13:25:12.939Z</time></trkpt><trkpt lat="44.0053798" lon="10.5782259"><ele>126.5</ele><time>2026-05-03T13:25:13.944Z</time></trkpt><trkpt lat="44.0052358" lon="10.5782228"><ele>126.75</ele><time>2026-05-03T13:25:14.949Z</time></trkpt><trkpt lat="44.0050863" lon="10.5782185"><ele>127.0</ele><time>2026-05-03T13:25:15.956Z</time></trkpt><trkpt lat="44.0049439" lon="10.5782059"><ele>131.5</ele><time>2026-05-03T13:25:16.956Z</time></trkpt><trkpt lat="44.004822" lon="10.5781988"><ele>136.0</ele><time>2026-05-03T13:25:17.953Z</time></trkpt><trkpt lat="44.0047075" lon="10.5781937"><ele>140.5</ele><time>2026-05-03T13:25:18.957Z</time></trkpt><trkpt lat="44.0045706" lon="10.5781962"><ele>145.0</ele><time>2026-05-03T13:25:19.973Z</time></trkpt><trkpt lat="44.0044437" lon="10.5782633"><ele>145.0</ele><time>2026-05-03T13:25:20.95Z</time></trkpt><trkpt lat="44.004317" lon="10.5783468"><ele>145.0</ele><time>2026-05-03T13:25:21.95Z</time></trkpt><trkpt lat="44.0041916" lon="10.5784473"><ele>145.0</ele><time>2026-05-03T13:25:22.947Z</time></trkpt><trkpt lat="44.0040851" lon="10.5785705"><ele>145.0</ele><time>2026-05-03T13:25:23.952Z</time></trkpt><trkpt lat="44.0039806" lon="10.5787016"><ele>145.5</ele><time>2026-05-03T13:25:24.955Z</time></trkpt><trkpt lat="44.0038829" lon="10.5788416"><ele>146.0</ele><time>2026-05-03T13:25:25.958Z</time></trkpt><trkpt lat="44.0037813" lon="10.5789786"><ele>146.5</ele><time>2026-05-03T13:25:26.958Z</time></trkpt><trkpt lat="44.003689" lon="10.5791199"><ele>147.0</ele><time>2026-05-03T13:25:27.956Z</time></trkpt><trkpt lat="44.0035977" lon="10.5792511"><ele>147.0</ele><time>2026-05-03T13:25:28.968Z</time></trkpt><trkpt lat="44.0035232" lon="10.5794046"><ele>147.0</ele><time>2026-05-03T13:25:29.964Z</time></trkpt><trkpt lat="44.0034474" lon="10.5795437"><ele>147.0</ele><time>2026-05-03T13:25:30.964Z</time></trkpt><trkpt lat="44.0033711" lon="10.5796827"><ele>147.0</ele><time>2026-05-03T13:25:31.97Z</time></trkpt><trkpt lat="44.0032938" lon="10.57981"><ele>147.2</ele><time>2026-05-03T13:25:32.971Z</time></trkpt><trkpt lat="44.0032211" lon="10.5799382"><ele>147.39999999999998</ele><time>2026-05-03T13:25:33.971Z</time></trkpt><trkpt lat="44.0031583" lon="10.5800622"><ele>147.60000000000002</ele><time>2026-05-03T13:25:34.964Z</time></trkpt><trkpt lat="44.0031004" lon="10.5801917"><ele>147.8</ele><time>2026-05-03T13:25:35.968Z</time></trkpt><trkpt lat="44.0030524" lon="10.5803298"><ele>148.0</ele><time>2026-05-03T13:25:36.97Z</time></trkpt><trkpt lat="44.0030186" lon="10.5804673"><ele>148.0</ele><time>2026-05-03T13:25:37.967Z</time></trkpt><trkpt lat="44.0029989" lon="10.5806133"><ele>148.0</ele><time>2026-05-03T13:25:38.981Z</time></trkpt><trkpt lat="44.0029858" lon="10.580774"><ele>148.0</ele><time>2026-05-03T13:25:39.983Z</time></trkpt><trkpt lat="44.0029855" lon="10.5809425"><ele>148.0</ele><time>2026-05-03T13:25:40.973Z</time></trkpt><trkpt lat="44.0030083" lon="10.5811232"><ele>151.5</ele><time>2026-05-03T13:25:41.993Z</time></trkpt><trkpt lat="44.0030278" lon="10.5813"><ele>155.0</ele><time>2026-05-03T13:25:43Z</time></trkpt><trkpt lat="44.0030619" lon="10.5814794"><ele>158.5</ele><time>2026-05-03T13:25:44.005Z</time></trkpt><trkpt lat="44.003095" lon="10.5816634"><ele>162.0</ele><time>2026-05-03T13:25:44.997Z</time></trkpt><trkpt lat="44.0031211" lon="10.5818498"><ele>165.5</ele><time>2026-05-03T13:25:46.002Z</time></trkpt><trkpt lat="44.003157" lon="10.5820356"><ele>169.0</ele><time>2026-05-03T13:25:46.988Z</time></trkpt><trkpt lat="44.0031958" lon="10.5822146"><ele>172.5</ele><time>2026-05-03T13:25:47.991Z</time></trkpt><trkpt lat="44.003232" lon="10.5823903"><ele>176.0</ele><time>2026-05-03T13:25:48.98Z</time></trkpt><trkpt lat="44.0032707" lon="10.5825733"><ele>176.0</ele><time>2026-05-03T13:25:49.975Z</time></trkpt><trkpt lat="44.0033083" lon="10.5827531"><ele>176.0</ele><time>2026-05-03T13:25:51.001Z</time></trkpt><trkpt lat="44.0033496" lon="10.5829263"><ele>176.0</ele><time>2026-05-03T13:25:51.979Z</time></trkpt><trkpt lat="44.0034106" lon="10.5831153"><ele>176.0</ele><time>2026-05-03T13:25:52.977Z</time></trkpt><trkpt lat="44.0034754" lon="10.583299"><ele>175.0</ele><time>2026-05-03T13:25:53.977Z</time></trkpt><trkpt lat="44.0035421" lon="10.5834843"><ele>174.0</ele><time>2026-05-03T13:25:54.979Z</time></trkpt><trkpt lat="44.0036126" lon="10.58366"><ele>173.0</ele><time>2026-05-03T13:25:55.971Z</time></trkpt><trkpt lat="44.0036682" lon="10.5838389"><ele>172.0</ele><time>2026-05-03T13:25:56.978Z</time></trkpt><trkpt lat="44.0037394" lon="10.5839878"><ele>172.0</ele><time>2026-05-03T13:25:57.963Z</time></trkpt><trkpt lat="44.0038105" lon="10.5841268"><ele>172.0</ele><time>2026-05-03T13:25:58.969Z</time></trkpt><trkpt lat="44.0038731" lon="10.5843209"><ele>172.0</ele><time>2026-05-03T13:25:59.958Z</time></trkpt><trkpt lat="44.0039342" lon="10.584494"><ele>172.0</ele><time>2026-05-03T13:26:00.956Z</time></trkpt><trkpt lat="44.0039973" lon="10.584664"><ele>176.0</ele><time>2026-05-03T13:26:01.962Z</time></trkpt><trkpt lat="44.0040558" lon="10.5848286"><ele>180.0</ele><time>2026-05-03T13:26:02.956Z</time></trkpt><trkpt lat="44.004124" lon="10.5849941"><ele>184.0</ele><time>2026-05-03T13:26:03.956Z</time></trkpt><trkpt lat="44.0042074" lon="10.5851772"><ele>188.0</ele><time>2026-05-03T13:26:04.954Z</time></trkpt><trkpt lat="44.0042603" lon="10.5853684"><ele>178.75</ele><time>2026-05-03T13:26:05.957Z</time></trkpt><trkpt lat="44.0043316" lon="10.5855562"><ele>169.5</ele><time>2026-05-03T13:26:06.956Z</time></trkpt><trkpt lat="44.0043963" lon="10.5857259"><ele>160.25</ele><time>2026-05-03T13:26:07.957Z</time></trkpt><trkpt lat="44.0044706" lon="10.5859057"><ele>151.0</ele><time>2026-05-03T13:26:08.96Z</time></trkpt><trkpt lat="44.0045556" lon="10.5860727"><ele>154.25</ele><time>2026-05-03T13:26:09.96Z</time></trkpt><trkpt lat="44.0046261" lon="10.5862553"><ele>157.5</ele><time>2026-05-03T13:26:10.959Z</time></trkpt><trkpt lat="44.0047141" lon="10.5864238"><ele>160.75</ele><time>2026-05-03T13:26:11.959Z</time></trkpt><trkpt lat="44.0048069" lon="10.5865809"><ele>164.0</ele><time>2026-05-03T13:26:12.96Z</time></trkpt><trkpt lat="44.004897" lon="10.586742"><ele>164.0</ele><time>2026-05-03T13:26:13.958Z</time></trkpt><trkpt lat="44.0049903" lon="10.5868962"><ele>164.0</ele><time>2026-05-03T13:26:14.966Z</time></trkpt><trkpt lat="44.0050783" lon="10.5870632"><ele>164.0</ele><time>2026-05-03T13:26:15.972Z</time></trkpt><trkpt lat="44.0051717" lon="10.587235"><ele>164.0</ele><time>2026-05-03T13:26:16.974Z</time></trkpt><trkpt lat="44.0052557" lon="10.5873921"><ele>161.75</ele><time>2026-05-03T13:26:17.97Z</time></trkpt><trkpt lat="44.0053294" lon="10.5875483"><ele>159.5</ele><time>2026-05-03T13:26:18.978Z</time></trkpt><trkpt lat="44.0054256" lon="10.5877025"><ele>157.25</ele><time>2026-05-03T13:26:19.975Z</time></trkpt><trkpt lat="44.0055115" lon="10.5878816"><ele>155.0</ele><time>2026-05-03T13:26:20.977Z</time></trkpt><trkpt lat="44.0055937" lon="10.588029"><ele>155.0</ele><time>2026-05-03T13:26:21.99Z</time></trkpt><trkpt lat="44.0056815" lon="10.588188"><ele>155.0</ele><time>2026-05-03T13:26:22.972Z</time></trkpt><trkpt lat="44.0057685" lon="10.5883505"><ele>155.0</ele><time>2026-05-03T13:26:23.976Z</time></trkpt><trkpt lat="44.0058643" lon="10.5885045"><ele>155.0</ele><time>2026-05-03T13:26:24.979Z</time></trkpt><trkpt lat="44.0059581" lon="10.588654"><ele>153.25</ele><time>2026-05-03T13:26:25.972Z</time></trkpt><trkpt lat="44.0060616" lon="10.5887845"><ele>151.5</ele><time>2026-05-03T13:26:26.969Z</time></trkpt><trkpt lat="44.0061803" lon="10.5889075"><ele>149.75</ele><time>2026-05-03T13:26:27.978Z</time></trkpt><trkpt lat="44.0063039" lon="10.5890033"><ele>148.0</ele><time>2026-05-03T13:26:28.971Z</time></trkpt><trkpt lat="44.0064164" lon="10.5891289"><ele>148.0</ele><time>2026-05-03T13:26:29.973Z</time></trkpt><trkpt lat="44.0065386" lon="10.5892654"><ele>148.0</ele><time>2026-05-03T13:26:30.977Z</time></trkpt><trkpt lat="44.0066475" lon="10.5894014"><ele>148.0</ele><time>2026-05-03T13:26:31.98Z</time></trkpt><trkpt lat="44.0067656" lon="10.5895301"><ele>149.0</ele><time>2026-05-03T13:26:32.975Z</time></trkpt><trkpt lat="44.0068904" lon="10.5896567"><ele>150.0</ele><time>2026-05-03T13:26:33.979Z</time></trkpt><trkpt lat="44.0069995" lon="10.589781"><ele>151.0</ele><time>2026-05-03T13:26:34.976Z</time></trkpt><trkpt lat="44.0071173" lon="10.589894"><ele>152.0</ele><time>2026-05-03T13:26:35.984Z</time></trkpt><trkpt lat="44.0072308" lon="10.5900107"><ele>152.0</ele><time>2026-05-03T13:26:36.984Z</time></trkpt><trkpt lat="44.0073411" lon="10.590135"><ele>152.0</ele><time>2026-05-03T13:26:37.985Z</time></trkpt><trkpt lat="44.0074525" lon="10.5902554"><ele>152.0</ele><time>2026-05-03T13:26:38.982Z</time></trkpt><trkpt lat="44.0075662" lon="10.5903857"><ele>152.0</ele><time>2026-05-03T13:26:39.983Z</time></trkpt><trkpt lat="44.0076935" lon="10.5905095"><ele>153.5</ele><time>2026-05-03T13:26:40.987Z</time></trkpt><trkpt lat="44.0078046" lon="10.5906214"><ele>155.0</ele><time>2026-05-03T13:26:41.989Z</time></trkpt><trkpt lat="44.00792" lon="10.59074"><ele>156.5</ele><time>2026-05-03T13:26:42.981Z</time></trkpt><trkpt lat="44.0080414" lon="10.5908505"><ele>158.0</ele><time>2026-05-03T13:26:43.981Z</time></trkpt><trkpt lat="44.0081526" lon="10.5909622"><ele>158.0</ele><time>2026-05-03T13:26:44.987Z</time></trkpt><trkpt lat="44.0082644" lon="10.5910908"><ele>158.0</ele><time>2026-05-03T13:26:45.988Z</time></trkpt><trkpt lat="44.00838" lon="10.5912041"><ele>158.0</ele><time>2026-05-03T13:26:46.981Z</time></trkpt><trkpt lat="44.0084921" lon="10.591317"><ele>158.0</ele><time>2026-05-03T13:26:47.984Z</time></trkpt><trkpt lat="44.0086077" lon="10.5914285"><ele>159.5</ele><time>2026-05-03T13:26:48.983Z</time></trkpt><trkpt lat="44.0087194" lon="10.5915365"><ele>161.0</ele><time>2026-05-03T13:26:49.987Z</time></trkpt><trkpt lat="44.0088359" lon="10.5916398"><ele>162.5</ele><time>2026-05-03T13:26:50.984Z</time></trkpt><trkpt lat="44.0089479" lon="10.5917502"><ele>164.0</ele><time>2026-05-03T13:26:51.98Z</time></trkpt><trkpt lat="44.0090589" lon="10.5918627"><ele>166.0</ele><time>2026-05-03T13:26:52.995Z</time></trkpt><trkpt lat="44.0091918" lon="10.5919806"><ele>168.0</ele><time>2026-05-03T13:26:53.976Z</time></trkpt><trkpt lat="44.0093191" lon="10.5921116"><ele>170.0</ele><time>2026-05-03T13:26:54.976Z</time></trkpt><trkpt lat="44.0094216" lon="10.5922414"><ele>170.0</ele><time>2026-05-03T13:26:55.972Z</time></trkpt><trkpt lat="44.0095436" lon="10.5923672"><ele>170.0</ele><time>2026-05-03T13:26:56.969Z</time></trkpt><trkpt lat="44.009665" lon="10.5924859"><ele>170.0</ele><time>2026-05-03T13:26:57.97Z</time></trkpt><trkpt lat="44.0097939" lon="10.5925761"><ele>170.0</ele><time>2026-05-03T13:26:58.972Z</time></trkpt><trkpt lat="44.0099258" lon="10.5926926"><ele>171.0</ele><time>2026-05-03T13:26:59.966Z</time></trkpt><trkpt lat="44.010052" lon="10.5927965"><ele>172.0</ele><time>2026-05-03T13:27:00.969Z</time></trkpt><trkpt lat="44.0101639" lon="10.5928827"><ele>173.0</ele><time>2026-05-03T13:27:01.968Z</time></trkpt><trkpt lat="44.0102676" lon="10.5929769"><ele>174.0</ele><time>2026-05-03T13:27:02.965Z</time></trkpt><trkpt lat="44.0103753" lon="10.5930638"><ele>174.0</ele><time>2026-05-03T13:27:03.963Z</time></trkpt><trkpt lat="44.0104806" lon="10.5931673"><ele>174.0</ele><time>2026-05-03T13:27:04.96Z</time></trkpt><trkpt lat="44.0105943" lon="10.5932686"><ele>174.0</ele><time>2026-05-03T13:27:05.956Z</time></trkpt><trkpt lat="44.0107054" lon="10.5933684"><ele>174.0</ele><time>2026-05-03T13:27:06.956Z</time></trkpt><trkpt lat="44.0108201" lon="10.5934775"><ele>172.25</ele><time>2026-05-03T13:27:07.96Z</time></trkpt><trkpt lat="44.0109199" lon="10.5936175"><ele>170.5</ele><time>2026-05-03T13:27:08.95Z</time></trkpt><trkpt lat="44.0110054" lon="10.5937509"><ele>168.75</ele><time>2026-05-03T13:27:09.942Z</time></trkpt><trkpt lat="44.0110804" lon="10.5938904"><ele>167.0</ele><time>2026-05-03T13:27:10.951Z</time></trkpt><trkpt lat="44.0111554" lon="10.5940275"><ele>167.0</ele><time>2026-05-03T13:27:11.95Z</time></trkpt><trkpt lat="44.011215" lon="10.5941508"><ele>167.0</ele><time>2026-05-03T13:27:12.944Z</time></trkpt><trkpt lat="44.0112815" lon="10.5942586"><ele>167.0</ele><time>2026-05-03T13:27:13.953Z</time></trkpt><trkpt lat="44.0113346" lon="10.5943607"><ele>167.0</ele><time>2026-05-03T13:27:14.955Z</time></trkpt><trkpt lat="44.0113795" lon="10.5944813"><ele>167.0</ele><time>2026-05-03T13:27:15.955Z</time></trkpt><trkpt lat="44.0114174" lon="10.5946271"><ele>171.5</ele><time>2026-05-03T13:27:16.955Z</time></trkpt><trkpt lat="44.011453" lon="10.5947829"><ele>176.0</ele><time>2026-05-03T13:27:17.955Z</time></trkpt><trkpt lat="44.0114889" lon="10.5949381"><ele>180.5</ele><time>2026-05-03T13:27:18.954Z</time></trkpt><trkpt lat="44.0115159" lon="10.5950971"><ele>185.0</ele><time>2026-05-03T13:27:19.956Z</time></trkpt><trkpt lat="44.0115582" lon="10.5952542"><ele>187.0</ele><time>2026-05-03T13:27:20.954Z</time></trkpt><trkpt lat="44.0116015" lon="10.5953986"><ele>189.0</ele><time>2026-05-03T13:27:21.974Z</time></trkpt><trkpt lat="44.0116365" lon="10.5955345"><ele>191.0</ele><time>2026-05-03T13:27:22.969Z</time></trkpt><trkpt lat="44.0116602" lon="10.59568"><ele>193.0</ele><time>2026-05-03T13:27:23.991Z</time></trkpt><trkpt lat="44.0116922" lon="10.5958294"><ele>195.0</ele><time>2026-05-03T13:27:24.976Z</time></trkpt><trkpt lat="44.011727" lon="10.5959826"><ele>187.6</ele><time>2026-05-03T13:27:25.98Z</time></trkpt><trkpt lat="44.0117657" lon="10.5961375"><ele>180.2</ele><time>2026-05-03T13:27:26.979Z</time></trkpt><trkpt lat="44.0117958" lon="10.5962933"><ele>172.8</ele><time>2026-05-03T13:27:27.98Z</time></trkpt><trkpt lat="44.0118287" lon="10.5964338"><ele>165.4</ele><time>2026-05-03T13:27:28.981Z</time></trkpt><trkpt lat="44.0118581" lon="10.5965794"><ele>158.0</ele><time>2026-05-03T13:27:29.971Z</time></trkpt><trkpt lat="44.0118877" lon="10.596711"><ele>158.0</ele><time>2026-05-03T13:27:30.978Z</time></trkpt><trkpt lat="44.0119302" lon="10.5968526"><ele>158.0</ele><time>2026-05-03T13:27:31.974Z</time></trkpt><trkpt lat="44.0119761" lon="10.5970014"><ele>158.0</ele><time>2026-05-03T13:27:32.978Z</time></trkpt><trkpt lat="44.0120212" lon="10.5971709"><ele>158.0</ele><time>2026-05-03T13:27:33.979Z</time></trkpt><trkpt lat="44.012066" lon="10.5973348"><ele>160.75</ele><time>2026-05-03T13:27:34.977Z</time></trkpt><trkpt lat="44.0121047" lon="10.5974985"><ele>163.5</ele><time>2026-05-03T13:27:35.983Z</time></trkpt><trkpt lat="44.0121435" lon="10.5976561"><ele>166.25</ele><time>2026-05-03T13:27:36.982Z</time></trkpt><trkpt lat="44.0121873" lon="10.5978306"><ele>169.0</ele><time>2026-05-03T13:27:37.98Z</time></trkpt><trkpt lat="44.0122355" lon="10.5979911"><ele>173.25</ele><time>2026-05-03T13:27:38.985Z</time></trkpt><trkpt lat="44.0122796" lon="10.5981623"><ele>177.5</ele><time>2026-05-03T13:27:39.978Z</time></trkpt><trkpt lat="44.0123174" lon="10.5983409"><ele>181.75</ele><time>2026-05-03T13:27:40.971Z</time></trkpt><trkpt lat="44.0123533" lon="10.5985157"><ele>186.0</ele><time>2026-05-03T13:27:41.972Z</time></trkpt><trkpt lat="44.012397" lon="10.5986962"><ele>189.5</ele><time>2026-05-03T13:27:42.962Z</time></trkpt><trkpt lat="44.012438" lon="10.5988667"><ele>193.0</ele><time>2026-05-03T13:27:43.97Z</time></trkpt><trkpt lat="44.0124724" lon="10.5990514"><ele>196.5</ele><time>2026-05-03T13:27:44.969Z</time></trkpt><trkpt lat="44.0124981" lon="10.5992366"><ele>200.0</ele><time>2026-05-03T13:27:45.965Z</time></trkpt><trkpt lat="44.0125169" lon="10.5994072"><ele>191.0</ele><time>2026-05-03T13:27:46.961Z</time></trkpt><trkpt lat="44.0125343" lon="10.5995777"><ele>182.0</ele><time>2026-05-03T13:27:47.963Z</time></trkpt><trkpt lat="44.0125491" lon="10.5997376"><ele>173.0</ele><time>2026-05-03T13:27:48.961Z</time></trkpt><trkpt lat="44.0125567" lon="10.5998907"><ele>164.0</ele><time>2026-05-03T13:27:49.961Z</time></trkpt><trkpt lat="44.0125419" lon="10.6000529"><ele>164.0</ele><time>2026-05-03T13:27:50.957Z</time></trkpt><trkpt lat="44.01251" lon="10.600216"><ele>164.0</ele><time>2026-05-03T13:27:51.954Z</time></trkpt><trkpt lat="44.0124787" lon="10.6003894"><ele>164.0</ele><time>2026-05-03T13:27:52.96Z</time></trkpt><trkpt lat="44.0124384" lon="10.6005686"><ele>164.0</ele><time>2026-05-03T13:27:53.962Z</time></trkpt><trkpt lat="44.0123913" lon="10.6007449"><ele>170.5</ele><time>2026-05-03T13:27:54.973Z</time></trkpt><trkpt lat="44.0123368" lon="10.6009237"><ele>177.0</ele><time>2026-05-03T13:27:55.955Z</time></trkpt><trkpt lat="44.0122659" lon="10.6010996"><ele>183.5</ele><time>2026-05-03T13:27:56.956Z</time></trkpt><trkpt lat="44.0122031" lon="10.6012759"><ele>190.0</ele><time>2026-05-03T13:27:57.957Z</time></trkpt><trkpt lat="44.0121385" lon="10.601444"><ele>190.0</ele><time>2026-05-03T13:27:58.956Z</time></trkpt><trkpt lat="44.0120728" lon="10.6016186"><ele>190.0</ele><time>2026-05-03T13:27:59.959Z</time></trkpt><trkpt lat="44.0119731" lon="10.6017746"><ele>190.0</ele><time>2026-05-03T13:28:00.956Z</time></trkpt><trkpt lat="44.011876" lon="10.6019407"><ele>190.0</ele><time>2026-05-03T13:28:01.958Z</time></trkpt><trkpt lat="44.0118151" lon="10.6021109"><ele>184.75</ele><time>2026-05-03T13:28:02.961Z</time></trkpt><trkpt lat="44.0117622" lon="10.6022799"><ele>179.5</ele><time>2026-05-03T13:28:03.955Z</time></trkpt><trkpt lat="44.0117227" lon="10.6024544"><ele>174.25</ele><time>2026-05-03T13:28:04.959Z</time></trkpt><trkpt lat="44.0116674" lon="10.6026096"><ele>169.0</ele><time>2026-05-03T13:28:05.957Z</time></trkpt><trkpt lat="44.01165" lon="10.6027902"><ele>183.0</ele><time>2026-05-03T13:28:06.954Z</time></trkpt><trkpt lat="44.0116074" lon="10.6029729"><ele>197.0</ele><time>2026-05-03T13:28:07.958Z</time></trkpt><trkpt lat="44.0115453" lon="10.6031319"><ele>211.0</ele><time>2026-05-03T13:28:08.954Z</time></trkpt><trkpt lat="44.0115271" lon="10.6032955"><ele>225.0</ele><time>2026-05-03T13:28:09.954Z</time></trkpt><trkpt lat="44.011469" lon="10.6034657"><ele>225.0</ele><time>2026-05-03T13:28:10.954Z</time></trkpt><trkpt lat="44.0114653" lon="10.6036516"><ele>225.0</ele><time>2026-05-03T13:28:11.955Z</time></trkpt><trkpt lat="44.0114769" lon="10.603855"><ele>225.0</ele><time>2026-05-03T13:28:12.949Z</time></trkpt><trkpt lat="44.0114824" lon="10.6040551"><ele>225.0</ele><time>2026-05-03T13:28:13.956Z</time></trkpt><trkpt lat="44.0114755" lon="10.6042483"><ele>221.25</ele><time>2026-05-03T13:28:14.952Z</time></trkpt><trkpt lat="44.0114501" lon="10.6044337"><ele>217.5</ele><time>2026-05-03T13:28:15.951Z</time></trkpt><trkpt lat="44.0114509" lon="10.6046313"><ele>213.75</ele><time>2026-05-03T13:28:16.944Z</time></trkpt><trkpt lat="44.0114563" lon="10.6048219"><ele>210.0</ele><time>2026-05-03T13:28:17.951Z</time></trkpt><trkpt lat="44.0114283" lon="10.6050075"><ele>205.33333333333331</ele><time>2026-05-03T13:28:18.946Z</time></trkpt><trkpt lat="44.0114205" lon="10.6052205"><ele>200.66666666666666</ele><time>2026-05-03T13:28:19.951Z</time></trkpt><trkpt lat="44.0113653" lon="10.6054239"><ele>196.0</ele><time>2026-05-03T13:28:20.955Z</time></trkpt><trkpt lat="44.0113235" lon="10.6056108"><ele>193.0</ele><time>2026-05-03T13:28:21.952Z</time></trkpt><trkpt lat="44.0112926" lon="10.6057957"><ele>190.0</ele><time>2026-05-03T13:28:22.956Z</time></trkpt><trkpt lat="44.0112529" lon="10.605987"><ele>187.0</ele><time>2026-05-03T13:28:23.957Z</time></trkpt><trkpt lat="44.0112341" lon="10.6061713"><ele>184.0</ele><time>2026-05-03T13:28:24.957Z</time></trkpt><trkpt lat="44.0111935" lon="10.606347"><ele>182.25</ele><time>2026-05-03T13:28:25.971Z</time></trkpt><trkpt lat="44.0112099" lon="10.6065406"><ele>180.5</ele><time>2026-05-03T13:28:26.952Z</time></trkpt><trkpt lat="44.0112439" lon="10.6067288"><ele>178.75</ele><time>2026-05-03T13:28:27.954Z</time></trkpt><trkpt lat="44.0112949" lon="10.6069299"><ele>177.0</ele><time>2026-05-03T13:28:28.958Z</time></trkpt><trkpt lat="44.0113404" lon="10.6071084"><ele>176.5</ele><time>2026-05-03T13:28:29.958Z</time></trkpt><trkpt lat="44.0113942" lon="10.6072822"><ele>176.0</ele><time>2026-05-03T13:28:30.957Z</time></trkpt><trkpt lat="44.011417" lon="10.6074513"><ele>175.5</ele><time>2026-05-03T13:28:31.959Z</time></trkpt><trkpt lat="44.0114314" lon="10.6076263"><ele>175.0</ele><time>2026-05-03T13:28:32.947Z</time></trkpt><trkpt lat="44.0113945" lon="10.6077872"><ele>174.75</ele><time>2026-05-03T13:28:33.955Z</time></trkpt><trkpt lat="44.0113894" lon="10.6079633"><ele>174.5</ele><time>2026-05-03T13:28:34.959Z</time></trkpt><trkpt lat="44.0113465" lon="10.6081385"><ele>174.25</ele><time>2026-05-03T13:28:35.961Z</time></trkpt><trkpt lat="44.0112943" lon="10.6082999"><ele>174.0</ele><time>2026-05-03T13:28:36.97Z</time></trkpt><trkpt lat="44.0112645" lon="10.6084802"><ele>174.0</ele><time>2026-05-03T13:28:37.971Z</time></trkpt><trkpt lat="44.0112198" lon="10.6086581"><ele>174.0</ele><time>2026-05-03T13:28:38.979Z</time></trkpt><trkpt lat="44.0111748" lon="10.6088346"><ele>174.0</ele><time>2026-05-03T13:28:39.975Z</time></trkpt><trkpt lat="44.0111091" lon="10.6090009"><ele>174.0</ele><time>2026-05-03T13:28:40.972Z</time></trkpt><trkpt lat="44.0110379" lon="10.6091614"><ele>173.25</ele><time>2026-05-03T13:28:41.975Z</time></trkpt><trkpt lat="44.0109768" lon="10.6093149"><ele>172.5</ele><time>2026-05-03T13:28:42.976Z</time></trkpt><trkpt lat="44.0109113" lon="10.6094737"><ele>171.75</ele><time>2026-05-03T13:28:43.976Z</time></trkpt><trkpt lat="44.0108465" lon="10.6096391"><ele>171.0</ele><time>2026-05-03T13:28:44.975Z</time></trkpt><trkpt lat="44.0107841" lon="10.6097894"><ele>172.75</ele><time>2026-05-03T13:28:45.972Z</time></trkpt><trkpt lat="44.0107223" lon="10.6099545"><ele>174.5</ele><time>2026-05-03T13:28:46.974Z</time></trkpt><trkpt lat="44.0106489" lon="10.6101367"><ele>176.25</ele><time>2026-05-03T13:28:47.979Z</time></trkpt><trkpt lat="44.0105804" lon="10.6102922"><ele>178.0</ele><time>2026-05-03T13:28:48.98Z</time></trkpt><trkpt lat="44.0105074" lon="10.6104596"><ele>178.0</ele><time>2026-05-03T13:28:49.982Z</time></trkpt><trkpt lat="44.0104372" lon="10.6106191"><ele>178.0</ele><time>2026-05-03T13:28:50.977Z</time></trkpt><trkpt lat="44.0103459" lon="10.6107629"><ele>178.0</ele><time>2026-05-03T13:28:51.978Z</time></trkpt><trkpt lat="44.0102477" lon="10.6108788"><ele>178.0</ele><time>2026-05-03T13:28:52.981Z</time></trkpt><trkpt lat="44.0101543" lon="10.6110299"><ele>174.75</ele><time>2026-05-03T13:28:53.978Z</time></trkpt><trkpt lat="44.0100751" lon="10.6111991"><ele>171.5</ele><time>2026-05-03T13:28:54.975Z</time></trkpt><trkpt lat="44.0099964" lon="10.6113741"><ele>168.25</ele><time>2026-05-03T13:28:55.978Z</time></trkpt><trkpt lat="44.0099005" lon="10.6115308"><ele>165.0</ele><time>2026-05-03T13:28:56.989Z</time></trkpt><trkpt lat="44.0098174" lon="10.6116907"><ele>169.25</ele><time>2026-05-03T13:28:57.968Z</time></trkpt><trkpt lat="44.0097268" lon="10.6118466"><ele>173.5</ele><time>2026-05-03T13:28:58.97Z</time></trkpt><trkpt lat="44.0096304" lon="10.6119943"><ele>177.75</ele><time>2026-05-03T13:28:59.963Z</time></trkpt><trkpt lat="44.0095252" lon="10.6121356"><ele>182.0</ele><time>2026-05-03T13:29:00.962Z</time></trkpt><trkpt lat="44.0094217" lon="10.6123053"><ele>182.0</ele><time>2026-05-03T13:29:01.965Z</time></trkpt><trkpt lat="44.009343" lon="10.6124745"><ele>182.0</ele><time>2026-05-03T13:29:02.962Z</time></trkpt><trkpt lat="44.0092375" lon="10.6126448"><ele>182.0</ele><time>2026-05-03T13:29:03.959Z</time></trkpt><trkpt lat="44.0091449" lon="10.6127912"><ele>182.0</ele><time>2026-05-03T13:29:04.957Z</time></trkpt><trkpt lat="44.0090734" lon="10.6129563"><ele>185.5</ele><time>2026-05-03T13:29:05.956Z</time></trkpt><trkpt lat="44.0089808" lon="10.6131125"><ele>189.0</ele><time>2026-05-03T13:29:06.959Z</time></trkpt><trkpt lat="44.008921" lon="10.613273"><ele>192.5</ele><time>2026-05-03T13:29:07.953Z</time></trkpt><trkpt lat="44.0088799" lon="10.6134137"><ele>196.0</ele><time>2026-05-03T13:29:08.962Z</time></trkpt><trkpt lat="44.0088546" lon="10.6135769"><ele>192.75</ele><time>2026-05-03T13:29:09.961Z</time></trkpt><trkpt lat="44.0088288" lon="10.6137482"><ele>189.5</ele><time>2026-05-03T13:29:10.972Z</time></trkpt><trkpt lat="44.008824" lon="10.6139309"><ele>186.25</ele><time>2026-05-03T13:29:11.968Z</time></trkpt><trkpt lat="44.0088067" lon="10.6141072"><ele>183.0</ele><time>2026-05-03T13:29:12.967Z</time></trkpt><trkpt lat="44.0087812" lon="10.6142763"><ele>183.0</ele><time>2026-05-03T13:29:13.968Z</time></trkpt><trkpt lat="44.0087451" lon="10.6144288"><ele>183.0</ele><time>2026-05-03T13:29:14.968Z</time></trkpt><trkpt lat="44.0086818" lon="10.6145769"><ele>183.0</ele><time>2026-05-03T13:29:15.965Z</time></trkpt><trkpt lat="44.0085925" lon="10.6147188"><ele>183.0</ele><time>2026-05-03T13:29:16.966Z</time></trkpt><trkpt lat="44.0084932" lon="10.6148563"><ele>180.25</ele><time>2026-05-03T13:29:17.967Z</time></trkpt><trkpt lat="44.0083979" lon="10.614991"><ele>177.5</ele><time>2026-05-03T13:29:18.972Z</time></trkpt><trkpt lat="44.0083266" lon="10.6151592"><ele>174.75</ele><time>2026-05-03T13:29:19.961Z</time></trkpt><trkpt lat="44.0082794" lon="10.6153461"><ele>172.0</ele><time>2026-05-03T13:29:20.962Z</time></trkpt><trkpt lat="44.0082617" lon="10.6155356"><ele>182.25</ele><time>2026-05-03T13:29:21.983Z</time></trkpt><trkpt lat="44.008239" lon="10.6157158"><ele>192.5</ele><time>2026-05-03T13:29:22.979Z</time></trkpt><trkpt lat="44.0082325" lon="10.6158995"><ele>202.75</ele><time>2026-05-03T13:29:23.981Z</time></trkpt><trkpt lat="44.0082462" lon="10.6160915"><ele>213.0</ele><time>2026-05-03T13:29:24.98Z</time></trkpt><trkpt lat="44.0082638" lon="10.6162675"><ele>214.25</ele><time>2026-05-03T13:29:25.984Z</time></trkpt><trkpt lat="44.0082861" lon="10.6164533"><ele>215.5</ele><time>2026-05-03T13:29:26.971Z</time></trkpt><trkpt lat="44.0083354" lon="10.6166257"><ele>216.75</ele><time>2026-05-03T13:29:28.009Z</time></trkpt><trkpt lat="44.0083854" lon="10.6168114"><ele>218.0</ele><time>2026-05-03T13:29:28.973Z</time></trkpt><trkpt lat="44.0084516" lon="10.6170098"><ele>210.5</ele><time>2026-05-03T13:29:29.972Z</time></trkpt><trkpt lat="44.0085052" lon="10.6171908"><ele>203.0</ele><time>2026-05-03T13:29:30.976Z</time></trkpt><trkpt lat="44.0085422" lon="10.6173661"><ele>195.5</ele><time>2026-05-03T13:29:31.969Z</time></trkpt><trkpt lat="44.0085735" lon="10.6175427"><ele>188.0</ele><time>2026-05-03T13:29:32.97Z</time></trkpt><trkpt lat="44.0085705" lon="10.6177324"><ele>187.0</ele><time>2026-05-03T13:29:33.964Z</time></trkpt><trkpt lat="44.0085969" lon="10.6178781"><ele>186.0</ele><time>2026-05-03T13:29:34.963Z</time></trkpt><trkpt lat="44.0086334" lon="10.6180503"><ele>185.0</ele><time>2026-05-03T13:29:35.968Z</time></trkpt><trkpt lat="44.0086812" lon="10.6181931"><ele>184.0</ele><time>2026-05-03T13:29:36.956Z</time></trkpt><trkpt lat="44.0087564" lon="10.6183084"><ele>184.0</ele><time>2026-05-03T13:29:37.958Z</time></trkpt><trkpt lat="44.0088608" lon="10.6183923"><ele>184.0</ele><time>2026-05-03T13:29:38.97Z</time></trkpt><trkpt lat="44.0089813" lon="10.6184574"><ele>184.0</ele><time>2026-05-03T13:29:39.968Z</time></trkpt><trkpt lat="44.0091108" lon="10.6184992"><ele>184.0</ele><time>2026-05-03T13:29:40.971Z</time></trkpt><trkpt lat="44.0092407" lon="10.6185244"><ele>186.0</ele><time>2026-05-03T13:29:41.975Z</time></trkpt><trkpt lat="44.0093593" lon="10.6185475"><ele>188.0</ele><time>2026-05-03T13:29:42.975Z</time></trkpt><trkpt lat="44.0094806" lon="10.6185736"><ele>190.0</ele><time>2026-05-03T13:29:43.978Z</time></trkpt><trkpt lat="44.0095959" lon="10.618625"><ele>192.0</ele><time>2026-05-03T13:29:44.969Z</time></trkpt><trkpt lat="44.0097027" lon="10.6187099"><ele>192.0</ele><time>2026-05-03T13:29:45.982Z</time></trkpt><trkpt lat="44.0098058" lon="10.6188275"><ele>192.0</ele><time>2026-05-03T13:29:46.977Z</time></trkpt><trkpt lat="44.0099093" lon="10.6189525"><ele>192.0</ele><time>2026-05-03T13:29:47.981Z</time></trkpt><trkpt lat="44.0100179" lon="10.6190786"><ele>192.0</ele><time>2026-05-03T13:29:48.972Z</time></trkpt><trkpt lat="44.0101147" lon="10.6192102"><ele>194.0</ele><time>2026-05-03T13:29:49.977Z</time></trkpt><trkpt lat="44.0102174" lon="10.6193374"><ele>196.0</ele><time>2026-05-03T13:29:50.98Z</time></trkpt><trkpt lat="44.0103184" lon="10.6194668"><ele>198.0</ele><time>2026-05-03T13:29:51.976Z</time></trkpt><trkpt lat="44.0104177" lon="10.6195882"><ele>200.0</ele><time>2026-05-03T13:29:52.979Z</time></trkpt><trkpt lat="44.0105206" lon="10.6197064"><ele>200.0</ele><time>2026-05-03T13:29:53.972Z</time></trkpt><trkpt lat="44.0106351" lon="10.6198192"><ele>200.0</ele><time>2026-05-03T13:29:54.977Z</time></trkpt><trkpt lat="44.0107662" lon="10.6199425"><ele>200.0</ele><time>2026-05-03T13:29:55.972Z</time></trkpt><trkpt lat="44.0108682" lon="10.6200436"><ele>200.0</ele><time>2026-05-03T13:29:56.969Z</time></trkpt><trkpt lat="44.0109878" lon="10.6201561"><ele>198.25</ele><time>2026-05-03T13:29:57.987Z</time></trkpt><trkpt lat="44.0111017" lon="10.6202632"><ele>196.5</ele><time>2026-05-03T13:29:58.97Z</time></trkpt><trkpt lat="44.0112268" lon="10.6203829"><ele>194.75</ele><time>2026-05-03T13:29:59.97Z</time></trkpt><trkpt lat="44.011337" lon="10.6205065"><ele>193.0</ele><time>2026-05-03T13:30:00.977Z</time></trkpt><trkpt lat="44.0114477" lon="10.6206332"><ele>193.0</ele><time>2026-05-03T13:30:01.977Z</time></trkpt><trkpt lat="44.0115594" lon="10.6207473"><ele>193.0</ele><time>2026-05-03T13:30:02.968Z</time></trkpt><trkpt lat="44.0116721" lon="10.6208604"><ele>193.0</ele><time>2026-05-03T13:30:03.973Z</time></trkpt><trkpt lat="44.0117933" lon="10.6209756"><ele>193.0</ele><time>2026-05-03T13:30:04.975Z</time></trkpt><trkpt lat="44.0119182" lon="10.621085"><ele>194.0</ele><time>2026-05-03T13:30:05.969Z</time></trkpt><trkpt lat="44.0120446" lon="10.6211754"><ele>195.0</ele><time>2026-05-03T13:30:06.973Z</time></trkpt><trkpt lat="44.0121617" lon="10.6212653"><ele>196.0</ele><time>2026-05-03T13:30:07.976Z</time></trkpt><trkpt lat="44.0122875" lon="10.6213449"><ele>197.0</ele><time>2026-05-03T13:30:08.982Z</time></trkpt><trkpt lat="44.0124263" lon="10.6214329"><ele>193.25</ele><time>2026-05-03T13:30:09.982Z</time></trkpt><trkpt lat="44.0125547" lon="10.6215273"><ele>189.5</ele><time>2026-05-03T13:30:10.991Z</time></trkpt><trkpt lat="44.0126841" lon="10.621614"><ele>185.75</ele><time>2026-05-03T13:30:11.981Z</time></trkpt><trkpt lat="44.0128224" lon="10.6216902"><ele>182.0</ele><time>2026-05-03T13:30:12.98Z</time></trkpt><trkpt lat="44.0129387" lon="10.6217724"><ele>182.0</ele><time>2026-05-03T13:30:13.981Z</time></trkpt><trkpt lat="44.0130676" lon="10.6218633"><ele>182.0</ele><time>2026-05-03T13:30:14.981Z</time></trkpt><trkpt lat="44.0131968" lon="10.6219442"><ele>182.0</ele><time>2026-05-03T13:30:15.979Z</time></trkpt><trkpt lat="44.0133254" lon="10.6220167"><ele>182.0</ele><time>2026-05-03T13:30:16.982Z</time></trkpt><trkpt lat="44.0134558" lon="10.6221055"><ele>182.75</ele><time>2026-05-03T13:30:17.968Z</time></trkpt><trkpt lat="44.0135892" lon="10.6221732"><ele>183.5</ele><time>2026-05-03T13:30:18.973Z</time></trkpt><trkpt lat="44.0137239" lon="10.6222484"><ele>184.25</ele><time>2026-05-03T13:30:19.975Z</time></trkpt><trkpt lat="44.0138565" lon="10.6223118"><ele>185.0</ele><time>2026-05-03T13:30:20.976Z</time></trkpt><trkpt lat="44.0140047" lon="10.622364"><ele>185.0</ele><time>2026-05-03T13:30:21.969Z</time></trkpt><trkpt lat="44.01415" lon="10.6224228"><ele>185.0</ele><time>2026-05-03T13:30:22.974Z</time></trkpt><trkpt lat="44.014298" lon="10.6224485"><ele>185.0</ele><time>2026-05-03T13:30:23.971Z</time></trkpt><trkpt lat="44.0144449" lon="10.6225041"><ele>184.5</ele><time>2026-05-03T13:30:24.976Z</time></trkpt><trkpt lat="44.0145702" lon="10.6225649"><ele>184.0</ele><time>2026-05-03T13:30:25.974Z</time></trkpt><trkpt lat="44.0146974" lon="10.6226464"><ele>183.5</ele><time>2026-05-03T13:30:26.97Z</time></trkpt><trkpt lat="44.0148328" lon="10.6227243"><ele>183.0</ele><time>2026-05-03T13:30:27.973Z</time></trkpt><trkpt lat="44.0149477" lon="10.6228226"><ele>184.0</ele><time>2026-05-03T13:30:28.984Z</time></trkpt><trkpt lat="44.0150531" lon="10.6229345"><ele>185.0</ele><time>2026-05-03T13:30:29.971Z</time></trkpt><trkpt lat="44.0151608" lon="10.6230506"><ele>186.0</ele><time>2026-05-03T13:30:30.964Z</time></trkpt><trkpt lat="44.0152451" lon="10.623213"><ele>187.0</ele><time>2026-05-03T13:30:31.961Z</time></trkpt><trkpt lat="44.0153199" lon="10.6233835"><ele>187.0</ele><time>2026-05-03T13:30:32.977Z</time></trkpt><trkpt lat="44.015392" lon="10.6235392"><ele>187.0</ele><time>2026-05-03T13:30:33.968Z</time></trkpt><trkpt lat="44.0154818" lon="10.6237234"><ele>187.0</ele><time>2026-05-03T13:30:34.971Z</time></trkpt><trkpt lat="44.0155639" lon="10.6238998"><ele>187.0</ele><time>2026-05-03T13:30:35.968Z</time></trkpt><trkpt lat="44.0156635" lon="10.6240745"><ele>187.33333333333334</ele><time>2026-05-03T13:30:36.965Z</time></trkpt><trkpt lat="44.0157719" lon="10.6242209"><ele>187.66666666666666</ele><time>2026-05-03T13:30:37.964Z</time></trkpt><trkpt lat="44.015887" lon="10.6243867"><ele>188.0</ele><time>2026-05-03T13:30:38.967Z</time></trkpt><trkpt lat="44.0159877" lon="10.6245498"><ele>193.0</ele><time>2026-05-03T13:30:39.964Z</time></trkpt><trkpt lat="44.0160881" lon="10.6246976"><ele>198.0</ele><time>2026-05-03T13:30:40.96Z</time></trkpt><trkpt lat="44.0161805" lon="10.6248507"><ele>203.0</ele><time>2026-05-03T13:30:41.959Z</time></trkpt><trkpt lat="44.0162768" lon="10.6250137"><ele>208.0</ele><time>2026-05-03T13:30:42.963Z</time></trkpt><trkpt lat="44.0163575" lon="10.625205"><ele>220.0</ele><time>2026-05-03T13:30:43.96Z</time></trkpt><trkpt lat="44.0164304" lon="10.6254113"><ele>232.0</ele><time>2026-05-03T13:30:44.957Z</time></trkpt><trkpt lat="44.0164951" lon="10.6256"><ele>244.0</ele><time>2026-05-03T13:30:45.953Z</time></trkpt><trkpt lat="44.0165762" lon="10.6258067"><ele>233.0</ele><time>2026-05-03T13:30:46.954Z</time></trkpt><trkpt lat="44.0166783" lon="10.625983"><ele>222.0</ele><time>2026-05-03T13:30:47.954Z</time></trkpt><trkpt lat="44.0167701" lon="10.6261409"><ele>211.0</ele><time>2026-05-03T13:30:48.95Z</time></trkpt><trkpt lat="44.0168518" lon="10.6263421"><ele>211.0</ele><time>2026-05-03T13:30:49.954Z</time></trkpt><trkpt lat="44.0169168" lon="10.626538"><ele>211.0</ele><time>2026-05-03T13:30:50.953Z</time></trkpt><trkpt lat="44.0170401" lon="10.6267109"><ele>211.0</ele><time>2026-05-03T13:30:51.954Z</time></trkpt><trkpt lat="44.0171442" lon="10.6268866"><ele>222.66666666666666</ele><time>2026-05-03T13:30:52.959Z</time></trkpt><trkpt lat="44.0172484" lon="10.6270594"><ele>234.33333333333331</ele><time>2026-05-03T13:30:53.959Z</time></trkpt><trkpt lat="44.0173448" lon="10.6272395"><ele>246.0</ele><time>2026-05-03T13:30:54.96Z</time></trkpt><trkpt lat="44.0174347" lon="10.6274183"><ele>239.5</ele><time>2026-05-03T13:30:55.96Z</time></trkpt><trkpt lat="44.0175265" lon="10.627569"><ele>233.0</ele><time>2026-05-03T13:30:56.954Z</time></trkpt><trkpt lat="44.017619" lon="10.6277172"><ele>226.5</ele><time>2026-05-03T13:30:57.96Z</time></trkpt><trkpt lat="44.0177132" lon="10.6278862"><ele>220.0</ele><time>2026-05-03T13:30:58.955Z</time></trkpt><trkpt lat="44.0177884" lon="10.6280505"><ele>220.0</ele><time>2026-05-03T13:30:59.972Z</time></trkpt><trkpt lat="44.0178554" lon="10.628231"><ele>220.0</ele><time>2026-05-03T13:31:00.957Z</time></trkpt><trkpt lat="44.0179111" lon="10.6284028"><ele>220.0</ele><time>2026-05-03T13:31:01.951Z</time></trkpt><trkpt lat="44.0179927" lon="10.6285511"><ele>220.0</ele><time>2026-05-03T13:31:02.947Z</time></trkpt><trkpt lat="44.018086" lon="10.6286532"><ele>215.0</ele><time>2026-05-03T13:31:03.945Z</time></trkpt><trkpt lat="44.0182128" lon="10.6287269"><ele>210.0</ele><time>2026-05-03T13:31:04.954Z</time></trkpt><trkpt lat="44.0183294" lon="10.6288117"><ele>205.0</ele><time>2026-05-03T13:31:05.954Z</time></trkpt><trkpt lat="44.0184171" lon="10.6289099"><ele>200.0</ele><time>2026-05-03T13:31:06.955Z</time></trkpt><trkpt lat="44.0185277" lon="10.629038"><ele>200.0</ele><time>2026-05-03T13:31:07.953Z</time></trkpt><trkpt lat="44.0185961" lon="10.6291981"><ele>200.0</ele><time>2026-05-03T13:31:08.955Z</time></trkpt><trkpt lat="44.0186591" lon="10.6293618"><ele>200.0</ele><time>2026-05-03T13:31:09.955Z</time></trkpt><trkpt lat="44.0187322" lon="10.6295153"><ele>200.0</ele><time>2026-05-03T13:31:10.953Z</time></trkpt><trkpt lat="44.018819" lon="10.6296697"><ele>202.25</ele><time>2026-05-03T13:31:11.953Z</time></trkpt><trkpt lat="44.0188835" lon="10.6298407"><ele>204.5</ele><time>2026-05-03T13:31:12.952Z</time></trkpt><trkpt lat="44.0189675" lon="10.6300053"><ele>206.75</ele><time>2026-05-03T13:31:13.954Z</time></trkpt><trkpt lat="44.0190646" lon="10.6301599"><ele>209.0</ele><time>2026-05-03T13:31:14.957Z</time></trkpt><trkpt lat="44.0191786" lon="10.6303139"><ele>209.0</ele><time>2026-05-03T13:31:15.957Z</time></trkpt><trkpt lat="44.0192735" lon="10.6304736"><ele>209.0</ele><time>2026-05-03T13:31:16.953Z</time></trkpt><trkpt lat="44.0193862" lon="10.6306259"><ele>209.0</ele><time>2026-05-03T13:31:17.954Z</time></trkpt><trkpt lat="44.0194962" lon="10.6307746"><ele>209.0</ele><time>2026-05-03T13:31:18.958Z</time></trkpt><trkpt lat="44.0195807" lon="10.6309477"><ele>209.0</ele><time>2026-05-03T13:31:19.952Z</time></trkpt><trkpt lat="44.0196901" lon="10.6311371"><ele>209.0</ele><time>2026-05-03T13:31:20.95Z</time></trkpt><trkpt lat="44.0197714" lon="10.6313144"><ele>215.0</ele><time>2026-05-03T13:31:21.947Z</time></trkpt><trkpt lat="44.0198142" lon="10.6315161"><ele>221.0</ele><time>2026-05-03T13:31:22.954Z</time></trkpt><trkpt lat="44.0198543" lon="10.6317394"><ele>227.0</ele><time>2026-05-03T13:31:23.963Z</time></trkpt><trkpt lat="44.019904" lon="10.6319375"><ele>232.5</ele><time>2026-05-03T13:31:24.965Z</time></trkpt><trkpt lat="44.0199562" lon="10.632136"><ele>238.0</ele><time>2026-05-03T13:31:25.961Z</time></trkpt><trkpt lat="44.0199797" lon="10.63232"><ele>243.5</ele><time>2026-05-03T13:31:26.969Z</time></trkpt><trkpt lat="44.0200421" lon="10.6325255"><ele>249.0</ele><time>2026-05-03T13:31:27.965Z</time></trkpt><trkpt lat="44.0201118" lon="10.6327154"><ele>239.0</ele><time>2026-05-03T13:31:28.964Z</time></trkpt><trkpt lat="44.0201739" lon="10.6329079"><ele>229.0</ele><time>2026-05-03T13:31:29.961Z</time></trkpt><trkpt lat="44.0202563" lon="10.6330808"><ele>219.0</ele><time>2026-05-03T13:31:30.974Z</time></trkpt><trkpt lat="44.0203149" lon="10.6332747"><ele>219.0</ele><time>2026-05-03T13:31:31.957Z</time></trkpt><trkpt lat="44.0203797" lon="10.6334548"><ele>219.0</ele><time>2026-05-03T13:31:32.961Z</time></trkpt><trkpt lat="44.0204596" lon="10.6336481"><ele>219.0</ele><time>2026-05-03T13:31:33.959Z</time></trkpt><trkpt lat="44.0205316" lon="10.6338244"><ele>215.5</ele><time>2026-05-03T13:31:34.958Z</time></trkpt><trkpt lat="44.0206223" lon="10.6339755"><ele>212.0</ele><time>2026-05-03T13:31:35.96Z</time></trkpt><trkpt lat="44.020729" lon="10.6341136"><ele>208.5</ele><time>2026-05-03T13:31:36.957Z</time></trkpt><trkpt lat="44.0208365" lon="10.6342314"><ele>205.0</ele><time>2026-05-03T13:31:37.958Z</time></trkpt><trkpt lat="44.0209607" lon="10.634341"><ele>205.0</ele><time>2026-05-03T13:31:38.968Z</time></trkpt><trkpt lat="44.0210833" lon="10.6344464"><ele>205.0</ele><time>2026-05-03T13:31:39.966Z</time></trkpt><trkpt lat="44.021205" lon="10.6345816"><ele>205.0</ele><time>2026-05-03T13:31:40.96Z</time></trkpt><trkpt lat="44.0213133" lon="10.6347047"><ele>205.0</ele><time>2026-05-03T13:31:41.966Z</time></trkpt><trkpt lat="44.0214285" lon="10.6348396"><ele>203.5</ele><time>2026-05-03T13:31:42.963Z</time></trkpt><trkpt lat="44.0215304" lon="10.6349773"><ele>202.0</ele><time>2026-05-03T13:31:43.962Z</time></trkpt><trkpt lat="44.0216207" lon="10.6351479"><ele>200.5</ele><time>2026-05-03T13:31:44.962Z</time></trkpt><trkpt lat="44.02168" lon="10.6353265"><ele>199.0</ele><time>2026-05-03T13:31:45.958Z</time></trkpt><trkpt lat="44.0217469" lon="10.6354999"><ele>199.0</ele><time>2026-05-03T13:31:46.972Z</time></trkpt><trkpt lat="44.0217973" lon="10.6356595"><ele>199.0</ele><time>2026-05-03T13:31:47.977Z</time></trkpt><trkpt lat="44.0218465" lon="10.6358259"><ele>199.0</ele><time>2026-05-03T13:31:48.982Z</time></trkpt><trkpt lat="44.0218744" lon="10.6360047"><ele>199.0</ele><time>2026-05-03T13:31:49.977Z</time></trkpt><trkpt lat="44.021945" lon="10.6361519"><ele>199.5</ele><time>2026-05-03T13:31:50.972Z</time></trkpt><trkpt lat="44.022027" lon="10.6362981"><ele>200.0</ele><time>2026-05-03T13:31:51.972Z</time></trkpt><trkpt lat="44.0221252" lon="10.636441"><ele>200.5</ele><time>2026-05-03T13:31:52.978Z</time></trkpt><trkpt lat="44.0222271" lon="10.6365666"><ele>201.0</ele><time>2026-05-03T13:31:53.979Z</time></trkpt><trkpt lat="44.0223297" lon="10.6366867"><ele>201.0</ele><time>2026-05-03T13:31:54.98Z</time></trkpt><trkpt lat="44.0224107" lon="10.636826"><ele>201.0</ele><time>2026-05-03T13:31:55.972Z</time></trkpt><trkpt lat="44.0225005" lon="10.6369759"><ele>201.0</ele><time>2026-05-03T13:31:56.97Z</time></trkpt><trkpt lat="44.0225694" lon="10.637134"><ele>201.0</ele><time>2026-05-03T13:31:57.972Z</time></trkpt><trkpt lat="44.0226306" lon="10.6373082"><ele>202.0</ele><time>2026-05-03T13:31:58.978Z</time></trkpt><trkpt lat="44.0227043" lon="10.637483"><ele>203.0</ele><time>2026-05-03T13:31:59.973Z</time></trkpt><trkpt lat="44.0227811" lon="10.6376525"><ele>204.0</ele><time>2026-05-03T13:32:00.977Z</time></trkpt><trkpt lat="44.022855" lon="10.6378115"><ele>205.0</ele><time>2026-05-03T13:32:01.992Z</time></trkpt><trkpt lat="44.0229083" lon="10.6379549"><ele>206.75</ele><time>2026-05-03T13:32:02.971Z</time></trkpt><trkpt lat="44.022958" lon="10.638101"><ele>208.5</ele><time>2026-05-03T13:32:03.97Z</time></trkpt><trkpt lat="44.0230096" lon="10.6382406"><ele>210.25</ele><time>2026-05-03T13:32:04.967Z</time></trkpt><trkpt lat="44.0230728" lon="10.6383768"><ele>212.0</ele><time>2026-05-03T13:32:05.969Z</time></trkpt><trkpt lat="44.0231374" lon="10.6385175"><ele>213.39999999999998</ele><time>2026-05-03T13:32:06.967Z</time></trkpt><trkpt lat="44.0231947" lon="10.6386547"><ele>214.79999999999998</ele><time>2026-05-03T13:32:07.968Z</time></trkpt><trkpt lat="44.0232544" lon="10.6387854"><ele>216.2</ele><time>2026-05-03T13:32:08.971Z</time></trkpt><trkpt lat="44.0232998" lon="10.6388983"><ele>217.6</ele><time>2026-05-03T13:32:09.964Z</time></trkpt><trkpt lat="44.0233532" lon="10.6390007"><ele>219.0</ele><time>2026-05-03T13:32:10.973Z</time></trkpt><trkpt lat="44.0233908" lon="10.6390839"><ele>219.0</ele><time>2026-05-03T13:32:11.974Z</time></trkpt><trkpt lat="44.0234306" lon="10.6392168"><ele>218.99999999999997</ele><time>2026-05-03T13:32:13.963Z</time></trkpt><trkpt lat="44.0233838" lon="10.6393131"><ele>218.99999999999997</ele><time>2026-05-03T13:32:15.959Z</time></trkpt><trkpt lat="44.0232938" lon="10.6393783"><ele>219.0</ele><time>2026-05-03T13:32:17.966Z</time></trkpt><trkpt lat="44.0231685" lon="10.639482"><ele>219.0</ele><time>2026-05-03T13:32:19.966Z</time></trkpt><trkpt lat="44.0230885" lon="10.6395492"><ele>220.39999999999998</ele><time>2026-05-03T13:32:20.965Z</time></trkpt><trkpt lat="44.0230009" lon="10.6396252"><ele>221.79999999999998</ele><time>2026-05-03T13:32:21.97Z</time></trkpt><trkpt lat="44.0229183" lon="10.6396973"><ele>223.20000000000002</ele><time>2026-05-03T13:32:22.965Z</time></trkpt><trkpt lat="44.0228388" lon="10.63977"><ele>224.60000000000002</ele><time>2026-05-03T13:32:23.971Z</time></trkpt><trkpt lat="44.0227713" lon="10.6398499"><ele>226.0</ele><time>2026-05-03T13:32:24.973Z</time></trkpt><trkpt lat="44.0227183" lon="10.639946"><ele>226.0</ele><time>2026-05-03T13:32:25.964Z</time></trkpt><trkpt lat="44.022678" lon="10.6400499"><ele>226.00000000000003</ele><time>2026-05-03T13:32:26.961Z</time></trkpt><trkpt lat="44.0226593" lon="10.6401567"><ele>226.00000000000003</ele><time>2026-05-03T13:32:27.965Z</time></trkpt><trkpt lat="44.0226645" lon="10.6402749"><ele>226.0</ele><time>2026-05-03T13:32:28.963Z</time></trkpt><trkpt lat="44.0226981" lon="10.6404084"><ele>226.0</ele><time>2026-05-03T13:32:29.967Z</time></trkpt><trkpt lat="44.0227469" lon="10.6405408"><ele>229.60000000000002</ele><time>2026-05-03T13:32:30.964Z</time></trkpt><trkpt lat="44.0228017" lon="10.6406675"><ele>233.20000000000002</ele><time>2026-05-03T13:32:31.966Z</time></trkpt><trkpt lat="44.0228699" lon="10.6407891"><ele>236.79999999999998</ele><time>2026-05-03T13:32:32.984Z</time></trkpt><trkpt lat="44.0229425" lon="10.6409223"><ele>240.39999999999998</ele><time>2026-05-03T13:32:33.964Z</time></trkpt><trkpt lat="44.0229934" lon="10.6410474"><ele>244.0</ele><time>2026-05-03T13:32:34.963Z</time></trkpt><trkpt lat="44.0230382" lon="10.6411875"><ele>243.39999999999998</ele><time>2026-05-03T13:32:35.964Z</time></trkpt><trkpt lat="44.0230853" lon="10.6413128"><ele>242.79999999999998</ele><time>2026-05-03T13:32:36.949Z</time></trkpt><trkpt lat="44.0231373" lon="10.6413902"><ele>242.20000000000002</ele><time>2026-05-03T13:32:37.962Z</time></trkpt><trkpt lat="44.0232226" lon="10.6414445"><ele>241.60000000000002</ele><time>2026-05-03T13:32:38.952Z</time></trkpt><trkpt lat="44.0233283" lon="10.6414697"><ele>241.0</ele><time>2026-05-03T13:32:39.95Z</time></trkpt><trkpt lat="44.0234337" lon="10.6415084"><ele>241.0</ele><time>2026-05-03T13:32:40.955Z</time></trkpt><trkpt lat="44.023548" lon="10.6415638"><ele>241.0</ele><time>2026-05-03T13:32:41.954Z</time></trkpt><trkpt lat="44.0236607" lon="10.6416385"><ele>241.0</ele><time>2026-05-03T13:32:42.956Z</time></trkpt><trkpt lat="44.0237746" lon="10.6417186"><ele>241.0</ele><time>2026-05-03T13:32:43.951Z</time></trkpt><trkpt lat="44.0238714" lon="10.6417868"><ele>241.0</ele><time>2026-05-03T13:32:44.961Z</time></trkpt><trkpt lat="44.0239718" lon="10.6418406"><ele>241.0</ele><time>2026-05-03T13:32:45.957Z</time></trkpt><trkpt lat="44.0240796" lon="10.6419086"><ele>241.0</ele><time>2026-05-03T13:32:46.967Z</time></trkpt><trkpt lat="44.0241932" lon="10.6419882"><ele>241.0</ele><time>2026-05-03T13:32:47.979Z</time></trkpt><trkpt lat="44.0242978" lon="10.6420641"><ele>244.4</ele><time>2026-05-03T13:32:48.98Z</time></trkpt><trkpt lat="44.0243969" lon="10.6421405"><ele>247.8</ele><time>2026-05-03T13:32:49.981Z</time></trkpt><trkpt lat="44.0244808" lon="10.6422285"><ele>251.20000000000002</ele><time>2026-05-03T13:32:50.974Z</time></trkpt><trkpt lat="44.02455" lon="10.6423324"><ele>254.60000000000002</ele><time>2026-05-03T13:32:51.976Z</time></trkpt><trkpt lat="44.0246066" lon="10.6424599"><ele>258.0</ele><time>2026-05-03T13:32:52.977Z</time></trkpt><trkpt lat="44.0246535" lon="10.6426077"><ele>258.0</ele><time>2026-05-03T13:32:53.978Z</time></trkpt><trkpt lat="44.0247005" lon="10.6427379"><ele>258.0</ele><time>2026-05-03T13:32:54.973Z</time></trkpt><trkpt lat="44.0247302" lon="10.6428513"><ele>258.0</ele><time>2026-05-03T13:32:55.975Z</time></trkpt><trkpt lat="44.0247428" lon="10.6429569"><ele>258.0</ele><time>2026-05-03T13:32:56.977Z</time></trkpt><trkpt lat="44.0247255" lon="10.6430505"><ele>258.0</ele><time>2026-05-03T13:32:57.969Z</time></trkpt><trkpt lat="44.0246491" lon="10.6430999"><ele>258.0</ele><time>2026-05-03T13:32:59.97Z</time></trkpt><trkpt lat="44.0245754" lon="10.6429565"><ele>258.0</ele><time>2026-05-03T13:33:01.96Z</time></trkpt><trkpt lat="44.0245467" lon="10.6428382"><ele>258.0</ele><time>2026-05-03T13:33:02.965Z</time></trkpt><trkpt lat="44.024522" lon="10.6427328"><ele>258.0</ele><time>2026-05-03T13:33:03.973Z</time></trkpt><trkpt lat="44.0244757" lon="10.6426272"><ele>258.0</ele><time>2026-05-03T13:33:04.957Z</time></trkpt><trkpt lat="44.0244183" lon="10.6425571"><ele>258.0</ele><time>2026-05-03T13:33:05.954Z</time></trkpt><trkpt lat="44.0243421" lon="10.6425244"><ele>258.0</ele><time>2026-05-03T13:33:06.962Z</time></trkpt><trkpt lat="44.0242535" lon="10.6425158"><ele>258.0</ele><time>2026-05-03T13:33:07.959Z</time></trkpt><trkpt lat="44.0241536" lon="10.6425043"><ele>258.0</ele><time>2026-05-03T13:33:08.965Z</time></trkpt><trkpt lat="44.0240636" lon="10.6424913"><ele>258.0</ele><time>2026-05-03T13:33:09.965Z</time></trkpt><trkpt lat="44.0239704" lon="10.6424785"><ele>258.0</ele><time>2026-05-03T13:33:10.967Z</time></trkpt><trkpt lat="44.0238881" lon="10.6424478"><ele>258.0</ele><time>2026-05-03T13:33:11.973Z</time></trkpt><trkpt lat="44.0238108" lon="10.6424203"><ele>258.0</ele><time>2026-05-03T13:33:12.963Z</time></trkpt><trkpt lat="44.0237458" lon="10.6424333"><ele>261.4</ele><time>2026-05-03T13:33:13.968Z</time></trkpt><trkpt lat="44.0236978" lon="10.6425441"><ele>264.8</ele><time>2026-05-03T13:33:15.968Z</time></trkpt><trkpt lat="44.0237592" lon="10.6426709"><ele>268.2</ele><time>2026-05-03T13:33:17.957Z</time></trkpt><trkpt lat="44.0238268" lon="10.6427171"><ele>271.6</ele><time>2026-05-03T13:33:18.97Z</time></trkpt><trkpt lat="44.0239067" lon="10.6427404"><ele>275.0</ele><time>2026-05-03T13:33:19.966Z</time></trkpt><trkpt lat="44.0239965" lon="10.6427642"><ele>274.42857142857144</ele><time>2026-05-03T13:33:20.973Z</time></trkpt><trkpt lat="44.0240679" lon="10.6428189"><ele>273.85714285714283</ele><time>2026-05-03T13:33:21.973Z</time></trkpt><trkpt lat="44.0241272" lon="10.6428842"><ele>273.2857142857143</ele><time>2026-05-03T13:33:22.969Z</time></trkpt><trkpt lat="44.0241842" lon="10.6429633"><ele>272.7142857142857</ele><time>2026-05-03T13:33:23.973Z</time></trkpt><trkpt lat="44.0242297" lon="10.6430458"><ele>272.14285714285717</ele><time>2026-05-03T13:33:24.972Z</time></trkpt><trkpt lat="44.0242506" lon="10.6431395"><ele>271.57142857142856</ele><time>2026-05-03T13:33:25.974Z</time></trkpt><trkpt lat="44.024256" lon="10.6432291"><ele>271.0</ele><time>2026-05-03T13:33:26.972Z</time></trkpt><trkpt lat="44.024203" lon="10.6433168"><ele>275.16666666666663</ele><time>2026-05-03T13:33:28.974Z</time></trkpt><trkpt lat="44.0241099" lon="10.6432733"><ele>279.3333333333333</ele><time>2026-05-03T13:33:30.973Z</time></trkpt><trkpt lat="44.0240564" lon="10.6432134"><ele>283.5</ele><time>2026-05-03T13:33:31.973Z</time></trkpt><trkpt lat="44.0240065" lon="10.6431585"><ele>287.6666666666667</ele><time>2026-05-03T13:33:32.977Z</time></trkpt><trkpt lat="44.0239495" lon="10.6431089"><ele>291.83333333333337</ele><time>2026-05-03T13:33:33.975Z</time></trkpt><trkpt lat="44.023895" lon="10.6430589"><ele>296.0</ele><time>2026-05-03T13:33:34.987Z</time></trkpt><trkpt lat="44.0237777" lon="10.642963"><ele>296.0</ele><time>2026-05-03T13:33:36.959Z</time></trkpt><trkpt lat="44.0236952" lon="10.6429024"><ele>296.0</ele><time>2026-05-03T13:33:37.965Z</time></trkpt><trkpt lat="44.0236091" lon="10.6428297"><ele>296.0</ele><time>2026-05-03T13:33:38.961Z</time></trkpt><trkpt lat="44.0235068" lon="10.6427409"><ele>296.0</ele><time>2026-05-03T13:33:39.973Z</time></trkpt><trkpt lat="44.0234065" lon="10.6426514"><ele>296.0</ele><time>2026-05-03T13:33:40.967Z</time></trkpt><trkpt lat="44.0232889" lon="10.6425781"><ele>293.0</ele><time>2026-05-03T13:33:41.969Z</time></trkpt><trkpt lat="44.023157" lon="10.6425082"><ele>290.0</ele><time>2026-05-03T13:33:42.965Z</time></trkpt><trkpt lat="44.0230339" lon="10.6424454"><ele>287.0</ele><time>2026-05-03T13:33:43.967Z</time></trkpt><trkpt lat="44.0229125" lon="10.6424004"><ele>284.0</ele><time>2026-05-03T13:33:44.966Z</time></trkpt><trkpt lat="44.0227762" lon="10.6423713"><ele>284.0</ele><time>2026-05-03T13:33:45.966Z</time></trkpt><trkpt lat="44.0226455" lon="10.6423608"><ele>284.0</ele><time>2026-05-03T13:33:46.962Z</time></trkpt><trkpt lat="44.0225429" lon="10.6423695"><ele>284.0</ele><time>2026-05-03T13:33:47.955Z</time></trkpt><trkpt lat="44.0224619" lon="10.6424055"><ele>284.0</ele><time>2026-05-03T13:33:48.961Z</time></trkpt><trkpt lat="44.0224019" lon="10.642457"><ele>284.0</ele><time>2026-05-03T13:33:49.965Z</time></trkpt><trkpt lat="44.0223671" lon="10.6425401"><ele>285.33333333333337</ele><time>2026-05-03T13:33:50.964Z</time></trkpt><trkpt lat="44.0223437" lon="10.6426597"><ele>286.6666666666667</ele><time>2026-05-03T13:33:51.966Z</time></trkpt><trkpt lat="44.0223029" lon="10.6427739"><ele>288.0</ele><time>2026-05-03T13:33:52.975Z</time></trkpt><trkpt lat="44.022245" lon="10.6428623"><ele>289.3333333333333</ele><time>2026-05-03T13:33:53.973Z</time></trkpt><trkpt lat="44.0221882" lon="10.64292"><ele>290.66666666666663</ele><time>2026-05-03T13:33:54.969Z</time></trkpt><trkpt lat="44.0220766" lon="10.6429257"><ele>292.0</ele><time>2026-05-03T13:33:56.98Z</time></trkpt><trkpt lat="44.0219876" lon="10.6428016"><ele>292.0</ele><time>2026-05-03T13:33:58.974Z</time></trkpt><trkpt lat="44.0219406" lon="10.6427038"><ele>292.0</ele><time>2026-05-03T13:33:59.977Z</time></trkpt><trkpt lat="44.0218828" lon="10.6426104"><ele>292.0</ele><time>2026-05-03T13:34:00.973Z</time></trkpt><trkpt lat="44.0218217" lon="10.6425124"><ele>292.0</ele><time>2026-05-03T13:34:01.976Z</time></trkpt><trkpt lat="44.0217441" lon="10.6424503"><ele>292.0</ele><time>2026-05-03T13:34:02.978Z</time></trkpt><trkpt lat="44.0216601" lon="10.6424052"><ele>292.0</ele><time>2026-05-03T13:34:03.974Z</time></trkpt><trkpt lat="44.0215641" lon="10.642393"><ele>297.2</ele><time>2026-05-03T13:34:04.982Z</time></trkpt><trkpt lat="44.0214517" lon="10.6424077"><ele>302.4</ele><time>2026-05-03T13:34:06.011Z</time></trkpt><trkpt lat="44.021345" lon="10.6424285"><ele>307.6</ele><time>2026-05-03T13:34:06.977Z</time></trkpt><trkpt lat="44.0212507" lon="10.642452"><ele>312.8</ele><time>2026-05-03T13:34:07.969Z</time></trkpt><trkpt lat="44.0211644" lon="10.6424648"><ele>318.0</ele><time>2026-05-03T13:34:08.972Z</time></trkpt><trkpt lat="44.0210693" lon="10.6424157"><ele>318.0</ele><time>2026-05-03T13:34:10.969Z</time></trkpt><trkpt lat="44.0210637" lon="10.6422471"><ele>318.0</ele><time>2026-05-03T13:34:12.959Z</time></trkpt><trkpt lat="44.0210842" lon="10.6421189"><ele>318.0</ele><time>2026-05-03T13:34:13.963Z</time></trkpt><trkpt lat="44.0211197" lon="10.6419913"><ele>318.0</ele><time>2026-05-03T13:34:14.962Z</time></trkpt><trkpt lat="44.0211356" lon="10.6418456"><ele>318.0</ele><time>2026-05-03T13:34:15.964Z</time></trkpt><trkpt lat="44.0211548" lon="10.6416891"><ele>318.0</ele><time>2026-05-03T13:34:16.967Z</time></trkpt><trkpt lat="44.0211704" lon="10.6415361"><ele>318.0</ele><time>2026-05-03T13:34:17.972Z</time></trkpt><trkpt lat="44.0211769" lon="10.6413774"><ele>318.0</ele><time>2026-05-03T13:34:18.971Z</time></trkpt><trkpt lat="44.0211631" lon="10.6412302"><ele>318.0</ele><time>2026-05-03T13:34:19.975Z</time></trkpt><trkpt lat="44.0211483" lon="10.6410796"><ele>318.0</ele><time>2026-05-03T13:34:20.97Z</time></trkpt><trkpt lat="44.021113" lon="10.6409166"><ele>315.6</ele><time>2026-05-03T13:34:21.969Z</time></trkpt><trkpt lat="44.021085" lon="10.6407759"><ele>313.20000000000005</ele><time>2026-05-03T13:34:22.972Z</time></trkpt><trkpt lat="44.0210536" lon="10.6406535"><ele>310.8</ele><time>2026-05-03T13:34:23.97Z</time></trkpt><trkpt lat="44.0210255" lon="10.6405506"><ele>308.40000000000003</ele><time>2026-05-03T13:34:24.964Z</time></trkpt><trkpt lat="44.0209678" lon="10.640414"><ele>306.0</ele><time>2026-05-03T13:34:26.978Z</time></trkpt><trkpt lat="44.0208883" lon="10.6404436"><ele>306.0</ele><time>2026-05-03T13:34:28.981Z</time></trkpt><trkpt lat="44.0208556" lon="10.6405215"><ele>306.0</ele><time>2026-05-03T13:34:29.971Z</time></trkpt><trkpt lat="44.0208471" lon="10.6406127"><ele>306.0</ele><time>2026-05-03T13:34:30.97Z</time></trkpt><trkpt lat="44.0208615" lon="10.6407051"><ele>306.0</ele><time>2026-05-03T13:34:31.962Z</time></trkpt><trkpt lat="44.0208969" lon="10.6408131"><ele>306.0</ele><time>2026-05-03T13:34:32.962Z</time></trkpt><trkpt lat="44.020942" lon="10.6409334"><ele>306.0</ele><time>2026-05-03T13:34:33.958Z</time></trkpt><trkpt lat="44.0209742" lon="10.6410676"><ele>308.40000000000003</ele><time>2026-05-03T13:34:34.954Z</time></trkpt><trkpt lat="44.0209811" lon="10.6412062"><ele>310.8</ele><time>2026-05-03T13:34:35.98Z</time></trkpt><trkpt lat="44.0209604" lon="10.6413384"><ele>313.20000000000005</ele><time>2026-05-03T13:34:36.963Z</time></trkpt><trkpt lat="44.0209282" lon="10.6414611"><ele>315.6</ele><time>2026-05-03T13:34:37.962Z</time></trkpt><trkpt lat="44.0208596" lon="10.6416059"><ele>318.0</ele><time>2026-05-03T13:34:38.966Z</time></trkpt><trkpt lat="44.0207895" lon="10.6417682"><ele>320.75</ele><time>2026-05-03T13:34:39.957Z</time></trkpt><trkpt lat="44.0206996" lon="10.6419145"><ele>323.5</ele><time>2026-05-03T13:34:40.965Z</time></trkpt><trkpt lat="44.0206231" lon="10.6420592"><ele>326.25</ele><time>2026-05-03T13:34:41.97Z</time></trkpt><trkpt lat="44.0205494" lon="10.6421986"><ele>329.0</ele><time>2026-05-03T13:34:42.964Z</time></trkpt><trkpt lat="44.0204926" lon="10.6423165"><ele>331.4</ele><time>2026-05-03T13:34:43.964Z</time></trkpt><trkpt lat="44.0204522" lon="10.6424292"><ele>333.79999999999995</ele><time>2026-05-03T13:34:44.964Z</time></trkpt><trkpt lat="44.0204121" lon="10.6425294"><ele>336.20000000000005</ele><time>2026-05-03T13:34:45.966Z</time></trkpt><trkpt lat="44.020376" lon="10.6426198"><ele>338.6</ele><time>2026-05-03T13:34:46.958Z</time></trkpt><trkpt lat="44.0203581" lon="10.6427689"><ele>341.0</ele><time>2026-05-03T13:34:48.955Z</time></trkpt><trkpt lat="44.02044" lon="10.642895"><ele>341.6</ele><time>2026-05-03T13:34:50.956Z</time></trkpt><trkpt lat="44.0205051" lon="10.6429846"><ele>342.20000000000005</ele><time>2026-05-03T13:34:51.958Z</time></trkpt><trkpt lat="44.020563" lon="10.6431035"><ele>342.79999999999995</ele><time>2026-05-03T13:34:52.957Z</time></trkpt><trkpt lat="44.0206153" lon="10.6432277"><ele>343.4</ele><time>2026-05-03T13:34:53.952Z</time></trkpt><trkpt lat="44.0206603" lon="10.6433587"><ele>344.0</ele><time>2026-05-03T13:34:54.956Z</time></trkpt><trkpt lat="44.0207018" lon="10.6435082"><ele>345.5</ele><time>2026-05-03T13:34:55.965Z</time></trkpt><trkpt lat="44.0207391" lon="10.6436634"><ele>347.0</ele><time>2026-05-03T13:34:56.967Z</time></trkpt><trkpt lat="44.0207755" lon="10.6438237"><ele>348.5</ele><time>2026-05-03T13:34:57.967Z</time></trkpt><trkpt lat="44.0208066" lon="10.6439912"><ele>350.0</ele><time>2026-05-03T13:34:58.966Z</time></trkpt><trkpt lat="44.020852" lon="10.6441575"><ele>350.5</ele><time>2026-05-03T13:34:59.967Z</time></trkpt><trkpt lat="44.0208764" lon="10.6443138"><ele>351.0</ele><time>2026-05-03T13:35:00.971Z</time></trkpt><trkpt lat="44.0209192" lon="10.6444611"><ele>351.5</ele><time>2026-05-03T13:35:01.969Z</time></trkpt><trkpt lat="44.0209754" lon="10.6446007"><ele>352.0</ele><time>2026-05-03T13:35:02.957Z</time></trkpt><trkpt lat="44.0210524" lon="10.6447305"><ele>352.0</ele><time>2026-05-03T13:35:03.956Z</time></trkpt><trkpt lat="44.0211259" lon="10.6448752"><ele>352.0</ele><time>2026-05-03T13:35:04.964Z</time></trkpt><trkpt lat="44.0211891" lon="10.6450225"><ele>352.0</ele><time>2026-05-03T13:35:05.961Z</time></trkpt><trkpt lat="44.0212521" lon="10.6451523"><ele>352.0</ele><time>2026-05-03T13:35:06.982Z</time></trkpt><trkpt lat="44.0213163" lon="10.6452846"><ele>354.3333333333333</ele><time>2026-05-03T13:35:07.964Z</time></trkpt><trkpt lat="44.0213814" lon="10.6453831"><ele>356.66666666666663</ele><time>2026-05-03T13:35:08.959Z</time></trkpt><trkpt lat="44.0214377" lon="10.6454814"><ele>359.0</ele><time>2026-05-03T13:35:09.957Z</time></trkpt><trkpt lat="44.0214757" lon="10.645578"><ele>361.3333333333333</ele><time>2026-05-03T13:35:10.961Z</time></trkpt><trkpt lat="44.0214924" lon="10.6456909"><ele>363.6666666666667</ele><time>2026-05-03T13:35:11.965Z</time></trkpt><trkpt lat="44.0214984" lon="10.6458179"><ele>366.0</ele><time>2026-05-03T13:35:12.975Z</time></trkpt><trkpt lat="44.0215004" lon="10.6459606"><ele>366.0</ele><time>2026-05-03T13:35:13.975Z</time></trkpt><trkpt lat="44.0215158" lon="10.6460872"><ele>366.0</ele><time>2026-05-03T13:35:14.972Z</time></trkpt><trkpt lat="44.0215557" lon="10.6462012"><ele>366.0</ele><time>2026-05-03T13:35:15.97Z</time></trkpt><trkpt lat="44.0216129" lon="10.6463149"><ele>366.0</ele><time>2026-05-03T13:35:16.973Z</time></trkpt><trkpt lat="44.0216843" lon="10.6464039"><ele>366.0</ele><time>2026-05-03T13:35:17.968Z</time></trkpt><trkpt lat="44.0217471" lon="10.6464697"><ele>366.0</ele><time>2026-05-03T13:35:18.97Z</time></trkpt><trkpt lat="44.0217832" lon="10.6466265"><ele>366.0</ele><time>2026-05-03T13:35:20.962Z</time></trkpt><trkpt lat="44.0217152" lon="10.6467205"><ele>366.0</ele><time>2026-05-03T13:35:22.959Z</time></trkpt><trkpt lat="44.021615" lon="10.6466756"><ele>366.0</ele><time>2026-05-03T13:35:24.958Z</time></trkpt><trkpt lat="44.0215543" lon="10.6466147"><ele>366.0</ele><time>2026-05-03T13:35:25.952Z</time></trkpt><trkpt lat="44.0214706" lon="10.6465282"><ele>369.0</ele><time>2026-05-03T13:35:26.956Z</time></trkpt><trkpt lat="44.0213905" lon="10.6464533"><ele>372.0</ele><time>2026-05-03T13:35:27.945Z</time></trkpt><trkpt lat="44.021277" lon="10.6463697"><ele>375.0</ele><time>2026-05-03T13:35:28.96Z</time></trkpt><trkpt lat="44.021163" lon="10.6463094"><ele>378.0</ele><time>2026-05-03T13:35:29.962Z</time></trkpt><trkpt lat="44.0210591" lon="10.6462511"><ele>378.0</ele><time>2026-05-03T13:35:30.955Z</time></trkpt><trkpt lat="44.020942" lon="10.6461723"><ele>378.0</ele><time>2026-05-03T13:35:31.962Z</time></trkpt><trkpt lat="44.0208355" lon="10.6460718"><ele>378.0</ele><time>2026-05-03T13:35:32.972Z</time></trkpt><trkpt lat="44.0207486" lon="10.6459789"><ele>378.0</ele><time>2026-05-03T13:35:33.977Z</time></trkpt><trkpt lat="44.0206623" lon="10.6458944"><ele>377.2</ele><time>2026-05-03T13:35:34.974Z</time></trkpt><trkpt lat="44.0205772" lon="10.6458372"><ele>376.4</ele><time>2026-05-03T13:35:35.978Z</time></trkpt><trkpt lat="44.0204715" lon="10.6458046"><ele>375.59999999999997</ele><time>2026-05-03T13:35:36.977Z</time></trkpt><trkpt lat="44.0203622" lon="10.6457734"><ele>374.79999999999995</ele><time>2026-05-03T13:35:37.988Z</time></trkpt><trkpt lat="44.020265" lon="10.6457488"><ele>374.0</ele><time>2026-05-03T13:35:38.972Z</time></trkpt><trkpt lat="44.0201909" lon="10.6457294"><ele>374.0</ele><time>2026-05-03T13:35:39.975Z</time></trkpt><trkpt lat="44.0200924" lon="10.6457207"><ele>374.0</ele><time>2026-05-03T13:35:41.98Z</time></trkpt><trkpt lat="44.0200268" lon="10.6457094"><ele>374.0</ele><time>2026-05-03T13:35:50.983Z</time></trkpt><trkpt lat="44.0199567" lon="10.6456763"><ele>374.0</ele><time>2026-05-03T13:35:53.971Z</time></trkpt><trkpt lat="44.0198587" lon="10.6456032"><ele>374.0</ele><time>2026-05-03T13:35:55.971Z</time></trkpt><trkpt lat="44.0197743" lon="10.6455616"><ele>374.0</ele><time>2026-05-03T13:35:56.984Z</time></trkpt><trkpt lat="44.0197026" lon="10.6455354"><ele>376.0</ele><time>2026-05-03T13:35:57.983Z</time></trkpt><trkpt lat="44.0196398" lon="10.6455197"><ele>378.0</ele><time>2026-05-03T13:35:58.979Z</time></trkpt><trkpt lat="44.0195232" lon="10.6455376"><ele>380.0</ele><time>2026-05-03T13:36:00.974Z</time></trkpt><trkpt lat="44.0194608" lon="10.6455661"><ele>382.0</ele><time>2026-05-03T13:36:11.972Z</time></trkpt><trkpt lat="44.0195347" lon="10.6455984"><ele>383.99999999999994</ele><time>2026-05-03T13:36:14.966Z</time></trkpt><trkpt lat="44.0196074" lon="10.6456219"><ele>386.0</ele><time>2026-05-03T13:36:15.967Z</time></trkpt><trkpt lat="44.0196809" lon="10.6456546"><ele>385.99999999999994</ele><time>2026-05-03T13:36:16.965Z</time></trkpt><trkpt lat="44.0197381" lon="10.6457059"><ele>386.0</ele><time>2026-05-03T13:36:18.965Z</time></trkpt><trkpt lat="44.0198057" lon="10.6457843"><ele>386.0</ele><time>2026-05-03T13:36:23.989Z</time></trkpt><trkpt lat="44.0198258" lon="10.645868"><ele>386.0</ele><time>2026-05-03T13:36:26.969Z</time></trkpt><trkpt lat="44.0197886" lon="10.6459772"><ele>385.99999999999994</ele><time>2026-05-03T13:36:28.973Z</time></trkpt><trkpt lat="44.0197649" lon="10.6460997"><ele>386.0</ele><time>2026-05-03T13:36:30.978Z</time></trkpt><trkpt lat="44.0197243" lon="10.6462358"><ele>390.4</ele><time>2026-05-03T13:36:32.981Z</time></trkpt><trkpt lat="44.0196916" lon="10.6463478"><ele>394.8</ele><time>2026-05-03T13:36:34.982Z</time></trkpt><trkpt lat="44.0196816" lon="10.6464844"><ele>399.2</ele><time>2026-05-03T13:36:37.972Z</time></trkpt><trkpt lat="44.0197043" lon="10.6466195"><ele>403.59999999999997</ele><time>2026-05-03T13:36:39.989Z</time></trkpt><trkpt lat="44.0197328" lon="10.6467696"><ele>408.0</ele><time>2026-05-03T13:36:41.976Z</time></trkpt><trkpt lat="44.019758" lon="10.6469421"><ele>409.6666666666667</ele><time>2026-05-03T13:36:43.974Z</time></trkpt><trkpt lat="44.0198109" lon="10.6470333"><ele>411.33333333333337</ele><time>2026-05-03T13:36:45.969Z</time></trkpt><trkpt lat="44.0198501" lon="10.6471149"><ele>413.0</ele><time>2026-05-03T13:36:47.969Z</time></trkpt><trkpt lat="44.0199202" lon="10.6471903"><ele>414.6666666666667</ele><time>2026-05-03T13:36:49.971Z</time></trkpt><trkpt lat="44.0199709" lon="10.6472438"><ele>416.33333333333337</ele><time>2026-05-03T13:36:50.97Z</time></trkpt><trkpt lat="44.0200297" lon="10.6473236"><ele>418.0</ele><time>2026-05-03T13:36:51.963Z</time></trkpt><trkpt lat="44.0200998" lon="10.6474038"><ele>418.0</ele><time>2026-05-03T13:36:52.961Z</time></trkpt><trkpt lat="44.0201879" lon="10.6474822"><ele>418.0</ele><time>2026-05-03T13:36:53.957Z</time></trkpt><trkpt lat="44.0202753" lon="10.6475392"><ele>418.0</ele><time>2026-05-03T13:36:54.965Z</time></trkpt><trkpt lat="44.0203621" lon="10.6475937"><ele>418.0</ele><time>2026-05-03T13:36:55.965Z</time></trkpt><trkpt lat="44.020446" lon="10.6476578"><ele>418.0</ele><time>2026-05-03T13:36:56.964Z</time></trkpt><trkpt lat="44.0205283" lon="10.647739"><ele>421.1666666666667</ele><time>2026-05-03T13:36:57.966Z</time></trkpt><trkpt lat="44.0205973" lon="10.6478224"><ele>424.33333333333337</ele><time>2026-05-03T13:36:58.977Z</time></trkpt><trkpt lat="44.020659" lon="10.6479043"><ele>427.5</ele><time>2026-05-03T13:36:59.97Z</time></trkpt><trkpt lat="44.0207067" lon="10.647972"><ele>430.66666666666663</ele><time>2026-05-03T13:37:00.97Z</time></trkpt><trkpt lat="44.0207519" lon="10.6481013"><ele>433.8333333333333</ele><time>2026-05-03T13:37:02.966Z</time></trkpt><trkpt lat="44.0207028" lon="10.6481953"><ele>437.0</ele><time>2026-05-03T13:37:04.955Z</time></trkpt><trkpt lat="44.0206047" lon="10.6481487"><ele>437.0</ele><time>2026-05-03T13:37:06.971Z</time></trkpt><trkpt lat="44.0205375" lon="10.64807"><ele>437.00000000000006</ele><time>2026-05-03T13:37:07.963Z</time></trkpt><trkpt lat="44.0204632" lon="10.6479789"><ele>437.00000000000006</ele><time>2026-05-03T13:37:08.974Z</time></trkpt><trkpt lat="44.0203817" lon="10.6478911"><ele>437.0</ele><time>2026-05-03T13:37:09.974Z</time></trkpt><trkpt lat="44.0202899" lon="10.6478264"><ele>437.0</ele><time>2026-05-03T13:37:10.98Z</time></trkpt><trkpt lat="44.0201971" lon="10.6477721"><ele>436.6</ele><time>2026-05-03T13:37:11.958Z</time></trkpt><trkpt lat="44.0200892" lon="10.6477518"><ele>436.20000000000005</ele><time>2026-05-03T13:37:12.96Z</time></trkpt><trkpt lat="44.0199787" lon="10.6477491"><ele>435.8</ele><time>2026-05-03T13:37:13.965Z</time></trkpt><trkpt lat="44.0198661" lon="10.6477596"><ele>435.4</ele><time>2026-05-03T13:37:14.973Z</time></trkpt><trkpt lat="44.0197549" lon="10.6477755"><ele>435.0</ele><time>2026-05-03T13:37:15.967Z</time></trkpt><trkpt lat="44.0196511" lon="10.6477785"><ele>435.0</ele><time>2026-05-03T13:37:16.964Z</time></trkpt><trkpt lat="44.0195594" lon="10.647769"><ele>435.0</ele><time>2026-05-03T13:37:17.958Z</time></trkpt><trkpt lat="44.0194774" lon="10.6477339"><ele>435.0</ele><time>2026-05-03T13:37:18.967Z</time></trkpt><trkpt lat="44.0194018" lon="10.6476659"><ele>435.0</ele><time>2026-05-03T13:37:19.96Z</time></trkpt><trkpt lat="44.0193269" lon="10.6475987"><ele>435.0</ele><time>2026-05-03T13:37:20.972Z</time></trkpt><trkpt lat="44.0192523" lon="10.6475486"><ele>435.0</ele><time>2026-05-03T13:37:21.965Z</time></trkpt><trkpt lat="44.01918" lon="10.6475394"><ele>437.5</ele><time>2026-05-03T13:37:22.961Z</time></trkpt><trkpt lat="44.0191107" lon="10.6475658"><ele>440.0</ele><time>2026-05-03T13:37:23.965Z</time></trkpt><trkpt lat="44.0190387" lon="10.6476177"><ele>442.5</ele><time>2026-05-03T13:37:24.966Z</time></trkpt><trkpt lat="44.0189714" lon="10.6476852"><ele>445.0</ele><time>2026-05-03T13:37:25.963Z</time></trkpt><trkpt lat="44.0188957" lon="10.6477374"><ele>447.5</ele><time>2026-05-03T13:37:26.961Z</time></trkpt><trkpt lat="44.0188116" lon="10.6477592"><ele>450.0</ele><time>2026-05-03T13:37:27.962Z</time></trkpt><trkpt lat="44.0187186" lon="10.64774"><ele>450.0</ele><time>2026-05-03T13:37:28.963Z</time></trkpt><trkpt lat="44.018629" lon="10.6476977"><ele>450.0</ele><time>2026-05-03T13:37:29.958Z</time></trkpt><trkpt lat="44.0185338" lon="10.6476434"><ele>450.0</ele><time>2026-05-03T13:37:30.97Z</time></trkpt><trkpt lat="44.0184345" lon="10.6475771"><ele>450.0</ele><time>2026-05-03T13:37:31.97Z</time></trkpt><trkpt lat="44.018338" lon="10.6475046"><ele>450.0</ele><time>2026-05-03T13:37:32.967Z</time></trkpt><trkpt lat="44.0182437" lon="10.6474285"><ele>451.8333333333333</ele><time>2026-05-03T13:37:33.963Z</time></trkpt><trkpt lat="44.0181599" lon="10.6473694"><ele>453.66666666666663</ele><time>2026-05-03T13:37:34.957Z</time></trkpt><trkpt lat="44.0180895" lon="10.6473393"><ele>455.5</ele><time>2026-05-03T13:37:35.956Z</time></trkpt><trkpt lat="44.0180184" lon="10.6473773"><ele>457.3333333333333</ele><time>2026-05-03T13:37:37.967Z</time></trkpt><trkpt lat="44.0179937" lon="10.6474602"><ele>459.16666666666663</ele><time>2026-05-03T13:37:38.971Z</time></trkpt><trkpt lat="44.0180042" lon="10.6475541"><ele>461.0</ele><time>2026-05-03T13:37:39.963Z</time></trkpt><trkpt lat="44.0180503" lon="10.6476368"><ele>461.0</ele><time>2026-05-03T13:37:40.963Z</time></trkpt><trkpt lat="44.0181279" lon="10.6477069"><ele>461.0</ele><time>2026-05-03T13:37:41.983Z</time></trkpt><trkpt lat="44.0182149" lon="10.6477658"><ele>461.0</ele><time>2026-05-03T13:37:42.96Z</time></trkpt><trkpt lat="44.0183022" lon="10.6478279"><ele>461.0</ele><time>2026-05-03T13:37:43.959Z</time></trkpt><trkpt lat="44.0183869" lon="10.6478792"><ele>461.0</ele><time>2026-05-03T13:37:44.967Z</time></trkpt><trkpt lat="44.01847" lon="10.6479294"><ele>463.99999999999994</ele><time>2026-05-03T13:37:45.97Z</time></trkpt><trkpt lat="44.0185452" lon="10.6479636"><ele>467.0</ele><time>2026-05-03T13:37:46.977Z</time></trkpt><trkpt lat="44.0186198" lon="10.6480105"><ele>470.0</ele><time>2026-05-03T13:37:47.969Z</time></trkpt><trkpt lat="44.0186749" lon="10.6480832"><ele>473.0</ele><time>2026-05-03T13:37:48.964Z</time></trkpt><trkpt lat="44.018714" lon="10.6481813"><ele>475.99999999999994</ele><time>2026-05-03T13:37:49.981Z</time></trkpt><trkpt lat="44.0187302" lon="10.6482997"><ele>479.0</ele><time>2026-05-03T13:37:50.976Z</time></trkpt><trkpt lat="44.0187361" lon="10.6484203"><ele>478.99999999999994</ele><time>2026-05-03T13:37:51.98Z</time></trkpt><trkpt lat="44.0187379" lon="10.6485523"><ele>479.0</ele><time>2026-05-03T13:37:52.972Z</time></trkpt><trkpt lat="44.0187274" lon="10.6486901"><ele>479.0</ele><time>2026-05-03T13:37:53.974Z</time></trkpt><trkpt lat="44.0187196" lon="10.6488032"><ele>479.0</ele><time>2026-05-03T13:37:54.972Z</time></trkpt><trkpt lat="44.0187193" lon="10.648921"><ele>478.99999999999994</ele><time>2026-05-03T13:37:55.967Z</time></trkpt><trkpt lat="44.0187293" lon="10.6490246"><ele>479.0</ele><time>2026-05-03T13:37:56.966Z</time></trkpt><trkpt lat="44.0187855" lon="10.6491302"><ele>482.79999999999995</ele><time>2026-05-03T13:37:57.967Z</time></trkpt><trkpt lat="44.0188502" lon="10.6492202"><ele>486.59999999999997</ele><time>2026-05-03T13:37:58.965Z</time></trkpt><trkpt lat="44.01892" lon="10.6493278"><ele>490.4</ele><time>2026-05-03T13:37:59.968Z</time></trkpt><trkpt lat="44.0189827" lon="10.6494356"><ele>494.2</ele><time>2026-05-03T13:38:00.967Z</time></trkpt><trkpt lat="44.0190491" lon="10.6495363"><ele>498.0</ele><time>2026-05-03T13:38:01.967Z</time></trkpt><trkpt lat="44.0191316" lon="10.6496394"><ele>495.79999999999995</ele><time>2026-05-03T13:38:02.969Z</time></trkpt><trkpt lat="44.0192142" lon="10.64975"><ele>493.59999999999997</ele><time>2026-05-03T13:38:03.974Z</time></trkpt><trkpt lat="44.0192793" lon="10.6498765"><ele>491.40000000000003</ele><time>2026-05-03T13:38:04.972Z</time></trkpt><trkpt lat="44.0193251" lon="10.6500201"><ele>489.20000000000005</ele><time>2026-05-03T13:38:05.974Z</time></trkpt><trkpt lat="44.0193707" lon="10.6501578"><ele>487.0</ele><time>2026-05-03T13:38:06.962Z</time></trkpt><trkpt lat="44.0194085" lon="10.6502779"><ele>490.40000000000003</ele><time>2026-05-03T13:38:07.967Z</time></trkpt><trkpt lat="44.019475" lon="10.6503757"><ele>493.80000000000007</ele><time>2026-05-03T13:38:08.967Z</time></trkpt><trkpt lat="44.0195392" lon="10.6504596"><ele>497.2</ele><time>2026-05-03T13:38:09.976Z</time></trkpt><trkpt lat="44.0195865" lon="10.6505251"><ele>500.6</ele><time>2026-05-03T13:38:10.965Z</time></trkpt><trkpt lat="44.0196018" lon="10.6506607"><ele>504.0</ele><time>2026-05-03T13:38:12.981Z</time></trkpt><trkpt lat="44.0195299" lon="10.650772"><ele>504.0</ele><time>2026-05-03T13:38:14.962Z</time></trkpt><trkpt lat="44.0194739" lon="10.650813"><ele>504.0</ele><time>2026-05-03T13:38:15.963Z</time></trkpt><trkpt lat="44.0193371" lon="10.6508162"><ele>504.0</ele><time>2026-05-03T13:38:17.954Z</time></trkpt><trkpt lat="44.0192545" lon="10.6507496"><ele>504.0</ele><time>2026-05-03T13:38:18.958Z</time></trkpt><trkpt lat="44.0191709" lon="10.6506512"><ele>504.0</ele><time>2026-05-03T13:38:19.956Z</time></trkpt><trkpt lat="44.0191114" lon="10.650527"><ele>505.0</ele><time>2026-05-03T13:38:20.96Z</time></trkpt><trkpt lat="44.0190754" lon="10.6504093"><ele>506.0</ele><time>2026-05-03T13:38:21.964Z</time></trkpt><trkpt lat="44.0190505" lon="10.6502871"><ele>507.0</ele><time>2026-05-03T13:38:22.964Z</time></trkpt><trkpt lat="44.0190064" lon="10.6501724"><ele>508.0</ele><time>2026-05-03T13:38:23.959Z</time></trkpt><trkpt lat="44.0189452" lon="10.6500705"><ele>509.0</ele><time>2026-05-03T13:38:24.964Z</time></trkpt><trkpt lat="44.0188879" lon="10.6499909"><ele>509.0</ele><time>2026-05-03T13:38:25.963Z</time></trkpt><trkpt lat="44.0188101" lon="10.6499615"><ele>509.0</ele><time>2026-05-03T13:38:26.973Z</time></trkpt><trkpt lat="44.0187214" lon="10.6499883"><ele>509.0</ele><time>2026-05-03T13:38:27.964Z</time></trkpt><trkpt lat="44.0186339" lon="10.6500464"><ele>509.0</ele><time>2026-05-03T13:38:28.961Z</time></trkpt><trkpt lat="44.0185496" lon="10.6501015"><ele>509.0</ele><time>2026-05-03T13:38:29.963Z</time></trkpt><trkpt lat="44.0184556" lon="10.6501237"><ele>508.99999999999994</ele><time>2026-05-03T13:38:30.955Z</time></trkpt><trkpt lat="44.0183668" lon="10.6501589"><ele>509.0</ele><time>2026-05-03T13:38:31.962Z</time></trkpt><trkpt lat="44.0182957" lon="10.6501964"><ele>509.0</ele><time>2026-05-03T13:38:32.959Z</time></trkpt><trkpt lat="44.018243" lon="10.6502451"><ele>509.0</ele><time>2026-05-03T13:38:33.963Z</time></trkpt><trkpt lat="44.0182101" lon="10.6503558"><ele>508.99999999999994</ele><time>2026-05-03T13:38:35.954Z</time></trkpt><trkpt lat="44.0182676" lon="10.650405"><ele>509.0</ele><time>2026-05-03T13:38:36.957Z</time></trkpt><trkpt lat="44.0183405" lon="10.6504497"><ele>512.6</ele><time>2026-05-03T13:38:37.946Z</time></trkpt><trkpt lat="44.018426" lon="10.6504304"><ele>516.2</ele><time>2026-05-03T13:38:38.962Z</time></trkpt><trkpt lat="44.0185222" lon="10.6503792"><ele>519.8000000000001</ele><time>2026-05-03T13:38:39.966Z</time></trkpt><trkpt lat="44.0186245" lon="10.6503627"><ele>523.4</ele><time>2026-05-03T13:38:40.968Z</time></trkpt><trkpt lat="44.018712" lon="10.6503806"><ele>527.0</ele><time>2026-05-03T13:38:41.962Z</time></trkpt><trkpt lat="44.0187825" lon="10.650414"><ele>527.0</ele><time>2026-05-03T13:38:42.965Z</time></trkpt><trkpt lat="44.0188194" lon="10.6505899"><ele>527.0</ele><time>2026-05-03T13:38:44.971Z</time></trkpt><trkpt lat="44.0188047" lon="10.6507161"><ele>527.0</ele><time>2026-05-03T13:38:45.968Z</time></trkpt><trkpt lat="44.0188086" lon="10.6508531"><ele>527.0</ele><time>2026-05-03T13:38:46.967Z</time></trkpt><trkpt lat="44.0188165" lon="10.6509828"><ele>527.0</ele><time>2026-05-03T13:38:47.968Z</time></trkpt><trkpt lat="44.0188473" lon="10.6511158"><ele>531.2</ele><time>2026-05-03T13:38:48.967Z</time></trkpt><trkpt lat="44.0188891" lon="10.6512647"><ele>535.4000000000001</ele><time>2026-05-03T13:38:49.967Z</time></trkpt><trkpt lat="44.0189307" lon="10.6514042"><ele>539.5999999999999</ele><time>2026-05-03T13:38:50.965Z</time></trkpt><trkpt lat="44.0189655" lon="10.6515309"><ele>543.8</ele><time>2026-05-03T13:38:51.953Z</time></trkpt><trkpt lat="44.018995" lon="10.6516242"><ele>548.0</ele><time>2026-05-03T13:38:52.952Z</time></trkpt><trkpt lat="44.0190944" lon="10.6517029"><ele>549.0</ele><time>2026-05-03T13:38:54.962Z</time></trkpt><trkpt lat="44.0191783" lon="10.6517291"><ele>550.0</ele><time>2026-05-03T13:38:55.961Z</time></trkpt><trkpt lat="44.019263" lon="10.6517709"><ele>551.0</ele><time>2026-05-03T13:38:56.974Z</time></trkpt><trkpt lat="44.0193535" lon="10.6518368"><ele>552.0</ele><time>2026-05-03T13:38:57.973Z</time></trkpt><trkpt lat="44.0194452" lon="10.6519321"><ele>553.0</ele><time>2026-05-03T13:38:58.972Z</time></trkpt><trkpt lat="44.0195494" lon="10.6520236"><ele>553.0</ele><time>2026-05-03T13:38:59.972Z</time></trkpt><trkpt lat="44.0196533" lon="10.6521418"><ele>553.0</ele><time>2026-05-03T13:39:00.972Z</time></trkpt><trkpt lat="44.0197528" lon="10.6522629"><ele>553.0</ele><time>2026-05-03T13:39:01.975Z</time></trkpt><trkpt lat="44.0198418" lon="10.6523775"><ele>553.0</ele><time>2026-05-03T13:39:02.973Z</time></trkpt><trkpt lat="44.0199208" lon="10.6524766"><ele>548.6666666666667</ele><time>2026-05-03T13:39:03.97Z</time></trkpt><trkpt lat="44.0199989" lon="10.6525529"><ele>544.3333333333334</ele><time>2026-05-03T13:39:04.966Z</time></trkpt><trkpt lat="44.020088" lon="10.6525957"><ele>540.0</ele><time>2026-05-03T13:39:05.959Z</time></trkpt><trkpt lat="44.0201776" lon="10.6526001"><ele>535.6666666666666</ele><time>2026-05-03T13:39:06.953Z</time></trkpt><trkpt lat="44.0202588" lon="10.6525819"><ele>531.3333333333333</ele><time>2026-05-03T13:39:07.951Z</time></trkpt><trkpt lat="44.0203315" lon="10.6525597"><ele>527.0</ele><time>2026-05-03T13:39:08.954Z</time></trkpt><trkpt lat="44.0203014" lon="10.6526536"><ele>527.0</ele><time>2026-05-03T13:39:12.962Z</time></trkpt><trkpt lat="44.0202364" lon="10.6526723"><ele>527.0</ele><time>2026-05-03T13:39:13.974Z</time></trkpt><trkpt lat="44.0201447" lon="10.6526742"><ele>527.0</ele><time>2026-05-03T13:39:14.953Z</time></trkpt><trkpt lat="44.0200313" lon="10.652681"><ele>527.0</ele><time>2026-05-03T13:39:15.962Z</time></trkpt><trkpt lat="44.0199342" lon="10.6527035"><ele>527.0</ele><time>2026-05-03T13:39:16.958Z</time></trkpt><trkpt lat="44.0198447" lon="10.6527174"><ele>532.2</ele><time>2026-05-03T13:39:17.959Z</time></trkpt><trkpt lat="44.0197642" lon="10.6527273"><ele>537.4000000000001</ele><time>2026-05-03T13:39:18.96Z</time></trkpt><trkpt lat="44.0196924" lon="10.652711"><ele>542.5999999999999</ele><time>2026-05-03T13:39:19.965Z</time></trkpt><trkpt lat="44.0196229" lon="10.6526377"><ele>547.8</ele><time>2026-05-03T13:39:20.969Z</time></trkpt><trkpt lat="44.0195577" lon="10.652522"><ele>553.0</ele><time>2026-05-03T13:39:21.967Z</time></trkpt><trkpt lat="44.0194895" lon="10.6524105"><ele>553.0</ele><time>2026-05-03T13:39:22.967Z</time></trkpt><trkpt lat="44.0194137" lon="10.6523238"><ele>553.0</ele><time>2026-05-03T13:39:23.971Z</time></trkpt><trkpt lat="44.0193317" lon="10.6522346"><ele>553.0</ele><time>2026-05-03T13:39:24.976Z</time></trkpt><trkpt lat="44.0192485" lon="10.6521621"><ele>553.0</ele><time>2026-05-03T13:39:25.968Z</time></trkpt><trkpt lat="44.0191703" lon="10.6521093"><ele>553.0</ele><time>2026-05-03T13:39:26.959Z</time></trkpt><trkpt lat="44.019092" lon="10.6520842"><ele>555.6666666666667</ele><time>2026-05-03T13:39:27.965Z</time></trkpt><trkpt lat="44.0189932" lon="10.6520868"><ele>558.3333333333334</ele><time>2026-05-03T13:39:28.971Z</time></trkpt><trkpt lat="44.018899" lon="10.6521074"><ele>561.0</ele><time>2026-05-03T13:39:29.971Z</time></trkpt><trkpt lat="44.0188179" lon="10.6521256"><ele>563.6666666666666</ele><time>2026-05-03T13:39:30.962Z</time></trkpt><trkpt lat="44.0187382" lon="10.6521411"><ele>566.3333333333333</ele><time>2026-05-03T13:39:31.966Z</time></trkpt><trkpt lat="44.0186487" lon="10.6521077"><ele>569.0</ele><time>2026-05-03T13:39:32.969Z</time></trkpt><trkpt lat="44.0185592" lon="10.6520626"><ele>569.0</ele><time>2026-05-03T13:39:33.968Z</time></trkpt><trkpt lat="44.0184629" lon="10.6519736"><ele>569.0</ele><time>2026-05-03T13:39:34.972Z</time></trkpt><trkpt lat="44.0183736" lon="10.6518733"><ele>569.0</ele><time>2026-05-03T13:39:35.974Z</time></trkpt><trkpt lat="44.0182809" lon="10.6517924"><ele>569.0</ele><time>2026-05-03T13:39:36.981Z</time></trkpt><trkpt lat="44.0181917" lon="10.6517164"><ele>569.0</ele><time>2026-05-03T13:39:37.983Z</time></trkpt><trkpt lat="44.0181096" lon="10.6516597"><ele>569.1666666666666</ele><time>2026-05-03T13:39:38.98Z</time></trkpt><trkpt lat="44.018045" lon="10.6516309"><ele>569.3333333333333</ele><time>2026-05-03T13:39:39.982Z</time></trkpt><trkpt lat="44.0179504" lon="10.6516043"><ele>569.5</ele><time>2026-05-03T13:39:41.989Z</time></trkpt><trkpt lat="44.0178746" lon="10.6515649"><ele>569.6666666666666</ele><time>2026-05-03T13:39:43.986Z</time></trkpt><trkpt lat="44.0177591" lon="10.6515102"><ele>569.8333333333334</ele><time>2026-05-03T13:39:45.986Z</time></trkpt><trkpt lat="44.017699" lon="10.651472"><ele>570.0</ele><time>2026-05-03T13:39:46.975Z</time></trkpt><trkpt lat="44.0176358" lon="10.6514082"><ele>570.0</ele><time>2026-05-03T13:39:47.962Z</time></trkpt><trkpt lat="44.0175958" lon="10.6513161"><ele>570.0</ele><time>2026-05-03T13:39:48.966Z</time></trkpt><trkpt lat="44.0175505" lon="10.6512235"><ele>570.0</ele><time>2026-05-03T13:39:49.979Z</time></trkpt><trkpt lat="44.0174911" lon="10.6511424"><ele>570.0</ele><time>2026-05-03T13:39:50.979Z</time></trkpt><trkpt lat="44.0174279" lon="10.6510675"><ele>570.0</ele><time>2026-05-03T13:39:51.976Z</time></trkpt><trkpt lat="44.0173791" lon="10.6509749"><ele>570.0</ele><time>2026-05-03T13:39:52.969Z</time></trkpt><trkpt lat="44.0173458" lon="10.6508719"><ele>569.3333333333334</ele><time>2026-05-03T13:39:53.968Z</time></trkpt><trkpt lat="44.0173202" lon="10.6507681"><ele>568.6666666666666</ele><time>2026-05-03T13:39:54.97Z</time></trkpt><trkpt lat="44.0172901" lon="10.6506596"><ele>568.0</ele><time>2026-05-03T13:39:55.971Z</time></trkpt><trkpt lat="44.0172588" lon="10.6505691"><ele>567.3333333333333</ele><time>2026-05-03T13:39:56.969Z</time></trkpt><trkpt lat="44.0172126" lon="10.6504324"><ele>566.6666666666666</ele><time>2026-05-03T13:39:58.981Z</time></trkpt><trkpt lat="44.0171654" lon="10.6503594"><ele>566.0</ele><time>2026-05-03T13:40:00.963Z</time></trkpt><trkpt lat="44.0171865" lon="10.6504575"><ele>566.0</ele><time>2026-05-03T13:40:05.968Z</time></trkpt><trkpt lat="44.0172631" lon="10.6504826"><ele>566.0</ele><time>2026-05-03T13:40:07.976Z</time></trkpt><trkpt lat="44.017302" lon="10.6505795"><ele>566.0</ele><time>2026-05-03T13:40:10.978Z</time></trkpt><trkpt lat="44.0173349" lon="10.6507344"><ele>566.0</ele><time>2026-05-03T13:40:12.975Z</time></trkpt><trkpt lat="44.0173636" lon="10.6508344"><ele>566.0</ele><time>2026-05-03T13:40:13.977Z</time></trkpt><trkpt lat="44.0173958" lon="10.6509343"><ele>566.0</ele><time>2026-05-03T13:40:14.979Z</time></trkpt><trkpt lat="44.0174339" lon="10.6510449"><ele>566.5714285714286</ele><time>2026-05-03T13:40:15.99Z</time></trkpt><trkpt lat="44.0174795" lon="10.6511382"><ele>567.1428571428572</ele><time>2026-05-03T13:40:16.972Z</time></trkpt><trkpt lat="44.0175231" lon="10.6512063"><ele>567.7142857142858</ele><time>2026-05-03T13:40:17.97Z</time></trkpt><trkpt lat="44.0175778" lon="10.6512843"><ele>568.2857142857143</ele><time>2026-05-03T13:40:18.964Z</time></trkpt><trkpt lat="44.0176263" lon="10.6513627"><ele>568.8571428571429</ele><time>2026-05-03T13:40:19.974Z</time></trkpt><trkpt lat="44.0176632" lon="10.6514404"><ele>569.4285714285714</ele><time>2026-05-03T13:40:20.969Z</time></trkpt><trkpt lat="44.017713" lon="10.6515176"><ele>570.0</ele><time>2026-05-03T13:40:21.97Z</time></trkpt><trkpt lat="44.0177853" lon="10.6515777"><ele>570.0</ele><time>2026-05-03T13:40:22.966Z</time></trkpt><trkpt lat="44.0178634" lon="10.6516249"><ele>570.0</ele><time>2026-05-03T13:40:23.975Z</time></trkpt><trkpt lat="44.0179284" lon="10.6516362"><ele>570.0</ele><time>2026-05-03T13:40:24.972Z</time></trkpt><trkpt lat="44.017998" lon="10.6517087"><ele>570.0</ele><time>2026-05-03T13:40:26.97Z</time></trkpt><trkpt lat="44.0180278" lon="10.6517866"><ele>570.0</ele><time>2026-05-03T13:40:27.972Z</time></trkpt><trkpt lat="44.0180879" lon="10.6518896"><ele>570.0</ele><time>2026-05-03T13:40:28.971Z</time></trkpt><trkpt lat="44.0181501" lon="10.6520047"><ele>569.8</ele><time>2026-05-03T13:40:29.976Z</time></trkpt><trkpt lat="44.0182043" lon="10.6521366"><ele>569.6</ele><time>2026-05-03T13:40:30.979Z</time></trkpt><trkpt lat="44.0182657" lon="10.6522494"><ele>569.4</ele><time>2026-05-03T13:40:31.979Z</time></trkpt><trkpt lat="44.0183265" lon="10.6523588"><ele>569.2</ele><time>2026-05-03T13:40:32.97Z</time></trkpt><trkpt lat="44.0184051" lon="10.6524663"><ele>569.0</ele><time>2026-05-03T13:40:33.973Z</time></trkpt><trkpt lat="44.018492" lon="10.6525375"><ele>569.0</ele><time>2026-05-03T13:40:34.96Z</time></trkpt><trkpt lat="44.0185879" lon="10.6525629"><ele>569.0</ele><time>2026-05-03T13:40:35.963Z</time></trkpt><trkpt lat="44.0186852" lon="10.6525748"><ele>569.0</ele><time>2026-05-03T13:40:36.964Z</time></trkpt><trkpt lat="44.0187881" lon="10.6525903"><ele>569.0</ele><time>2026-05-03T13:40:37.961Z</time></trkpt><trkpt lat="44.0188863" lon="10.6526309"><ele>569.0</ele><time>2026-05-03T13:40:38.974Z</time></trkpt><trkpt lat="44.0189776" lon="10.6526891"><ele>569.0</ele><time>2026-05-03T13:40:39.969Z</time></trkpt><trkpt lat="44.019048" lon="10.6527451"><ele>569.0</ele><time>2026-05-03T13:40:40.975Z</time></trkpt><trkpt lat="44.0190798" lon="10.6528386"><ele>569.0</ele><time>2026-05-03T13:40:42.965Z</time></trkpt><trkpt lat="44.0190094" lon="10.6528772"><ele>569.0</ele><time>2026-05-03T13:40:44.955Z</time></trkpt><trkpt lat="44.0188749" lon="10.6528642"><ele>569.0</ele><time>2026-05-03T13:40:46.968Z</time></trkpt><trkpt lat="44.0187869" lon="10.6528477"><ele>569.0</ele><time>2026-05-03T13:40:47.953Z</time></trkpt><trkpt lat="44.0186785" lon="10.6528245"><ele>569.0</ele><time>2026-05-03T13:40:48.96Z</time></trkpt><trkpt lat="44.0185737" lon="10.6528123"><ele>569.0</ele><time>2026-05-03T13:40:49.96Z</time></trkpt><trkpt lat="44.0184669" lon="10.6528015"><ele>569.0</ele><time>2026-05-03T13:40:50.959Z</time></trkpt><trkpt lat="44.0183609" lon="10.6527864"><ele>569.0</ele><time>2026-05-03T13:40:51.956Z</time></trkpt><trkpt lat="44.0182535" lon="10.6527812"><ele>572.6</ele><time>2026-05-03T13:40:52.957Z</time></trkpt><trkpt lat="44.0181364" lon="10.6527704"><ele>576.2</ele><time>2026-05-03T13:40:53.959Z</time></trkpt><trkpt lat="44.0180314" lon="10.6527739"><ele>579.8000000000001</ele><time>2026-05-03T13:40:54.957Z</time></trkpt><trkpt lat="44.01793" lon="10.652802"><ele>583.4</ele><time>2026-05-03T13:40:55.957Z</time></trkpt><trkpt lat="44.0178422" lon="10.6528339"><ele>587.0</ele><time>2026-05-03T13:40:56.954Z</time></trkpt><trkpt lat="44.0177687" lon="10.6528668"><ele>587.0</ele><time>2026-05-03T13:40:57.958Z</time></trkpt><trkpt lat="44.0177017" lon="10.6528564"><ele>587.0</ele><time>2026-05-03T13:40:58.959Z</time></trkpt><trkpt lat="44.0176424" lon="10.6528058"><ele>587.0</ele><time>2026-05-03T13:40:59.952Z</time></trkpt><trkpt lat="44.0176119" lon="10.6527274"><ele>587.0</ele><time>2026-05-03T13:41:00.958Z</time></trkpt><trkpt lat="44.0175939" lon="10.65263"><ele>587.0</ele><time>2026-05-03T13:41:01.965Z</time></trkpt><trkpt lat="44.017583" lon="10.6524984"><ele>587.0</ele><time>2026-05-03T13:41:02.96Z</time></trkpt><trkpt lat="44.017558" lon="10.6523819"><ele>587.0</ele><time>2026-05-03T13:41:03.971Z</time></trkpt><trkpt lat="44.0175138" lon="10.6523183"><ele>587.0</ele><time>2026-05-03T13:41:04.973Z</time></trkpt><trkpt lat="44.0174511" lon="10.6522812"><ele>587.0</ele><time>2026-05-03T13:41:05.983Z</time></trkpt><trkpt lat="44.0173849" lon="10.6522648"><ele>587.0</ele><time>2026-05-03T13:41:06.987Z</time></trkpt><trkpt lat="44.0172784" lon="10.6523106"><ele>587.0</ele><time>2026-05-03T13:41:08.985Z</time></trkpt><trkpt lat="44.0172325" lon="10.6523752"><ele>587.0</ele><time>2026-05-03T13:41:09.976Z</time></trkpt><trkpt lat="44.0171868" lon="10.6524452"><ele>587.0</ele><time>2026-05-03T13:41:10.971Z</time></trkpt><trkpt lat="44.0170838" lon="10.6525639"><ele>585.2</ele><time>2026-05-03T13:41:12.969Z</time></trkpt><trkpt lat="44.0170604" lon="10.6526513"><ele>583.4000000000001</ele><time>2026-05-03T13:41:13.975Z</time></trkpt><trkpt lat="44.0170413" lon="10.6527829"><ele>581.5999999999999</ele><time>2026-05-03T13:41:14.967Z</time></trkpt><trkpt lat="44.0170316" lon="10.6529276"><ele>579.8</ele><time>2026-05-03T13:41:15.97Z</time></trkpt><trkpt lat="44.0170127" lon="10.6530701"><ele>578.0</ele><time>2026-05-03T13:41:16.966Z</time></trkpt><trkpt lat="44.0169872" lon="10.6531979"><ele>578.0</ele><time>2026-05-03T13:41:17.981Z</time></trkpt><trkpt lat="44.0169551" lon="10.6533035"><ele>578.0</ele><time>2026-05-03T13:41:18.969Z</time></trkpt><trkpt lat="44.0169353" lon="10.6534289"><ele>578.0</ele><time>2026-05-03T13:41:19.97Z</time></trkpt><trkpt lat="44.016928" lon="10.6535542"><ele>578.0</ele><time>2026-05-03T13:41:20.968Z</time></trkpt><trkpt lat="44.0169425" lon="10.6536717"><ele>578.0</ele><time>2026-05-03T13:41:21.962Z</time></trkpt><trkpt lat="44.0169848" lon="10.6537798"><ele>578.0</ele><time>2026-05-03T13:41:22.963Z</time></trkpt><trkpt lat="44.0170408" lon="10.6538682"><ele>579.0</ele><time>2026-05-03T13:41:23.963Z</time></trkpt><trkpt lat="44.0170936" lon="10.6539553"><ele>580.0</ele><time>2026-05-03T13:41:24.966Z</time></trkpt><trkpt lat="44.0171412" lon="10.6540442"><ele>581.0</ele><time>2026-05-03T13:41:25.958Z</time></trkpt><trkpt lat="44.0171799" lon="10.6541283"><ele>582.0</ele><time>2026-05-03T13:41:26.959Z</time></trkpt><trkpt lat="44.017202" lon="10.6542181"><ele>583.0</ele><time>2026-05-03T13:41:27.959Z</time></trkpt><trkpt lat="44.0171893" lon="10.6543779"><ele>584.0</ele><time>2026-05-03T13:41:29.958Z</time></trkpt><trkpt lat="44.0171346" lon="10.6544415"><ele>585.6666666666666</ele><time>2026-05-03T13:41:30.963Z</time></trkpt><trkpt lat="44.0170565" lon="10.6544878"><ele>587.3333333333333</ele><time>2026-05-03T13:41:31.963Z</time></trkpt><trkpt lat="44.0169702" lon="10.6545173"><ele>589.0</ele><time>2026-05-03T13:41:32.963Z</time></trkpt><trkpt lat="44.0169055" lon="10.6545742"><ele>590.6666666666666</ele><time>2026-05-03T13:41:33.965Z</time></trkpt><trkpt lat="44.0168606" lon="10.6546511"><ele>592.3333333333334</ele><time>2026-05-03T13:41:34.969Z</time></trkpt><trkpt lat="44.0168435" lon="10.6547538"><ele>594.0</ele><time>2026-05-03T13:41:35.963Z</time></trkpt><trkpt lat="44.0168802" lon="10.6548502"><ele>594.0</ele><time>2026-05-03T13:41:36.962Z</time></trkpt><trkpt lat="44.0169445" lon="10.6549481"><ele>594.0</ele><time>2026-05-03T13:41:37.956Z</time></trkpt><trkpt lat="44.0169963" lon="10.6550571"><ele>594.0</ele><time>2026-05-03T13:41:38.966Z</time></trkpt><trkpt lat="44.017032" lon="10.6551656"><ele>594.0</ele><time>2026-05-03T13:41:39.953Z</time></trkpt><trkpt lat="44.0170472" lon="10.655296"><ele>594.0</ele><time>2026-05-03T13:41:40.959Z</time></trkpt><trkpt lat="44.0170505" lon="10.6554316"><ele>595.1666666666666</ele><time>2026-05-03T13:41:41.964Z</time></trkpt><trkpt lat="44.0170318" lon="10.6555642"><ele>596.3333333333334</ele><time>2026-05-03T13:41:42.961Z</time></trkpt><trkpt lat="44.0170138" lon="10.6556843"><ele>597.5</ele><time>2026-05-03T13:41:43.956Z</time></trkpt><trkpt lat="44.0169932" lon="10.6557932"><ele>598.6666666666667</ele><time>2026-05-03T13:41:44.961Z</time></trkpt><trkpt lat="44.0169751" lon="10.6558915"><ele>599.8333333333334</ele><time>2026-05-03T13:41:45.959Z</time></trkpt><trkpt lat="44.0169625" lon="10.6560013"><ele>601.0</ele><time>2026-05-03T13:41:46.961Z</time></trkpt><trkpt lat="44.016963" lon="10.6560913"><ele>604.0</ele><time>2026-05-03T13:41:47.967Z</time></trkpt><trkpt lat="44.0169616" lon="10.6562276"><ele>607.0</ele><time>2026-05-03T13:41:49.965Z</time></trkpt><trkpt lat="44.0169397" lon="10.6563122"><ele>610.0</ele><time>2026-05-03T13:41:51.959Z</time></trkpt><trkpt lat="44.0168859" lon="10.6563939"><ele>613.0</ele><time>2026-05-03T13:41:54.957Z</time></trkpt><trkpt lat="44.0168261" lon="10.6565072"><ele>616.0</ele><time>2026-05-03T13:41:56.957Z</time></trkpt><trkpt lat="44.0167411" lon="10.6566142"><ele>616.0</ele><time>2026-05-03T13:41:58.961Z</time></trkpt><trkpt lat="44.0166781" lon="10.6567333"><ele>616.0</ele><time>2026-05-03T13:42:00.96Z</time></trkpt><trkpt lat="44.0166772" lon="10.6568485"><ele>616.0</ele><time>2026-05-03T13:42:02.951Z</time></trkpt><trkpt lat="44.016755" lon="10.6568888"><ele>616.0</ele><time>2026-05-03T13:42:04.961Z</time></trkpt><trkpt lat="44.0168453" lon="10.6568543"><ele>616.0</ele><time>2026-05-03T13:42:06.959Z</time></trkpt><trkpt lat="44.0169549" lon="10.6567241"><ele>616.0</ele><time>2026-05-03T13:42:08.958Z</time></trkpt><trkpt lat="44.0170304" lon="10.6566551"><ele>616.0</ele><time>2026-05-03T13:42:09.957Z</time></trkpt><trkpt lat="44.0171134" lon="10.6565798"><ele>616.0</ele><time>2026-05-03T13:42:10.954Z</time></trkpt><trkpt lat="44.0171821" lon="10.6565053"><ele>616.0</ele><time>2026-05-03T13:42:11.961Z</time></trkpt><trkpt lat="44.0172545" lon="10.6564375"><ele>616.0</ele><time>2026-05-03T13:42:12.954Z</time></trkpt><trkpt lat="44.0173206" lon="10.6563654"><ele>616.0</ele><time>2026-05-03T13:42:13.943Z</time></trkpt><trkpt lat="44.0173769" lon="10.6562771"><ele>616.0</ele><time>2026-05-03T13:42:14.942Z</time></trkpt><trkpt lat="44.0174195" lon="10.6561712"><ele>616.0</ele><time>2026-05-03T13:42:15.946Z</time></trkpt><trkpt lat="44.0174551" lon="10.6560672"><ele>616.0</ele><time>2026-05-03T13:42:16.939Z</time></trkpt><trkpt lat="44.0174722" lon="10.6559766"><ele>616.0</ele><time>2026-05-03T13:42:17.951Z</time></trkpt><trkpt lat="44.0174757" lon="10.6558768"><ele>616.0</ele><time>2026-05-03T13:42:18.955Z</time></trkpt><trkpt lat="44.0174756" lon="10.655756"><ele>616.0</ele><time>2026-05-03T13:42:19.973Z</time></trkpt><trkpt lat="44.01747" lon="10.6556274"><ele>613.5</ele><time>2026-05-03T13:42:20.952Z</time></trkpt><trkpt lat="44.0174674" lon="10.6555015"><ele>611.0</ele><time>2026-05-03T13:42:21.951Z</time></trkpt><trkpt lat="44.0174754" lon="10.6553896"><ele>608.5</ele><time>2026-05-03T13:42:22.968Z</time></trkpt><trkpt lat="44.0174889" lon="10.6552649"><ele>606.0</ele><time>2026-05-03T13:42:23.962Z</time></trkpt><trkpt lat="44.0175037" lon="10.6551544"><ele>603.5</ele><time>2026-05-03T13:42:24.972Z</time></trkpt><trkpt lat="44.0175456" lon="10.6550852"><ele>601.0</ele><time>2026-05-03T13:42:25.973Z</time></trkpt><trkpt lat="44.0176575" lon="10.655049"><ele>606.3333333333334</ele><time>2026-05-03T13:42:27.959Z</time></trkpt><trkpt lat="44.0177328" lon="10.6550527"><ele>611.6666666666667</ele><time>2026-05-03T13:42:28.971Z</time></trkpt><trkpt lat="44.0178393" lon="10.6550248"><ele>617.0</ele><time>2026-05-03T13:42:30.961Z</time></trkpt><trkpt lat="44.017889" lon="10.6549656"><ele>622.3333333333334</ele><time>2026-05-03T13:42:31.972Z</time></trkpt><trkpt lat="44.0179443" lon="10.654894"><ele>627.6666666666666</ele><time>2026-05-03T13:42:32.972Z</time></trkpt><trkpt lat="44.0180007" lon="10.6548504"><ele>633.0</ele><time>2026-05-03T13:42:33.965Z</time></trkpt><trkpt lat="44.0180676" lon="10.6548326"><ele>633.0</ele><time>2026-05-03T13:42:34.973Z</time></trkpt><trkpt lat="44.0181425" lon="10.6548341"><ele>633.0</ele><time>2026-05-03T13:42:35.963Z</time></trkpt><trkpt lat="44.0182323" lon="10.6548377"><ele>633.0</ele><time>2026-05-03T13:42:36.967Z</time></trkpt><trkpt lat="44.0183126" lon="10.6548422"><ele>633.0</ele><time>2026-05-03T13:42:37.967Z</time></trkpt><trkpt lat="44.0183804" lon="10.6548569"><ele>633.0</ele><time>2026-05-03T13:42:38.971Z</time></trkpt><trkpt lat="44.0184723" lon="10.6549209"><ele>633.0</ele><time>2026-05-03T13:42:40.966Z</time></trkpt><trkpt lat="44.0185243" lon="10.6550184"><ele>636.4</ele><time>2026-05-03T13:42:41.967Z</time></trkpt><trkpt lat="44.0185787" lon="10.655131"><ele>639.8</ele><time>2026-05-03T13:42:42.957Z</time></trkpt><trkpt lat="44.0186312" lon="10.6552334"><ele>643.2</ele><time>2026-05-03T13:42:43.963Z</time></trkpt><trkpt lat="44.0186932" lon="10.655334"><ele>646.6</ele><time>2026-05-03T13:42:44.964Z</time></trkpt><trkpt lat="44.0187458" lon="10.6554177"><ele>650.0</ele><time>2026-05-03T13:42:45.964Z</time></trkpt><trkpt lat="44.0188006" lon="10.6555135"><ele>655.0</ele><time>2026-05-03T13:42:46.964Z</time></trkpt><trkpt lat="44.0188214" lon="10.655623"><ele>660.0</ele><time>2026-05-03T13:42:47.966Z</time></trkpt><trkpt lat="44.0188334" lon="10.6557462"><ele>665.0</ele><time>2026-05-03T13:42:48.965Z</time></trkpt><trkpt lat="44.0188632" lon="10.6558758"><ele>670.0</ele><time>2026-05-03T13:42:49.971Z</time></trkpt><trkpt lat="44.0188989" lon="10.6560216"><ele>675.0</ele><time>2026-05-03T13:42:50.985Z</time></trkpt><trkpt lat="44.018939" lon="10.6561682"><ele>675.0</ele><time>2026-05-03T13:42:51.968Z</time></trkpt><trkpt lat="44.018978" lon="10.6563009"><ele>675.0</ele><time>2026-05-03T13:42:52.968Z</time></trkpt><trkpt lat="44.019042" lon="10.6564404"><ele>675.0</ele><time>2026-05-03T13:42:53.967Z</time></trkpt><trkpt lat="44.0190806" lon="10.6565772"><ele>675.0</ele><time>2026-05-03T13:42:54.967Z</time></trkpt><trkpt lat="44.0191288" lon="10.6567017"><ele>675.0</ele><time>2026-05-03T13:42:55.967Z</time></trkpt><trkpt lat="44.0191669" lon="10.6568232"><ele>675.0</ele><time>2026-05-03T13:42:56.969Z</time></trkpt><trkpt lat="44.0192036" lon="10.6569205"><ele>675.0</ele><time>2026-05-03T13:42:57.972Z</time></trkpt><trkpt lat="44.0192419" lon="10.6570178"><ele>675.0</ele><time>2026-05-03T13:42:58.981Z</time></trkpt><trkpt lat="44.0192832" lon="10.6571274"><ele>675.0</ele><time>2026-05-03T13:42:59.978Z</time></trkpt><trkpt lat="44.019316" lon="10.6572505"><ele>675.0</ele><time>2026-05-03T13:43:00.978Z</time></trkpt><trkpt lat="44.0193386" lon="10.6573746"><ele>675.0</ele><time>2026-05-03T13:43:01.972Z</time></trkpt><trkpt lat="44.0193636" lon="10.6575117"><ele>679.6</ele><time>2026-05-03T13:43:02.977Z</time></trkpt><trkpt lat="44.0193737" lon="10.6576433"><ele>684.2</ele><time>2026-05-03T13:43:03.974Z</time></trkpt><trkpt lat="44.0193901" lon="10.6577478"><ele>688.8</ele><time>2026-05-03T13:43:04.971Z</time></trkpt><trkpt lat="44.0194529" lon="10.6579092"><ele>693.4</ele><time>2026-05-03T13:43:06.971Z</time></trkpt><trkpt lat="44.0194946" lon="10.6579821"><ele>698.0</ele><time>2026-05-03T13:43:07.972Z</time></trkpt><trkpt lat="44.0195362" lon="10.6581437"><ele>701.1666666666666</ele><time>2026-05-03T13:43:09.963Z</time></trkpt><trkpt lat="44.0195478" lon="10.6582462"><ele>704.3333333333333</ele><time>2026-05-03T13:43:10.973Z</time></trkpt><trkpt lat="44.0195847" lon="10.6583466"><ele>707.5</ele><time>2026-05-03T13:43:12.968Z</time></trkpt><trkpt lat="44.019663" lon="10.6583564"><ele>710.6666666666666</ele><time>2026-05-03T13:43:14.964Z</time></trkpt><trkpt lat="44.0197222" lon="10.6583242"><ele>713.8333333333334</ele><time>2026-05-03T13:43:15.957Z</time></trkpt><trkpt lat="44.019796" lon="10.6582862"><ele>717.0</ele><time>2026-05-03T13:43:16.959Z</time></trkpt><trkpt lat="44.0198672" lon="10.6582497"><ele>717.0</ele><time>2026-05-03T13:43:17.951Z</time></trkpt><trkpt lat="44.0199293" lon="10.6581858"><ele>717.0</ele><time>2026-05-03T13:43:18.954Z</time></trkpt><trkpt lat="44.0199934" lon="10.65814"><ele>717.0</ele><time>2026-05-03T13:43:19.964Z</time></trkpt><trkpt lat="44.0200551" lon="10.6581188"><ele>717.0</ele><time>2026-05-03T13:43:20.957Z</time></trkpt><trkpt lat="44.0201219" lon="10.6581608"><ele>717.0</ele><time>2026-05-03T13:43:21.975Z</time></trkpt><trkpt lat="44.0201957" lon="10.6582195"><ele>717.0</ele><time>2026-05-03T13:43:22.966Z</time></trkpt><trkpt lat="44.0202642" lon="10.658264"><ele>717.0</ele><time>2026-05-03T13:43:23.972Z</time></trkpt><trkpt lat="44.0203394" lon="10.6583192"><ele>717.6666666666666</ele><time>2026-05-03T13:43:24.978Z</time></trkpt><trkpt lat="44.0204196" lon="10.6583858"><ele>718.3333333333334</ele><time>2026-05-03T13:43:25.978Z</time></trkpt><trkpt lat="44.0204938" lon="10.658456"><ele>719.0</ele><time>2026-05-03T13:43:26.968Z</time></trkpt><trkpt lat="44.0205686" lon="10.6585269"><ele>719.6666666666667</ele><time>2026-05-03T13:43:27.973Z</time></trkpt><trkpt lat="44.0206416" lon="10.6585931"><ele>720.3333333333334</ele><time>2026-05-03T13:43:28.968Z</time></trkpt><trkpt lat="44.020703" lon="10.6586318"><ele>721.0</ele><time>2026-05-03T13:43:29.969Z</time></trkpt><trkpt lat="44.0207706" lon="10.6586621"><ele>720.0</ele><time>2026-05-03T13:43:30.977Z</time></trkpt><trkpt lat="44.020856" lon="10.6586672"><ele>719.0</ele><time>2026-05-03T13:43:31.974Z</time></trkpt><trkpt lat="44.0209312" lon="10.6586328"><ele>718.0</ele><time>2026-05-03T13:43:32.974Z</time></trkpt><trkpt lat="44.0209996" lon="10.6586269"><ele>717.0</ele><time>2026-05-03T13:43:33.959Z</time></trkpt><trkpt lat="44.021091" lon="10.6586691"><ele>716.0</ele><time>2026-05-03T13:43:35.979Z</time></trkpt><trkpt lat="44.0211263" lon="10.6587482"><ele>715.0</ele><time>2026-05-03T13:43:36.969Z</time></trkpt><trkpt lat="44.021165" lon="10.6588455"><ele>715.0</ele><time>2026-05-03T13:43:37.979Z</time></trkpt><trkpt lat="44.0212068" lon="10.6589569"><ele>715.0</ele><time>2026-05-03T13:43:38.978Z</time></trkpt><trkpt lat="44.0212422" lon="10.6590644"><ele>715.0</ele><time>2026-05-03T13:43:39.97Z</time></trkpt><trkpt lat="44.0212606" lon="10.6591715"><ele>715.0</ele><time>2026-05-03T13:43:40.969Z</time></trkpt><trkpt lat="44.0212619" lon="10.6592827"><ele>715.0</ele><time>2026-05-03T13:43:41.974Z</time></trkpt><trkpt lat="44.0212631" lon="10.6593962"><ele>715.0</ele><time>2026-05-03T13:43:42.975Z</time></trkpt><trkpt lat="44.0212626" lon="10.659528"><ele>719.4</ele><time>2026-05-03T13:43:43.977Z</time></trkpt><trkpt lat="44.0212648" lon="10.6596539"><ele>723.8</ele><time>2026-05-03T13:43:44.971Z</time></trkpt><trkpt lat="44.0212666" lon="10.6597863"><ele>728.2</ele><time>2026-05-03T13:43:45.974Z</time></trkpt><trkpt lat="44.0212648" lon="10.6599388"><ele>732.6</ele><time>2026-05-03T13:43:46.972Z</time></trkpt><trkpt lat="44.0212654" lon="10.6600555"><ele>737.0</ele><time>2026-05-03T13:43:47.96Z</time></trkpt><trkpt lat="44.0212799" lon="10.6601584"><ele>737.0</ele><time>2026-05-03T13:43:48.955Z</time></trkpt><trkpt lat="44.0213108" lon="10.6602415"><ele>737.0</ele><time>2026-05-03T13:43:49.97Z</time></trkpt><trkpt lat="44.021401" lon="10.6603308"><ele>737.0</ele><time>2026-05-03T13:43:51.96Z</time></trkpt><trkpt lat="44.0214641" lon="10.6603762"><ele>737.0</ele><time>2026-05-03T13:43:52.977Z</time></trkpt><trkpt lat="44.0215185" lon="10.6604289"><ele>737.0</ele><time>2026-05-03T13:43:53.963Z</time></trkpt><trkpt lat="44.0215679" lon="10.6604882"><ele>737.0</ele><time>2026-05-03T13:43:54.962Z</time></trkpt><trkpt lat="44.0216177" lon="10.6605976"><ele>736.1666666666666</ele><time>2026-05-03T13:43:55.97Z</time></trkpt><trkpt lat="44.0216632" lon="10.6607205"><ele>735.3333333333333</ele><time>2026-05-03T13:43:56.971Z</time></trkpt><trkpt lat="44.021698" lon="10.6608285"><ele>734.5</ele><time>2026-05-03T13:43:57.971Z</time></trkpt><trkpt lat="44.0217389" lon="10.6609261"><ele>733.6666666666666</ele><time>2026-05-03T13:43:58.969Z</time></trkpt><trkpt lat="44.0217672" lon="10.6610139"><ele>732.8333333333334</ele><time>2026-05-03T13:43:59.966Z</time></trkpt><trkpt lat="44.0217807" lon="10.6611196"><ele>732.0</ele><time>2026-05-03T13:44:00.963Z</time></trkpt><trkpt lat="44.0217642" lon="10.661233"><ele>733.6666666666666</ele><time>2026-05-03T13:44:01.972Z</time></trkpt><trkpt lat="44.0217447" lon="10.661342"><ele>735.3333333333334</ele><time>2026-05-03T13:44:02.965Z</time></trkpt><trkpt lat="44.0217399" lon="10.6614514"><ele>737.0</ele><time>2026-05-03T13:44:03.962Z</time></trkpt><trkpt lat="44.0217263" lon="10.6615386"><ele>738.6666666666667</ele><time>2026-05-03T13:44:04.971Z</time></trkpt><trkpt lat="44.0217061" lon="10.6616421"><ele>740.3333333333334</ele><time>2026-05-03T13:44:05.97Z</time></trkpt><trkpt lat="44.0216702" lon="10.6617968"><ele>742.0</ele><time>2026-05-03T13:44:07.961Z</time></trkpt><trkpt lat="44.0216068" lon="10.6618482"><ele>748.0</ele><time>2026-05-03T13:44:09.97Z</time></trkpt><trkpt lat="44.0215309" lon="10.6617998"><ele>754.0</ele><time>2026-05-03T13:44:12.968Z</time></trkpt><trkpt lat="44.0214854" lon="10.6616881"><ele>760.0</ele><time>2026-05-03T13:44:14.965Z</time></trkpt><trkpt lat="44.0214523" lon="10.6615928"><ele>766.0</ele><time>2026-05-03T13:44:15.964Z</time></trkpt><trkpt lat="44.0214113" lon="10.6614772"><ele>771.9999999999999</ele><time>2026-05-03T13:44:16.965Z</time></trkpt><trkpt lat="44.0213695" lon="10.6613548"><ele>778.0</ele><time>2026-05-03T13:44:17.97Z</time></trkpt><trkpt lat="44.0213149" lon="10.6612336"><ele>777.9999999999999</ele><time>2026-05-03T13:44:18.972Z</time></trkpt><trkpt lat="44.0212591" lon="10.6611165"><ele>778.0</ele><time>2026-05-03T13:44:19.975Z</time></trkpt><trkpt lat="44.0212047" lon="10.661016"><ele>778.0</ele><time>2026-05-03T13:44:20.971Z</time></trkpt><trkpt lat="44.0211568" lon="10.660933"><ele>778.0</ele><time>2026-05-03T13:44:21.964Z</time></trkpt><trkpt lat="44.021098" lon="10.6608791"><ele>777.9999999999999</ele><time>2026-05-03T13:44:22.961Z</time></trkpt><trkpt lat="44.0210329" lon="10.6608381"><ele>778.0</ele><time>2026-05-03T13:44:23.979Z</time></trkpt><trkpt lat="44.0209633" lon="10.6608066"><ele>774.3333333333333</ele><time>2026-05-03T13:44:24.971Z</time></trkpt><trkpt lat="44.0208752" lon="10.6607745"><ele>770.6666666666666</ele><time>2026-05-03T13:44:25.97Z</time></trkpt><trkpt lat="44.0207951" lon="10.6607498"><ele>767.0</ele><time>2026-05-03T13:44:26.97Z</time></trkpt><trkpt lat="44.0207196" lon="10.6607417"><ele>763.3333333333333</ele><time>2026-05-03T13:44:27.968Z</time></trkpt><trkpt lat="44.0206402" lon="10.6607549"><ele>759.6666666666666</ele><time>2026-05-03T13:44:28.961Z</time></trkpt><trkpt lat="44.0205569" lon="10.6607853"><ele>756.0</ele><time>2026-05-03T13:44:29.972Z</time></trkpt><trkpt lat="44.020482" lon="10.6608339"><ele>755.8333333333334</ele><time>2026-05-03T13:44:30.981Z</time></trkpt><trkpt lat="44.020424" lon="10.6609104"><ele>755.6666666666666</ele><time>2026-05-03T13:44:31.971Z</time></trkpt><trkpt lat="44.0203615" lon="10.6609978"><ele>755.5</ele><time>2026-05-03T13:44:32.967Z</time></trkpt><trkpt lat="44.0203" lon="10.6610885"><ele>755.3333333333333</ele><time>2026-05-03T13:44:33.965Z</time></trkpt><trkpt lat="44.0202446" lon="10.6611894"><ele>755.1666666666666</ele><time>2026-05-03T13:44:34.964Z</time></trkpt><trkpt lat="44.0201843" lon="10.6612826"><ele>755.0</ele><time>2026-05-03T13:44:35.965Z</time></trkpt><trkpt lat="44.0201027" lon="10.6613507"><ele>760.0</ele><time>2026-05-03T13:44:36.964Z</time></trkpt><trkpt lat="44.0200153" lon="10.6613986"><ele>765.0</ele><time>2026-05-03T13:44:37.966Z</time></trkpt><trkpt lat="44.0199287" lon="10.661444"><ele>770.0</ele><time>2026-05-03T13:44:38.964Z</time></trkpt><trkpt lat="44.0198474" lon="10.6614782"><ele>775.0</ele><time>2026-05-03T13:44:39.956Z</time></trkpt><trkpt lat="44.0197828" lon="10.661508"><ele>780.0</ele><time>2026-05-03T13:44:40.96Z</time></trkpt><trkpt lat="44.0196979" lon="10.6616188"><ele>780.8333333333334</ele><time>2026-05-03T13:44:42.963Z</time></trkpt><trkpt lat="44.019663" lon="10.6617137"><ele>781.6666666666667</ele><time>2026-05-03T13:44:43.962Z</time></trkpt><trkpt lat="44.0196265" lon="10.6618167"><ele>782.5</ele><time>2026-05-03T13:44:44.964Z</time></trkpt><trkpt lat="44.0195893" lon="10.6619084"><ele>783.3333333333334</ele><time>2026-05-03T13:44:45.965Z</time></trkpt><trkpt lat="44.0195582" lon="10.6619888"><ele>784.1666666666667</ele><time>2026-05-03T13:44:46.955Z</time></trkpt><trkpt lat="44.0194709" lon="10.6620696"><ele>785.0</ele><time>2026-05-03T13:44:48.96Z</time></trkpt><trkpt lat="44.0193562" lon="10.6620262"><ele>785.0000000000001</ele><time>2026-05-03T13:44:50.957Z</time></trkpt><trkpt lat="44.0192803" lon="10.6619785"><ele>785.0</ele><time>2026-05-03T13:44:51.959Z</time></trkpt><trkpt lat="44.0191931" lon="10.661917"><ele>785.0</ele><time>2026-05-03T13:44:52.964Z</time></trkpt><trkpt lat="44.0191122" lon="10.6618469"><ele>785.0</ele><time>2026-05-03T13:44:53.968Z</time></trkpt><trkpt lat="44.0190365" lon="10.6617839"><ele>785.0000000000001</ele><time>2026-05-03T13:44:54.973Z</time></trkpt><trkpt lat="44.0189704" lon="10.6617263"><ele>785.0</ele><time>2026-05-03T13:44:55.952Z</time></trkpt><trkpt lat="44.0188726" lon="10.6616867"><ele>785.0000000000001</ele><time>2026-05-03T13:44:57.967Z</time></trkpt><trkpt lat="44.0187756" lon="10.6617468"><ele>785.0</ele><time>2026-05-03T13:44:59.962Z</time></trkpt><trkpt lat="44.0187204" lon="10.6618232"><ele>785.0</ele><time>2026-05-03T13:45:00.967Z</time></trkpt><trkpt lat="44.0186503" lon="10.6618881"><ele>785.0</ele><time>2026-05-03T13:45:01.969Z</time></trkpt><trkpt lat="44.0185687" lon="10.6619474"><ele>785.0000000000001</ele><time>2026-05-03T13:45:02.974Z</time></trkpt><trkpt lat="44.0184947" lon="10.6620102"><ele>785.0</ele><time>2026-05-03T13:45:03.97Z</time></trkpt><trkpt lat="44.0184407" lon="10.6620825"><ele>787.1666666666667</ele><time>2026-05-03T13:45:04.963Z</time></trkpt><trkpt lat="44.0184003" lon="10.6621694"><ele>789.3333333333334</ele><time>2026-05-03T13:45:05.959Z</time></trkpt><trkpt lat="44.0183693" lon="10.6622733"><ele>791.5</ele><time>2026-05-03T13:45:06.968Z</time></trkpt><trkpt lat="44.0183499" lon="10.6623886"><ele>793.6666666666667</ele><time>2026-05-03T13:45:07.964Z</time></trkpt><trkpt lat="44.0183352" lon="10.6625158"><ele>795.8333333333334</ele><time>2026-05-03T13:45:08.963Z</time></trkpt><trkpt lat="44.0183192" lon="10.6626275"><ele>798.0</ele><time>2026-05-03T13:45:09.964Z</time></trkpt><trkpt lat="44.0183133" lon="10.6627485"><ele>796.1666666666666</ele><time>2026-05-03T13:45:10.968Z</time></trkpt><trkpt lat="44.0183165" lon="10.6628769"><ele>794.3333333333333</ele><time>2026-05-03T13:45:11.972Z</time></trkpt><trkpt lat="44.0183211" lon="10.6630062"><ele>792.5</ele><time>2026-05-03T13:45:12.969Z</time></trkpt><trkpt lat="44.0183248" lon="10.6631282"><ele>790.6666666666666</ele><time>2026-05-03T13:45:13.969Z</time></trkpt><trkpt lat="44.0183259" lon="10.6632514"><ele>788.8333333333333</ele><time>2026-05-03T13:45:14.963Z</time></trkpt><trkpt lat="44.0183251" lon="10.6633702"><ele>787.0</ele><time>2026-05-03T13:45:15.968Z</time></trkpt><trkpt lat="44.0183218" lon="10.6634956"><ele>789.4999999999999</ele><time>2026-05-03T13:45:16.969Z</time></trkpt><trkpt lat="44.0183225" lon="10.6636222"><ele>792.0</ele><time>2026-05-03T13:45:17.972Z</time></trkpt><trkpt lat="44.0183315" lon="10.6637516"><ele>794.5</ele><time>2026-05-03T13:45:18.967Z</time></trkpt><trkpt lat="44.0183404" lon="10.6638451"><ele>797.0</ele><time>2026-05-03T13:45:19.972Z</time></trkpt><trkpt lat="44.0183057" lon="10.6640181"><ele>799.4999999999999</ele><time>2026-05-03T13:45:21.967Z</time></trkpt><trkpt lat="44.0182748" lon="10.6640979"><ele>802.0</ele><time>2026-05-03T13:45:22.966Z</time></trkpt><trkpt lat="44.0182582" lon="10.6641836"><ele>801.9999999999999</ele><time>2026-05-03T13:45:23.971Z</time></trkpt><trkpt lat="44.0182547" lon="10.6642748"><ele>802.0</ele><time>2026-05-03T13:45:24.968Z</time></trkpt><trkpt lat="44.0182562" lon="10.6643795"><ele>802.0</ele><time>2026-05-03T13:45:25.977Z</time></trkpt><trkpt lat="44.0182642" lon="10.6644804"><ele>802.0</ele><time>2026-05-03T13:45:26.961Z</time></trkpt><trkpt lat="44.0182723" lon="10.6645928"><ele>801.9999999999999</ele><time>2026-05-03T13:45:27.958Z</time></trkpt><trkpt lat="44.0182721" lon="10.6646991"><ele>802.0</ele><time>2026-05-03T13:45:28.962Z</time></trkpt><trkpt lat="44.018262" lon="10.6648165"><ele>804.8333333333333</ele><time>2026-05-03T13:45:29.96Z</time></trkpt><trkpt lat="44.018229" lon="10.6649263"><ele>807.6666666666666</ele><time>2026-05-03T13:45:30.972Z</time></trkpt><trkpt lat="44.0181805" lon="10.6650322"><ele>810.5</ele><time>2026-05-03T13:45:31.967Z</time></trkpt><trkpt lat="44.0181362" lon="10.6651368"><ele>813.3333333333333</ele><time>2026-05-03T13:45:32.97Z</time></trkpt><trkpt lat="44.0181006" lon="10.6652461"><ele>816.1666666666666</ele><time>2026-05-03T13:45:33.959Z</time></trkpt><trkpt lat="44.0180674" lon="10.6653669"><ele>819.0</ele><time>2026-05-03T13:45:34.963Z</time></trkpt><trkpt lat="44.0180319" lon="10.6654889"><ele>821.5</ele><time>2026-05-03T13:45:35.957Z</time></trkpt><trkpt lat="44.0179862" lon="10.6655998"><ele>824.0</ele><time>2026-05-03T13:45:36.967Z</time></trkpt><trkpt lat="44.0179332" lon="10.6656922"><ele>826.5</ele><time>2026-05-03T13:45:37.964Z</time></trkpt><trkpt lat="44.0178811" lon="10.66578"><ele>829.0</ele><time>2026-05-03T13:45:38.965Z</time></trkpt><trkpt lat="44.0178397" lon="10.6658643"><ele>831.5</ele><time>2026-05-03T13:45:39.964Z</time></trkpt><trkpt lat="44.0178148" lon="10.6659477"><ele>834.0</ele><time>2026-05-03T13:45:40.967Z</time></trkpt><trkpt lat="44.0178056" lon="10.6660424"><ele>835.6666666666666</ele><time>2026-05-03T13:45:41.964Z</time></trkpt><trkpt lat="44.0178241" lon="10.6661564"><ele>837.3333333333333</ele><time>2026-05-03T13:45:42.958Z</time></trkpt><trkpt lat="44.0178488" lon="10.666278"><ele>839.0</ele><time>2026-05-03T13:45:43.961Z</time></trkpt><trkpt lat="44.0178638" lon="10.6663967"><ele>840.6666666666666</ele><time>2026-05-03T13:45:44.963Z</time></trkpt><trkpt lat="44.0178754" lon="10.6665125"><ele>842.3333333333333</ele><time>2026-05-03T13:45:45.96Z</time></trkpt><trkpt lat="44.0178682" lon="10.6666305"><ele>844.0</ele><time>2026-05-03T13:45:46.954Z</time></trkpt><trkpt lat="44.0178552" lon="10.666761"><ele>843.9999999999999</ele><time>2026-05-03T13:45:47.963Z</time></trkpt><trkpt lat="44.0178271" lon="10.6668921"><ele>844.0</ele><time>2026-05-03T13:45:48.966Z</time></trkpt><trkpt lat="44.0177988" lon="10.667014"><ele>844.0</ele><time>2026-05-03T13:45:49.969Z</time></trkpt><trkpt lat="44.0177676" lon="10.6671294"><ele>844.0</ele><time>2026-05-03T13:45:50.965Z</time></trkpt><trkpt lat="44.0177511" lon="10.6672397"><ele>843.9999999999999</ele><time>2026-05-03T13:45:51.97Z</time></trkpt><trkpt lat="44.0177452" lon="10.6673507"><ele>844.0</ele><time>2026-05-03T13:45:52.97Z</time></trkpt><trkpt lat="44.0177432" lon="10.667474"><ele>847.2</ele><time>2026-05-03T13:45:53.973Z</time></trkpt><trkpt lat="44.0177304" lon="10.6675924"><ele>850.4000000000001</ele><time>2026-05-03T13:45:54.96Z</time></trkpt><trkpt lat="44.0177083" lon="10.6677185"><ele>853.6</ele><time>2026-05-03T13:45:55.958Z</time></trkpt><trkpt lat="44.0176634" lon="10.6678426"><ele>856.8</ele><time>2026-05-03T13:45:56.977Z</time></trkpt><trkpt lat="44.017611" lon="10.6679473"><ele>860.0</ele><time>2026-05-03T13:45:57.963Z</time></trkpt><trkpt lat="44.0175523" lon="10.6680511"><ele>858.5000000000001</ele><time>2026-05-03T13:45:58.966Z</time></trkpt><trkpt lat="44.0174989" lon="10.6681528"><ele>857.0</ele><time>2026-05-03T13:45:59.963Z</time></trkpt><trkpt lat="44.0174511" lon="10.668258"><ele>855.5</ele><time>2026-05-03T13:46:00.959Z</time></trkpt><trkpt lat="44.0174192" lon="10.6683543"><ele>854.0</ele><time>2026-05-03T13:46:01.958Z</time></trkpt><trkpt lat="44.0174005" lon="10.6684725"><ele>852.5000000000001</ele><time>2026-05-03T13:46:03.955Z</time></trkpt><trkpt lat="44.0174718" lon="10.6684794"><ele>851.0</ele><time>2026-05-03T13:46:05.952Z</time></trkpt><trkpt lat="44.0175764" lon="10.6684055"><ele>855.5999999999999</ele><time>2026-05-03T13:46:07.953Z</time></trkpt><trkpt lat="44.0176355" lon="10.6683362"><ele>860.2</ele><time>2026-05-03T13:46:08.955Z</time></trkpt><trkpt lat="44.0177108" lon="10.6682531"><ele>864.8000000000001</ele><time>2026-05-03T13:46:09.95Z</time></trkpt><trkpt lat="44.0177993" lon="10.6681516"><ele>869.4000000000001</ele><time>2026-05-03T13:46:10.954Z</time></trkpt><trkpt lat="44.0178879" lon="10.6680465"><ele>874.0</ele><time>2026-05-03T13:46:11.956Z</time></trkpt><trkpt lat="44.0179681" lon="10.6679616"><ele>874.0</ele><time>2026-05-03T13:46:12.959Z</time></trkpt><trkpt lat="44.0180526" lon="10.667896"><ele>874.0</ele><time>2026-05-03T13:46:13.951Z</time></trkpt><trkpt lat="44.01813" lon="10.6678403"><ele>874.0</ele><time>2026-05-03T13:46:14.954Z</time></trkpt></trkseg></trk></gpx>